# Wetter Temperatur Luftdruck Luftfeuchtigkeit Sichtweite Windgeschwindigkeit Windrichtung Zeit
1 Clouds 7 1021 54 10000 7.7 180 09:56 08.04.2020
2 Clouds 6 1021 69 10000 6.7 180 09:38 08.04.2020
3 Clouds 6 1021 69 10000 6.7 180 09:18 08.04.2020
4 Clouds 5 1021 69 10000 5.7 180 08:42 08.04.2020
5 Clouds 5 1021 69 10000 4.1 190 08:23 08.04.2020
6 Clouds 4 1022 64 10000 5.7 210 07:57 08.04.2020
7 Clouds 4 1022 64 10000 4.6 220 07:39 08.04.2020
8 Clouds 4 1022 64 10000 4.6 220 07:19 08.04.2020
9 Clouds 3 1022 64 10000 3.6 230 06:22 08.04.2020
10 Clouds 3 1024 64 10000 4.6 210 04:44 08.04.2020
11 Clouds 3 1025 59 10000 1 210 02:49 08.04.2020
12 Clouds 3 1025 55 10000 1 0 02:21 08.04.2020
13 Clouds 4 1025 55 10000 1 0 01:51 08.04.2020
14 Clouds 4 1025 55 10000 2.1 170 01:27 08.04.2020
15 Clouds 4 1025 45 10000 2.6 210 00:41 08.04.2020
16 Clouds 4 1025 45 10000 2.6 210 00:22 08.04.2020
17 Rain 5 1026 48 10000 1.5 240 23:40 07.04.2020
18 Rain 5 1026 48 10000 1.5 240 23:22 07.04.2020
19 Rain 6 1026 48 10000 1.5 240 22:58 07.04.2020
20 Clouds 6 1026 45 10000 2.6 220 22:40 07.04.2020
21 Clouds 7 1026 45 10000 2.6 220 22:21 07.04.2020
22 Clouds 7 1026 45 10000 2.6 270 21:58 07.04.2020
23 Clouds 8 1026 39 10000 2.6 250 21:40 07.04.2020
24 Clouds 8 1026 34 10000 1.5 250 21:20 07.04.2020
25 Clouds 8 1026 32 10000 2.1 260 20:57 07.04.2020
26 Clouds 9 1026 32 10000 2.1 260 20:39 07.04.2020
27 Clouds 9 1026 32 10000 2.1 260 20:20 07.04.2020
28 Clouds 10 1026 29 10000 3.1 230 19:57 07.04.2020
29 Clouds 11 1025 27 10000 2.1 280 19:37 07.04.2020
30 Clouds 12 1025 24 10000 2.6 310 19:18 07.04.2020
31 Clouds 12 1025 24 10000 2.6 310 19:18 07.04.2020
32 Clouds 13 1025 24 10000 2.6 310 18:57 07.04.2020
33 Clouds 13 1025 22 10000 3.6 290 18:39 07.04.2020
34 Rain 14 1025 22 10000 3.6 290 18:19 07.04.2020
35 Clear 14 1025 24 10000 4.1 280 17:44 07.04.2020
36 Clear 14 1025 22 10000 4.1 270 17:21 07.04.2020
37 Clear 14 1025 22 10000 4.6 300 16:47 07.04.2020
38 Clear 14 1024 26 10000 4.1 290 16:29 07.04.2020
39 Clear 14 1024 26 10000 4.1 290 15:58 07.04.2020
40 Clear 14 1024 26 10000 5.1 290 15:40 07.04.2020
41 Clear 14 1023 28 10000 5.1 270 15:22 07.04.2020
42 Clear 13 1023 27 10000 5.1 280 14:41 07.04.2020
43 Clear 13 1023 27 10000 5.1 280 14:22 07.04.2020
44 Clear 13 1023 30 10000 4.6 290 13:57 07.04.2020
45 Clear 13 1022 30 10000 5.1 310 13:38 07.04.2020
46 Clear 13 1022 30 10000 5.1 310 13:18 07.04.2020
47 Clear 13 1022 30 10000 5.1 310 13:18 07.04.2020
48 Clear 13 1021 32 10000 4.6 300 12:55 07.04.2020
49 Clear 13 1021 34 10000 5.1 290 12:36 07.04.2020
50 Clear 12 1021 34 10000 5.1 290 12:18 07.04.2020
51 Clear 11 1019 46 10000 5.7 310 11:44 07.04.2020
52 Clear 11 1019 46 10000 5.7 310 11:25 07.04.2020
53 Clear 11 1019 42 10000 5.7 310 10:58 07.04.2020
54 Clear 10 1018 42 10000 4.6 300 10:38 07.04.2020
55 Clear 10 1018 42 10000 4.6 300 10:19 07.04.2020
56 Clear 9 1017 57 10000 3.6 320 09:45 07.04.2020
57 Clouds 7 1017 70 10000 1.5 0 09:19 07.04.2020
58 Clouds 7 1017 70 10000 1.5 0 09:19 07.04.2020
59 Clouds 6 1016 93 6000 1 0 08:55 07.04.2020
60 Clouds 6 1016 93 6000 1 0 08:36 07.04.2020
61 Clouds 5 1016 93 6000 1 0 08:18 07.04.2020
62 Clouds 4 1015 93 9000 1 0 07:40 07.04.2020
63 Clouds 4 1015 93 9000 1 0 07:21 07.04.2020
64 Clouds 4 1015 93 7000 2.1 190 06:51 07.04.2020
65 Clouds 5 1015 86 7000 2.1 200 06:23 07.04.2020
66 Clouds 5 1015 93 9000 2.6 210 05:43 07.04.2020
67 Rain 5 1015 93 10000 3.6 180 05:22 07.04.2020
68 Rain 6 1015 86 10000 0.5 0 03:32 07.04.2020
69 Rain 6 1016 81 10000 1 0 02:59 07.04.2020
70 Clouds 6 1016 75 10000 3.1 200 01:57 07.04.2020
71 Clouds 6 1015 70 10000 3.6 170 01:29 07.04.2020
72 Clear 6 1016 65 10000 4.1 200 00:29 07.04.2020
73 Clear 6 1016 70 10000 4.1 190 23:57 06.04.2020
74 Clear 6 1016 75 10000 4.6 180 23:38 06.04.2020
75 Clear 6 1016 75 10000 4.6 180 23:19 06.04.2020
76 Clear 6 1017 83 10000 6.7 190 22:41 06.04.2020
77 Clear 7 1017 83 10000 6.7 190 22:22 06.04.2020
78 Clear 7 1017 83 10000 6.2 190 21:58 06.04.2020
79 Clear 7 1017 83 10000 8.2 190 21:40 06.04.2020
80 Clear 7 1017 75 10000 8.2 190 21:19 06.04.2020
81 Clear 8 1017 75 10000 8.7 190 20:56 06.04.2020
82 Clear 9 1017 46 10000 5.1 200 20:38 06.04.2020
83 Clear 9 1017 46 10000 5.1 200 20:19 06.04.2020
84 Clear 9 1019 61 10000 4.6 190 19:42 06.04.2020
85 Clear 10 1017 37 10000 7.2 200 19:23 06.04.2020
86 Clear 11 1017 37 10000 8.7 180 18:59 06.04.2020
87 Clear 11 1017 37 10000 8.7 180 18:41 06.04.2020
88 Clear 11 1019 57 10000 6.2 170 18:23 06.04.2020
89 Clear 12 1018 35 10000 8.7 200 17:55 06.04.2020
90 Clear 12 1018 35 10000 8.2 190 17:36 06.04.2020
91 Clear 13 1018 35 10000 8.2 190 17:18 06.04.2020
92 Clear 13 1018 35 10000 8.2 190 17:18 06.04.2020
93 Clear 13 1019 55 10000 6.2 200 16:45 06.04.2020
94 Clear 13 1019 55 10000 5.7 220 16:27 06.04.2020
95 Clouds 12 1019 51 10000 6.7 190 14:46 06.04.2020
96 Clouds 12 1019 51 10000 6.7 190 14:46 06.04.2020
97 Clouds 12 1019 51 10000 6.7 190 14:46 06.04.2020
98 Clouds 12 1019 51 10000 6.7 190 14:46 06.04.2020
99 Clouds 12 1019 51 10000 6.7 190 14:46 06.04.2020
100 Clouds 12 1020 54 10000 5.7 170 13:44 06.04.2020
101 Clouds 11 1020 53 10000 5.1 160 13:21 06.04.2020
102 Clouds 11 1021 57 10000 4.1 140 12:41 06.04.2020
103 Clouds 10 1021 61 10000 4.1 160 12:18 06.04.2020
104 Clouds 10 1021 61 10000 4.1 160 12:18 06.04.2020
105 Clouds 9 1021 61 10000 3.6 170 11:40 06.04.2020
106 Clouds 10 1021 61 10000 3.6 170 11:40 06.04.2020
107 Clouds 9 1021 61 10000 3.6 170 11:40 06.04.2020
108 Clouds 9 1021 61 10000 3.6 170 11:40 06.04.2020
109 Clouds 10 1021 61 10000 3.6 170 11:40 06.04.2020
110 Clouds 8 1022 68 10000 4.1 160 10:53 06.04.2020
111 Clouds 8 1022 68 10000 4.1 160 10:53 06.04.2020
112 Clouds 8 1022 68 10000 4.1 160 10:53 06.04.2020
113 Clouds 7 1022 70 10000 3.1 170 10:23 06.04.2020
114 Clouds 7 1022 70 10000 3.1 170 10:23 06.04.2020
115 Clouds 6 1022 70 10000 3.1 170 10:03 06.04.2020
116 Clouds 6 1022 70 10000 3.1 170 10:03 06.04.2020
117 Clouds 7 1022 70 10000 3.1 170 10:02 06.04.2020
118 Clouds 5 1022 80 10000 1 0 09:26 06.04.2020
119 Clouds 4 1022 93 10000 1 0 08:56 06.04.2020
120 Clouds 4 1022 93 10000 1 0 08:37 06.04.2020
121 Clouds 3 1022 93 10000 1 0 08:37 06.04.2020
122 Clouds 3 1022 93 10000 1 0 08:37 06.04.2020
123 Clouds 3 1022 86 10000 1.5 130 07:56 06.04.2020
124 Clouds 3 1022 86 10000 1.5 130 07:56 06.04.2020
125 Clouds 3 1022 86 10000 1.5 130 07:56 06.04.2020
126 Clouds 2 1022 86 10000 1 0 07:19 06.04.2020
127 Clouds 2 1023 86 0 3.1 140 06:26 06.04.2020
128 Clouds 2 1023 87 10000 2.41 170 05:40 06.04.2020
129 Clouds 3 1023 83 10000 2.6 160 03:29 06.04.2020
130 Clouds 3 1023 80 10000 1 0 02:49 06.04.2020
131 Clouds 3 1024 86 10000 3.6 190 01:52 06.04.2020
132 Clouds 3 1024 84 10000 3.1 170 00:51 06.04.2020
133 Clouds 4 1024 80 10000 1 0 00:27 06.04.2020
134 Clouds 4 1024 80 10000 1 0 00:27 06.04.2020
135 Clouds 3 1024 80 10000 2.24 172 23:49 05.04.2020
136 Clouds 3 1024 80 10000 1.5 190 23:30 05.04.2020
137 Clouds 3 1024 80 10000 1.5 190 23:30 05.04.2020
138 Fog 4 1024 86 10000 1.5 200 22:56 05.04.2020
139 Fog 4 1024 93 10000 1 0 22:38 05.04.2020
140 Fog 4 1024 93 10000 1 0 22:19 05.04.2020
141 Clouds 5 1024 93 10000 1 0 21:58 05.04.2020
142 Clouds 5 1024 93 10000 1 0 21:39 05.04.2020
143 Clouds 5 1024 86 10000 1.5 190 21:21 05.04.2020
144 Clouds 6 1024 87 10000 1 0 20:20 05.04.2020
145 Clouds 7 1024 81 10000 1.5 230 19:41 05.04.2020
146 Clouds 8 1024 81 10000 3.6 210 19:22 05.04.2020
147 Clouds 8 1024 81 10000 4.1 200 18:46 05.04.2020
148 Clouds 8 1024 81 10000 4.1 200 18:46 05.04.2020
149 Clouds 9 1024 81 10000 5.1 190 17:58 05.04.2020
150 Clouds 9 1024 81 10000 5.1 190 17:58 05.04.2020
151 Clouds 9 1024 81 10000 5.1 190 17:39 05.04.2020
152 Clouds 9 1024 81 10000 5.7 190 17:20 05.04.2020
153 Clouds 9 1024 81 10000 5.7 190 17:20 05.04.2020
154 Clouds 9 1025 81 10000 5.7 200 16:46 05.04.2020
155 Clouds 9 1025 81 10000 5.7 200 16:45 05.04.2020
156 Clouds 9 1025 81 10000 5.7 200 16:45 05.04.2020
157 Clouds 9 1025 81 10000 5.7 200 16:45 05.04.2020
158 Clouds 9 1025 81 10000 5.7 200 16:45 05.04.2020
159 Clouds 8 1025 81 10000 6.2 190 16:18 05.04.2020
160 Clouds 8 1025 87 10000 5.7 190 15:44 05.04.2020
161 Clouds 8 1025 87 10000 6.2 190 15:25 05.04.2020
162 Clouds 8 1025 87 10000 6.2 190 15:25 05.04.2020
163 Clouds 7 1025 87 10000 4.1 200 14:48 05.04.2020
164 Clouds 7 1025 87 10000 4.1 200 14:48 05.04.2020
165 Clouds 7 1025 87 10000 4.1 200 14:48 05.04.2020
166 Clouds 7 1025 87 10000 4.1 200 14:48 05.04.2020
167 Clouds 7 1025 87 10000 4.1 200 14:47 05.04.2020
168 Clouds 6 1025 93 7000 4.6 190 13:46 05.04.2020
169 Clouds 6 1025 93 7000 4.6 190 13:46 05.04.2020
170 Clouds 6 1025 93 7000 4.6 190 13:46 05.04.2020
171 Drizzle 6 1025 100 3200 4.1 180 12:57 05.04.2020
172 Mist 6 1027 93 0 3.6 180 12:57 05.04.2020
173 Rain 5 1025 100 3900 4.1 180 11:58 05.04.2020
174 Rain 5 1025 100 3900 4.1 180 11:58 05.04.2020
175 Rain 5 1025 100 3900 4.1 180 11:58 05.04.2020
176 Rain 5 1025 100 3900 4.1 180 11:38 05.04.2020
177 Rain 5 1025 100 10000 2.6 170 11:19 05.04.2020
178 Rain 4 1025 100 8000 3.1 170 10:44 05.04.2020
179 Rain 4 1025 100 8000 3.1 170 10:44 05.04.2020
180 Rain 4 1025 100 8000 3.1 170 10:44 05.04.2020
181 Rain 4 1025 100 8000 3.1 170 10:44 05.04.2020
182 Rain 4 1025 93 8000 3.6 160 10:19 05.04.2020
183 Drizzle 4 1025 100 7000 3.1 170 09:52 05.04.2020
184 Drizzle 4 1025 100 7000 3.1 170 09:52 05.04.2020
185 Drizzle 4 1025 100 7000 3.1 170 09:52 05.04.2020
186 Drizzle 4 1025 100 7000 3.1 170 09:52 05.04.2020
187 Drizzle 4 1025 100 7000 3.1 170 09:52 05.04.2020
188 Drizzle 3 1025 100 7000 2.6 160 09:25 05.04.2020
189 Drizzle 3 1025 100 7000 2.6 160 09:25 05.04.2020
190 Drizzle 3 1025 100 7000 2.6 160 09:25 05.04.2020
191 Clouds 3 1025 93 8000 2.6 170 07:58 05.04.2020
192 Drizzle 3 1024 93 10000 2.6 140 07:58 05.04.2020
193 Drizzle 2 1023 90 10000 3.1 190 04:56 05.04.2020
194 Clouds 2 1023 90 10000 2.1 160 03:35 05.04.2020
195 Clouds 2 1023 86 10000 2.1 170 02:53 05.04.2020
196 Clouds 2 1022 80 10000 1 0 01:51 05.04.2020
197 Clouds 2 1022 80 10000 1 0 01:32 05.04.2020
198 Clouds 2 1022 74 10000 2.6 210 00:48 05.04.2020
199 Clouds 2 1022 69 10000 2.1 180 00:22 05.04.2020
200 Clouds 2 1022 69 10000 2.1 180 00:22 05.04.2020
201 Clouds 2 1021 69 10000 1 0 23:57 04.04.2020
202 Clouds 2 1021 69 10000 1 0 23:38 04.04.2020
203 Clouds 2 1021 64 10000 1 0 23:20 04.04.2020
204 Clouds 3 1020 59 10000 3.6 210 22:56 04.04.2020
205 Clouds 3 1020 59 10000 3.6 210 22:37 04.04.2020
206 Clouds 3 1020 51 10000 2.6 200 22:19 04.04.2020
207 Clouds 3 1020 47 10000 4.1 220 21:54 04.04.2020
208 Clouds 3 1020 47 10000 4.1 220 21:36 04.04.2020
209 Clouds 3 1020 44 10000 3.1 190 21:18 04.04.2020
210 Clouds 4 1019 40 10000 4.1 210 20:42 04.04.2020
211 Clouds 4 1019 35 10000 4.1 190 20:23 04.04.2020
212 Clouds 4 1019 35 10000 4.1 190 19:59 04.04.2020
213 Clouds 5 1019 24 10000 2.1 240 19:37 04.04.2020
214 Clouds 6 1018 26 10000 4.1 230 19:19 04.04.2020
215 Clouds 6 1018 28 10000 3.1 230 18:57 04.04.2020
216 Clouds 6 1018 28 10000 3.1 230 18:38 04.04.2020
217 Clouds 6 1018 26 10000 4.1 230 18:19 04.04.2020
218 Clouds 6 1017 26 10000 5.7 220 17:56 04.04.2020
219 Clouds 7 1017 26 10000 5.7 220 17:38 04.04.2020
220 Clouds 7 1017 26 10000 6.7 230 17:19 04.04.2020
221 Clouds 6 1017 26 10000 5.1 230 16:42 04.04.2020
222 Clouds 6 1017 26 10000 6.2 230 16:23 04.04.2020
223 Clouds 6 1017 24 10000 5.1 230 15:58 04.04.2020
224 Clouds 6 1017 24 10000 5.1 230 15:38 04.04.2020
225 Clouds 6 1016 26 10000 5.1 230 15:19 04.04.2020
226 Clouds 6 1016 26 10000 5.1 230 15:19 04.04.2020
227 Clouds 6 1016 26 10000 5.1 230 15:19 04.04.2020
228 Clouds 6 1016 27 10000 4.6 230 14:46 04.04.2020
229 Clouds 6 1019 38 10000 4.6 230 14:25 04.04.2020
230 Clouds 6 1016 27 10000 4.1 280 13:58 04.04.2020
231 Clouds 6 1016 27 10000 4.1 280 13:40 04.04.2020
232 Clouds 6 1015 29 10000 4.1 310 13:20 04.04.2020
233 Clouds 5 1015 29 10000 4.6 290 12:55 04.04.2020
234 Clouds 5 1015 29 10000 4.6 290 12:55 04.04.2020
235 Clouds 5 1015 29 10000 4.6 290 12:36 04.04.2020
236 Clouds 5 1015 29 10000 4.6 260 12:18 04.04.2020
237 Clouds 4 1014 29 10000 4.6 300 11:41 04.04.2020
238 Clouds 4 1014 29 10000 4.6 280 11:23 04.04.2020
239 Clouds 4 1013 34 10000 5.1 230 10:58 04.04.2020
240 Clouds 3 1013 34 10000 5.1 230 10:40 04.04.2020
241 Clouds 3 1015 47 10000 6.2 270 10:21 04.04.2020
242 Clouds 2 1012 43 10000 4.1 220 09:55 04.04.2020
243 Clouds 2 1012 43 10000 4.1 220 09:37 04.04.2020
244 Clear 1 1012 81 10000 3.6 230 09:19 04.04.2020
245 Clear 0 1012 54 10000 3.6 240 08:42 04.04.2020
246 Clear -1 1011 58 10000 3.6 250 08:23 04.04.2020
247 Clear -2 1010 58 10000 3.6 250 07:55 04.04.2020
248 Clear -2 1010 58 10000 3.6 250 07:37 04.04.2020
249 Clear -3 1010 58 10000 3.1 250 07:19 04.04.2020
250 Clear -3 1009 58 10000 3.1 250 06:22 04.04.2020
251 Clear -3 1009 58 10000 1.5 310 05:51 04.04.2020
252 Clear -2 1009 54 10000 2.6 250 05:32 04.04.2020
253 Clear -2 1008 54 10000 2.6 230 04:34 04.04.2020
254 Clear -2 1008 46 10000 1.5 0 03:55 04.04.2020
255 Clear -2 1008 54 10000 1.5 0 03:27 04.04.2020
256 Clear -1 1007 50 10000 2.1 180 02:42 04.04.2020
257 Clear -1 1007 50 10000 1 0 02:24 04.04.2020
258 Clear -1 1006 50 10000 2.1 260 01:27 04.04.2020
259 Clear -1 1006 46 10000 1.5 270 00:57 04.04.2020
260 Clear -1 1006 46 10000 3.1 260 00:30 04.04.2020
261 Clear 0 1005 84 10000 3.1 260 23:56 03.04.2020
262 Clear 0 1005 84 10000 3.1 260 23:37 03.04.2020
263 Clear 0 1005 84 10000 3.1 260 23:18 03.04.2020
264 Clear 1 1005 84 10000 3.1 250 22:40 03.04.2020
265 Clear 1 1004 34 10000 1.5 0 22:19 03.04.2020
266 Clear 1 1004 34 10000 1.5 0 21:56 03.04.2020
267 Clear 2 1004 34 10000 2.6 250 21:38 03.04.2020
268 Clouds 2 1004 34 10000 1.5 0 21:20 03.04.2020
269 Clouds 2 1003 31 10000 2.6 300 20:55 03.04.2020
270 Clouds 3 1003 31 10000 2.6 300 20:36 03.04.2020
271 Clouds 3 1002 27 10000 3.6 300 20:18 03.04.2020
272 Clouds 4 1002 25 10000 4.1 290 19:55 03.04.2020
273 Clouds 4 1002 25 10000 4.1 290 19:36 03.04.2020
274 Clouds 4 1001 23 10000 4.1 290 19:18 03.04.2020
275 Clouds 5 1001 25 10000 4.1 280 18:56 03.04.2020
276 Clouds 5 1000 29 10000 5.7 330 18:38 03.04.2020
277 Clouds 5 1000 29 10000 5.7 330 18:20 03.04.2020
278 Rain 6 1000 27 10000 3.6 290 17:41 03.04.2020
279 Rain 6 999 35 10000 3.1 340 17:19 03.04.2020
280 Rain 6 999 38 10000 5.7 350 16:55 03.04.2020
281 Rain 6 999 38 10000 5.7 350 16:36 03.04.2020
282 Rain 6 999 38 10000 4.6 10 16:18 03.04.2020
283 Clouds 6 1000 22 10000 9.3 290 15:55 03.04.2020
284 Clouds 6 998 40 10000 6.2 350 15:36 03.04.2020
285 Clouds 6 998 40 10000 6.2 350 15:18 03.04.2020
286 Clouds 5 982 33 0 0.89 5 14:40 03.04.2020
287 Rain 6 996 27 10000 3.6 280 14:22 03.04.2020
288 Rain 6 996 27 10000 3.6 280 13:46 03.04.2020
289 Rain 6 996 27 10000 3.6 280 13:27 03.04.2020
290 Clouds 6 995 27 10000 4.1 280 12:58 03.04.2020
291 Clouds 6 995 27 10000 4.1 280 12:40 03.04.2020
292 Clouds 5 995 29 10000 4.1 280 12:18 03.04.2020
293 Clouds 5 995 32 10000 4.1 290 11:56 03.04.2020
294 Clouds 5 994 34 10000 4.6 280 11:37 03.04.2020
295 Clouds 5 994 34 10000 4.6 280 11:18 03.04.2020
296 Clouds 4 994 34 10000 4.1 290 10:57 03.04.2020
297 Clouds 4 994 34 10000 4.1 290 10:57 03.04.2020
298 Clouds 5 994 34 10000 4.1 290 10:38 03.04.2020
299 Clouds 4 993 34 10000 4.6 300 10:38 03.04.2020
300 Clouds 4 993 34 10000 4.6 300 10:20 03.04.2020
301 Clouds 4 993 34 10000 4.6 300 10:20 03.04.2020
302 Clouds 3 992 37 10000 4.6 300 09:56 03.04.2020
303 Clouds 3 992 37 10000 4.6 300 09:38 03.04.2020
304 Clear 3 992 37 10000 4.1 300 09:20 03.04.2020
305 Clear 2 991 40 10000 3.6 300 08:45 03.04.2020
306 Clear 1 991 77 10000 2.1 300 08:25 03.04.2020
307 Clear 0 990 50 10000 1.5 290 07:59 03.04.2020
308 Clear 0 990 50 10000 1.5 290 07:40 03.04.2020
309 Clear 0 990 77 10000 1.5 280 07:22 03.04.2020
310 Clear 0 988 77 10000 2.1 310 06:28 03.04.2020
311 Clear 1 987 54 10000 1.5 360 05:43 03.04.2020
312 Clear 1 985 47 10000 2.1 340 04:30 03.04.2020
313 Clear 1 984 47 10000 3.1 330 03:35 03.04.2020
314 Clouds 2 983 43 10000 4.6 310 02:40 03.04.2020
315 Clouds 2 981 47 10000 2.6 300 01:25 03.04.2020
316 Clouds 2 980 50 10000 2.6 300 00:52 03.04.2020
317 Clouds 2 980 50 10000 2.6 300 00:33 03.04.2020
318 Clouds 1 979 55 10000 3.1 270 23:55 02.04.2020
319 Clouds 1 979 55 10000 3.1 270 23:37 02.04.2020
320 Clouds 1 978 55 10000 3.1 0 23:18 02.04.2020
321 Clouds 1 978 55 10000 3.1 0 23:18 02.04.2020
322 Clouds 1 978 55 10000 3.1 280 22:42 02.04.2020
323 Clouds 1 978 55 10000 3.1 280 22:42 02.04.2020
324 Clouds 1 977 55 10000 4.1 260 22:23 02.04.2020
325 Clouds 1 977 55 10000 3.6 250 21:59 02.04.2020
326 Clouds 1 977 55 10000 3.6 250 21:37 02.04.2020
327 Snow 1 977 55 10000 3.1 270 21:18 02.04.2020
328 Snow 1 976 64 10000 4.1 240 20:45 02.04.2020
329 Rain 1 976 59 10000 4.1 240 20:25 02.04.2020
330 Rain 1 976 51 10000 3.6 250 19:59 02.04.2020
331 Rain 1 976 59 10000 4.1 240 19:59 02.04.2020
332 Rain 2 976 51 10000 3.6 250 19:40 02.04.2020
333 Rain 2 976 47 10000 4.1 270 19:20 02.04.2020
334 Rain 3 976 37 10000 3.6 280 18:56 02.04.2020
335 Rain 3 976 37 10000 3.6 280 18:37 02.04.2020
336 Clouds 4 976 37 10000 8.2 250 18:18 02.04.2020
337 Clouds 5 975 32 10000 6.2 250 17:43 02.04.2020
338 Clouds 5 976 32 10000 6.7 250 17:24 02.04.2020
339 Clouds 5 976 32 10000 7.7 240 16:58 02.04.2020
340 Clouds 6 976 32 10000 7.7 240 16:40 02.04.2020
341 Rain 5 976 38 10000 5.7 270 16:22 02.04.2020
342 Clouds 6 976 48 10000 4.6 280 15:57 02.04.2020
343 Clouds 6 976 48 10000 4.6 280 15:39 02.04.2020
344 Clouds 6 976 55 10000 5.7 270 15:19 02.04.2020
345 Rain 6 981 56 10000 10.8 270 14:57 02.04.2020
346 Snow 5 977 74 10000 5.1 250 14:38 02.04.2020
347 Rain 4 977 69 10000 7.7 260 14:18 02.04.2020
348 Rain 6 977 69 10000 6.7 230 13:55 02.04.2020
349 Rain 6 977 69 10000 6.7 230 13:37 02.04.2020
350 Rain 6 977 65 10000 12.3 220 13:18 02.04.2020
351 Rain 7 977 65 10000 11.3 200 12:45 02.04.2020
352 Rain 7 977 65 10000 11.3 200 12:45 02.04.2020
353 Rain 7 977 65 10000 11.3 200 12:45 02.04.2020
354 Rain 6 979 52 10000 12.9 190 12:20 02.04.2020
355 Clouds 7 979 48 10000 12.3 190 11:58 02.04.2020
356 Clouds 8 979 48 10000 12.3 190 11:39 02.04.2020
357 Clouds 7 981 52 10000 11.3 200 11:20 02.04.2020
358 Clouds 7 981 52 10000 11.3 200 11:20 02.04.2020
359 Clear 7 982 56 10000 10.8 200 10:57 02.04.2020
360 Clear 7 982 56 10000 10.8 200 10:38 02.04.2020
361 Clear 7 983 52 10000 12.3 210 10:20 02.04.2020
362 Clear 6 983 52 10000 12.3 210 10:20 02.04.2020
363 Clouds 6 984 55 10000 7.2 200 09:59 02.04.2020
364 Clouds 6 984 55 10000 7.2 200 09:41 02.04.2020
365 Clouds 4 985 59 10000 7.7 200 09:21 02.04.2020
366 Clear 4 986 59 10000 6.7 210 08:47 02.04.2020
367 Clear 3 987 69 10000 4.1 160 08:28 02.04.2020
368 Clear 2 989 76 10000 5.1 160 07:59 02.04.2020
369 Clear 2 989 76 10000 5.1 160 07:40 02.04.2020
370 Clear 1 989 76 10000 5.1 160 07:19 02.04.2020
371 Clear 1 991 76 10000 5.7 190 06:25 02.04.2020
372 Clear 1 991 64 10000 4.1 220 05:46 02.04.2020
373 Clear 1 993 83 10000 2.6 180 04:58 02.04.2020
374 Clear 3 994 48 10000 3.6 250 02:21 02.04.2020
375 Clear 4 995 44 10000 3.1 250 01:27 02.04.2020
376 Clear 4 995 48 10000 2.6 260 00:41 02.04.2020
377 Clear 5 995 52 10000 3.1 240 00:19 02.04.2020
378 Clear 5 995 52 10000 3.1 220 23:39 01.04.2020
379 Clear 5 995 52 10000 1.5 240 23:19 01.04.2020
380 Clear 6 995 52 10000 3.1 240 22:57 01.04.2020
381 Clear 6 995 52 10000 3.1 240 22:38 01.04.2020
382 Clear 6 995 48 10000 3.6 240 22:19 01.04.2020
383 Clear 7 995 45 10000 2.1 260 21:41 01.04.2020
384 Clouds 7 995 45 10000 4.6 250 21:19 01.04.2020
385 Clouds 7 995 45 10000 4.6 250 21:19 01.04.2020
386 Clouds 8 995 49 10000 2.1 260 20:56 01.04.2020
387 Clouds 8 995 49 10000 2.1 260 20:38 01.04.2020
388 Clouds 8 995 49 10000 3.1 200 20:19 01.04.2020
389 Clouds 9 995 45 10000 6.2 200 19:58 01.04.2020
390 Clouds 9 995 45 10000 6.2 200 19:38 01.04.2020
391 Clouds 10 995 42 10000 5.7 210 19:19 01.04.2020
392 Clouds 10 996 37 10000 6.2 220 18:42 01.04.2020
393 Clouds 10 996 37 10000 6.2 220 18:42 01.04.2020
394 Clouds 10 996 40 10000 6.7 210 18:23 01.04.2020
395 Clouds 10 997 42 10000 8.2 220 17:57 01.04.2020
396 Clouds 9 997 42 10000 8.2 220 17:38 01.04.2020
397 Clouds 9 998 49 10000 6.7 210 17:19 01.04.2020
398 Clouds 9 998 49 10000 7.2 210 16:58 01.04.2020
399 Clouds 9 998 49 10000 7.2 210 16:39 01.04.2020
400 Clouds 9 999 45 10000 7.2 210 16:21 01.04.2020
401 Clouds 9 999 45 10000 7.2 200 15:57 01.04.2020
402 Clouds 9 1000 45 10000 6.2 200 15:37 01.04.2020
403 Clouds 9 1000 45 10000 6.2 200 15:18 01.04.2020
404 Clouds 9 1000 45 10000 5.7 200 14:55 01.04.2020
405 Clouds 9 1000 45 10000 5.7 200 14:55 01.04.2020
406 Clouds 9 1000 45 10000 5.7 200 14:36 01.04.2020
407 Clouds 9 1001 42 10000 5.7 210 14:18 01.04.2020
408 Clouds 9 1001 39 10000 3.6 230 13:55 01.04.2020
409 Clouds 9 1002 39 10000 4.1 220 13:36 01.04.2020
410 Clouds 9 1002 39 10000 4.1 220 13:18 01.04.2020
411 Clouds 9 1002 42 10000 3.6 220 12:42 01.04.2020
412 Clouds 9 1002 49 10000 3.6 200 12:23 01.04.2020
413 Clouds 8 1003 52 10000 4.1 170 11:59 01.04.2020
414 Clouds 7 1003 52 10000 4.1 170 11:39 01.04.2020
415 Clouds 7 1003 56 10000 4.6 180 11:20 01.04.2020
416 Clouds 6 1004 60 10000 3.1 190 10:41 01.04.2020
417 Clouds 6 1004 60 10000 3.1 180 10:22 01.04.2020
418 Clouds 5 1004 60 10000 3.1 180 09:59 01.04.2020
419 Clouds 5 1004 64 10000 1 0 09:40 01.04.2020
420 Clouds 3 1005 74 10000 1 180 09:21 01.04.2020
421 Clouds 3 1005 74 10000 1.5 200 08:57 01.04.2020
422 Clouds 2 1005 74 10000 1.5 200 08:38 01.04.2020
423 Clouds 2 1005 69 10000 1.5 210 08:18 01.04.2020
424 Clouds 2 1006 74 10000 1.5 190 07:41 01.04.2020
425 Clouds 2 1006 74 10000 1.5 220 07:19 01.04.2020
426 Clouds 2 1006 69 10000 1.5 210 06:47 01.04.2020
427 Clouds 2 1007 69 10000 1.5 190 06:21 01.04.2020
428 Clouds 2 1007 64 10000 1 210 05:53 01.04.2020
429 Clouds 2 1008 59 10000 1.5 170 04:29 01.04.2020
430 Clouds 3 1009 56 10000 1.5 0 03:21 01.04.2020
431 Clouds 3 1009 56 10000 2.1 0 02:46 01.04.2020
432 Clouds 3 1009 55 10000 1 0 01:53 01.04.2020
433 Clouds 3 1010 60 10000 2.1 360 01:29 01.04.2020
434 Clouds 3 1010 59 10000 1.5 0 00:48 01.04.2020
435 Clouds 4 1010 55 10000 1.5 350 00:25 01.04.2020
436 Clouds 4 1010 52 10000 2.1 340 23:59 31.03.2020
437 Clouds 4 1010 52 10000 2.1 340 23:41 31.03.2020
438 Clouds 5 1010 48 10000 2.1 30 23:22 31.03.2020
439 Clouds 5 1010 48 10000 2.1 30 23:22 31.03.2020
440 Clouds 5 1011 45 10000 2.6 280 22:42 31.03.2020
441 Clouds 5 1011 45 10000 2.6 280 22:23 31.03.2020
442 Clouds 6 1011 42 10000 3.6 300 21:59 31.03.2020
443 Clouds 6 1011 42 10000 3.6 300 21:59 31.03.2020
444 Clouds 6 1011 45 10000 2.1 0 21:41 31.03.2020
445 Clouds 6 1011 45 10000 2.1 0 21:22 31.03.2020
446 Clouds 7 1011 45 10000 2.1 0 20:58 31.03.2020
447 Clouds 7 1011 42 10000 3.6 270 20:38 31.03.2020
448 Clouds 8 1011 42 10000 3.6 270 20:20 31.03.2020
449 Clouds 8 1012 39 10000 3.1 0 19:59 31.03.2020
450 Clouds 8 1012 39 10000 3.1 0 19:40 31.03.2020
451 Clouds 9 1012 36 10000 4.6 0 19:21 31.03.2020
452 Clouds 10 1012 37 10000 5.1 280 18:54 31.03.2020
453 Clouds 10 1012 37 10000 5.1 280 18:36 31.03.2020
454 Clouds 10 1013 36 10000 3.1 0 18:18 31.03.2020
455 Clouds 10 1014 36 10000 4.1 0 17:54 31.03.2020
456 Clouds 10 1014 36 10000 4.1 0 17:36 31.03.2020
457 Clouds 10 1014 36 10000 4.1 0 17:36 31.03.2020
458 Clouds 10 1014 36 10000 3.1 240 17:18 31.03.2020
459 Clouds 10 1015 36 10000 1.5 290 16:37 31.03.2020
460 Clouds 10 1015 36 10000 2.6 280 16:18 31.03.2020
461 Clouds 9 1015 36 10000 3.1 260 15:56 31.03.2020
462 Clouds 9 1015 36 10000 3.1 260 15:37 31.03.2020
463 Clear 9 1016 36 10000 4.1 250 15:19 31.03.2020
464 Clear 10 1016 34 10000 4.6 250 14:56 31.03.2020
465 Clear 10 1016 34 10000 4.6 250 14:38 31.03.2020
466 Clear 9 1016 34 10000 5.7 250 14:18 31.03.2020
467 Clear 9 1017 34 10000 4.6 270 13:41 31.03.2020
468 Clear 9 1017 34 10000 5.7 240 13:19 31.03.2020
469 Clear 9 1017 39 10000 5.1 220 12:55 31.03.2020
470 Clear 8 1017 39 10000 5.1 220 12:37 31.03.2020
471 Clear 6 1018 42 10000 5.1 200 12:18 31.03.2020
472 Clear 6 1019 45 10000 4.6 220 11:38 31.03.2020
473 Clear 5 1019 44 10000 4.1 200 11:19 31.03.2020
474 Clear 5 1020 48 10000 4.1 190 10:57 31.03.2020
475 Clear 5 1020 48 10000 4.1 190 10:39 31.03.2020
476 Clear 4 1021 51 10000 4.1 180 10:21 31.03.2020
477 Clear 3 1021 55 10000 3.6 160 09:56 31.03.2020
478 Clear 3 1021 55 10000 3.6 160 09:37 31.03.2020
479 Clear 2 1021 55 10000 3.6 160 09:37 31.03.2020
480 Clouds 1 1022 85 10000 3.6 170 09:19 31.03.2020
481 Clouds 0 1022 63 10000 3.1 170 08:56 31.03.2020
482 Clouds -1 1022 63 10000 3.1 170 08:37 31.03.2020
483 Clouds -1 1023 68 10000 3.1 200 08:18 31.03.2020
484 Clouds -2 1023 68 10000 3.1 200 07:54 31.03.2020
485 Clouds -2 1023 68 10000 3.1 200 07:36 31.03.2020
486 Clouds -3 1024 73 10000 3.6 200 07:18 31.03.2020
487 Clouds -3 1024 68 10000 3.6 190 06:42 31.03.2020
488 Clouds -2 1025 63 10000 4.1 170 05:53 31.03.2020
489 Clouds -2 1025 63 10000 3.1 200 05:26 31.03.2020
490 Clouds -2 1028 68 10000 2.1 200 02:57 31.03.2020
491 Clouds -2 1028 68 10000 1 0 01:47 31.03.2020
492 Clouds -2 1028 68 10000 1.5 200 01:27 31.03.2020
493 Clouds -2 1028 63 10000 1 0 00:43 31.03.2020
494 Clear -2 1029 63 10000 0.6 176 00:23 31.03.2020
495 Clear -2 1029 63 10000 0.6 176 23:41 30.03.2020
496 Clear -2 1029 58 10000 1 0 23:20 30.03.2020
497 Clear -2 1029 58 10000 1 0 23:20 30.03.2020
498 Clear -2 1029 58 10000 1 330 22:58 30.03.2020
499 Clear -2 1029 58 10000 1 330 22:38 30.03.2020
500 Clear -1 1029 58 10000 0.6 176 22:19 30.03.2020
501 Clear -1 1029 85 10000 0.6 176 21:57 30.03.2020
502 Clear 0 1029 85 10000 0.6 176 21:38 30.03.2020
503 Clouds 0 1028 40 10000 1.06 7 21:20 30.03.2020
504 Clouds 0 1028 40 10000 1.06 7 21:20 30.03.2020
505 Clouds 1 1028 40 10000 1.5 270 20:58 30.03.2020
506 Clouds 1 1028 40 10000 1.5 270 20:39 30.03.2020
507 Clouds 2 1028 37 10000 2.6 360 20:20 30.03.2020
508 Clouds 2 1028 34 10000 4.6 30 19:56 30.03.2020
509 Clouds 3 1028 34 10000 4.6 30 19:37 30.03.2020
510 Clouds 4 1028 34 10000 4.6 10 19:19 30.03.2020
511 Clouds 5 1028 29 10000 5.7 360 18:42 30.03.2020
512 Clouds 5 1028 29 10000 5.7 360 18:42 30.03.2020
513 Clouds 5 1028 32 10000 7.7 360 18:24 30.03.2020
514 Clouds 5 1028 29 10000 5.7 360 17:58 30.03.2020
515 Clouds 5 1028 29 10000 5.7 360 17:39 30.03.2020
516 Clouds 5 1028 29 10000 7.7 360 17:19 30.03.2020
517 Clouds 5 1028 32 10000 7.7 360 16:58 30.03.2020
518 Clouds 5 1029 30 10000 4.6 30 16:39 30.03.2020
519 Clouds 5 1028 32 10000 5.1 10 16:20 30.03.2020
520 Clouds 5 1028 34 10000 5.1 20 15:55 30.03.2020
521 Clouds 5 1028 34 10000 5.1 20 15:37 30.03.2020
522 Clear 5 1029 30 10000 4.6 20 15:19 30.03.2020
523 Clear 5 1029 30 10000 4.6 20 15:19 30.03.2020
524 Clear 4 1028 37 10000 6.7 360 14:56 30.03.2020
525 Clear 5 1028 37 10000 6.7 360 14:37 30.03.2020
526 Rain 4 1028 37 10000 6.7 10 14:18 30.03.2020
527 Rain 4 1028 40 10000 5.1 20 13:55 30.03.2020
528 Rain 4 1028 40 10000 5.1 20 13:37 30.03.2020
529 Rain 4 1028 40 10000 5.1 360 13:19 30.03.2020
530 Clouds 3 1028 40 10000 4.1 360 12:44 30.03.2020
531 Clouds 3 1028 43 10000 4.1 360 12:21 30.03.2020
532 Clouds 3 1028 43 10000 4.1 340 11:57 30.03.2020
533 Clouds 3 1028 43 10000 4.1 340 11:39 30.03.2020
534 Clear 3 1028 47 10000 4.1 350 11:21 30.03.2020
535 Clear 3 1028 50 10000 2.1 0 10:41 30.03.2020
536 Clear 2 1028 63 10000 2.6 300 10:23 30.03.2020
537 Clear 2 1028 63 10000 2.1 290 09:59 30.03.2020
538 Clear 1 1028 63 10000 2.1 290 09:40 30.03.2020
539 Clouds 0 1028 58 10000 2.1 330 09:19 30.03.2020
540 Clouds 0 1027 58 10000 3.1 350 08:47 30.03.2020
541 Clouds -1 1027 63 10000 2.1 320 08:28 30.03.2020
542 Clouds -1 1027 63 10000 2.1 320 08:28 30.03.2020
543 Clouds -1 1026 63 10000 2.1 300 07:58 30.03.2020
544 Clouds -1 1026 63 10000 2.1 300 07:39 30.03.2020
545 Clouds -2 1026 63 10000 1.5 330 07:18 30.03.2020
546 Clouds -1 1025 68 10000 4.1 350 06:39 30.03.2020
547 Clouds -1 1025 68 10000 4.1 350 06:19 30.03.2020
548 Clouds -1 1025 58 10000 2.6 340 05:39 30.03.2020
549 Clouds 0 1025 58 10000 3.1 330 04:28 30.03.2020
550 Clouds 0 1025 90 10000 4.1 350 03:52 30.03.2020
551 Clouds 0 1024 80 10000 3.1 10 02:44 30.03.2020
552 Clouds 0 1024 88 10000 3.1 350 01:54 30.03.2020
553 Clouds 1 1024 69 10000 5.1 10 00:57 30.03.2020
554 Clouds 1 1023 59 10000 6.2 360 00:26 30.03.2020
555 Clouds 1 1023 47 10000 2.6 340 23:55 29.03.2020
556 Clouds 1 1023 47 10000 2.6 340 23:36 29.03.2020
557 Clouds 1 1023 47 10000 3.1 310 23:18 29.03.2020
558 Clouds 1 1023 47 10000 2.6 310 22:40 29.03.2020
559 Clouds 2 1023 44 10000 2.6 310 22:20 29.03.2020
560 Clouds 2 1023 40 10000 1.5 350 21:59 29.03.2020
561 Clouds 2 1023 40 10000 1.5 350 21:37 29.03.2020
562 Clouds 2 1023 38 10000 1 0 21:19 29.03.2020
563 Clouds 3 1023 38 10000 1.5 330 20:55 29.03.2020
564 Clouds 3 1023 38 10000 1.5 330 20:37 29.03.2020
565 Clouds 3 1023 38 10000 1.5 310 20:18 29.03.2020
566 Clouds 3 1023 38 10000 1.5 310 20:18 29.03.2020
567 Clouds 3 1023 38 10000 1.5 310 20:18 29.03.2020
568 Clouds 4 1023 38 10000 2.6 290 19:55 29.03.2020
569 Clouds 4 1024 32 10000 4.1 270 19:37 29.03.2020
570 Clouds 5 1024 32 10000 4.1 270 19:19 29.03.2020
571 Clouds 5 1024 35 10000 2.1 260 18:55 29.03.2020
572 Clouds 5 1024 35 10000 2.1 260 18:37 29.03.2020
573 Clouds 5 1025 32 10000 3.6 280 18:18 29.03.2020
574 Clouds 5 1025 30 10000 2.1 250 17:54 29.03.2020
575 Clouds 5 1025 27 10000 3.1 290 17:36 29.03.2020
576 Clouds 5 1025 27 10000 3.1 290 17:18 29.03.2020
577 Clouds 5 1025 27 10000 3.1 290 17:18 29.03.2020
578 Clouds 5 1026 27 10000 5.1 290 16:55 29.03.2020
579 Clouds 5 1026 27 10000 5.1 290 16:36 29.03.2020
580 Clouds 5 1026 27 10000 5.1 290 16:36 29.03.2020
581 Clouds 6 1026 26 10000 5.1 290 16:18 29.03.2020
582 Clouds 6 1027 30 10000 4.6 240 15:40 29.03.2020
583 Clouds 6 1028 27 10000 4.6 230 15:21 29.03.2020
584 Clouds 5 1029 29 10000 4.6 230 14:57 29.03.2020
585 Clouds 5 1029 29 10000 4.6 230 14:38 29.03.2020
586 Clouds 5 1029 29 10000 4.6 200 14:19 29.03.2020
587 Clouds 5 1030 29 10000 4.6 230 13:56 29.03.2020
588 Clouds 4 1030 29 10000 4.6 230 13:37 29.03.2020
589 Clouds 4 1033 29 0 3.6 260 13:19 29.03.2020
590 Clouds 4 1031 31 10000 3.6 280 12:54 29.03.2020
591 Clouds 3 1031 31 10000 4.1 290 12:36 29.03.2020
592 Clear 3 1031 31 10000 4.1 290 12:18 29.03.2020
593 Clear 3 1032 31 10000 4.6 240 11:39 29.03.2020
594 Clear 2 1032 29 10000 3.6 260 11:21 29.03.2020
595 Clear 1 1032 59 10000 2.6 280 10:55 29.03.2020
596 Clear 1 1032 59 10000 2.6 280 10:37 29.03.2020
597 Clear 0 1033 42 10000 3.6 300 10:18 29.03.2020
598 Clear -1 1033 46 10000 4.1 310 09:39 29.03.2020
599 Clear -2 1033 49 10000 3.6 300 09:19 29.03.2020
600 Clear -2 1033 49 10000 3.6 310 08:52 29.03.2020
601 Clear -3 1033 53 10000 2.1 310 08:28 29.03.2020
602 Clear -4 1033 53 10000 3.1 280 07:58 29.03.2020
603 Clear -4 1033 53 10000 3.1 280 07:39 29.03.2020
604 Clear -4 1033 53 10000 2.6 300 07:20 29.03.2020
605 Clear -3 1034 53 10000 2.1 290 04:59 29.03.2020
606 Clear -3 1034 53 10000 1.5 330 03:48 29.03.2020
607 Clear -3 1034 53 10000 2.1 330 03:26 29.03.2020
608 Clear -3 1034 53 10000 2.6 330 01:50 29.03.2020
609 Clear -2 1034 53 10000 3.1 350 01:23 29.03.2020
610 Clear -2 1033 53 10000 4.6 350 00:53 29.03.2020
611 Clear -2 1033 53 10000 6.2 350 00:30 29.03.2020
612 Clear -1 1033 50 10000 7.2 10 23:42 28.03.2020
613 Clear -1 1032 50 10000 6.7 360 23:23 28.03.2020
614 Clear -1 1032 50 10000 6.7 360 22:57 28.03.2020
615 Clear -1 1032 50 10000 6.7 360 22:37 28.03.2020
616 Clear 0 1032 42 10000 6.7 10 22:19 28.03.2020
617 Clear 0 1031 46 10000 8.2 10 21:42 28.03.2020
618 Clear 0 1031 46 10000 7.7 10 21:24 28.03.2020
619 Clear 1 1030 79 10000 8.2 360 20:58 28.03.2020
620 Clear 1 1030 81 10000 8.2 360 20:39 28.03.2020
621 Clouds 1 1030 75 10000 8.2 360 20:21 28.03.2020
622 Clouds 1 1029 75 10000 8.7 360 19:56 28.03.2020
623 Clouds 2 1029 75 10000 8.7 360 19:37 28.03.2020
624 Clouds 2 1029 75 10000 8.7 360 19:37 28.03.2020
625 Clouds 2 1028 37 10000 7.7 360 19:19 28.03.2020
626 Clouds 3 1028 37 10000 10.3 10 18:55 28.03.2020
627 Clouds 3 1027 37 10000 9.8 10 18:36 28.03.2020
628 Clouds 3 1027 37 10000 9.8 10 18:18 28.03.2020
629 Rain 4 1027 29 10000 9.3 10 17:38 28.03.2020
630 Rain 5 1026 35 10000 7.2 10 17:19 28.03.2020
631 Rain 5 1026 32 10000 9.8 10 16:42 28.03.2020
632 Clouds 6 1025 33 0 7.7 360 16:20 28.03.2020
633 Rain 6 1025 32 10000 9.3 360 15:56 28.03.2020
634 Clouds 6 1025 30 10000 7.7 20 15:38 28.03.2020
635 Rain 7 1025 33 10000 8.2 360 15:18 28.03.2020
636 Clouds 7 1025 28 10000 9.3 10 14:42 28.03.2020
637 Clouds 6 1025 35 10000 8.7 360 14:22 28.03.2020
638 Clouds 7 1025 35 10000 8.7 360 13:57 28.03.2020
639 Clouds 7 1024 33 10000 8.7 360 13:37 28.03.2020
640 Clouds 7 1024 33 10000 8.7 360 13:18 28.03.2020
641 Clouds 7 1024 35 10000 7.2 360 12:38 28.03.2020
642 Clouds 7 1024 30 10000 8.7 20 12:19 28.03.2020
643 Clouds 6 1024 35 10000 7.7 350 11:42 28.03.2020
644 Clouds 6 1024 35 10000 7.7 350 11:42 28.03.2020
645 Clouds 6 1024 35 10000 7.7 350 11:21 28.03.2020
646 Clouds 5 1024 35 10000 9.3 360 10:55 28.03.2020
647 Clouds 5 1024 35 10000 9.3 360 10:36 28.03.2020
648 Clouds 5 1024 32 10000 8.2 350 10:18 28.03.2020
649 Clouds 4 1024 32 10000 6.7 360 09:40 28.03.2020
650 Clouds 4 1023 35 10000 6.7 360 09:22 28.03.2020
651 Clouds 3 1023 37 10000 6.2 350 08:45 28.03.2020
652 Clear 2 1023 37 10000 7.2 360 08:25 28.03.2020
653 Clear 1 1023 37 10000 7.2 360 07:59 28.03.2020
654 Clear 1 1023 59 10000 3.1 350 07:41 28.03.2020
655 Clear 0 1022 69 10000 3.1 350 06:54 28.03.2020
656 Clear 0 1022 64 10000 2.1 310 06:29 28.03.2020
657 Clear 0 1022 64 10000 2.1 310 05:38 28.03.2020
658 Clear 0 1022 64 10000 2.1 310 05:19 28.03.2020
659 Clear -1 1022 89 10000 1 0 04:39 28.03.2020
660 Clear -1 1022 92 10000 1 0 02:52 28.03.2020
661 Clouds -1 1022 86 10000 1.5 150 01:48 28.03.2020
662 Clouds -1 1022 80 10000 2.1 30 01:23 28.03.2020
663 Clouds -1 1022 86 10000 0.96 279 00:51 28.03.2020
664 Clouds 0 1023 87 10000 0.96 279 00:28 28.03.2020
665 Clouds 0 1023 80 10000 1.5 290 23:44 27.03.2020
666 Clouds 0 1023 80 10000 1.5 290 23:26 27.03.2020
667 Clouds 1 1023 80 10000 2.6 250 22:57 27.03.2020
668 Clouds 1 1023 80 10000 2.6 250 22:39 27.03.2020
669 Clouds 1 1023 80 10000 2.6 250 22:39 27.03.2020
670 Clouds 1 1023 74 10000 2.6 260 22:20 27.03.2020
671 Clouds 2 1023 74 10000 2.1 260 21:58 27.03.2020
672 Clouds 2 1023 83 10000 1 0 21:40 27.03.2020
673 Clouds 2 1023 83 10000 1 0 21:22 27.03.2020
674 Clouds 3 1023 86 10000 1.5 250 20:57 27.03.2020
675 Clouds 3 1023 80 10000 1.5 220 20:38 27.03.2020
676 Clouds 4 1023 80 10000 1.5 220 20:19 27.03.2020
677 Clouds 4 1023 80 10000 1.5 220 20:19 27.03.2020
678 Clouds 4 1023 80 10000 1.5 220 20:19 27.03.2020
679 Clouds 4 1024 80 10000 3.1 210 19:54 27.03.2020
680 Clouds 5 1024 80 10000 3.1 210 19:36 27.03.2020
681 Clouds 5 1023 75 10000 3.1 210 19:18 27.03.2020
682 Clouds 6 1023 70 10000 3.1 210 18:42 27.03.2020
683 Clouds 7 1023 70 10000 3.1 210 18:22 27.03.2020
684 Clouds 7 1024 75 10000 3.6 190 17:41 27.03.2020
685 Clouds 8 1024 75 10000 4.6 190 17:21 27.03.2020
686 Clouds 8 1024 75 10000 3.6 180 16:57 27.03.2020
687 Clouds 8 1024 75 10000 3.6 180 16:39 27.03.2020
688 Clouds 8 1024 75 10000 3.6 180 16:20 27.03.2020
689 Clouds 8 1025 75 10000 3.6 190 15:43 27.03.2020
690 Clouds 8 1002 67 0 0.45 267 15:25 27.03.2020
691 Clouds 8 1003 67 0 0.45 227 14:48 27.03.2020
692 Clouds 8 1003 67 0 0.45 225 14:27 27.03.2020
693 Clouds 8 1003 64 0 2.38 201 13:58 27.03.2020
694 Clouds 8 1003 63 0 2.38 201 13:40 27.03.2020
695 Clouds 8 1003 62 0 0.45 90 13:21 27.03.2020
696 Clouds 8 1003 66 0 0.45 90 12:57 27.03.2020
697 Clouds 7 1003 71 0 0.45 137 12:39 27.03.2020
698 Clouds 7 1004 74 0 1.9 201 12:19 27.03.2020
699 Clouds 6 1004 74 0 0.45 180 11:41 27.03.2020
700 Clouds 6 1004 75 0 1.55 187 11:23 27.03.2020
701 Clouds 6 1004 75 0 1.55 187 11:23 27.03.2020
702 Clouds 6 1004 76 0 1.55 187 10:55 27.03.2020
703 Clouds 6 1004 75 0 0.45 313 10:37 27.03.2020
704 Clouds 5 1004 76 0 1.55 187 10:19 27.03.2020
705 Clouds 5 1004 79 0 1.55 187 09:57 27.03.2020
706 Clouds 5 1004 80 0 0.45 88 09:37 27.03.2020
707 Clouds 5 1004 80 0 0.45 178 09:18 27.03.2020
708 Clouds 4 1004 82 0 0.45 221 08:56 27.03.2020
709 Clouds 4 1004 84 0 0.89 269 08:38 27.03.2020
710 Clouds 4 1004 85 0 0.45 179 08:20 27.03.2020
711 Clouds 3 1004 87 0 0.58 181 07:50 27.03.2020
712 Clouds 3 1004 88 0 0.45 153 07:24 27.03.2020
713 Clouds 3 1004 89 0 0.45 358 06:53 27.03.2020
714 Clouds 3 1004 90 0 0.89 88 06:35 27.03.2020
715 Clouds 3 1004 86 0 0.45 138 04:59 27.03.2020
716 Clouds 3 1005 81 0 0.9 162 02:36 27.03.2020
717 Clouds 3 1005 81 0 0.45 311 01:23 27.03.2020
718 Clouds 3 1005 80 0 0.45 135 00:50 27.03.2020
719 Clouds 3 1005 80 0 0.45 355 00:31 27.03.2020
720 Clouds 4 1005 79 0 0.45 315 23:44 26.03.2020
721 Clouds 4 1005 76 0 0.89 269 23:23 26.03.2020
722 Clouds 4 1005 74 0 0.45 225 22:59 26.03.2020
723 Clouds 4 1005 73 0 0.45 45 22:38 26.03.2020
724 Clouds 4 1005 72 0 0.45 160 22:20 26.03.2020
725 Clouds 4 1005 71 0 1.28 176 21:57 26.03.2020
726 Clouds 4 1005 71 0 0.45 178 21:39 26.03.2020
727 Clouds 4 1005 71 0 0.45 135 21:20 26.03.2020
728 Clouds 4 1005 70 0 0.89 188 20:58 26.03.2020
729 Clouds 4 1005 70 0 0.45 270 20:38 26.03.2020
730 Clouds 4 1005 70 0 0.45 270 20:38 26.03.2020
731 Clouds 4 1005 70 0 0.45 183 20:20 26.03.2020
732 Clouds 5 1005 68 0 0.89 226 19:55 26.03.2020
733 Clouds 5 1005 68 0 0.45 225 19:37 26.03.2020
734 Clouds 5 1005 67 0 0.89 137 19:19 26.03.2020
735 Clouds 5 1005 66 0 0.89 177 18:55 26.03.2020
736 Clouds 6 1005 65 0 0.89 179 18:36 26.03.2020
737 Clouds 6 1005 64 0 0.45 179 18:18 26.03.2020
738 Clouds 6 1004 63 0 1.34 315 17:42 26.03.2020
739 Clouds 6 1005 62 0 1.34 180 17:18 26.03.2020
740 Clouds 7 1005 61 0 0.45 135 16:45 26.03.2020
741 Clouds 7 1005 60 0 0.89 222 16:26 26.03.2020
742 Clouds 8 1005 59 0 0.45 335 15:58 26.03.2020
743 Clouds 8 1005 59 0 1.34 270 15:39 26.03.2020
744 Clouds 8 1005 60 0 1.34 135 15:20 26.03.2020
745 Clouds 9 1005 60 0 0.89 268 14:57 26.03.2020
746 Clouds 9 1004 55 0 1.34 137 14:37 26.03.2020
747 Clouds 10 1004 55 0 0.89 180 14:18 26.03.2020
748 Clouds 11 1004 59 0 0.45 225 13:41 26.03.2020
749 Clouds 10 1026 61 0 2.88 191 13:22 26.03.2020
750 Clouds 10 1004 67 0 0.45 225 12:56 26.03.2020
751 Clouds 9 1004 69 0 2.88 191 12:37 26.03.2020
752 Clouds 9 1004 71 0 0.89 226 12:18 26.03.2020
753 Clouds 8 1004 80 0 0.45 180 11:44 26.03.2020
754 Clouds 7 1004 81 0 0.45 179 11:20 26.03.2020
755 Clouds 7 1004 83 0 0.45 218 10:56 26.03.2020
756 Clouds 6 1004 84 0 0.45 46 10:36 26.03.2020
757 Clouds 6 1004 85 0 0.89 93 10:18 26.03.2020
758 Clouds 5 1004 87 0 0.89 143 09:42 26.03.2020
759 Clouds 5 1004 90 0 0.89 178 09:19 26.03.2020
760 Clouds 5 1004 90 0 0.45 223 08:46 26.03.2020
761 Clouds 4 1004 91 0 0.45 135 08:27 26.03.2020
762 Clouds 4 1003 91 0 0.89 177 07:58 26.03.2020
763 Clouds 4 1003 91 0 0.89 137 07:40 26.03.2020
764 Clouds 4 1003 91 0 0.45 267 07:20 26.03.2020
765 Clouds 3 1003 91 0 0.45 135 06:46 26.03.2020
766 Clouds 3 1003 91 0 0.89 282 05:52 26.03.2020
767 Clouds 3 1002 91 0 0.89 93 03:52 26.03.2020
768 Clouds 3 1002 91 0 1.34 159 03:33 26.03.2020
769 Clouds 3 1002 90 0 0.45 263 02:53 26.03.2020
770 Clouds 4 1002 90 0 0.45 227 01:20 26.03.2020
771 Clouds 4 1001 88 0 1.34 137 00:33 26.03.2020
772 Clouds 3 1001 87 0 0.89 177 23:44 25.03.2020
773 Clouds 4 1001 86 0 0.45 91 23:26 25.03.2020
774 Clouds 4 1002 86 0 0.45 221 22:56 25.03.2020
775 Clouds 4 1002 86 0 0.45 90 22:38 25.03.2020
776 Clouds 4 1002 86 0 3.98 191 22:19 25.03.2020
777 Clouds 4 1001 85 0 0.45 270 21:54 25.03.2020
778 Clouds 4 1001 84 0 0.89 179 21:36 25.03.2020
779 Clouds 4 1001 84 0 0.45 135 21:18 25.03.2020
780 Clouds 5 1001 83 0 3.98 191 20:39 25.03.2020
781 Clouds 5 1001 83 0 0.45 91 20:20 25.03.2020
782 Clouds 5 1001 83 0 0.45 90 19:57 25.03.2020
783 Clouds 5 1001 83 0 0.89 180 19:38 25.03.2020
784 Clouds 6 1001 83 0 0.89 201 19:20 25.03.2020
785 Clouds 6 1000 82 0 1.34 356 18:54 25.03.2020
786 Clouds 6 1000 82 0 1.34 269 18:36 25.03.2020
787 Clouds 6 1000 82 0 1.34 269 18:36 25.03.2020
788 Clouds 6 1000 81 0 2.24 178 18:18 25.03.2020
789 Clouds 6 1000 80 0 2.68 182 17:41 25.03.2020
790 Clouds 6 1000 80 0 2.68 200 17:22 25.03.2020
791 Clouds 6 1000 80 0 2.68 200 17:22 25.03.2020
792 Clouds 7 1000 78 0 2.24 313 16:59 25.03.2020
793 Clouds 7 1000 78 0 2.24 132 16:39 25.03.2020
794 Clouds 7 1000 76 0 2.24 184 16:21 25.03.2020
795 Clouds 7 1000 76 0 2.24 184 16:21 25.03.2020
796 Clouds 8 1000 73 0 1.34 174 15:43 25.03.2020
797 Clouds 8 1000 72 0 2.24 179 15:21 25.03.2020
798 Clouds 7 1000 66 0 2.24 183 14:59 25.03.2020
799 Clouds 8 1000 66 0 2.24 315 14:40 25.03.2020
800 Clouds 8 999 67 0 2.24 133 14:20 25.03.2020
801 Clouds 8 999 65 0 1.79 290 13:46 25.03.2020
802 Clouds 8 999 65 0 1.34 181 13:25 25.03.2020
803 Clouds 8 999 63 0 1.34 0 12:54 25.03.2020
804 Clouds 8 999 62 0 2.24 135 12:36 25.03.2020
805 Clouds 8 999 61 0 1.79 178 12:18 25.03.2020
806 Clouds 9 999 59 0 1.79 135 11:41 25.03.2020
807 Clouds 7 1004 27 0 4.47 213 11:21 25.03.2020
808 Clouds 8 999 57 0 2.24 0 10:59 25.03.2020
809 Clouds 8 999 57 0 2.24 0 10:59 25.03.2020
810 Clouds 6 1004 28 0 4.02 157 10:40 25.03.2020
811 Clouds 8 999 57 0 1.79 182 10:40 25.03.2020
812 Clouds 8 999 59 0 0.89 316 10:19 25.03.2020
813 Clouds 7 999 60 0 1.34 229 09:58 25.03.2020
814 Clouds 7 999 62 0 0.45 2 09:39 25.03.2020
815 Clouds 7 999 68 0 1.34 182 09:21 25.03.2020
816 Clouds 6 999 70 0 2.24 135 08:43 25.03.2020
817 Clouds 5 998 72 0 2.24 136 08:25 25.03.2020
818 Clouds 4 998 73 0 2.68 223 07:58 25.03.2020
819 Clouds 4 998 73 0 2.68 180 07:38 25.03.2020
820 Clouds 4 998 73 0 1.34 315 07:18 25.03.2020
821 Clouds 4 998 73 0 1.79 136 06:43 25.03.2020
822 Clouds 4 998 73 0 1.34 176 06:25 25.03.2020
823 Clouds 3 998 74 0 1.34 135 05:47 25.03.2020
824 Clouds 3 999 74 0 1.34 270 04:46 25.03.2020
825 Clouds 3 999 74 0 1.79 131 03:58 25.03.2020
826 Clouds 3 999 74 0 3.13 292 03:34 25.03.2020
827 Clouds 4 1000 75 0 0.89 312 01:41 25.03.2020
828 Clouds 4 1000 75 0 0.89 312 01:41 25.03.2020
829 Clouds 4 1000 75 0 0.89 312 01:41 25.03.2020
830 Clouds 4 1000 75 0 0.89 312 01:41 25.03.2020
831 Clouds 4 1000 75 0 2.24 182 00:58 25.03.2020
832 Clouds 4 1000 74 0 2.24 135 00:40 25.03.2020
833 Clouds 4 1000 72 0 2.24 0 00:18 25.03.2020
834 Clouds 4 1000 73 0 2.24 317 23:40 24.03.2020
835 Clouds 4 1000 73 0 2.24 136 23:21 24.03.2020
836 Clouds 4 1001 73 0 1.34 3 22:55 24.03.2020
837 Clouds 4 1000 73 0 1.34 184 22:36 24.03.2020
838 Clouds 4 1000 73 0 2.24 229 22:18 24.03.2020
839 Clouds 4 1001 73 0 1.79 132 21:43 24.03.2020
840 Clouds 4 1001 73 0 1.79 69 21:19 24.03.2020
841 Clouds 4 1001 72 0 1.34 178 20:59 24.03.2020
842 Clouds 4 1001 72 0 2.24 91 20:41 24.03.2020
843 Clouds 4 1001 72 0 2.24 73 20:23 24.03.2020
844 Clouds 4 1001 72 0 3.13 222 19:48 24.03.2020
845 Clouds 4 1001 72 0 3.13 222 19:48 24.03.2020
846 Clouds 4 1001 72 0 2.24 137 19:24 24.03.2020
847 Clouds 4 1001 71 0 2.24 158 18:59 24.03.2020
848 Clouds 4 1002 71 0 3.13 222 18:40 24.03.2020
849 -273 0 0 0 0 0 18:20 24.03.2020
850 Clouds 4 1001 72 0 2.68 158 18:20 24.03.2020
851 Clouds 4 1002 72 0 1.79 340 17:59 24.03.2020
852 Clouds 4 1002 73 0 3.13 223 17:40 24.03.2020
853 Clouds 4 1002 74 0 1.79 180 17:22 24.03.2020
854 Clouds 5 1024 65 10000 9.8 190 16:57 24.03.2020
855 Clouds 5 1024 65 10000 9.8 190 16:38 24.03.2020
856 Clouds 5 1024 65 10000 9.8 200 16:20 24.03.2020
857 Clouds 5 1024 65 10000 8.7 200 15:44 24.03.2020
858 Clouds 5 1024 65 10000 9.8 200 15:25 24.03.2020
859 Clouds 5 1024 65 10000 10.8 200 14:59 24.03.2020
860 Clouds 5 1024 65 10000 10.8 200 14:40 24.03.2020
861 Clouds 71 1026 62 0 7.66 200 14:18 24.03.2020
862 Clouds 71 1026 62 0 7.66 200 13:42 24.03.2020
863 Clouds 71 1026 62 0 7.57 201 13:23 24.03.2020
864 Clouds 71 1026 62 0 7.57 201 13:23 24.03.2020
865 Clouds 71 1026 62 0 7.57 201 12:47 24.03.2020
866 Clouds 71 1026 62 0 7.57 201 12:28 24.03.2020
867 Clouds 71 1026 62 0 7.57 201 11:59 24.03.2020
868 Clouds 5 1025 69 10000 9.3 200 11:39 24.03.2020
869 Clouds 5 1025 69 10000 9.3 200 11:19 24.03.2020
870 Clouds 4 1025 69 10000 9.8 200 10:42 24.03.2020
871 Clouds 4 1025 69 10000 9.8 200 10:19 24.03.2020
872 Clouds 4 1025 74 10000 9.3 200 09:57 24.03.2020
873 Clouds 4 1025 74 10000 9.3 200 09:39 24.03.2020
874 Clouds 4 1025 74 10000 10.3 200 09:20 24.03.2020
875 Clouds 3 1025 74 10000 8.2 200 08:38 24.03.2020
876 Clouds 3 1025 80 10000 10.3 200 08:20 24.03.2020
877 Clouds 3 1025 80 10000 9.8 200 07:47 24.03.2020
878 Clouds 3 1025 80 10000 10.3 190 07:24 24.03.2020
879 Clouds 3 1025 80 10000 9.8 200 06:52 24.03.2020
880 Clouds 2 1025 80 10000 9.8 180 06:25 24.03.2020
881 Clouds 2 1026 74 10000 9.3 190 04:57 24.03.2020
882 Clouds 2 1026 74 10000 9.8 190 03:48 24.03.2020
883 Clouds 2 1026 69 10000 7.7 190 03:18 24.03.2020
884 Clouds 1 1027 66 10000 6.7 190 01:45 24.03.2020
885 Clouds 2 1027 74 10000 7.7 200 00:46 24.03.2020
886 Clouds 2 1027 74 10000 8.7 200 00:24 24.03.2020
887 Clouds 2 1028 74 10000 9.3 200 23:44 23.03.2020
888 Clouds 2 1028 74 10000 8.2 200 23:26 23.03.2020
889 Clouds 2 1028 74 10000 9.3 200 22:55 23.03.2020
890 Clouds 2 1028 74 10000 9.3 200 22:55 23.03.2020
891 Clouds 2 1028 74 10000 9.3 200 22:37 23.03.2020
892 Clouds 2 1028 74 10000 9.8 200 22:19 23.03.2020
893 Clouds 2 1028 74 10000 9.8 200 21:43 23.03.2020
894 Clouds 2 1028 74 10000 9.3 200 21:20 23.03.2020
895 Rain 2 1028 74 10000 8.2 190 20:58 23.03.2020
896 Rain 3 1028 74 10000 8.2 190 20:39 23.03.2020
897 Rain 3 1028 80 10000 7.7 190 20:21 23.03.2020
898 Rain 3 1028 80 10000 8.7 190 19:45 23.03.2020
899 Rain 3 1028 74 10000 9.3 190 19:27 23.03.2020
900 Rain 3 1029 74 10000 9.8 200 18:59 23.03.2020
901 Rain 3 1029 74 10000 9.8 190 18:41 23.03.2020
902 Rain 3 1029 74 10000 9.8 190 18:21 23.03.2020
903 Clouds 3 1029 69 10000 9.8 190 17:56 23.03.2020
904 Clouds 4 1033 76 10000 7.7 190 17:37 23.03.2020
905 Clouds 4 1033 68 10000 7.7 190 17:18 23.03.2020
906 Clouds 4 1030 64 10000 8.7 200 16:43 23.03.2020
907 Clouds 5 1030 64 10000 9.3 200 16:24 23.03.2020
908 Clouds 5 1030 64 10000 8.7 210 15:42 23.03.2020
909 Clouds 5 1030 64 10000 8.7 210 15:42 23.03.2020
910 Clouds 5 1030 60 10000 7.7 200 15:20 23.03.2020
911 Clouds 4 1031 60 10000 7.7 200 14:55 23.03.2020
912 Clouds 4 1031 60 10000 7.7 200 14:36 23.03.2020
913 Clouds 4 1031 55 10000 7.7 210 14:18 23.03.2020
914 Clouds 5 1031 55 10000 8.2 190 13:41 23.03.2020
915 Clouds 5 1031 52 10000 7.7 190 13:22 23.03.2020
916 Clouds 5 1031 55 10000 7.7 210 12:55 23.03.2020
917 Clouds 4 1031 51 10000 8.7 200 12:37 23.03.2020
918 Clouds 4 1031 51 10000 8.7 200 12:19 23.03.2020
919 Clouds 4 1032 59 10000 9.3 200 11:42 23.03.2020
920 Clouds 4 1032 55 10000 7.7 200 11:42 23.03.2020
921 Clouds 4 1032 59 10000 9.3 200 11:21 23.03.2020
922 Clouds 4 1032 59 10000 7.2 200 10:58 23.03.2020
923 Clouds 4 1032 59 10000 7.2 200 10:39 23.03.2020
924 Clouds 3 1032 59 10000 7.7 200 10:21 23.03.2020
925 Clouds 3 1032 64 10000 8.2 210 09:57 23.03.2020
926 Clouds 3 1032 64 10000 6.2 210 09:37 23.03.2020
927 Clouds 3 1032 64 10000 6.2 210 09:18 23.03.2020
928 Clouds 3 1032 69 10000 5.7 200 08:37 23.03.2020
929 Clouds 2 1032 69 10000 5.7 210 08:19 23.03.2020
930 Clouds 2 1032 69 10000 7.2 210 07:50 23.03.2020
931 Clouds 2 1032 69 10000 7.2 210 07:50 23.03.2020
932 Clouds 2 1032 69 10000 6.7 210 07:31 23.03.2020
933 Clouds 2 1032 69 10000 7.2 210 06:53 23.03.2020
934 Clouds 2 1032 69 10000 7.2 210 06:32 23.03.2020
935 Clouds 2 1032 69 10000 6.7 210 05:42 23.03.2020
936 Clouds 2 1033 70 10000 4.6 200 03:45 23.03.2020
937 Clouds 1 1033 70 10000 5.1 180 02:43 23.03.2020
938 Clouds 1 1034 74 10000 5.7 190 01:38 23.03.2020
939 Clouds 0 1034 73 10000 5.1 180 00:44 23.03.2020
940 Clouds 0 1034 73 10000 4.6 160 23:54 22.03.2020
941 Clouds 0 1034 73 10000 4.6 160 23:36 22.03.2020
942 Clouds 0 1034 78 10000 4.6 170 23:18 22.03.2020
943 Clouds 1 1035 74 10000 4.6 180 22:40 22.03.2020
944 Clouds 0 1035 74 10000 4.6 180 22:19 22.03.2020
945 Clouds 1 1035 78 10000 4.6 190 21:40 22.03.2020
946 Clouds 1 1035 74 10000 5.7 180 21:21 22.03.2020
947 Clouds 1 1035 74 10000 6.2 190 20:58 22.03.2020
948 Clouds 1 1035 74 10000 6.2 190 20:39 22.03.2020
949 Clouds 1 1035 74 10000 6.2 180 20:21 22.03.2020
950 Clouds 2 1035 69 10000 6.2 190 19:55 22.03.2020
951 Clouds 2 1035 69 10000 6.2 190 19:37 22.03.2020
952 Clouds 2 1035 69 10000 5.7 190 19:19 22.03.2020
953 Clouds 2 1035 59 10000 6.7 190 18:56 22.03.2020
954 Clouds 2 1035 55 10000 6.7 200 18:38 22.03.2020
955 Clouds 3 1035 55 10000 6.7 200 18:18 22.03.2020
956 Clouds 3 1035 51 10000 6.7 200 17:56 22.03.2020
957 Clouds 3 1035 51 10000 6.7 200 17:37 22.03.2020
958 Clouds 4 1035 48 10000 7.7 200 17:19 22.03.2020
959 Clouds 4 1035 51 10000 7.2 200 16:55 22.03.2020
960 Clouds 4 1035 51 10000 7.2 200 16:36 22.03.2020
961 Clouds 4 1035 48 10000 7.2 200 16:18 22.03.2020
962 Clouds 4 1036 44 10000 7.2 210 15:39 22.03.2020
963 Clouds 4 1036 48 10000 8.2 200 14:55 22.03.2020
964 Clouds 5 1036 48 10000 8.2 200 14:37 22.03.2020
965 Clouds 5 1036 48 10000 6.7 210 14:18 22.03.2020
966 Clouds 5 1036 48 10000 7.2 210 13:41 22.03.2020
967 Clouds 5 1036 44 10000 7.2 210 13:19 22.03.2020
968 Clouds 5 1036 44 10000 7.2 210 12:47 22.03.2020
969 Clouds 5 1036 44 10000 6.2 200 12:23 22.03.2020
970 Clouds 5 1036 47 10000 6.2 210 11:59 22.03.2020
971 Clouds 4 1036 47 10000 6.2 210 11:41 22.03.2020
972 Clouds 4 1036 47 10000 5.7 210 11:23 22.03.2020
973 Clear 4 1037 47 10000 6.2 210 10:54 22.03.2020
974 Clear 4 1037 47 10000 6.2 210 10:36 22.03.2020
975 Clear 3 1037 69 10000 4.6 170 10:18 22.03.2020
976 Clear 2 1037 49 10000 4.1 170 09:41 22.03.2020
977 Clear 1 1037 79 10000 3.6 190 09:19 22.03.2020
978 Clear -1 1037 79 10000 2.6 170 08:43 22.03.2020
979 Clear -1 1037 85 10000 2.1 140 08:24 22.03.2020
980 Clear -2 1039 80 0 2.6 150 07:51 22.03.2020
981 Clear -3 1037 85 10000 3.34 198 07:23 22.03.2020
982 Clear -4 1037 85 10000 3.34 198 06:35 22.03.2020
983 Clear -4 1037 79 10000 0.5 0 05:35 22.03.2020
984 Clear -4 1037 79 10000 0.5 0 03:30 22.03.2020
985 Clear -3 1037 73 10000 0.97 187 01:27 22.03.2020
986 Clear -3 1037 73 10000 1 0 00:48 22.03.2020
987 Clear -3 1037 68 10000 1.5 50 00:28 22.03.2020
988 Clear -3 1037 73 10000 1.5 20 23:43 21.03.2020
989 Clear -3 1036 73 10000 2.1 340 23:19 21.03.2020
990 Clear -2 1036 68 10000 1 10 22:58 21.03.2020
991 Clear -2 1036 68 10000 1 10 22:37 21.03.2020
992 Clear -2 1036 73 10000 1.5 360 22:18 21.03.2020
993 Clear -1 1036 68 10000 1.5 350 21:56 21.03.2020
994 Clear -1 1036 68 10000 1.5 350 21:37 21.03.2020
995 Clear -1 1036 63 10000 1 0 21:18 21.03.2020
996 Clear -1 1036 58 10000 1 270 20:41 21.03.2020
997 Clear -1 1036 47 10000 2.1 210 20:20 21.03.2020
998 Clear 0 1036 40 10000 1 0 19:44 21.03.2020
999 Clear 1 1036 37 10000 2.1 210 19:25 21.03.2020
1000 Clear 2 1036 32 10000 1 0 18:58 21.03.2020
1001 Clear 3 1036 32 10000 1 0 18:39 21.03.2020
1002 Clear 4 1036 30 10000 1 0 18:20 21.03.2020
1003 Clear 5 1037 35 0 2.6 310 17:55 21.03.2020
1004 Clear 5 1036 32 10000 0.25 277 17:37 21.03.2020
1005 Clear 5 1036 32 10000 0.3 165 17:18 21.03.2020
1006 Clear 6 1036 32 10000 1 0 16:41 21.03.2020
1007 Clear 6 1036 30 10000 2.1 0 16:21 21.03.2020
1008 Clear 6 1036 30 10000 2.1 0 16:20 21.03.2020
1009 Clear 6 1036 32 10000 2.1 190 15:56 21.03.2020
1010 Clear 6 1036 32 10000 2.1 190 15:37 21.03.2020
1011 Clear 6 1036 32 10000 2.6 150 15:19 21.03.2020
1012 Clear 6 1037 35 10000 2.6 40 14:54 21.03.2020
1013 Clear 6 1037 35 10000 2.6 40 14:36 21.03.2020
1014 Clear 6 1037 35 10000 2.6 40 14:36 21.03.2020
1015 Clear 6 1037 35 10000 2.1 0 14:18 21.03.2020
1016 Clear 6 1037 35 10000 2.1 0 13:57 21.03.2020
1017 Clear 5 1037 35 10000 2.1 0 13:38 21.03.2020
1018 Clouds 6 1038 35 10000 2.1 10 13:19 21.03.2020
1019 Clouds 5 1037 44 10000 1.5 140 12:40 21.03.2020
1020 Clouds 5 1038 43 10000 1 0 12:20 21.03.2020
1021 Clouds 5 1038 40 10000 2.1 10 11:59 21.03.2020
1022 Clouds 4 1038 43 10000 3.1 60 11:39 21.03.2020
1023 Clear 3 1038 43 10000 3.1 60 11:19 21.03.2020
1024 Clear 4 1038 43 10000 3.1 60 11:19 21.03.2020
1025 Clear 3 1038 47 10000 3.1 40 10:57 21.03.2020
1026 Clear 4 1038 47 10000 3.1 40 10:57 21.03.2020
1027 Clear 3 1038 47 10000 3.1 40 10:39 21.03.2020
1028 Clear 3 1038 47 10000 3.1 20 10:21 21.03.2020
1029 Clear 2 1038 55 10000 3.1 30 09:58 21.03.2020
1030 Clear 1 1038 55 10000 3.1 30 09:38 21.03.2020
1031 Clear 1 1038 43 10000 2.6 30 09:20 21.03.2020
1032 Clear 0 1037 63 10000 1 0 08:55 21.03.2020
1033 Clear -1 1037 63 10000 2.1 340 08:37 21.03.2020
1034 Clear -2 1037 63 10000 2.1 340 08:18 21.03.2020
1035 Clear -3 1037 73 10000 2.1 330 07:32 21.03.2020
1036 Clear -3 1037 68 10000 2.6 310 06:56 21.03.2020
1037 Clear -3 1037 68 10000 2.6 310 06:36 21.03.2020
1038 Clear -3 1036 68 10000 2.1 320 06:18 21.03.2020
1039 Clear -2 1036 63 10000 0.5 0 05:23 21.03.2020
1040 Clear -3 1036 58 10000 1 0 03:38 21.03.2020
1041 Clear -3 1035 68 10000 2.6 340 02:36 21.03.2020
1042 Clear -2 1034 58 10000 2.6 340 01:42 21.03.2020
1043 Clear -3 1034 68 10000 3.6 360 01:21 21.03.2020
1044 Clear -2 1034 58 10000 1.5 330 00:38 21.03.2020
1045 Clear -2 1034 54 10000 1.5 340 23:59 20.03.2020
1046 Clear -2 1033 68 10000 1.5 360 23:41 20.03.2020
1047 Clear -2 1033 68 10000 1.5 360 23:20 20.03.2020
1048 Clear -2 1033 68 10000 2.1 350 22:43 20.03.2020
1049 Clear -2 1033 68 10000 2.1 320 22:24 20.03.2020
1050 Clear -1 1032 68 10000 1 0 21:58 20.03.2020
1051 Clear -1 1032 68 10000 1 0 21:39 20.03.2020
1052 Clear -1 1032 63 10000 1.5 350 21:19 20.03.2020
1053 Clear 0 1032 63 10000 0.5 0 20:57 20.03.2020
1054 Clear 0 1032 63 10000 0.5 0 20:39 20.03.2020
1055 Clear 0 1031 47 10000 0.5 260 20:19 20.03.2020
1056 Clear 0 1031 43 10000 1.5 290 19:46 20.03.2020
1057 Clear 2 1031 40 10000 0.72 333 19:20 20.03.2020
1058 Clear 2 1031 37 10000 3.1 30 18:57 20.03.2020
1059 Clear 3 1031 37 10000 3.1 30 18:38 20.03.2020
1060 Clear 4 1031 35 10000 3.6 50 18:19 20.03.2020
1061 Clear 5 1031 35 10000 3.6 40 17:56 20.03.2020
1062 Clear 5 1031 27 10000 4.1 10 17:37 20.03.2020
1063 Clear 5 1031 27 10000 4.1 10 17:18 20.03.2020
1064 Clear 6 1030 30 10000 5.7 20 16:41 20.03.2020
1065 Clear 6 1030 30 10000 6.2 10 16:20 20.03.2020
1066 Clear 6 1030 30 10000 5.7 20 15:44 20.03.2020
1067 Clear 6 1030 32 10000 4.1 360 15:23 20.03.2020
1068 Clear 6 1030 32 10000 4.6 10 14:58 20.03.2020
1069 Clear 6 1030 32 10000 4.6 10 14:40 20.03.2020
1070 Clear 6 1030 32 10000 6.2 360 14:20 20.03.2020
1071 Clear 6 1030 38 10000 5.7 10 13:48 20.03.2020
1072 Clear 5 1030 41 10000 4.6 40 13:21 20.03.2020
1073 Clear 5 1030 41 10000 4.6 10 12:58 20.03.2020
1074 Clear 5 1030 41 10000 4.6 10 12:38 20.03.2020
1075 Clear 5 1030 41 10000 5.1 340 12:19 20.03.2020
1076 Clear 4 1030 44 10000 5.1 30 11:39 20.03.2020
1077 Clear 3 1030 44 10000 5.1 30 11:20 20.03.2020
1078 Clear 3 1029 47 10000 5.1 20 10:55 20.03.2020
1079 Clear 3 1029 47 10000 6.2 10 10:36 20.03.2020
1080 Clear 3 1029 47 10000 6.2 10 10:18 20.03.2020
1081 Clear 2 1029 50 10000 5.1 360 09:44 20.03.2020
1082 Clear 1 1029 42 10000 5.7 350 09:20 20.03.2020
1083 Clear 0 1028 42 10000 4.1 360 08:44 20.03.2020
1084 Clouds -1 1028 58 10000 2.6 340 08:23 20.03.2020
1085 Clouds -1 1028 63 10000 2.1 350 07:59 20.03.2020
1086 Clouds -1 1028 63 10000 2.1 350 07:38 20.03.2020
1087 Clouds -1 1027 63 10000 2.6 340 07:19 20.03.2020
1088 Clouds -1 1027 63 10000 1 0 06:42 20.03.2020
1089 Clouds -1 1027 63 10000 1 0 06:18 20.03.2020
1090 Clear -1 1025 63 10000 1.5 0 04:36 20.03.2020
1091 Clear 0 1024 75 10000 1.5 330 02:50 20.03.2020
1092 Clouds 1 1023 79 10000 4.1 360 01:50 20.03.2020
1093 Clear 1 1022 64 10000 6.7 20 00:38 20.03.2020
1094 Clear 2 1021 59 10000 4.6 350 23:58 19.03.2020
1095 Clear 2 1021 55 10000 3.1 330 23:40 19.03.2020
1096 Clear 2 1021 55 10000 3.1 330 23:19 19.03.2020
1097 Clear 2 1021 55 10000 3.1 330 23:19 19.03.2020
1098 Clear 2 1019 64 10000 1.5 320 22:40 19.03.2020
1099 Clear 2 1019 64 10000 1.5 320 22:22 19.03.2020
1100 Clear 2 1019 69 10000 1.5 300 21:58 19.03.2020
1101 Clear 3 1018 84 10000 2.6 320 21:38 19.03.2020
1102 Clear 3 1018 84 10000 2.6 320 21:18 19.03.2020
1103 Clear 3 1018 80 10000 2.1 330 20:43 19.03.2020
1104 Clear 3 1018 80 10000 2.1 330 20:43 19.03.2020
1105 Rain 3 1018 80 10000 2.1 330 20:25 19.03.2020
1106 Rain 4 1017 65 10000 2.6 350 19:59 19.03.2020
1107 Rain 4 1017 56 10000 3.1 330 19:38 19.03.2020
1108 Rain 5 1017 56 10000 3.1 330 19:20 19.03.2020
1109 Rain 5 1017 56 10000 3.1 330 19:20 19.03.2020
1110 Rain 5 1016 56 10000 3.1 240 18:58 19.03.2020
1111 Rain 6 1016 42 10000 3.6 220 18:40 19.03.2020
1112 Rain 6 1016 42 10000 3.6 220 18:21 19.03.2020
1113 Clouds 8 1015 36 10000 3.6 240 17:44 19.03.2020
1114 Clouds 8 1015 36 10000 3.6 240 17:20 19.03.2020
1115 Clouds 9 1015 36 10000 3.6 250 16:58 19.03.2020
1116 Clouds 9 1015 34 10000 3.6 230 16:39 19.03.2020
1117 Clouds 9 1015 34 10000 3.6 230 16:21 19.03.2020
1118 Clouds 9 1016 36 10000 4.1 240 15:42 19.03.2020
1119 Clouds 9 1016 36 10000 3.6 250 15:23 19.03.2020
1120 Clouds 9 1016 36 10000 3.6 250 15:23 19.03.2020
1121 Clouds 9 1016 34 10000 4.1 250 14:43 19.03.2020
1122 Clouds 9 1016 36 10000 3.6 280 14:22 19.03.2020
1123 Clouds 9 1016 39 10000 3.6 250 13:57 19.03.2020
1124 Clouds 9 1016 39 10000 3.6 250 13:37 19.03.2020
1125 Clouds 9 1016 39 10000 4.1 240 13:18 19.03.2020
1126 Clouds 9 1016 45 10000 5.1 210 12:41 19.03.2020
1127 Clouds 9 1019 52 10000 5.7 220 12:22 19.03.2020
1128 Clouds 8 1019 56 10000 5.7 220 11:57 19.03.2020
1129 Clouds 8 1019 56 10000 5.7 220 11:38 19.03.2020
1130 Clouds 6 1016 56 10000 3.1 210 11:20 19.03.2020
1131 Clouds 6 1016 56 10000 3.1 210 10:41 19.03.2020
1132 Clouds 5 1016 60 10000 4.1 200 10:20 19.03.2020
1133 Clouds 5 1015 59 10000 1.5 200 09:57 19.03.2020
1134 Clouds 4 1015 59 10000 1.5 200 09:37 19.03.2020
1135 Clouds 3 1015 64 10000 2.6 230 09:18 19.03.2020
1136 Clouds 2 1015 64 10000 2.1 230 08:42 19.03.2020
1137 Clouds 0 1014 74 10000 2.1 190 08:21 19.03.2020
1138 Clouds 0 1014 79 10000 1 0 07:46 19.03.2020
1139 Clouds 0 1014 86 10000 0.5 0 07:28 19.03.2020
1140 Clouds -1 1013 79 10000 1.5 230 06:48 19.03.2020
1141 Clouds 0 1016 69 0 3.6 200 05:49 19.03.2020
1142 Clear 0 1012 74 10000 3.6 150 04:58 19.03.2020
1143 Clear 0 1012 74 10000 3.6 150 04:40 19.03.2020
1144 Clear 0 1011 79 10000 2.6 200 02:50 19.03.2020
1145 Clear 1 1011 78 10000 3.6 180 01:21 19.03.2020
1146 Clear 2 1014 64 0 5.1 220 00:28 19.03.2020
1147 Clear 2 1010 59 10000 6.2 180 23:51 18.03.2020
1148 Clear 2 1010 55 10000 4.6 180 23:30 18.03.2020
1149 Clear 2 1010 55 10000 4.6 180 23:30 18.03.2020
1150 Clear 3 1010 55 10000 5.1 200 22:56 18.03.2020
1151 Clear 3 1009 55 10000 4.1 170 22:38 18.03.2020
1152 Clear 3 1009 55 10000 4.1 170 22:20 18.03.2020
1153 Clear 3 1009 51 10000 3.6 210 21:42 18.03.2020
1154 Clear 4 1009 48 10000 4.6 220 21:21 18.03.2020
1155 Clear 4 1009 51 10000 5.7 190 20:59 18.03.2020
1156 Clear 4 1009 51 10000 5.7 190 20:59 18.03.2020
1157 Clear 4 1009 51 10000 5.7 190 20:40 18.03.2020
1158 Clear 4 1009 44 10000 4.1 210 20:20 18.03.2020
1159 Clear 5 1008 41 10000 3.6 230 19:58 18.03.2020
1160 Clear 5 1008 41 10000 3.6 230 19:39 18.03.2020
1161 Clear 5 1008 41 10000 4.1 230 19:20 18.03.2020
1162 Clear 6 1008 38 10000 4.6 240 18:41 18.03.2020
1163 Clear 6 1007 35 10000 5.7 240 18:21 18.03.2020
1164 Clear 6 1007 35 10000 5.7 240 18:21 18.03.2020
1165 Clear 7 1007 33 10000 5.7 250 17:59 18.03.2020
1166 Clear 7 1007 33 10000 5.7 240 17:41 18.03.2020
1167 Clear 8 1007 33 10000 5.7 240 17:22 18.03.2020
1168 Clear 8 1007 31 10000 5.7 260 16:58 18.03.2020
1169 Clear 8 1007 31 10000 5.7 260 16:40 18.03.2020
1170 Clear 9 1007 28 10000 6.7 250 16:20 18.03.2020
1171 Clear 9 1006 28 10000 4.6 260 15:45 18.03.2020
1172 Clear 9 1006 31 10000 5.7 240 15:23 18.03.2020
1173 Clear 9 1006 31 10000 5.1 260 14:56 18.03.2020
1174 Clear 9 1006 28 10000 6.7 250 14:38 18.03.2020
1175 Clouds 9 1006 28 10000 6.7 250 14:19 18.03.2020
1176 Rain 9 1005 31 10000 5.1 270 13:38 18.03.2020
1177 Rain 9 1005 31 10000 5.1 270 13:19 18.03.2020
1178 Rain 9 1005 36 10000 4.6 250 12:42 18.03.2020
1179 Clouds 9 1008 39 10000 8.2 270 12:20 18.03.2020
1180 Clouds 8 1004 56 10000 2.1 0 11:41 18.03.2020
1181 Clouds 7 1004 56 10000 2.1 0 11:21 18.03.2020
1182 Clouds 7 1003 65 10000 4.6 220 10:58 18.03.2020
1183 Clouds 7 1003 65 10000 4.6 220 10:39 18.03.2020
1184 Clouds 6 1003 80 10000 4.1 210 10:20 18.03.2020
1185 Clouds 6 1003 80 10000 4.1 210 09:59 18.03.2020
1186 Clouds 6 1003 80 10000 4.1 210 09:39 18.03.2020
1187 Clouds 6 1003 80 10000 4.6 210 09:21 18.03.2020
1188 Clouds 4 1003 86 10000 4.6 190 08:40 18.03.2020
1189 Clouds 4 1003 86 10000 4.1 180 08:21 18.03.2020
1190 Clouds 4 1003 86 10000 4.1 190 07:49 18.03.2020
1191 Clouds 4 1003 86 10000 4.6 180 07:31 18.03.2020
1192 Clouds 4 1004 86 10000 7.7 190 06:50 18.03.2020
1193 Clouds 4 1004 80 10000 7.7 190 06:31 18.03.2020
1194 Clouds 4 1007 93 0 3.6 200 05:36 18.03.2020
1195 Clouds 5 1005 69 10000 7.2 180 04:29 18.03.2020
1196 Clouds 5 1007 79 10000 5.1 180 02:51 18.03.2020
1197 Clouds 5 1007 80 10000 4.6 190 02:23 18.03.2020
1198 Clouds 5 1010 93 0 6.7 190 01:29 18.03.2020
1199 Clouds 5 1008 71 10000 6.2 190 00:26 18.03.2020
1200 Clouds 5 1008 71 10000 5.1 200 23:59 17.03.2020
1201 Clouds 5 1008 72 10000 6.2 190 23:40 17.03.2020
1202 Clouds 5 1011 93 10000 7.7 200 23:19 17.03.2020
1203 Clouds 5 1009 60 10000 5.7 200 22:42 17.03.2020
1204 Clouds 5 1009 60 10000 5.7 200 22:23 17.03.2020
1205 Clouds 5 1009 52 10000 5.7 210 21:42 17.03.2020
1206 Clouds 6 1009 56 10000 5.7 200 21:22 17.03.2020
1207 Clouds 6 1009 52 10000 5.1 200 20:56 17.03.2020
1208 Clouds 6 1009 52 10000 5.1 200 20:37 17.03.2020
1209 Clouds 6 1009 48 10000 4.1 220 20:18 17.03.2020
1210 Clouds 7 1008 42 10000 5.1 220 19:41 17.03.2020
1211 Clouds 7 1008 39 10000 5.7 220 19:18 17.03.2020
1212 Clouds 7 1008 42 10000 5.1 220 18:56 17.03.2020
1213 Clouds 7 1008 39 10000 5.7 220 18:38 17.03.2020
1214 Clouds 8 1008 39 10000 5.7 220 18:20 17.03.2020
1215 Clouds 9 1008 37 10000 6.7 220 17:41 17.03.2020
1216 Clouds 9 1008 46 10000 5.1 210 17:23 17.03.2020
1217 Clouds 9 1008 53 10000 6.7 200 16:57 17.03.2020
1218 Clouds 10 1008 53 10000 6.7 200 16:39 17.03.2020
1219 Clouds 10 1008 57 10000 7.7 200 16:18 17.03.2020
1220 Clouds 10 1008 57 10000 6.7 210 15:44 17.03.2020
1221 Clouds 10 1008 61 10000 7.2 220 15:22 17.03.2020
1222 Clouds 11 1008 61 10000 8.7 210 14:44 17.03.2020
1223 Clouds 11 1008 61 10000 8.7 210 14:23 17.03.2020
1224 Clouds 11 1008 66 10000 9.3 200 13:56 17.03.2020
1225 Clouds 10 1008 66 10000 9.3 200 13:38 17.03.2020
1226 Clouds 10 1008 66 10000 7.7 210 13:20 17.03.2020
1227 Clouds 9 1008 66 10000 8.2 210 12:42 17.03.2020
1228 Clouds 9 1008 75 10000 9.3 190 12:22 17.03.2020
1229 Clouds 8 1008 75 10000 8.7 190 11:47 17.03.2020
1230 Clouds 8 1008 75 10000 8.7 190 11:29 17.03.2020
1231 Clouds 7 1008 75 10000 7.7 210 10:58 17.03.2020
1232 Clouds 7 1008 75 10000 7.7 210 10:39 17.03.2020
1233 Clouds 7 1008 75 10000 7.7 200 10:21 17.03.2020
1234 Clouds 7 1008 75 10000 7.7 200 09:59 17.03.2020
1235 Clouds 7 1008 80 10000 4.6 210 09:40 17.03.2020
1236 Clouds 6 1008 80 10000 6.2 200 09:19 17.03.2020
1237 Clouds 6 1007 80 10000 6.7 190 08:48 17.03.2020
1238 Clouds 6 1008 86 10000 5.7 190 08:23 17.03.2020
1239 Clouds 5 1008 86 10000 6.7 180 07:50 17.03.2020
1240 Clouds 5 1008 80 10000 6.7 190 07:28 17.03.2020
1241 Clouds 5 1008 86 10000 6.2 190 06:59 17.03.2020
1242 Clouds 4 1009 86 10000 6.2 190 06:34 17.03.2020
1243 Clouds 4 1009 83 10000 7.2 180 05:56 17.03.2020
1244 Clouds 4 1010 80 10000 6.2 180 03:56 17.03.2020
1245 Clouds 3 1011 79 10000 5.7 200 02:46 17.03.2020
1246 Clouds 3 1011 76 10000 7.2 200 01:44 17.03.2020
1247 Clouds 3 1011 77 10000 6.7 200 01:25 17.03.2020
1248 Clouds 3 1012 77 10000 5.7 190 00:38 17.03.2020
1249 Clouds 3 1012 86 10000 6.2 190 23:48 16.03.2020
1250 Clouds 4 1013 86 10000 5.7 190 23:30 16.03.2020
1251 Rain 4 1013 87 10000 5.1 190 22:41 16.03.2020
1252 Drizzle 4 1013 87 10000 5.7 170 22:23 16.03.2020
1253 Clouds 4 1013 74 10000 6.7 180 21:58 16.03.2020
1254 Clouds 3 1013 74 10000 6.7 180 21:40 16.03.2020
1255 Clouds 3 1014 69 10000 4.6 180 21:21 16.03.2020
1256 Clouds 4 1014 64 10000 4.6 170 20:56 16.03.2020
1257 Clouds 4 1014 60 10000 3.1 170 20:37 16.03.2020
1258 Clouds 4 1014 60 10000 3.1 170 20:18 16.03.2020
1259 Clear 4 1014 64 10000 2.6 200 19:41 16.03.2020
1260 Clear 4 1014 64 10000 3.1 190 19:20 16.03.2020
1261 Clear 4 1014 56 10000 3.6 170 18:43 16.03.2020
1262 Clear 5 1014 56 10000 3.6 170 18:21 16.03.2020
1263 Clear 5 1014 52 10000 4.1 170 17:55 16.03.2020
1264 Clear 6 1014 52 10000 3.1 170 17:37 16.03.2020
1265 Clear 6 1014 52 10000 3.1 170 17:18 16.03.2020
1266 Clear 6 1014 52 10000 2.6 160 16:44 16.03.2020
1267 Clear 6 1014 52 10000 3.6 200 16:24 16.03.2020
1268 Clear 7 1014 45 10000 1.5 140 15:45 16.03.2020
1269 Clear 6 1014 44 10000 2.1 130 15:27 16.03.2020
1270 Clear 6 1014 48 10000 1.5 0 14:49 16.03.2020
1271 Clear 6 1014 48 10000 2.1 110 14:28 16.03.2020
1272 Clear 6 1014 48 10000 3.1 60 13:59 16.03.2020
1273 Clear 6 1014 48 10000 3.1 60 13:41 16.03.2020
1274 Clear 6 1014 44 10000 2.6 30 13:22 16.03.2020
1275 Clear 5 1014 51 10000 3.1 50 12:45 16.03.2020
1276 Clear 5 1013 51 10000 4.1 50 12:24 16.03.2020
1277 Clear 5 1013 51 10000 4.6 30 11:47 16.03.2020
1278 Clouds 5 1013 65 10000 4.6 30 11:28 16.03.2020
1279 Clear 4 1012 59 10000 4.6 30 10:56 16.03.2020
1280 Clear 4 1012 59 10000 4.6 30 10:37 16.03.2020
1281 Clear 3 1012 69 10000 3.6 10 10:18 16.03.2020
1282 Clear 3 1011 69 10000 3.6 10 09:42 16.03.2020
1283 Clear 3 1010 69 10000 4.6 20 09:21 16.03.2020
1284 Clear 2 1010 69 10000 3.6 360 08:52 16.03.2020
1285 Clouds 2 1009 69 10000 4.1 360 08:25 16.03.2020
1286 Clear 2 1009 69 10000 4.1 360 08:25 16.03.2020
1287 Clouds 2 1008 74 10000 4.6 360 07:48 16.03.2020
1288 Clouds 2 1008 74 10000 5.1 360 07:25 16.03.2020
1289 Clouds 2 1007 74 10000 4.6 20 06:54 16.03.2020
1290 Clouds 2 1006 74 10000 4.6 20 06:25 16.03.2020
1291 Clouds 2 1004 86 10000 7.7 10 04:55 16.03.2020
1292 Clouds 3 1001 83 10000 0.5 0 02:42 16.03.2020
1293 Clouds 3 1000 86 10000 2.1 210 00:52 16.03.2020
1294 Clouds 3 1000 93 10000 1 0 00:33 16.03.2020
1295 Clouds 4 999 93 10000 1.5 0 23:46 15.03.2020
1296 Clouds 4 998 93 10000 6.7 210 23:20 15.03.2020
1297 Clouds 4 998 93 10000 6.7 200 22:43 15.03.2020
1298 Clouds 4 998 93 10000 8.7 200 22:23 15.03.2020
1299 Clouds 5 1000 93 0 5.7 210 21:58 15.03.2020
1300 Clouds 5 1000 93 0 5.7 210 21:38 15.03.2020
1301 Clouds 5 998 86 10000 6.2 190 21:18 15.03.2020
1302 Clouds 5 997 93 10000 4.1 170 20:42 15.03.2020
1303 Clouds 5 996 93 10000 4.1 180 20:21 15.03.2020
1304 Clouds 5 996 93 10000 5.1 200 19:58 15.03.2020
1305 Clouds 5 996 93 10000 5.1 200 19:39 15.03.2020
1306 Clouds 5 996 93 10000 6.2 200 19:20 15.03.2020
1307 Clouds 5 996 93 10000 5.7 210 18:55 15.03.2020
1308 Clouds 6 996 93 10000 5.7 210 18:37 15.03.2020
1309 Clouds 6 995 93 10000 7.7 190 18:19 15.03.2020
1310 Rain 6 995 93 10000 7.2 190 17:41 15.03.2020
1311 Rain 6 995 93 10000 7.7 190 17:21 15.03.2020
1312 Rain 6 995 93 10000 7.7 190 16:58 15.03.2020
1313 Rain 6 995 93 10000 7.7 190 16:39 15.03.2020
1314 Rain 6 995 93 10000 8.2 190 16:21 15.03.2020
1315 Rain 6 995 93 10000 8.7 190 15:46 15.03.2020
1316 Rain 6 995 93 10000 9.3 190 15:28 15.03.2020
1317 Rain 6 995 93 10000 9.8 190 14:58 15.03.2020
1318 Rain 6 995 93 10000 9.8 190 14:38 15.03.2020
1319 Rain 6 995 93 10000 12.3 190 14:19 15.03.2020
1320 Rain 5 995 93 10000 12.3 190 13:55 15.03.2020
1321 Rain 5 995 93 10000 12.3 190 13:55 15.03.2020
1322 Rain 5 996 100 10000 11.8 190 13:37 15.03.2020
1323 Rain 5 996 100 10000 11.8 190 13:18 15.03.2020
1324 Rain 5 996 100 10000 11.8 190 13:18 15.03.2020
1325 Rain 5 996 93 10000 10.3 180 12:40 15.03.2020
1326 Drizzle 5 997 93 7000 10.8 180 12:21 15.03.2020
1327 Drizzle 5 997 93 7000 10.3 180 11:43 15.03.2020
1328 Rain 4 998 100 7000 9.8 180 11:24 15.03.2020
1329 Rain 4 999 100 5000 9.3 180 10:59 15.03.2020
1330 Rain 4 999 100 5000 9.3 180 10:39 15.03.2020
1331 Rain 4 999 93 10000 8.7 170 10:21 15.03.2020
1332 Rain 4 999 100 4000 7.7 170 09:57 15.03.2020
1333 Rain 4 999 100 4000 7.7 170 09:36 15.03.2020
1334 Rain 4 1000 93 5000 9.8 180 09:18 15.03.2020
1335 Rain 3 1000 93 9000 8.7 170 08:41 15.03.2020
1336 Rain 3 1001 93 9000 9.8 170 08:19 15.03.2020
1337 Clouds 3 1001 93 9000 7.2 170 07:45 15.03.2020
1338 Clouds 3 1002 100 6000 7.2 170 07:21 15.03.2020
1339 Clouds 3 1003 95 9000 6.7 150 06:36 15.03.2020
1340 Clouds 3 1004 95 5000 6.2 170 05:48 15.03.2020
1341 Clouds 2 1005 96 7000 7.7 170 04:56 15.03.2020
1342 Clouds 2 1005 96 7000 7.7 170 04:37 15.03.2020
1343 Clouds 2 1006 96 8000 7.7 170 04:18 15.03.2020
1344 Snow 2 1008 86 9000 6.7 170 02:54 15.03.2020
1345 Snow 2 1009 86 9000 6.7 170 02:21 15.03.2020
1346 Snow 2 1011 85 10000 3.6 170 00:57 15.03.2020
1347 Snow 2 1011 85 10000 3.6 170 00:39 15.03.2020
1348 Clouds 2 1011 85 8000 5.1 190 00:18 15.03.2020
1349 Clouds 2 1012 64 10000 5.1 180 23:38 14.03.2020
1350 Clouds 1 1012 64 10000 6.2 190 23:19 14.03.2020
1351 Clouds 2 1013 59 10000 6.2 210 22:55 14.03.2020
1352 Clouds 2 1013 59 10000 6.2 210 22:37 14.03.2020
1353 Clouds 1 1013 74 10000 6.2 190 22:19 14.03.2020
1354 Clouds 1 1014 74 10000 7.7 180 21:54 14.03.2020
1355 Clouds 1 1014 74 10000 5.7 190 21:36 14.03.2020
1356 Clouds 1 1014 74 10000 5.7 190 21:18 14.03.2020
1357 Clouds 1 1014 68 10000 5.1 190 20:55 14.03.2020
1358 Clouds 1 1014 68 10000 5.1 190 20:36 14.03.2020
1359 Clouds 1 1015 72 10000 5.1 170 20:18 14.03.2020
1360 Clouds 0 1015 72 10000 4.1 180 19:40 14.03.2020
1361 Clouds 0 1015 72 10000 4.1 180 19:20 14.03.2020
1362 Clouds 1 1015 72 10000 8.2 200 18:39 14.03.2020
1363 Clouds 1 1015 72 10000 8.2 200 18:20 14.03.2020
1364 Clouds 2 1016 43 10000 9.3 200 17:42 14.03.2020
1365 Clouds 2 1016 43 10000 9.3 200 17:21 14.03.2020
1366 Clouds 2 1016 40 10000 8.2 200 16:58 14.03.2020
1367 Clouds 3 1016 43 10000 9.8 200 16:38 14.03.2020
1368 Clouds 3 1016 43 10000 9.8 200 16:19 14.03.2020
1369 Clouds 3 1017 47 10000 8.7 200 15:44 14.03.2020
1370 Clouds 3 1017 47 10000 8.7 210 15:22 14.03.2020
1371 Clouds 3 1020 55 10000 6.7 200 14:40 14.03.2020
1372 Clear 3 1018 40 10000 7.2 210 14:21 14.03.2020
1373 Clear 3 1018 37 10000 6.7 200 13:57 14.03.2020
1374 Clear 2 1018 40 10000 8.2 190 13:38 14.03.2020
1375 Clear 2 1018 40 10000 8.2 190 13:19 14.03.2020
1376 Clear 2 1018 37 10000 5.7 200 12:44 14.03.2020
1377 Clear 2 1018 40 10000 6.2 190 12:25 14.03.2020
1378 Clear 2 1021 51 10000 5.1 190 11:46 14.03.2020
1379 Clear 2 1021 51 10000 5.1 190 11:26 14.03.2020
1380 Clear 0 1019 58 10000 2.1 170 10:57 14.03.2020
1381 Clear 0 1021 41 10000 2.1 130 10:38 14.03.2020
1382 Clear -1 1019 58 10000 2.1 200 10:20 14.03.2020
1383 Clear -2 1019 67 10000 0.5 0 09:41 14.03.2020
1384 Clear -3 1019 62 10000 2.42 214 09:22 14.03.2020
1385 Clear -4 1019 67 10000 2.42 214 08:47 14.03.2020
1386 Clear -4 1019 67 10000 2.42 214 08:47 14.03.2020
1387 Clouds -6 1019 73 10000 0.49 292 08:27 14.03.2020
1388 Clouds -6 1019 72 10000 1 20 07:49 14.03.2020
1389 Clouds -7 1019 72 10000 1 350 07:23 14.03.2020
1390 Clouds -6 1018 72 10000 0.49 292 06:59 14.03.2020
1391 Clouds -7 1018 72 10000 2.6 350 06:39 14.03.2020
1392 Clear -6 1018 67 10000 1.5 10 04:58 14.03.2020
1393 Clear -5 1017 62 10000 1.5 350 03:41 14.03.2020
1394 Clear -5 1017 62 10000 2.1 330 03:20 14.03.2020
1395 Clear -4 1016 62 10000 2.1 310 02:19 14.03.2020
1396 Clear -4 1015 53 10000 1 0 00:42 14.03.2020
1397 Clear -3 1015 49 10000 1.5 280 23:44 13.03.2020
1398 Clear -3 1014 53 10000 1.5 270 23:25 13.03.2020
1399 Clear -3 1014 49 10000 0.95 340 22:46 13.03.2020
1400 Clear -3 1013 49 10000 1 0 22:25 13.03.2020
1401 Clear -2 1013 53 10000 1.5 340 21:42 13.03.2020
1402 Clear -2 1012 58 10000 0.5 0 21:21 13.03.2020
1403 Clear -2 1012 54 10000 0.5 0 20:57 13.03.2020
1404 Clear -2 1012 54 10000 0.5 0 20:38 13.03.2020
1405 Clear -1 1011 50 10000 2.6 350 20:19 13.03.2020
1406 Clear -1 1011 50 10000 3.6 350 19:42 13.03.2020
1407 Clear 0 1010 46 10000 5.1 360 19:23 13.03.2020
1408 Clear 0 1010 46 10000 5.1 360 19:23 13.03.2020
1409 Clear 0 1009 50 10000 4.1 360 18:44 13.03.2020
1410 Clear 1 1009 56 10000 5.1 360 18:25 13.03.2020
1411 Rain 1 1008 56 10000 5.7 350 17:55 13.03.2020
1412 Rain 2 1007 34 10000 7.2 350 17:37 13.03.2020
1413 Rain 2 1007 34 10000 7.2 350 17:18 13.03.2020
1414 Rain 2 1007 34 10000 5.1 340 16:40 13.03.2020
1415 Clear 3 1006 31 10000 8.2 350 16:22 13.03.2020
1416 Clear 3 1006 31 10000 8.7 350 15:55 13.03.2020
1417 Clear 3 1006 31 10000 8.7 350 15:37 13.03.2020
1418 Clear 3 1005 29 10000 8.2 350 15:18 13.03.2020
1419 Clear 3 1005 29 10000 7.7 350 14:41 13.03.2020
1420 Clouds 3 1004 31 10000 8.2 360 14:22 13.03.2020
1421 Clouds 3 1003 31 10000 8.7 360 13:56 13.03.2020
1422 Clouds 3 1003 31 10000 8.7 360 13:37 13.03.2020
1423 Clouds 2 1003 31 10000 9.3 360 13:18 13.03.2020
1424 Clouds 2 1002 31 10000 9.3 360 12:40 13.03.2020
1425 Clouds 2 1002 31 10000 9.3 360 12:21 13.03.2020
1426 Clouds 2 1001 31 10000 9.3 350 11:57 13.03.2020
1427 Clouds 1 1003 64 10000 5.1 350 11:38 13.03.2020
1428 Clouds 1 1001 44 10000 4.1 350 11:19 13.03.2020
1429 Clouds 0 1001 46 10000 6.7 360 10:47 13.03.2020
1430 Clouds 0 1000 42 10000 6.7 10 10:26 13.03.2020
1431 Clouds 0 1000 50 10000 6.2 10 09:57 13.03.2020
1432 Clouds 0 1000 50 10000 6.2 10 09:38 13.03.2020
1433 Clouds 0 999 54 10000 6.2 10 09:20 13.03.2020
1434 Rain 0 998 50 10000 8.7 10 08:44 13.03.2020
1435 Rain 0 997 56 10000 7.2 10 08:22 13.03.2020
1436 Snow 0 997 56 10000 5.7 360 07:47 13.03.2020
1437 Snow 0 996 56 10000 6.2 360 07:28 13.03.2020
1438 Rain 0 995 56 10000 4.1 360 06:47 13.03.2020
1439 Rain 1 994 59 10000 4.6 360 06:26 13.03.2020
1440 Clouds 1 994 59 10000 3.6 10 05:49 13.03.2020
1441 Clouds 1 994 74 0 3.6 30 05:20 13.03.2020
1442 Clouds 1 993 68 0 3.1 40 04:37 13.03.2020
1443 Clouds 1 990 59 10000 3.6 360 03:31 13.03.2020
1444 Clouds 1 989 59 10000 4.6 350 01:45 13.03.2020
1445 Clouds 2 988 55 10000 2.6 350 01:18 13.03.2020
1446 Clouds 2 988 59 10000 2.1 350 00:47 13.03.2020
1447 Clouds 2 990 74 0 4.1 220 00:23 13.03.2020
1448 Clouds 3 986 55 10000 2.6 310 23:48 12.03.2020
1449 Clouds 3 986 55 10000 2.6 250 23:26 12.03.2020
1450 Clouds 3 985 51 10000 1.5 280 22:56 12.03.2020
1451 Clouds 3 985 51 10000 1.5 280 22:38 12.03.2020
1452 Clouds 3 985 51 10000 2.1 270 22:19 12.03.2020
1453 Clouds 4 984 51 10000 4.1 240 21:43 12.03.2020
1454 Clouds 4 984 51 10000 4.1 230 21:25 12.03.2020
1455 Clouds 4 984 51 10000 4.6 220 20:56 12.03.2020
1456 Clouds 4 984 51 10000 4.6 220 20:37 12.03.2020
1457 Clouds 4 983 51 10000 5.7 220 20:18 12.03.2020
1458 Clouds 4 983 48 10000 4.1 210 19:39 12.03.2020
1459 Clouds 4 982 44 10000 2.6 230 19:20 12.03.2020
1460 Clouds 4 982 44 10000 3.1 220 18:43 12.03.2020
1461 Clouds 5 986 52 10000 3.1 220 18:24 12.03.2020
1462 Clouds 5 985 45 10000 2.6 240 17:57 12.03.2020
1463 Clouds 6 981 33 10000 3.1 260 17:38 12.03.2020
1464 Clouds 6 981 33 10000 3.1 260 17:19 12.03.2020
1465 Clouds 6 981 33 10000 3.1 260 16:54 12.03.2020
1466 Clouds 6 981 33 10000 3.1 260 16:36 12.03.2020
1467 Clouds 6 981 33 10000 3.1 270 16:18 12.03.2020
1468 Clouds 7 980 38 10000 3.6 270 15:43 12.03.2020
1469 Clouds 7 980 38 10000 4.6 270 15:24 12.03.2020
1470 Clouds 6 980 38 10000 2.6 290 14:40 12.03.2020
1471 Clouds 6 979 44 10000 3.1 270 14:21 12.03.2020
1472 Clouds 6 979 44 10000 3.6 270 13:41 12.03.2020
1473 Clouds 4 979 69 10000 3.1 230 13:22 12.03.2020
1474 Clouds 4 979 69 10000 1 0 12:56 12.03.2020
1475 Clouds 4 979 69 10000 1 0 12:38 12.03.2020
1476 Clouds 3 978 80 10000 1 0 12:20 12.03.2020
1477 Clouds 3 980 93 10000 4.6 350 11:56 12.03.2020
1478 Clouds 3 979 93 8000 3.1 360 11:37 12.03.2020
1479 Clouds 2 979 93 8000 3.1 360 11:19 12.03.2020
1480 Clouds 2 978 76 10000 1 0 10:58 12.03.2020
1481 Clouds 2 978 76 10000 1 0 10:40 12.03.2020
1482 Clouds 2 979 76 10000 1.82 337 10:22 12.03.2020
1483 Clouds 1 979 76 10000 2.6 50 09:45 12.03.2020
1484 Clouds 1 979 92 10000 1.5 350 09:25 12.03.2020
1485 Clouds 1 979 92 10000 1.5 260 08:43 12.03.2020
1486 Clouds 0 980 92 10000 1.5 0 08:20 12.03.2020
1487 Clouds 0 980 92 10000 1.5 0 07:53 12.03.2020
1488 Clouds 0 981 92 10000 1 0 07:23 12.03.2020
1489 Clouds 0 981 91 10000 2.6 170 06:59 12.03.2020
1490 Clouds 0 983 91 10000 3.1 210 05:43 12.03.2020
1491 Clear 0 983 84 10000 3.1 210 05:25 12.03.2020
1492 Clear 1 984 86 10000 2.1 170 02:41 12.03.2020
1493 Clouds 3 985 88 10000 3.1 200 01:31 12.03.2020
1494 Clouds 3 985 88 10000 3.6 210 00:45 12.03.2020
1495 Clouds 3 985 86 10000 5.7 180 00:26 12.03.2020
1496 Clouds 4 986 86 10000 5.7 190 23:47 11.03.2020
1497 Clouds 4 986 86 10000 5.7 190 23:24 11.03.2020
1498 Clouds 4 986 81 10000 6.2 180 22:48 11.03.2020
1499 Clouds 4 986 81 10000 6.2 170 22:30 11.03.2020
1500 Clouds 4 987 81 10000 6.2 180 21:59 11.03.2020
1501 Clouds 4 987 81 10000 6.2 180 21:59 11.03.2020
1502 Clouds 4 987 81 10000 6.2 180 21:41 11.03.2020
1503 Clouds 4 987 74 10000 5.1 180 21:22 11.03.2020
1504 Clouds 4 987 64 10000 3.6 140 20:58 11.03.2020
1505 Clouds 4 987 64 10000 3.6 140 20:39 11.03.2020
1506 Clouds 5 987 56 10000 5.1 140 20:19 11.03.2020
1507 Clouds 5 988 56 10000 6.2 160 19:44 11.03.2020
1508 Clouds 5 988 56 10000 4.1 150 19:25 11.03.2020
1509 Clouds 5 989 56 10000 4.6 150 18:59 11.03.2020
1510 Clouds 6 989 52 10000 3.6 220 18:40 11.03.2020
1511 Clouds 6 989 52 10000 3.6 220 18:40 11.03.2020
1512 Clouds 6 989 52 10000 3.6 220 18:21 11.03.2020
1513 Clouds 7 989 48 10000 2.6 210 17:57 11.03.2020
1514 Clouds 7 989 48 10000 2.6 210 17:57 11.03.2020
1515 Clouds 7 989 48 10000 3.1 220 17:39 11.03.2020
1516 Clouds 8 989 48 10000 3.1 220 17:20 11.03.2020
1517 Clouds 8 989 45 10000 4.6 220 16:46 11.03.2020
1518 Clouds 9 989 45 10000 5.1 230 16:23 11.03.2020
1519 Clouds 9 989 49 10000 5.1 230 15:46 11.03.2020
1520 Clouds 9 989 42 10000 5.7 240 15:25 11.03.2020
1521 Clouds 9 988 48 10000 5.1 240 14:59 11.03.2020
1522 Clouds 9 988 48 10000 5.1 240 14:41 11.03.2020
1523 Clouds 9 988 48 10000 3.6 250 14:22 11.03.2020
1524 Clouds 8 988 51 10000 4.1 210 13:45 11.03.2020
1525 Clouds 8 987 51 10000 4.1 190 13:27 11.03.2020
1526 Clouds 8 987 56 10000 3.1 240 12:58 11.03.2020
1527 Clouds 8 990 61 10000 5.1 230 12:40 11.03.2020
1528 Clouds 7 987 51 10000 2.6 220 12:19 11.03.2020
1529 Clouds 7 986 75 10000 3.6 190 11:42 11.03.2020
1530 Clouds 5 986 86 10000 4.1 210 11:24 11.03.2020
1531 Clouds 5 985 93 10000 4.6 200 10:59 11.03.2020
1532 Clouds 5 989 75 10000 4.6 220 10:41 11.03.2020
1533 Clouds 5 985 68 10000 4.1 210 10:18 11.03.2020
1534 Clouds 4 988 80 10000 5.7 220 09:43 11.03.2020
1535 Clouds 3 984 68 10000 2.1 210 09:24 11.03.2020
1536 Clouds 3 983 68 10000 2.6 220 08:45 11.03.2020
1537 Clouds 2 983 68 10000 2.6 220 08:27 11.03.2020
1538 Fog 2 983 96 8000 2.6 200 07:58 11.03.2020
1539 Fog 2 983 96 8000 2.6 200 07:38 11.03.2020
1540 Clouds 1 983 96 8000 0.5 0 07:18 11.03.2020
1541 Clouds 2 986 93 0 3.6 200 06:37 11.03.2020
1542 Clouds 2 982 96 6000 3.1 180 05:34 11.03.2020
1543 Snow 2 982 99 2500 1.5 200 03:59 11.03.2020
1544 Clouds 2 983 99 10000 1 350 01:59 11.03.2020
1545 Drizzle 2 983 99 10000 0.5 350 01:26 11.03.2020
1546 Clouds 2 983 100 10000 1 350 00:45 11.03.2020
1547 Rain 2 983 100 10000 1 0 23:56 10.03.2020
1548 Rain 2 983 100 10000 1 0 23:55 10.03.2020
1549 Rain 2 983 100 10000 1 0 23:55 10.03.2020
1550 Rain 2 983 100 10000 1 0 23:55 10.03.2020
1551 Rain 2 983 100 10000 1 0 23:37 10.03.2020
1552 Rain 2 983 100 10000 1 0 23:18 10.03.2020
1553 Rain 2 984 93 10000 1.5 110 22:38 10.03.2020
1554 Rain 2 984 93 10000 1.5 110 22:19 10.03.2020
1555 Rain 2 984 93 10000 1.5 110 22:19 10.03.2020
1556 Drizzle 2 984 93 10000 2.6 110 21:56 10.03.2020
1557 Drizzle 2 984 93 10000 2.6 110 21:38 10.03.2020
1558 Drizzle 2 984 93 10000 3.1 100 21:19 10.03.2020
1559 Drizzle 3 985 93 10000 3.6 110 20:57 10.03.2020
1560 Drizzle 3 985 93 10000 3.6 110 20:38 10.03.2020
1561 Rain 3 985 100 10000 3.6 110 20:18 10.03.2020
1562 Rain 3 985 100 10000 3.6 110 20:18 10.03.2020
1563 Rain 3 985 93 10000 4.1 120 19:56 10.03.2020
1564 Rain 3 985 93 10000 4.1 120 19:36 10.03.2020
1565 Rain 3 986 93 10000 5.1 130 19:18 10.03.2020
1566 Rain 3 986 93 10000 4.6 130 18:43 10.03.2020
1567 Rain 3 986 93 10000 5.1 130 18:25 10.03.2020
1568 Rain 3 987 93 10000 5.1 140 17:57 10.03.2020
1569 Rain 3 987 93 10000 5.1 140 17:38 10.03.2020
1570 Rain 3 987 93 10000 5.1 140 17:20 10.03.2020
1571 Rain 4 988 93 10000 4.6 130 16:38 10.03.2020
1572 Rain 4 988 93 10000 4.6 130 16:18 10.03.2020
1573 Rain 4 989 93 10000 5.1 150 15:55 10.03.2020
1574 Rain 4 990 93 9000 4.1 120 15:37 10.03.2020
1575 Rain 4 990 93 9000 4.1 120 15:18 10.03.2020
1576 Rain 4 990 93 9000 4.1 120 15:18 10.03.2020
1577 Rain 4 990 93 10000 4.6 140 14:41 10.03.2020
1578 Rain 4 991 93 10000 4.6 150 14:19 10.03.2020
1579 Rain 4 992 93 10000 6.2 140 13:57 10.03.2020
1580 Rain 4 992 93 10000 6.2 140 13:37 10.03.2020
1581 Clouds 4 992 80 10000 4.6 140 13:19 10.03.2020
1582 Clouds 4 993 86 10000 5.7 150 12:39 10.03.2020
1583 Clouds 4 993 86 10000 6.2 170 12:19 10.03.2020
1584 Clouds 4 994 93 10000 5.1 160 11:43 10.03.2020
1585 Clouds 4 994 93 10000 5.1 150 11:25 10.03.2020
1586 Rain 4 995 93 10000 4.1 150 10:59 10.03.2020
1587 Rain 4 995 93 10000 4.1 150 10:41 10.03.2020
1588 Rain 4 995 93 10000 4.1 150 10:41 10.03.2020
1589 Rain 4 995 100 10000 4.1 150 10:22 10.03.2020
1590 Rain 3 996 93 10000 4.1 160 09:57 10.03.2020
1591 Rain 3 996 93 10000 4.1 160 09:38 10.03.2020
1592 Clouds 3 996 100 10000 3.6 150 09:18 10.03.2020
1593 Clouds 2 996 93 10000 3.1 140 08:45 10.03.2020
1594 Clouds 2 996 93 10000 3.1 160 08:26 10.03.2020
1595 Clouds 2 997 93 10000 3.6 180 07:49 10.03.2020
1596 Clouds 2 997 100 10000 3.6 180 07:30 10.03.2020
1597 Clouds 2 997 93 10000 3.6 170 06:44 10.03.2020
1598 Clouds 2 997 93 10000 4.1 170 06:25 10.03.2020
1599 Clouds 2 997 93 10000 4.1 180 05:41 10.03.2020
1600 Rain 2 998 100 8000 1.5 190 04:37 10.03.2020
1601 Clouds 2 999 100 7000 1 0 03:37 10.03.2020
1602 Clouds 2 1000 100 7000 2.1 190 02:26 10.03.2020
1603 Clouds 3 1000 100 7000 3.1 200 01:20 10.03.2020
1604 Clouds 3 1000 100 9000 4.6 200 00:41 10.03.2020
1605 Rain 3 1001 93 7000 5.1 210 00:22 10.03.2020
1606 Clouds 3 1001 93 8000 4.6 190 23:40 09.03.2020
1607 Clouds 4 1001 93 8000 4.6 190 23:21 09.03.2020
1608 Clouds 4 1001 93 10000 4.6 190 22:41 09.03.2020
1609 Clouds 4 1001 93 10000 2.6 150 22:22 09.03.2020
1610 Clouds 4 1001 93 10000 4.6 180 21:57 09.03.2020
1611 Clouds 4 1001 93 10000 4.6 180 21:38 09.03.2020
1612 Clouds 4 1001 93 10000 4.1 190 21:20 09.03.2020
1613 Clouds 4 1001 93 10000 5.1 170 20:56 09.03.2020
1614 Clouds 4 1001 93 10000 5.1 170 20:37 09.03.2020
1615 Clouds 4 1002 93 10000 3.1 170 20:18 09.03.2020
1616 Clouds 4 1002 93 10000 4.6 170 19:44 09.03.2020
1617 Clouds 4 1002 86 10000 5.1 170 19:21 09.03.2020
1618 Clouds 4 1002 86 10000 5.1 180 18:57 09.03.2020
1619 Clouds 5 1002 86 10000 6.2 190 18:38 09.03.2020
1620 Clouds 5 1002 86 10000 6.2 190 18:19 09.03.2020
1621 Clouds 5 1002 80 10000 5.1 190 17:57 09.03.2020
1622 Clouds 6 1002 80 10000 5.1 190 17:38 09.03.2020
1623 Clouds 6 1002 75 10000 5.1 200 17:20 09.03.2020
1624 Clouds 6 1002 75 10000 4.6 200 16:57 09.03.2020
1625 Clouds 6 1002 75 10000 4.6 200 16:39 09.03.2020
1626 Clouds 7 1002 75 10000 4.6 210 16:20 09.03.2020
1627 Clouds 7 1002 75 10000 4.6 210 15:57 09.03.2020
1628 Clouds 7 1002 75 10000 4.6 210 15:57 09.03.2020
1629 Clouds 7 1002 75 10000 6.7 200 15:38 09.03.2020
1630 Clouds 7 1002 75 10000 6.7 200 15:19 09.03.2020
1631 Clouds 7 1002 75 10000 4.6 210 14:54 09.03.2020
1632 Clouds 7 1002 75 10000 5.7 210 14:36 09.03.2020
1633 Clouds 7 1002 75 10000 5.7 210 14:18 09.03.2020
1634 Clouds 7 1002 80 10000 3.6 230 13:40 09.03.2020
1635 Clouds 7 1002 80 10000 3.6 230 13:22 09.03.2020
1636 Clouds 7 1002 80 10000 4.6 210 12:59 09.03.2020
1637 Clouds 7 1002 86 10000 6.2 190 12:41 09.03.2020
1638 Clouds 7 1002 86 10000 6.2 190 12:20 09.03.2020
1639 Clouds 6 1002 86 10000 4.6 210 11:41 09.03.2020
1640 Clouds 5 1002 86 10000 4.6 210 11:21 09.03.2020
1641 Clouds 5 1002 93 10000 6.2 210 10:58 09.03.2020
1642 Clouds 5 1002 93 10000 6.2 210 10:40 09.03.2020
1643 Clouds 5 1002 93 10000 6.2 210 10:20 09.03.2020
1644 Clouds 4 1001 93 10000 6.7 190 09:44 09.03.2020
1645 Clouds 4 1001 93 10000 7.2 200 09:24 09.03.2020
1646 Clouds 4 1000 93 10000 5.1 200 08:59 09.03.2020
1647 Clouds 3 1000 93 10000 5.1 200 08:39 09.03.2020
1648 Clouds 3 1000 93 10000 3.6 200 08:21 09.03.2020
1649 Clouds 2 1000 93 10000 3.1 150 07:40 09.03.2020
1650 Clouds 2 1000 93 10000 6.2 200 07:21 09.03.2020
1651 Clouds 2 999 100 10000 5.7 190 06:43 09.03.2020
1652 Clouds 2 999 93 10000 6.7 190 06:23 09.03.2020
1653 Clouds 2 999 93 10000 7.7 190 05:47 09.03.2020
1654 Clouds 3 999 93 10000 6.7 180 05:18 09.03.2020
1655 Clouds 3 998 93 10000 7.2 190 04:40 09.03.2020
1656 Clouds 3 997 93 10000 4.6 170 04:21 09.03.2020
1657 Clouds 4 997 93 10000 2.1 110 02:58 09.03.2020
1658 Clouds 4 996 93 10000 8.7 200 01:18 09.03.2020
1659 Clouds 4 995 86 10000 7.2 180 00:37 09.03.2020
1660 Clouds 4 995 86 10000 7.2 180 00:19 09.03.2020
1661 Rain 5 995 100 10000 5.1 180 23:42 08.03.2020
1662 Rain 5 995 100 10000 5.1 180 23:21 08.03.2020
1663 Rain 5 994 93 10000 6.2 170 22:55 08.03.2020
1664 Rain 5 994 93 10000 6.2 180 22:37 08.03.2020
1665 Rain 5 994 93 10000 6.2 180 22:18 08.03.2020
1666 Rain 5 993 100 10000 5.1 190 21:42 08.03.2020
1667 Rain 5 993 100 10000 5.1 190 21:23 08.03.2020
1668 Rain 5 992 100 8000 7.2 190 20:59 08.03.2020
1669 Rain 5 992 100 8000 7.2 190 20:39 08.03.2020
1670 Rain 5 992 100 8000 7.2 190 20:39 08.03.2020
1671 Rain 5 992 100 8000 7.2 190 20:20 08.03.2020
1672 Rain 5 992 100 8000 7.2 180 19:41 08.03.2020
1673 Rain 5 992 100 4000 7.7 170 19:20 08.03.2020
1674 Rain 5 992 100 4000 7.7 170 18:58 08.03.2020
1675 Drizzle 5 992 100 2000 7.7 170 18:39 08.03.2020
1676 Drizzle 5 992 100 5000 8.2 170 18:20 08.03.2020
1677 Rain 5 992 100 3300 9.8 170 17:41 08.03.2020
1678 Rain 5 992 100 3300 9.8 170 17:22 08.03.2020
1679 Rain 5 992 100 3300 9.8 170 16:59 08.03.2020
1680 Drizzle 5 992 100 3500 9.8 170 16:41 08.03.2020
1681 Rain 5 992 93 5000 11.3 180 16:22 08.03.2020
1682 Rain 5 992 93 5000 11.3 180 15:55 08.03.2020
1683 Rain 5 993 93 5000 9.8 170 15:37 08.03.2020
1684 Rain 5 993 93 10000 8.7 160 15:18 08.03.2020
1685 Rain 5 993 100 9000 8.7 160 14:38 08.03.2020
1686 Rain 5 994 100 8000 8.2 160 14:20 08.03.2020
1687 Rain 5 994 93 7000 8.2 170 13:55 08.03.2020
1688 Rain 5 994 93 7000 8.2 170 13:36 08.03.2020
1689 Rain 5 995 93 9000 9.8 170 13:18 08.03.2020
1690 Rain 5 995 93 9000 8.7 170 12:37 08.03.2020
1691 Clouds 5 995 93 7000 8.7 170 12:18 08.03.2020
1692 Rain 5 995 93 9000 7.7 170 11:42 08.03.2020
1693 Rain 5 996 100 6000 7.2 160 11:23 08.03.2020
1694 Rain 5 996 100 6000 7.2 160 10:57 08.03.2020
1695 Rain 5 996 100 6000 7.2 160 10:57 08.03.2020
1696 Rain 5 996 100 6000 7.2 160 10:39 08.03.2020
1697 Rain 5 996 100 6000 7.7 160 10:21 08.03.2020
1698 Rain 5 997 100 3500 6.7 160 09:40 08.03.2020
1699 Rain 5 997 100 2000 9.3 170 09:22 08.03.2020
1700 Rain 4 997 100 3000 7.2 150 08:48 08.03.2020
1701 Rain 4 997 100 3100 6.7 160 08:22 08.03.2020
1702 Rain 4 997 93 3900 6.7 160 07:49 08.03.2020
1703 Rain 4 998 100 5000 8.2 160 07:28 08.03.2020
1704 Snow 3 998 100 8000 6.7 160 06:46 08.03.2020
1705 Clouds 3 999 95 9000 6.2 170 06:27 08.03.2020
1706 Clouds 3 999 95 9000 6.2 170 05:47 08.03.2020
1707 Snow 2 1001 93 3700 6.2 160 03:52 08.03.2020
1708 Snow 2 1002 93 4500 7.7 170 02:59 08.03.2020
1709 Snow 1 1004 100 3500 6.2 160 01:38 08.03.2020
1710 Snow 1 1004 100 3500 6.2 160 01:19 08.03.2020
1711 Snow 0 1005 92 3200 6.2 160 00:41 08.03.2020
1712 Snow 0 1006 92 3700 5.7 160 23:59 07.03.2020
1713 Snow 0 1006 92 5000 6.2 160 23:41 07.03.2020
1714 Snow 0 1006 92 5000 6.2 160 23:19 07.03.2020
1715 Snow 0 1007 92 6000 5.7 160 22:38 07.03.2020
1716 Snow 0 1007 92 6000 5.7 160 22:19 07.03.2020
1717 Snow 0 1010 92 0 5.1 150 21:45 07.03.2020
1718 Clouds -1 1008 100 10000 6.2 180 21:24 07.03.2020
1719 Clouds -1 1008 100 10000 6.2 170 20:41 07.03.2020
1720 Clouds -1 1008 100 10000 5.1 180 20:22 07.03.2020
1721 Clouds -1 1008 92 10000 6.2 200 19:55 07.03.2020
1722 Clouds -1 1009 92 10000 4.6 210 19:37 07.03.2020
1723 Clouds -1 1009 86 10000 3.6 200 19:18 07.03.2020
1724 Clouds -1 1009 86 10000 3.6 200 18:40 07.03.2020
1725 Clouds -1 1008 86 10000 3.6 210 18:21 07.03.2020
1726 Clouds -1 1009 92 10000 4.1 190 17:42 07.03.2020
1727 Clouds 0 1011 73 0 3.6 160 17:21 07.03.2020
1728 Clouds 0 1011 73 0 4.1 160 16:59 07.03.2020
1729 Clouds 0 1009 92 10000 3.6 170 16:41 07.03.2020
1730 Clouds 0 1009 92 10000 3.6 170 16:22 07.03.2020
1731 Clouds 0 1009 92 10000 2.6 160 15:57 07.03.2020
1732 Clouds 0 1009 92 10000 2.6 170 15:37 07.03.2020
1733 Clouds 0 1009 92 10000 2.6 170 15:19 07.03.2020
1734 Clouds 0 1009 86 10000 2.6 170 14:46 07.03.2020
1735 Clouds 0 1010 92 10000 2.1 160 14:26 07.03.2020
1736 Clouds 0 1010 92 10000 2.1 190 13:59 07.03.2020
1737 Clouds 0 1010 92 10000 1.5 200 13:39 07.03.2020
1738 Clouds -1 1010 92 10000 1.5 200 13:19 07.03.2020
1739 Clouds -1 1010 92 10000 1.5 200 12:42 07.03.2020
1740 Clouds -1 1010 92 10000 1.59 192 12:20 07.03.2020
1741 Clouds -1 1010 92 10000 1.59 192 11:57 07.03.2020
1742 Clouds -2 1010 92 10000 1.59 192 11:39 07.03.2020
1743 Clouds -2 1010 100 10000 0.66 47 11:21 07.03.2020
1744 Clouds -2 1010 92 10000 1 0 10:41 07.03.2020
1745 Clouds -3 1010 92 10000 1 0 10:21 07.03.2020
1746 Clouds -3 1010 92 10000 1 0 10:21 07.03.2020
1747 Clouds -3 1010 92 10000 1.5 310 09:57 07.03.2020
1748 Clouds -3 1010 100 10000 1 0 09:38 07.03.2020
1749 Clouds -3 1010 100 10000 1 0 09:18 07.03.2020
1750 Clouds -4 1009 92 10000 2.1 320 08:44 07.03.2020
1751 Clouds -4 1009 92 10000 2.1 320 08:21 07.03.2020
1752 Clouds -4 1009 92 10000 2.1 320 07:51 07.03.2020
1753 Snow -4 1009 92 10000 2.1 320 07:23 07.03.2020
1754 Clouds -4 987 83 0 0.45 180 06:57 07.03.2020
1755 Clouds -4 993 1 0 1.27 19 06:30 07.03.2020
1756 Clouds -3 1009 92 10000 1.5 320 05:53 07.03.2020
1757 Clouds -3 1009 92 10000 1.5 320 04:47 07.03.2020
1758 Mist -3 1008 100 2600 2.1 30 02:57 07.03.2020
1759 Mist -3 1008 100 2600 2.1 30 02:33 07.03.2020
1760 Fog -2 1008 100 1500 1.5 20 01:26 07.03.2020
1761 Fog -2 1008 100 1000 1 0 00:39 07.03.2020
1762 -273 0 0 0 0 0 00:21 07.03.2020
1763 Fog -2 1008 100 1100 1 0 23:49 06.03.2020
1764 Fog -2 1008 100 2000 1 0 23:26 06.03.2020
1765 Snow -2 1008 100 4500 1 0 22:48 06.03.2020
1766 Snow -2 1008 100 4500 1 0 22:22 06.03.2020
1767 Snow -2 1007 100 5000 1 0 21:59 06.03.2020
1768 Snow -2 1007 92 5000 1.5 240 21:41 06.03.2020
1769 Snow -2 1007 92 5000 1.5 240 21:18 06.03.2020
1770 Snow -1 1007 92 6000 1.5 230 20:39 06.03.2020
1771 Snow -2 1007 92 6000 1.5 230 20:20 06.03.2020
1772 Fog -1 1008 100 900 2.1 30 19:51 06.03.2020
1773 Mist -1 1007 100 1500 2.6 10 19:33 06.03.2020
1774 Clouds -1 1006 100 7000 1.5 220 18:58 06.03.2020
1775 Mist -1 1006 100 5000 1.5 110 18:39 06.03.2020
1776 Mist -1 1005 100 5000 1 0 18:19 06.03.2020
1777 Mist -1 1005 100 5000 1 0 18:19 06.03.2020
1778 Clouds -1 1005 100 7000 1 0 17:42 06.03.2020
1779 Clouds 0 1006 81 10000 2.1 360 17:24 06.03.2020
1780 Clouds 0 1005 92 10000 1 0 16:59 06.03.2020
1781 Clouds 0 1005 92 10000 1 0 16:40 06.03.2020
1782 Clouds 0 1005 92 10000 1 0 16:20 06.03.2020
1783 Clouds 0 1005 100 10000 1 0 15:45 06.03.2020
1784 Clouds 0 1005 100 10000 1 0 15:24 06.03.2020
1785 Clouds 1 1005 92 9000 2.1 220 14:55 06.03.2020
1786 Clouds 0 1005 92 10000 1.5 110 14:37 06.03.2020
1787 Clouds 0 1005 92 10000 1.5 110 14:19 06.03.2020
1788 Clouds 0 1005 100 10000 2.6 150 13:43 06.03.2020
1789 Clouds 0 1005 92 9000 1.5 160 13:22 06.03.2020
1790 Clouds -1 1005 92 9000 1 0 12:57 06.03.2020
1791 Clouds -1 1005 92 8000 0.5 0 12:38 06.03.2020
1792 Clouds -1 1005 92 8000 0.5 0 12:19 06.03.2020
1793 Clouds -1 1004 92 10000 0.5 0 11:56 06.03.2020
1794 Clouds -1 1004 100 10000 1 0 11:38 06.03.2020
1795 Clouds -1 1004 100 10000 1 0 11:38 06.03.2020
1796 Clouds -2 1004 100 10000 1 0 11:19 06.03.2020
1797 Clouds -2 1004 92 8000 1 0 10:38 06.03.2020
1798 Clouds -3 1004 92 8000 1 0 10:20 06.03.2020
1799 Clouds -3 1004 100 8000 1 0 09:54 06.03.2020
1800 Clouds -3 1003 92 8000 1.5 310 09:36 06.03.2020
1801 Clouds -3 1003 92 8000 1.5 310 09:18 06.03.2020
1802 Clouds -4 1003 100 8000 2.1 300 08:42 06.03.2020
1803 Clouds -4 1003 100 8000 2.1 300 08:42 06.03.2020
1804 Clouds -4 1003 100 7000 1 0 08:24 06.03.2020
1805 Snow -4 1002 100 4000 1.5 300 07:47 06.03.2020
1806 Fog -4 1002 100 2000 2.1 310 07:26 06.03.2020
1807 Fog -4 1002 92 1800 1.5 300 06:53 06.03.2020
1808 Fog -4 1002 92 1800 1.5 300 06:53 06.03.2020
1809 Fog -4 1002 92 1900 1.5 310 06:34 06.03.2020
1810 Fog -4 1001 100 1800 2.1 320 05:42 06.03.2020
1811 Fog -4 1001 92 2000 1.5 310 05:21 06.03.2020
1812 Fog -4 1001 100 900 1.5 310 04:55 06.03.2020
1813 Fog -3 1001 100 650 1 0 01:58 06.03.2020
1814 Fog -3 1001 100 500 1 230 01:38 06.03.2020
1815 Fog -3 1001 100 500 1 230 01:19 06.03.2020
1816 Fog -3 1001 100 500 1 220 00:32 06.03.2020
1817 Fog -3 1000 100 600 1 0 23:50 05.03.2020
1818 Fog -3 1002 92 10000 1 100 23:29 05.03.2020
1819 Fog -3 1000 100 500 1 0 22:58 05.03.2020
1820 Fog -2 1000 92 900 1.5 20 22:38 05.03.2020
1821 Fog -2 1000 92 900 1.5 20 22:20 05.03.2020
1822 Fog -2 1000 100 600 2.1 360 21:56 05.03.2020
1823 Fog -2 1000 92 400 1 10 21:38 05.03.2020
1824 Fog -2 1000 92 400 1 10 21:20 05.03.2020
1825 Fog -2 999 100 2700 0.5 0 20:55 05.03.2020
1826 Fog -2 999 100 2700 0.5 340 20:37 05.03.2020
1827 Fog -2 999 100 2700 0.5 340 20:18 05.03.2020
1828 Fog -1 999 92 3500 0.45 258 19:56 05.03.2020
1829 Fog -1 999 100 2000 0.5 0 19:37 05.03.2020
1830 Fog -1 999 100 2000 0.5 0 19:18 05.03.2020
1831 Clouds -1 999 90 10000 2.1 180 18:39 05.03.2020
1832 Clouds 0 999 90 10000 2.1 180 18:20 05.03.2020
1833 Clouds 0 999 86 10000 2.6 200 17:59 05.03.2020
1834 Clouds 1 999 80 10000 0.5 0 17:40 05.03.2020
1835 Clouds 2 999 80 10000 0.5 0 17:22 05.03.2020
1836 Clouds 3 999 80 10000 2.1 210 16:54 05.03.2020
1837 Clouds 2 999 84 10000 3.6 200 16:36 05.03.2020
1838 Clouds 3 999 84 10000 3.6 200 16:18 05.03.2020
1839 Clouds 3 999 80 10000 2.1 200 15:44 05.03.2020
1840 Clouds 3 999 80 10000 2.1 200 15:22 05.03.2020
1841 Clouds 2 999 86 10000 3.1 190 14:56 05.03.2020
1842 Clouds 3 999 86 10000 2.6 200 14:37 05.03.2020
1843 Clouds 2 999 80 10000 2.1 190 14:18 05.03.2020
1844 Clouds 3 999 80 10000 2.1 190 13:55 05.03.2020
1845 Fog 2 999 82 10000 1.5 180 13:36 05.03.2020
1846 Fog 2 999 83 10000 1.5 180 13:18 05.03.2020
1847 Fog 2 999 83 10000 1.5 170 12:40 05.03.2020
1848 Fog 1 999 83 10000 1.5 170 12:40 05.03.2020
1849 Fog 1 999 83 10000 2.1 190 12:19 05.03.2020
1850 Fog 1 999 83 10000 2.1 190 11:57 05.03.2020
1851 Fog 1 999 86 10000 1.5 170 11:37 05.03.2020
1852 Fog 1 999 86 10000 1.5 170 11:37 05.03.2020
1853 Fog -1 999 86 10000 1.5 170 11:18 05.03.2020
1854 Clouds 0 999 86 10000 1 180 10:57 05.03.2020
1855 Fog -1 999 92 10000 1 0 10:38 05.03.2020
1856 Fog -1 999 92 10000 1 0 10:38 05.03.2020
1857 Fog -2 999 92 10000 1 0 10:20 05.03.2020
1858 Fog -2 999 92 10000 0.48 261 09:45 05.03.2020
1859 Fog -2 999 92 10000 0.48 261 09:26 05.03.2020
1860 Fog -3 999 92 10000 0.48 261 08:47 05.03.2020
1861 Fog -3 999 100 10000 1 10 08:29 05.03.2020
1862 Fog -4 999 92 10000 1 0 07:49 05.03.2020
1863 Fog -4 999 92 10000 1.5 290 07:23 05.03.2020
1864 Fog -4 999 100 10000 1 0 06:50 05.03.2020
1865 Fog -4 999 92 3600 0.5 0 06:23 05.03.2020
1866 Fog -4 999 100 1700 0.65 331 05:57 05.03.2020
1867 Fog -3 999 100 400 1 0 05:32 05.03.2020
1868 Snow -3 999 100 600 0.52 301 04:23 05.03.2020
1869 Snow -2 999 100 1200 0.52 301 03:58 05.03.2020
1870 Snow -2 1000 92 8000 0.5 350 02:21 05.03.2020
1871 Snow -1 1000 100 6000 0.72 299 01:24 05.03.2020
1872 Snow -1 1000 100 7000 1 0 00:43 05.03.2020
1873 Snow -1 1000 100 7000 1 0 23:56 04.03.2020
1874 Snow -1 1000 100 6000 1 0 23:38 04.03.2020
1875 Snow -1 1000 100 6000 1 0 23:19 04.03.2020
1876 Snow 0 1000 100 5000 1 0 22:40 04.03.2020
1877 Snow 0 1000 100 5000 1 0 22:19 04.03.2020
1878 Snow 0 1000 100 4600 1.5 340 21:59 04.03.2020
1879 Snow 0 1000 98 5000 2.1 350 21:41 04.03.2020
1880 Snow 0 1000 98 5000 2.1 350 21:21 04.03.2020
1881 Snow 0 1001 98 9000 1.5 340 20:57 04.03.2020
1882 Snow 0 1001 98 6000 2.1 350 20:39 04.03.2020
1883 Snow 0 1001 98 6000 2.1 350 20:21 04.03.2020
1884 Snow 0 1001 98 7000 2.6 350 19:42 04.03.2020
1885 Snow 1 1001 98 10000 2.6 360 19:24 04.03.2020
1886 Snow 1 1001 98 8000 2.1 360 18:58 04.03.2020
1887 Snow 1 1001 98 8000 2.6 350 18:40 04.03.2020
1888 Snow 1 1001 98 8000 2.6 350 18:22 04.03.2020
1889 Snow 1 1001 98 7000 3.1 360 17:56 04.03.2020
1890 Snow 1 1001 98 5000 3.6 350 17:38 04.03.2020
1891 Snow 1 1001 97 5000 3.6 350 17:19 04.03.2020
1892 Snow 1 1001 97 6000 3.6 350 16:44 04.03.2020
1893 Snow 1 1001 97 6000 3.6 350 16:26 04.03.2020
1894 Snow 1 1001 97 3500 4.1 360 15:59 04.03.2020
1895 Snow 1 1001 97 3500 4.6 360 15:41 04.03.2020
1896 Snow 1 1001 97 3500 4.6 360 15:23 04.03.2020
1897 Snow 1 1002 97 3700 4.1 360 14:56 04.03.2020
1898 Snow 1 1002 97 3300 3.6 350 14:37 04.03.2020
1899 Snow 1 1002 96 3300 3.6 350 14:19 04.03.2020
1900 Snow 1 1002 96 3000 4.1 360 13:57 04.03.2020
1901 Snow 1 1002 96 2800 4.1 360 13:38 04.03.2020
1902 Snow 1 1002 96 2800 4.1 360 13:20 04.03.2020
1903 Snow 1 1002 96 4500 3.6 360 12:45 04.03.2020
1904 Snow 1 1003 96 2200 3.6 360 12:27 04.03.2020
1905 Snow 1 1003 96 3100 3.6 360 11:59 04.03.2020
1906 Snow 1 1003 96 2400 4.6 10 11:41 04.03.2020
1907 Snow 1 1003 95 2400 4.6 10 11:22 04.03.2020
1908 Snow 1 1003 100 1900 3.6 350 10:57 04.03.2020
1909 Snow 1 1003 100 3400 3.6 360 10:38 04.03.2020
1910 Snow 1 1004 95 7000 3.1 10 10:18 04.03.2020
1911 Clouds 1 1004 95 3000 3.1 10 09:42 04.03.2020
1912 Snow 1 1004 95 7000 3.1 20 09:21 04.03.2020
1913 Snow 0 1004 100 1800 4.1 10 08:46 04.03.2020
1914 Snow 0 1004 100 3300 4.6 10 08:26 04.03.2020
1915 Snow 0 1004 100 2600 4.6 20 07:56 04.03.2020
1916 Snow 0 1004 100 4800 4.6 20 07:37 04.03.2020
1917 Snow 0 1004 100 4800 4.6 20 07:18 04.03.2020
1918 Snow 0 1004 100 7000 4.1 30 06:41 04.03.2020
1919 Snow 0 1004 100 7000 4.1 30 06:23 04.03.2020
1920 Snow 0 1004 100 6000 4.1 20 05:47 04.03.2020
1921 Snow 1 1005 98 8000 3.6 10 04:23 04.03.2020
1922 Snow 1 1005 98 6000 3.1 20 03:40 04.03.2020
1923 Snow 1 1005 98 6000 3.1 20 03:21 04.03.2020
1924 Snow 1 1005 98 3800 3.1 20 02:53 04.03.2020
1925 Snow 1 1005 99 7000 2.6 20 02:19 04.03.2020
1926 Snow 1 1005 99 10000 2.6 20 01:52 04.03.2020
1927 Snow 1 1005 99 4100 2.6 30 00:49 04.03.2020
1928 Snow 1 1005 99 4000 3.1 30 00:25 04.03.2020
1929 Snow 0 1005 99 2800 3.6 20 23:46 03.03.2020
1930 Snow 0 1005 99 2500 2.6 20 23:27 03.03.2020
1931 Snow 1 1005 98 2200 3.1 20 22:57 03.03.2020
1932 Snow 1 1005 98 2200 3.1 20 22:39 03.03.2020
1933 Snow 1 1005 98 2500 4.1 20 22:19 03.03.2020
1934 Snow 1 1005 98 2500 4.1 20 21:56 03.03.2020
1935 Snow 0 1005 98 4000 4.1 20 21:38 03.03.2020
1936 Snow 0 1005 98 4000 4.1 20 21:18 03.03.2020
1937 Snow 0 1005 100 7000 4.6 10 20:41 03.03.2020
1938 Snow 0 1005 100 7000 4.6 10 20:21 03.03.2020
1939 Snow 0 1005 100 7000 4.6 10 20:21 03.03.2020
1940 Snow 0 1005 100 4000 4.6 20 19:59 03.03.2020
1941 Snow 0 1004 97 3500 5.1 20 19:37 03.03.2020
1942 Snow 1 1004 97 3500 5.1 20 19:19 03.03.2020
1943 Snow 1 1004 97 1800 5.1 20 18:59 03.03.2020
1944 Snow 1 1004 98 1800 5.1 20 18:41 03.03.2020
1945 Snow 1 1004 98 2600 5.1 20 18:21 03.03.2020
1946 Snow 1 1004 97 3600 5.7 20 17:57 03.03.2020
1947 Snow 1 1004 98 1500 5.1 20 17:39 03.03.2020
1948 Snow 1 1004 98 1500 5.1 20 17:39 03.03.2020
1949 Snow 1 1004 97 1500 5.1 20 17:21 03.03.2020
1950 Snow 1 1004 97 2300 4.6 20 16:57 03.03.2020
1951 Snow 1 1004 97 2000 4.1 20 16:37 03.03.2020
1952 Snow 2 1004 97 2000 4.1 20 16:19 03.03.2020
1953 Snow 2 1004 86 4000 4.1 30 15:45 03.03.2020
1954 Snow 2 1004 86 4000 4.1 30 15:22 03.03.2020
1955 Rain 2 1003 86 10000 4.1 30 14:57 03.03.2020
1956 Clouds 2 1003 86 10000 4.1 40 14:38 03.03.2020
1957 Clouds 2 1003 86 10000 4.1 40 14:19 03.03.2020
1958 Rain 2 1003 86 10000 5.1 40 13:56 03.03.2020
1959 Snow 2 1003 94 9000 5.7 40 13:38 03.03.2020
1960 Snow 2 1003 94 9000 5.7 40 13:19 03.03.2020
1961 Rain 3 1003 94 10000 2.1 70 12:43 03.03.2020
1962 Rain 2 1003 94 10000 2.1 70 12:24 03.03.2020
1963 Snow 2 1003 94 10000 3.6 60 11:56 03.03.2020
1964 Snow 2 1003 94 10000 4.1 0 11:37 03.03.2020
1965 Snow 2 1003 92 10000 4.1 0 11:18 03.03.2020
1966 Snow 2 1003 92 10000 4.1 0 11:18 03.03.2020
1967 Clouds 2 1003 92 10000 3.1 50 10:55 03.03.2020
1968 Clouds 2 1002 92 10000 1.5 0 10:37 03.03.2020
1969 Clouds 2 1002 92 10000 1.5 0 10:18 03.03.2020
1970 Clouds 2 1002 92 10000 4.6 70 09:43 03.03.2020
1971 Clouds 2 1002 92 10000 4.6 70 09:22 03.03.2020
1972 Clouds 1 1001 92 10000 3.6 70 08:56 03.03.2020
1973 Clouds 1 1001 92 10000 2.6 50 08:37 03.03.2020
1974 Clouds 1 1001 98 10000 2.6 50 08:19 03.03.2020
1975 Clouds 1 1001 98 10000 2.1 40 07:42 03.03.2020
1976 Clouds 1 1000 98 10000 2.1 70 07:19 03.03.2020
1977 Clouds 1 1000 98 10000 1.5 80 06:41 03.03.2020
1978 Clouds 1 1000 98 10000 1.5 80 06:22 03.03.2020
1979 Snow 1 999 98 0 1.5 50 05:46 03.03.2020
1980 Clouds 1 998 97 10000 1.5 40 04:57 03.03.2020
1981 Clouds 1 998 97 10000 2.1 20 03:32 03.03.2020
1982 Snow 1 997 95 5000 2.1 30 01:39 03.03.2020
1983 Rain 1 997 96 10000 0.95 49 00:48 03.03.2020
1984 Rain 1 996 96 10000 1 0 00:26 03.03.2020
1985 Rain 1 996 96 10000 1.5 70 23:51 02.03.2020
1986 Snow 1 995 96 10000 1 0 23:23 02.03.2020
1987 Rain 1 995 100 10000 0.5 0 22:58 02.03.2020
1988 Rain 1 995 100 10000 0.5 0 22:58 02.03.2020
1989 Rain 1 995 100 10000 0.5 0 22:39 02.03.2020
1990 Rain 1 995 100 10000 0.5 0 22:20 02.03.2020
1991 Rain 1 994 100 10000 1 0 21:58 02.03.2020
1992 Rain 1 994 100 10000 1 0 21:39 02.03.2020
1993 Rain 2 994 93 10000 2.1 160 21:21 02.03.2020
1994 Rain 2 994 93 10000 5.1 170 20:57 02.03.2020
1995 Rain 2 994 93 10000 5.1 170 20:57 02.03.2020
1996 Clouds 2 993 93 10000 2.6 140 20:38 02.03.2020
1997 Clouds 2 993 93 10000 2.6 140 20:38 02.03.2020
1998 Clouds 2 993 93 10000 2.6 140 20:19 02.03.2020
1999 Clouds 2 992 93 10000 3.1 140 19:55 02.03.2020
2000 Clouds 2 992 93 10000 3.6 150 19:36 02.03.2020
2001 Clouds 2 992 93 10000 3.6 150 19:18 02.03.2020
2002 Clouds 2 991 93 10000 4.6 150 18:44 02.03.2020
2003 Clouds 2 991 93 10000 4.6 150 18:19 02.03.2020
2004 Clouds 2 991 93 10000 4.6 150 18:19 02.03.2020
2005 Clouds 3 991 94 10000 5.1 170 17:58 02.03.2020
2006 Clouds 3 990 94 10000 5.1 170 17:40 02.03.2020
2007 Clouds 3 990 79 10000 5.1 170 17:21 02.03.2020
2008 Clouds 3 990 79 10000 5.7 180 16:55 02.03.2020
2009 Clouds 4 989 86 10000 5.7 160 16:36 02.03.2020
2010 Clouds 4 989 86 10000 5.7 160 16:18 02.03.2020
2011 Clouds 4 989 79 10000 6.2 170 15:42 02.03.2020
2012 Clouds 4 989 79 10000 5.7 160 15:20 02.03.2020
2013 Clouds 4 988 86 10000 7.2 170 14:41 02.03.2020
2014 Clouds 4 988 86 10000 7.2 170 14:20 02.03.2020
2015 Clouds 4 988 86 10000 6.7 170 13:59 02.03.2020
2016 Clouds 4 987 86 10000 7.2 170 13:38 02.03.2020
2017 Clouds 4 987 86 10000 7.2 170 13:18 02.03.2020
2018 Rain 4 987 86 10000 6.2 170 12:43 02.03.2020
2019 Rain 4 987 86 10000 6.2 170 12:19 02.03.2020
2020 Rain 5 986 93 10000 7.2 180 11:55 02.03.2020
2021 Rain 5 986 86 10000 6.2 170 11:36 02.03.2020
2022 Rain 4 986 86 10000 6.2 170 11:18 02.03.2020
2023 Clouds 4 985 86 10000 6.2 180 10:42 02.03.2020
2024 Clouds 4 985 86 10000 6.2 170 10:20 02.03.2020
2025 Clouds 4 985 86 10000 8.2 180 09:58 02.03.2020
2026 Clouds 4 984 86 10000 8.2 180 09:39 02.03.2020
2027 Clouds 4 984 86 10000 8.2 180 09:20 02.03.2020
2028 Clouds 3 983 86 10000 7.7 200 08:41 02.03.2020
2029 Clouds 3 983 86 10000 6.2 170 08:19 02.03.2020
2030 Clouds 3 982 86 10000 6.2 160 07:42 02.03.2020
2031 Clouds 3 982 86 10000 6.2 160 07:19 02.03.2020
2032 Clouds 3 981 86 10000 6.7 170 06:38 02.03.2020
2033 Drizzle 3 981 86 10000 6.2 170 05:53 02.03.2020
2034 Clouds 3 980 93 10000 4.6 170 04:23 02.03.2020
2035 Clouds 3 980 93 10000 5.1 190 03:20 02.03.2020
2036 Clouds 3 979 93 10000 4.1 170 02:37 02.03.2020
2037 Drizzle 2 979 100 10000 4.1 160 01:47 02.03.2020
2038 Drizzle 2 979 100 10000 4.1 160 01:28 02.03.2020
2039 Clouds 2 979 96 8000 4.1 150 00:23 02.03.2020
2040 Clouds 2 979 96 6000 4.6 150 23:56 01.03.2020
2041 Snow 2 979 96 8000 5.1 150 23:38 01.03.2020
2042 Snow 2 979 98 8000 5.1 150 23:19 01.03.2020
2043 Snow 1 979 98 5000 4.6 160 22:43 01.03.2020
2044 Snow 1 979 98 3500 5.7 160 22:20 01.03.2020
2045 Rain 1 979 93 10000 6.2 160 21:55 01.03.2020
2046 Rain 1 979 93 10000 4.1 160 21:37 01.03.2020
2047 Rain 1 979 93 10000 4.1 160 21:18 01.03.2020
2048 Rain 2 979 93 10000 3.6 160 20:43 01.03.2020
2049 Rain 2 979 100 10000 3.1 130 20:25 01.03.2020
2050 Clouds 2 979 100 10000 2.1 140 19:54 01.03.2020
2051 Drizzle 2 979 100 8000 2.6 140 19:36 01.03.2020
2052 Drizzle 2 979 100 8000 2.6 140 19:18 01.03.2020
2053 Drizzle 2 978 98 8000 3.1 140 18:40 01.03.2020
2054 Drizzle 2 978 98 8000 3.1 140 18:20 01.03.2020
2055 Drizzle 2 978 98 9000 2.6 150 17:57 01.03.2020
2056 Clouds 2 978 98 10000 2.1 150 17:39 01.03.2020
2057 Clouds 2 978 99 10000 2.1 150 17:20 01.03.2020
2058 Clouds 2 978 99 10000 2.1 120 16:57 01.03.2020
2059 Clouds 2 978 99 10000 3.1 100 16:38 01.03.2020
2060 Clouds 2 978 99 10000 3.1 100 16:18 01.03.2020
2061 Clouds 2 978 99 10000 2.6 100 15:56 01.03.2020
2062 Snow 2 977 99 8000 2.6 90 15:38 01.03.2020
2063 Snow 2 977 99 8000 2.6 90 15:19 01.03.2020
2064 Snow 2 977 99 2000 2.6 80 14:56 01.03.2020
2065 Snow 2 977 99 3000 2.1 100 14:38 01.03.2020
2066 Snow 2 977 97 3000 2.1 100 14:20 01.03.2020
2067 Snow 2 977 97 9000 2.6 60 13:54 01.03.2020
2068 Snow 2 977 97 9000 2.6 60 13:54 01.03.2020
2069 Snow 2 977 97 9000 2.6 30 13:36 01.03.2020
2070 Snow 2 977 97 9000 2.6 30 13:36 01.03.2020
2071 Snow 2 977 95 9000 2.6 30 13:18 01.03.2020
2072 Snow 1 977 95 6000 2.6 30 12:41 01.03.2020
2073 Snow 1 977 95 4000 2.6 50 12:21 01.03.2020
2074 Snow 1 977 95 9000 1.5 110 11:42 01.03.2020
2075 Rain 1 977 84 10000 0.5 0 11:24 01.03.2020
2076 Clouds 1 977 83 10000 3.6 160 10:57 01.03.2020
2077 Clouds 1 977 83 10000 3.6 160 10:57 01.03.2020
2078 Clouds 1 977 83 10000 5.7 170 10:38 01.03.2020
2079 Clouds 1 977 84 10000 5.7 170 10:20 01.03.2020
2080 Clouds 0 977 83 10000 4.6 180 09:57 01.03.2020
2081 Clouds 0 977 83 10000 5.1 170 09:39 01.03.2020
2082 Clouds 0 977 83 10000 5.1 170 09:21 01.03.2020
2083 Clouds 0 976 83 10000 5.7 160 08:41 01.03.2020
2084 Clouds 0 976 89 10000 5.7 160 08:21 01.03.2020
2085 Clouds 0 975 86 10000 7.7 160 07:43 01.03.2020
2086 Clouds 0 975 87 10000 5.1 110 07:24 01.03.2020
2087 Clouds 0 975 87 10000 5.1 110 07:24 01.03.2020
2088 Clouds 0 975 87 10000 6.7 80 06:57 01.03.2020
2089 Snow 0 975 100 10000 6.2 70 06:37 01.03.2020
2090 Snow 0 977 100 1600 5.1 30 04:27 01.03.2020
2091 Snow -1 978 100 1300 6.7 20 02:55 01.03.2020
2092 Snow -1 980 100 3500 6.2 30 01:53 01.03.2020
2093 Snow -1 981 100 5000 5.7 30 01:31 01.03.2020
2094 Snow -1 982 100 3000 5.7 30 00:45 01.03.2020
2095 Snow -1 982 100 3000 5.7 30 00:22 01.03.2020
2096 Snow -1 983 100 3000 6.2 30 23:54 29.02.2020
2097 Snow -1 984 92 4500 5.7 30 23:33 29.02.2020
2098 Snow -1 985 92 4000 5.7 30 22:45 29.02.2020
2099 Snow -1 985 92 3000 5.1 30 22:25 29.02.2020
2100 Snow -1 986 92 4000 5.7 30 21:44 29.02.2020
2101 Snow -1 987 92 3000 5.1 30 21:26 29.02.2020
2102 Snow -1 987 92 3000 5.1 30 20:45 29.02.2020
2103 Snow -1 988 100 5000 4.6 30 20:22 29.02.2020
2104 Snow -1 989 100 3000 4.1 30 19:59 29.02.2020
2105 Snow -1 989 100 3500 4.1 30 19:40 29.02.2020
2106 Snow -1 989 100 3500 4.1 30 19:22 29.02.2020
2107 Snow -1 989 92 4200 4.1 30 18:56 29.02.2020
2108 Snow -1 990 92 2400 4.6 30 18:38 29.02.2020
2109 Snow -1 990 92 2400 4.6 30 18:19 29.02.2020
2110 Snow -1 990 86 3200 5.1 30 17:54 29.02.2020
2111 Snow -1 990 86 3200 5.1 30 17:54 29.02.2020
2112 Snow -1 991 86 4000 4.6 30 17:36 29.02.2020
2113 Snow -1 991 86 4000 4.6 30 17:36 29.02.2020
2114 Snow -1 991 86 4000 4.6 30 17:18 29.02.2020
2115 Snow -1 991 86 4400 4.6 20 16:42 29.02.2020
2116 Snow -1 992 79 7000 5.1 30 16:18 29.02.2020
2117 Snow -1 993 68 10000 4.6 20 15:42 29.02.2020
2118 Snow -1 993 68 10000 4.6 20 15:24 29.02.2020
2119 Snow -1 993 68 10000 4.6 20 14:56 29.02.2020
2120 Snow -1 994 68 10000 4.1 20 14:38 29.02.2020
2121 Snow -1 994 68 10000 4.1 20 14:20 29.02.2020
2122 Rain -1 995 74 10000 4.1 30 13:42 29.02.2020
2123 Rain -1 995 74 10000 4.1 30 13:23 29.02.2020
2124 Rain -1 995 74 10000 4.6 30 12:43 29.02.2020
2125 Clouds -1 995 74 10000 4.6 30 12:43 29.02.2020
2126 Clouds -1 995 74 10000 4.6 30 12:23 29.02.2020
2127 Clouds -1 996 74 10000 4.1 30 11:59 29.02.2020
2128 Clouds -1 996 79 10000 4.6 20 11:40 29.02.2020
2129 Clouds -1 996 79 10000 4.6 20 11:22 29.02.2020
2130 Clouds -1 996 79 10000 4.1 30 10:49 29.02.2020
2131 Clouds -2 996 85 10000 4.6 30 10:29 29.02.2020
2132 Clouds -2 996 85 10000 4.6 30 10:29 29.02.2020
2133 Clouds -2 997 85 10000 3.1 30 09:51 29.02.2020
2134 Clouds -2 997 85 10000 2.6 20 09:27 29.02.2020
2135 Clouds -2 997 92 10000 3.1 10 08:58 29.02.2020
2136 Clouds -2 997 92 10000 3.6 20 08:38 29.02.2020
2137 Snow -2 997 92 10000 3.6 20 08:19 29.02.2020
2138 Snow -3 997 92 10000 3.1 20 07:45 29.02.2020
2139 Snow -3 997 92 10000 2.1 20 07:19 29.02.2020
2140 Snow -3 997 92 10000 2.6 360 06:51 29.02.2020
2141 Snow -2 997 92 0 1 350 06:26 29.02.2020
2142 Snow -3 997 92 10000 1.5 330 05:48 29.02.2020
2143 Clouds -2 998 92 0 1.5 70 05:18 29.02.2020
2144 Clouds -3 998 92 10000 1 20 03:43 29.02.2020
2145 Clouds -3 998 92 10000 1 20 03:22 29.02.2020
2146 Clouds -3 998 92 10000 1.5 20 02:39 29.02.2020
2147 Clouds -2 998 92 10000 2.1 360 01:31 29.02.2020
2148 Clouds -2 998 92 10000 3.1 320 00:38 29.02.2020
2149 Clouds -2 998 85 10000 3.1 320 23:58 28.02.2020
2150 Clouds -2 998 92 10000 2.1 310 23:37 28.02.2020
2151 Clouds -2 998 92 10000 2.1 310 23:19 28.02.2020
2152 Clouds -2 998 92 10000 1 0 22:41 28.02.2020
2153 Clouds -2 998 86 10000 2.6 210 22:19 28.02.2020
2154 Clouds -2 998 92 10000 4.1 210 21:41 28.02.2020
2155 Clouds -1 998 92 10000 4.1 210 21:21 28.02.2020
2156 Clouds -1 998 92 10000 4.1 210 21:21 28.02.2020
2157 Clouds -1 998 86 10000 1.5 210 20:56 28.02.2020
2158 Clouds -1 998 92 10000 4.1 210 20:37 28.02.2020
2159 Clouds -1 998 92 10000 4.1 210 20:19 28.02.2020
2160 Clouds -1 998 92 10000 4.1 210 20:19 28.02.2020
2161 Clouds 0 999 86 10000 4.1 200 19:56 28.02.2020
2162 Clouds 0 999 86 10000 4.1 200 19:37 28.02.2020
2163 Clouds -1 999 86 10000 4.1 200 19:18 28.02.2020
2164 Clouds 0 998 86 10000 4.1 190 18:44 28.02.2020
2165 Clouds 0 998 80 10000 4.1 180 18:23 28.02.2020
2166 Clouds 1 998 69 10000 4.1 200 17:41 28.02.2020
2167 Clouds 2 998 69 10000 4.1 200 17:23 28.02.2020
2168 Clouds 2 998 69 10000 4.1 200 17:23 28.02.2020
2169 Clouds 2 999 69 10000 5.7 200 16:56 28.02.2020
2170 Clouds 2 999 69 10000 4.6 190 16:37 28.02.2020
2171 Clouds 3 999 69 10000 4.6 190 16:19 28.02.2020
2172 Clouds 3 999 69 10000 4.6 180 15:55 28.02.2020
2173 Clouds 3 999 69 10000 4.6 180 15:55 28.02.2020
2174 Clouds 3 999 71 10000 5.1 190 15:36 28.02.2020
2175 Clouds 2 999 71 10000 5.1 190 15:18 28.02.2020
2176 Clouds 2 999 71 10000 5.1 190 14:42 28.02.2020
2177 Clouds 2 1001 80 10000 4.1 210 14:19 28.02.2020
2178 Clouds 1 999 74 10000 3.6 180 13:57 28.02.2020
2179 Clouds 1 1001 86 10000 3.1 140 13:39 28.02.2020
2180 Clouds 1 1001 86 10000 3.1 140 13:19 28.02.2020
2181 Rain 0 1000 85 10000 2.1 180 12:43 28.02.2020
2182 Rain -1 1000 85 10000 2.1 180 12:24 28.02.2020
2183 Clouds -1 1000 85 10000 2.1 200 11:43 28.02.2020
2184 Clouds -2 1000 85 10000 1.5 210 11:24 28.02.2020
2185 Clouds -2 1000 79 10000 1.5 140 10:59 28.02.2020
2186 Clouds -3 1000 79 10000 1.5 140 10:41 28.02.2020
2187 Clouds -3 1000 85 10000 1 0 10:22 28.02.2020
2188 Clouds -3 1001 74 10000 2.6 140 09:47 28.02.2020
2189 Clouds -4 1001 74 10000 2.6 140 09:21 28.02.2020
2190 Clouds -5 1001 85 10000 2.1 110 08:57 28.02.2020
2191 Clouds -5 1001 92 0 1.5 140 08:39 28.02.2020
2192 Clouds -6 1001 92 0 1.5 140 08:20 28.02.2020
2193 Clouds -7 999 85 10000 0.98 184 07:41 28.02.2020
2194 Clouds -6 999 92 10000 1 0 07:22 28.02.2020
2195 Clouds -7 999 92 10000 0.5 0 06:45 28.02.2020
2196 Clouds -6 999 85 10000 1 0 06:24 28.02.2020
2197 Clouds -7 999 85 10000 1 0 04:45 28.02.2020
2198 Clouds -7 999 85 10000 1 350 04:18 28.02.2020
2199 Clouds -6 999 85 10000 1.5 10 02:46 28.02.2020
2200 Clouds -6 999 85 10000 1 0 02:27 28.02.2020
2201 Clouds -6 998 85 10000 1.5 350 00:59 28.02.2020
2202 Clouds -5 998 78 10000 1.5 340 00:28 28.02.2020
2203 Clouds -5 998 78 10000 1.5 350 23:42 27.02.2020
2204 Clouds -5 998 78 10000 1.5 350 23:20 27.02.2020
2205 Clouds -5 998 79 10000 1.5 360 22:46 27.02.2020
2206 Clouds -5 998 79 10000 1.5 360 22:26 27.02.2020
2207 Clouds -5 998 79 10000 2.1 340 21:58 27.02.2020
2208 Clouds -5 998 85 10000 1.5 360 21:39 27.02.2020
2209 Clouds -4 998 85 10000 1.5 360 21:19 27.02.2020
2210 Clouds -4 998 79 10000 1.5 330 20:56 27.02.2020
2211 Clouds -4 997 79 10000 1 0 20:38 27.02.2020
2212 Clouds -4 997 79 10000 1 0 20:20 27.02.2020
2213 Clouds -4 997 79 10000 2.1 40 19:54 27.02.2020
2214 Clouds -3 997 73 10000 1.5 30 19:36 27.02.2020
2215 Clouds -3 997 73 10000 1.5 30 19:18 27.02.2020
2216 Clouds -3 997 73 10000 1 10 18:40 27.02.2020
2217 Clouds -3 997 68 10000 0.49 25 18:21 27.02.2020
2218 Clouds -2 997 68 10000 1.5 10 17:57 27.02.2020
2219 Clouds -2 997 68 10000 1.5 10 17:57 27.02.2020
2220 Clouds -2 997 63 10000 1 350 17:39 27.02.2020
2221 Clouds -2 997 63 10000 1 350 17:19 27.02.2020
2222 Clouds -2 997 63 10000 0.47 97 16:55 27.02.2020
2223 Clouds -2 997 63 10000 0.47 97 16:37 27.02.2020
2224 Clouds -1 997 63 10000 0.47 97 16:18 27.02.2020
2225 Clouds -1 997 68 10000 0.47 97 15:54 27.02.2020
2226 Clouds -1 997 68 10000 1.5 0 15:36 27.02.2020
2227 Clouds -1 997 68 10000 1.5 0 15:18 27.02.2020
2228 Clouds -1 997 73 10000 1.5 40 14:40 27.02.2020
2229 Snow -1 997 73 10000 1.5 40 14:22 27.02.2020
2230 Snow -1 998 63 10000 1.5 20 13:56 27.02.2020
2231 Snow -2 998 79 10000 2.6 40 13:38 27.02.2020
2232 Clouds -2 998 79 10000 2.6 40 13:19 27.02.2020
2233 Clouds -3 998 79 10000 2.6 20 12:45 27.02.2020
2234 Clouds -3 998 79 10000 3.1 10 12:22 27.02.2020
2235 Clouds -3 998 79 10000 2.6 30 11:47 27.02.2020
2236 Snow -4 998 79 10000 2.6 30 11:23 27.02.2020
2237 Snow -4 999 79 10000 3.1 40 10:58 27.02.2020
2238 Snow -5 998 85 10000 3.1 10 10:40 27.02.2020
2239 Snow -5 998 85 10000 3.1 10 10:20 27.02.2020
2240 Snow -6 998 92 10000 1.5 10 09:42 27.02.2020
2241 Snow -6 999 79 10000 2.1 360 09:23 27.02.2020
2242 Snow -6 999 79 10000 2.1 20 08:55 27.02.2020
2243 Snow -7 999 79 0 2.6 360 08:37 27.02.2020
2244 Clouds -7 999 79 0 2.6 360 08:18 27.02.2020
2245 Clouds -8 998 85 10000 1.5 340 07:42 27.02.2020
2246 Clouds -8 998 85 10000 1.5 340 07:24 27.02.2020
2247 Clouds -8 998 85 10000 2.1 350 06:23 27.02.2020
2248 Clouds -9 998 85 10000 2.1 340 05:19 27.02.2020
2249 Clouds -8 998 85 10000 1.5 330 02:58 27.02.2020
2250 Clouds -8 998 78 10000 2.1 340 01:32 27.02.2020
2251 Clouds -7 998 78 10000 2.1 340 00:41 27.02.2020
2252 Clouds -7 998 78 10000 2.1 350 23:41 26.02.2020
2253 Clouds -6 998 72 10000 1.5 340 23:23 26.02.2020
2254 Clouds -6 998 73 10000 1.5 340 22:59 26.02.2020
2255 Clouds -6 998 73 10000 1.5 340 22:41 26.02.2020
2256 Clouds -5 998 73 10000 1 340 22:22 26.02.2020
2257 Clouds -5 998 73 10000 1.5 350 21:59 26.02.2020
2258 Clouds -5 998 67 10000 1.5 360 21:39 26.02.2020
2259 Clouds -5 998 67 10000 1.5 360 21:20 26.02.2020
2260 Clouds -4 998 67 10000 3.1 350 20:56 26.02.2020
2261 Clouds -4 998 62 10000 2.6 360 20:38 26.02.2020
2262 Clouds -4 998 62 10000 2.6 360 20:38 26.02.2020
2263 Clear -4 998 62 10000 2.6 360 20:19 26.02.2020
2264 Clear -4 998 67 10000 2.6 360 19:55 26.02.2020
2265 Clear -4 998 67 10000 3.1 350 19:36 26.02.2020
2266 Clear -3 998 67 10000 3.1 350 19:18 26.02.2020
2267 Clear -3 997 62 10000 3.6 360 18:54 26.02.2020
2268 Clear -3 997 62 10000 3.1 360 18:36 26.02.2020
2269 Clear -3 997 62 10000 3.1 360 18:18 26.02.2020
2270 Clear -2 997 54 10000 3.6 350 17:40 26.02.2020
2271 Clear -1 997 54 10000 3.6 350 17:19 26.02.2020
2272 Clear -1 997 54 10000 4.1 350 16:56 26.02.2020
2273 Clear -1 997 54 10000 5.1 350 16:38 26.02.2020
2274 Clear -1 997 54 10000 5.1 350 16:19 26.02.2020
2275 Clear 0 997 54 10000 5.1 350 15:44 26.02.2020
2276 Clear 0 996 54 10000 5.1 360 15:25 26.02.2020
2277 Clear 0 996 54 10000 5.7 350 14:43 26.02.2020
2278 Clouds 0 996 54 10000 5.7 350 14:23 26.02.2020
2279 Clouds 0 996 54 10000 5.7 360 13:56 26.02.2020
2280 Clouds 0 996 58 10000 5.7 10 13:38 26.02.2020
2281 Clouds 0 996 58 10000 5.7 10 13:18 26.02.2020
2282 Clouds 0 996 58 10000 5.7 10 13:18 26.02.2020
2283 Clouds -1 996 58 10000 6.7 10 12:38 26.02.2020
2284 Clouds -1 996 58 10000 6.7 10 12:19 26.02.2020
2285 Clouds -1 996 58 10000 6.7 10 12:19 26.02.2020
2286 Clouds -2 996 63 10000 6.2 10 11:55 26.02.2020
2287 Clouds -2 996 63 10000 5.7 360 11:36 26.02.2020
2288 Clouds -2 996 63 10000 5.7 360 11:36 26.02.2020
2289 Clouds -2 996 63 10000 5.7 360 11:18 26.02.2020
2290 Clouds -2 996 68 10000 6.2 10 10:40 26.02.2020
2291 Clouds -2 996 68 10000 6.2 10 10:21 26.02.2020
2292 Clouds -3 996 68 10000 5.7 10 09:44 26.02.2020
2293 Clouds -4 995 68 10000 6.7 20 09:25 26.02.2020
2294 Clouds -4 995 73 10000 5.7 10 08:59 26.02.2020
2295 Clouds -4 995 73 10000 5.1 10 08:38 26.02.2020
2296 Clouds -4 995 73 10000 5.1 10 08:19 26.02.2020
2297 Clouds -4 994 73 10000 7.2 10 07:45 26.02.2020
2298 Clouds -4 994 73 10000 6.2 10 07:26 26.02.2020
2299 Clouds -4 994 73 10000 5.7 10 06:53 26.02.2020
2300 Clouds -4 994 73 10000 6.2 10 06:34 26.02.2020
2301 Clouds -4 993 73 10000 5.1 10 05:53 26.02.2020
2302 Clouds -3 993 73 10000 7.2 20 05:25 26.02.2020
2303 Clouds -3 993 73 10000 6.2 20 04:34 26.02.2020
2304 Clouds -2 992 62 10000 6.7 20 02:33 26.02.2020
2305 Clouds -2 992 58 10000 7.7 20 01:48 26.02.2020
2306 Clouds -1 991 63 10000 6.7 30 00:50 26.02.2020
2307 Clouds -1 991 68 10000 7.2 20 00:25 26.02.2020
2308 Clouds -1 991 68 10000 7.2 20 00:25 26.02.2020
2309 Clouds -1 991 63 10000 7.2 20 23:56 25.02.2020
2310 Clouds -1 991 63 10000 7.2 20 23:37 25.02.2020
2311 Clouds -1 991 63 10000 7.2 20 23:19 25.02.2020
2312 Clouds 0 991 63 10000 6.7 20 22:42 25.02.2020
2313 Clouds 0 991 63 10000 6.7 20 22:19 25.02.2020
2314 Clouds 0 991 63 10000 7.2 20 21:56 25.02.2020
2315 Clouds 0 991 63 10000 6.7 30 21:36 25.02.2020
2316 Clouds 0 991 63 10000 6.7 30 21:18 25.02.2020
2317 Clouds 0 990 63 10000 6.7 30 20:55 25.02.2020
2318 Clouds 0 990 63 10000 6.2 20 20:36 25.02.2020
2319 Clouds 1 990 63 10000 6.2 20 20:18 25.02.2020
2320 Clouds 1 990 60 10000 6.7 30 19:42 25.02.2020
2321 Clouds 1 990 60 10000 6.7 30 19:19 25.02.2020
2322 Clouds 1 990 60 10000 7.7 30 18:43 25.02.2020
2323 Clouds 1 990 60 10000 7.7 30 18:22 25.02.2020
2324 Clouds 1 990 50 10000 7.7 40 18:00 25.02.2020
2325 Clouds 1 990 50 10000 7.7 40 17:38 25.02.2020
2326 Clouds 2 990 50 10000 7.7 40 17:20 25.02.2020
2327 Clouds 2 990 50 10000 8.7 50 16:59 25.02.2020
2328 Clouds 2 990 50 10000 8.7 50 16:41 25.02.2020
2329 Clouds 2 990 50 10000 7.2 40 16:22 25.02.2020
2330 Clouds 2 990 50 10000 6.7 30 15:59 25.02.2020
2331 Clouds 2 990 50 10000 6.2 20 15:41 25.02.2020
2332 Clouds 2 990 50 10000 6.2 20 15:19 25.02.2020
2333 Clouds 2 990 50 10000 6.7 20 14:57 25.02.2020
2334 Clouds 1 990 52 10000 6.7 30 14:38 25.02.2020
2335 Clouds 1 990 57 10000 6.7 30 14:18 25.02.2020
2336 Clouds 1 990 57 10000 6.7 30 14:18 25.02.2020
2337 Clouds 1 991 57 10000 6.7 20 13:55 25.02.2020
2338 Clouds 1 991 57 10000 6.7 20 13:37 25.02.2020
2339 Clouds 1 991 55 10000 6.7 20 13:19 25.02.2020
2340 Clouds 1 992 55 10000 7.2 10 12:42 25.02.2020
2341 Clouds 1 992 55 10000 7.2 10 12:22 25.02.2020
2342 Clouds 1 992 63 10000 7.2 20 11:57 25.02.2020
2343 Clouds 1 992 63 10000 8.7 20 11:39 25.02.2020
2344 Clouds 1 992 63 10000 8.7 20 11:19 25.02.2020
2345 Clouds 0 992 68 10000 7.2 20 10:59 25.02.2020
2346 Clouds 0 993 68 10000 7.2 20 10:40 25.02.2020
2347 Clouds 0 993 68 10000 7.2 20 10:21 25.02.2020
2348 Clouds -1 993 68 10000 6.7 20 09:41 25.02.2020
2349 Clouds -1 993 68 10000 6.7 20 09:22 25.02.2020
2350 Clouds -1 993 68 10000 6.2 20 08:47 25.02.2020
2351 Clouds -1 994 68 10000 5.1 30 08:28 25.02.2020
2352 Clouds -1 994 68 10000 5.7 20 07:58 25.02.2020
2353 Clouds -1 994 68 10000 5.7 20 07:39 25.02.2020
2354 Clouds -1 994 68 10000 5.7 20 07:18 25.02.2020
2355 Clouds -1 995 73 10000 6.2 20 06:32 25.02.2020
2356 Clouds -1 995 68 10000 5.1 30 05:27 25.02.2020
2357 Clouds -1 996 68 10000 6.2 20 03:30 25.02.2020
2358 Clouds -2 998 73 10000 4.1 20 01:31 25.02.2020
2359 Clouds -2 998 68 10000 4.1 20 00:43 25.02.2020
2360 Clouds -2 998 68 10000 4.1 20 00:25 25.02.2020
2361 Clouds -2 999 73 10000 4.1 30 23:42 24.02.2020
2362 Clouds -2 999 73 10000 4.1 30 23:20 24.02.2020
2363 Clouds -2 1000 79 10000 1.5 360 22:41 24.02.2020
2364 Clouds -2 1000 79 10000 1.5 360 22:20 24.02.2020
2365 Clouds -1 1000 79 10000 2.1 360 21:57 24.02.2020
2366 Clouds -2 1000 79 10000 1.5 350 21:39 24.02.2020
2367 Clouds -2 1000 79 10000 1.5 350 21:19 24.02.2020
2368 Clouds -1 1000 74 10000 1.5 360 20:58 24.02.2020
2369 Clouds -1 1000 74 10000 1.5 360 20:39 24.02.2020
2370 Clouds -1 1000 74 10000 1.5 20 20:19 24.02.2020
2371 Clouds 0 1000 61 10000 1 0 19:56 24.02.2020
2372 Clouds 0 1000 61 10000 1 0 19:38 24.02.2020
2373 Clouds 0 1001 59 10000 2.6 200 19:20 24.02.2020
2374 Clouds 0 1001 59 10000 2.6 200 18:43 24.02.2020
2375 Clouds 0 1001 59 10000 2.6 170 18:43 24.02.2020
2376 Clouds 1 1001 59 10000 2.6 170 18:24 24.02.2020
2377 Clouds 2 1001 55 10000 3.6 190 17:58 24.02.2020
2378 Clouds 2 1001 51 10000 2.6 180 17:39 24.02.2020
2379 Clouds 3 1001 51 10000 2.6 180 17:20 24.02.2020
2380 Clouds 3 1001 51 10000 3.1 200 16:58 24.02.2020
2381 Clouds 4 1001 44 10000 2.6 210 16:39 24.02.2020
2382 Clouds 5 1001 44 10000 2.6 210 16:20 24.02.2020
2383 Clouds 5 1002 48 10000 2.6 220 15:57 24.02.2020
2384 Clouds 5 1002 44 10000 3.1 230 15:39 24.02.2020
2385 Clouds 5 1002 44 10000 3.1 230 15:20 24.02.2020
2386 Clouds 5 1003 41 10000 3.6 200 14:56 24.02.2020
2387 Clouds 5 1003 41 10000 4.6 210 14:38 24.02.2020
2388 Clouds 5 1003 41 10000 4.6 210 14:18 24.02.2020
2389 Clouds 5 1003 44 10000 5.1 190 13:56 24.02.2020
2390 Clouds 5 1004 44 10000 5.7 190 13:36 24.02.2020
2391 Clouds 5 1004 44 10000 5.7 190 13:18 24.02.2020
2392 Clouds 5 1004 47 10000 5.7 200 12:42 24.02.2020
2393 Clouds 5 1004 47 10000 5.7 200 12:24 24.02.2020
2394 Clouds 4 1004 51 10000 6.7 190 11:51 24.02.2020
2395 Clear 3 1004 47 10000 5.1 190 11:32 24.02.2020
2396 Clear 3 1004 50 10000 3.6 200 10:59 24.02.2020
2397 Clear 3 1004 50 10000 2.6 150 10:40 24.02.2020
2398 Clear 2 1004 50 10000 2.6 150 10:22 24.02.2020
2399 Clear 1 1004 63 10000 2.6 200 09:40 24.02.2020
2400 Clear -1 1004 63 10000 2.6 200 09:19 24.02.2020
2401 Clear -1 1004 54 10000 1.5 150 08:53 24.02.2020
2402 Clear -1 1004 63 10000 2.1 320 08:29 24.02.2020
2403 Clouds -2 1004 58 10000 1 0 07:56 24.02.2020
2404 Clouds -1 1004 58 10000 2.1 230 07:33 24.02.2020
2405 Clouds -1 1003 63 10000 3.1 0 06:53 24.02.2020
2406 Clouds 0 1003 58 10000 1.5 340 06:26 24.02.2020
2407 Clouds 0 1003 58 10000 1 0 05:46 24.02.2020
2408 Clouds 0 1002 58 10000 1.5 0 05:25 24.02.2020
2409 Clouds -1 1001 58 10000 2.1 200 02:58 24.02.2020
2410 Clouds -1 1001 66 10000 1 0 02:31 24.02.2020
2411 Clouds 0 1000 71 10000 1 0 01:31 24.02.2020
2412 Clouds 0 999 58 10000 2.1 340 00:47 24.02.2020
2413 Clouds 0 999 58 10000 2.1 340 00:21 24.02.2020
2414 Clouds 0 998 71 10000 1.5 340 23:55 23.02.2020
2415 Clouds 0 998 71 10000 2.6 290 23:36 23.02.2020
2416 Clouds 0 998 68 10000 2.6 290 23:18 23.02.2020
2417 Clouds 0 997 47 10000 1.5 20 22:43 23.02.2020
2418 Clouds 0 996 47 10000 1.5 0 22:22 23.02.2020
2419 Clouds 1 996 47 10000 3.1 310 21:55 23.02.2020
2420 Clouds 1 995 47 10000 5.1 320 21:37 23.02.2020
2421 Clouds 1 995 47 10000 5.1 320 21:18 23.02.2020
2422 Clouds 1 994 47 10000 4.1 310 20:55 23.02.2020
2423 Clouds 1 993 43 10000 3.1 310 20:37 23.02.2020
2424 Clouds 2 993 43 10000 3.1 310 20:18 23.02.2020
2425 Clouds 2 992 40 10000 2.1 280 19:42 23.02.2020
2426 Clouds 3 993 48 0 3.6 290 19:20 23.02.2020
2427 Clouds 3 993 48 0 3.6 290 18:59 23.02.2020
2428 Clouds 3 990 35 10000 2.1 300 18:41 23.02.2020
2429 Clouds 3 990 35 10000 2.1 300 18:21 23.02.2020
2430 Clouds 3 990 38 10000 3.1 300 17:58 23.02.2020
2431 Clouds 4 989 35 10000 2.6 290 17:40 23.02.2020
2432 Clouds 5 989 35 10000 2.6 290 17:21 23.02.2020
2433 Clouds 5 989 35 10000 3.6 300 16:56 23.02.2020
2434 Clouds 6 988 35 10000 3.1 320 16:37 23.02.2020
2435 Clouds 6 988 33 10000 3.6 270 16:18 23.02.2020
2436 Clouds 6 988 33 10000 3.6 270 15:54 23.02.2020
2437 Clouds 7 988 33 10000 2.6 280 15:36 23.02.2020
2438 Clouds 7 988 33 10000 2.6 280 15:18 23.02.2020
2439 Clouds 7 988 33 10000 2.6 270 14:55 23.02.2020
2440 Clouds 6 988 35 10000 3.1 250 14:37 23.02.2020
2441 Clouds 6 988 35 10000 3.1 250 14:18 23.02.2020
2442 Clouds 6 988 41 10000 1.5 0 13:42 23.02.2020
2443 Clear 6 988 41 10000 1.5 0 13:22 23.02.2020
2444 Clear 6 987 41 10000 3.1 240 12:59 23.02.2020
2445 Clear 6 987 41 10000 3.1 210 12:38 23.02.2020
2446 Clear 6 987 41 10000 3.1 210 12:19 23.02.2020
2447 Clear 5 987 51 10000 3.1 190 11:38 23.02.2020
2448 Clear 5 987 51 10000 3.1 190 11:20 23.02.2020
2449 Clear 5 987 51 10000 3.1 190 11:20 23.02.2020
2450 Clear 4 987 41 10000 1 0 10:57 23.02.2020
2451 Clear 4 986 44 10000 3.6 160 10:39 23.02.2020
2452 Clear 4 986 44 10000 3.6 160 10:21 23.02.2020
2453 Clear 4 986 48 10000 3.1 0 09:56 23.02.2020
2454 Clear 4 986 44 10000 5.7 140 09:37 23.02.2020
2455 Clear 4 986 44 10000 5.7 140 09:18 23.02.2020
2456 Clear 3 984 47 10000 3.6 260 08:43 23.02.2020
2457 Clouds 3 984 47 10000 3.6 260 08:24 23.02.2020
2458 Clear 2 984 55 10000 5.7 250 07:43 23.02.2020
2459 Clear 3 984 55 10000 5.7 250 07:25 23.02.2020
2460 Clear 3 983 64 10000 5.1 240 06:20 23.02.2020
2461 Clear 3 982 69 10000 3.6 220 04:51 23.02.2020
2462 Clear 3 981 74 10000 3.6 230 03:52 23.02.2020
2463 Clouds 3 980 74 10000 5.1 220 02:40 23.02.2020
2464 Rain 3 980 74 10000 6.7 210 01:27 23.02.2020
2465 Rain 3 980 74 10000 6.7 210 01:27 23.02.2020
2466 Clouds 3 980 74 10000 6.2 220 00:59 23.02.2020
2467 Clouds 3 980 69 10000 5.7 210 00:41 23.02.2020
2468 Clouds 3 980 69 10000 5.7 210 00:19 23.02.2020
2469 Clouds 2 980 64 10000 7.7 220 23:42 22.02.2020
2470 Clear 2 980 64 10000 7.7 220 23:20 22.02.2020
2471 Clear 2 980 64 10000 4.6 210 22:45 22.02.2020
2472 Clear 2 980 59 10000 4.6 220 22:20 22.02.2020
2473 Clear 2 980 64 10000 5.7 210 21:43 22.02.2020
2474 Clear 2 980 59 10000 5.7 220 21:25 22.02.2020
2475 Clear 2 981 55 10000 5.1 230 20:58 22.02.2020
2476 Clear 3 981 51 10000 6.2 240 20:39 22.02.2020
2477 Clouds 3 981 51 10000 6.2 240 20:21 22.02.2020
2478 Clouds 3 980 51 10000 6.2 230 19:42 22.02.2020
2479 Clouds 3 980 51 10000 6.2 230 19:23 22.02.2020
2480 Clouds 3 980 51 10000 6.7 240 18:55 22.02.2020
2481 Clouds 3 985 60 0 4.6 240 18:37 22.02.2020
2482 Clouds 3 985 60 0 4.6 240 18:18 22.02.2020
2483 Clouds 4 979 51 10000 6.7 240 17:44 22.02.2020
2484 Clouds 4 978 48 10000 7.2 250 17:25 22.02.2020
2485 Clouds 5 978 44 10000 7.2 260 16:59 22.02.2020
2486 Clouds 5 977 44 10000 6.2 250 16:40 22.02.2020
2487 Clouds 6 977 44 10000 6.2 250 16:20 22.02.2020
2488 Clouds 6 977 45 10000 6.2 260 15:55 22.02.2020
2489 Clouds 6 977 45 10000 7.2 250 15:37 22.02.2020
2490 Clouds 6 977 45 10000 7.2 250 15:19 22.02.2020
2491 Clouds 6 976 48 10000 7.2 250 14:41 22.02.2020
2492 Clouds 7 976 48 10000 7.2 250 14:21 22.02.2020
2493 Clouds 7 976 56 10000 6.2 250 13:43 22.02.2020
2494 Rain 7 975 60 10000 5.7 240 13:20 22.02.2020
2495 Rain 7 974 46 10000 5.1 250 12:59 22.02.2020
2496 Rain 8 973 70 10000 7.2 240 12:39 22.02.2020
2497 Rain 8 973 70 10000 7.2 240 12:20 22.02.2020
2498 Clouds 8 973 70 10000 6.2 240 11:44 22.02.2020
2499 Clouds 8 971 75 10000 7.2 240 11:26 22.02.2020
2500 Rain 7 970 87 8000 9.8 210 10:55 22.02.2020
2501 Rain 7 971 93 6000 8.7 190 10:37 22.02.2020
2502 Rain 7 971 93 6000 8.7 190 10:18 22.02.2020
2503 Rain 7 972 93 6000 10.3 180 09:55 22.02.2020
2504 Rain 7 973 93 10000 10.8 180 09:37 22.02.2020
2505 Rain 7 973 93 10000 10.8 180 09:18 22.02.2020
2506 Rain 6 977 93 10000 8.7 170 08:44 22.02.2020
2507 Rain 6 977 93 10000 8.7 170 08:25 22.02.2020
2508 Rain 6 979 87 10000 7.7 180 07:39 22.02.2020
2509 Rain 6 979 87 10000 7.7 180 07:18 22.02.2020
2510 Clouds 6 980 87 10000 6.7 190 06:45 22.02.2020
2511 Clouds 6 984 93 10000 5.1 200 04:54 22.02.2020
2512 Clouds 6 984 93 10000 6.7 200 04:28 22.02.2020
2513 Clouds 6 987 93 10000 9.3 180 02:42 22.02.2020
2514 Rain 6 988 86 10000 6.7 170 01:51 22.02.2020
2515 Rain 6 988 86 10000 4.1 160 01:30 22.02.2020
2516 Clouds 6 989 93 10000 3.6 170 00:50 22.02.2020
2517 Clouds 6 989 86 10000 6.7 190 00:32 22.02.2020
2518 Clouds 6 990 86 10000 5.1 210 23:56 21.02.2020
2519 Clouds 6 990 93 10000 5.7 200 23:37 21.02.2020
2520 Clouds 6 990 93 10000 5.7 200 23:18 21.02.2020
2521 Clouds 6 990 93 10000 5.7 200 23:18 21.02.2020
2522 Clouds 6 991 86 10000 8.7 190 22:42 21.02.2020
2523 Clouds 6 991 86 10000 8.7 190 22:24 21.02.2020
2524 Clouds 6 991 86 10000 6.7 200 21:56 21.02.2020
2525 Clouds 6 991 86 10000 8.2 200 21:37 21.02.2020
2526 Clouds 6 991 86 10000 8.2 200 21:19 21.02.2020
2527 Clouds 5 991 86 10000 10.3 200 20:42 21.02.2020
2528 Clouds 5 991 86 10000 10.3 200 20:23 21.02.2020
2529 Clouds 5 991 86 10000 9.3 200 19:40 21.02.2020
2530 Clouds 6 991 86 10000 9.3 200 19:21 21.02.2020
2531 Rain 6 991 86 10000 6.7 210 18:44 21.02.2020
2532 Rain 6 991 86 9000 10.3 190 18:24 21.02.2020
2533 Rain 5 992 93 10000 10.8 190 17:57 21.02.2020
2534 Rain 5 992 93 9000 10.3 190 17:38 21.02.2020
2535 Rain 5 992 93 9000 10.3 190 17:19 21.02.2020
2536 Rain 5 993 86 7000 9.3 190 16:54 21.02.2020
2537 Rain 5 994 85 10000 10.8 190 16:36 21.02.2020
2538 Rain 5 994 85 10000 10.8 190 16:18 21.02.2020
2539 Clouds 5 994 74 10000 7.2 170 15:39 21.02.2020
2540 Clouds 5 994 74 10000 7.2 170 15:19 21.02.2020
2541 Clouds 5 995 74 10000 7.2 170 14:43 21.02.2020
2542 Clouds 5 995 74 10000 7.2 170 14:22 21.02.2020
2543 Clouds 5 996 74 10000 7.2 180 13:59 21.02.2020
2544 Clouds 4 996 74 10000 7.2 180 13:40 21.02.2020
2545 Clouds 4 996 74 10000 6.7 190 13:20 21.02.2020
2546 Clouds 4 996 69 10000 6.7 200 12:45 21.02.2020
2547 Clouds 4 996 74 10000 6.2 190 12:27 21.02.2020
2548 Clouds 4 996 80 10000 8.2 180 11:57 21.02.2020
2549 Clouds 4 996 74 10000 6.2 180 11:38 21.02.2020
2550 Clear 4 996 74 10000 6.2 180 11:20 21.02.2020
2551 Clear 4 998 74 10000 6.7 210 10:42 21.02.2020
2552 Clear 3 998 74 10000 6.7 210 10:22 21.02.2020
2553 Clear 3 995 74 10000 6.2 170 09:58 21.02.2020
2554 Clear 2 995 66 10000 4.6 180 09:39 21.02.2020
2555 Clear 1 995 66 10000 4.6 180 09:20 21.02.2020
2556 Clear 1 994 66 10000 6.2 180 08:56 21.02.2020
2557 Clear 1 993 86 10000 5.1 190 08:36 21.02.2020
2558 Clouds 0 993 86 10000 5.1 190 08:18 21.02.2020
2559 Clouds 0 993 73 10000 6.2 180 07:42 21.02.2020
2560 Clouds 0 993 86 10000 4.6 200 07:21 21.02.2020
2561 Clouds 0 992 73 10000 3.6 190 06:56 21.02.2020
2562 Clouds 1 992 74 10000 3.1 150 06:33 21.02.2020
2563 Clouds 1 991 69 10000 3.6 190 05:56 21.02.2020
2564 Clouds 1 994 74 0 3.6 210 05:30 21.02.2020
2565 Clouds 1 994 74 0 3.6 210 05:30 21.02.2020
2566 Clouds 2 989 64 10000 3.6 220 04:26 21.02.2020
2567 Clouds 2 989 74 10000 4.6 210 03:47 21.02.2020
2568 Clouds 3 987 69 10000 2.1 250 02:59 21.02.2020
2569 Rain 3 985 86 10000 1 240 01:43 21.02.2020
2570 Rain 3 985 86 10000 1 240 01:22 21.02.2020
2571 Rain 4 985 93 10000 5.1 220 00:38 21.02.2020
2572 Rain 4 985 93 10000 5.1 220 00:19 21.02.2020
2573 Rain 4 984 93 10000 8.2 190 23:41 20.02.2020
2574 Rain 5 984 93 10000 8.2 190 23:22 20.02.2020
2575 Rain 5 985 93 10000 9.3 190 22:42 20.02.2020
2576 Rain 5 985 93 10000 9.3 190 22:23 20.02.2020
2577 Rain 6 985 100 10000 10.8 190 21:58 20.02.2020
2578 Rain 6 986 93 7000 11.3 190 21:40 20.02.2020
2579 Rain 6 986 93 7000 11.3 190 21:20 20.02.2020
2580 Rain 6 986 93 10000 7.7 170 20:57 20.02.2020
2581 Rain 6 987 100 9000 5.7 150 20:39 20.02.2020
2582 Rain 6 987 100 9000 5.7 150 20:39 20.02.2020
2583 Rain 6 987 100 9000 5.7 150 20:20 20.02.2020
2584 Clouds 6 990 100 6000 10.8 190 19:59 20.02.2020
2585 Clouds 6 990 100 6000 10.8 190 19:41 20.02.2020
2586 Rain 5 990 100 6000 10.3 190 19:23 20.02.2020
2587 Drizzle 5 989 100 5000 6.2 150 18:55 20.02.2020
2588 Clouds 5 989 100 6000 7.2 160 18:37 20.02.2020
2589 Rain 5 991 93 2400 10.8 180 18:18 20.02.2020
2590 -273 0 0 0 0 0 17:39 20.02.2020
2591 Clouds 4 990 93 7000 8.2 160 17:20 20.02.2020
2592 Clouds 4 991 93 6000 7.2 160 16:58 20.02.2020
2593 Clouds 4 993 93 9000 7.2 150 16:39 20.02.2020
2594 Clouds 4 993 93 9000 7.2 150 16:19 20.02.2020
2595 Clouds 4 994 93 10000 7.7 150 15:56 20.02.2020
2596 Snow 3 995 93 10000 6.7 150 15:37 20.02.2020
2597 Snow 4 995 93 10000 6.7 150 15:19 20.02.2020
2598 Snow 3 996 93 10000 6.2 150 14:43 20.02.2020
2599 Clouds 3 997 93 9000 5.1 150 14:25 20.02.2020
2600 Clouds 3 998 100 8000 6.2 160 13:58 20.02.2020
2601 Snow 3 998 100 8000 5.1 160 13:40 20.02.2020
2602 Snow 3 998 100 8000 5.1 160 13:19 20.02.2020
2603 Clouds 3 999 100 8000 6.2 170 12:43 20.02.2020
2604 Rain 2 1001 93 9000 8.2 170 12:21 20.02.2020
2605 Rain 2 1001 93 9000 8.2 170 11:59 20.02.2020
2606 Rain 2 1001 93 9000 7.2 170 11:41 20.02.2020
2607 Rain 2 1001 93 9000 7.2 170 11:41 20.02.2020
2608 Rain 2 1001 93 9000 7.2 170 11:22 20.02.2020
2609 Rain 2 1002 93 8000 6.2 170 10:56 20.02.2020
2610 Rain 2 1002 100 8000 4.1 180 10:38 20.02.2020
2611 Rain 2 1002 100 8000 4.1 180 10:19 20.02.2020
2612 Clouds 2 1003 95 6000 4.6 180 09:39 20.02.2020
2613 Clouds 2 1003 95 6000 4.6 180 09:21 20.02.2020
2614 Clouds 1 1003 95 6000 4.1 170 08:44 20.02.2020
2615 Clouds 1 1003 83 10000 3.6 180 08:25 20.02.2020
2616 Snow 0 1004 100 10000 3.6 190 07:56 20.02.2020
2617 Clouds 0 1004 100 8000 1.5 200 07:38 20.02.2020
2618 Clouds 0 1004 100 8000 1.5 200 07:19 20.02.2020
2619 Fog 0 1004 100 2000 1.5 180 06:43 20.02.2020
2620 Fog 0 1004 100 7000 1 0 06:20 20.02.2020
2621 Fog 0 1004 100 6000 2.1 140 05:43 20.02.2020
2622 Clouds -1 1005 92 10000 1 0 04:50 20.02.2020
2623 Clouds -1 1005 92 10000 1 340 03:47 20.02.2020
2624 Clouds -2 1005 92 10000 1 310 02:59 20.02.2020
2625 Clouds -2 1006 85 10000 0.5 0 01:34 20.02.2020
2626 Clear -2 1005 92 10000 1.5 20 00:54 20.02.2020
2627 Clear -2 1005 85 10000 1 350 00:25 20.02.2020
2628 Clear -3 1005 85 10000 1 0 23:49 19.02.2020
2629 Clear -2 1005 86 10000 1 0 23:21 19.02.2020
2630 Clear -2 1005 86 10000 0.13 274 22:44 19.02.2020
2631 Clear -2 1005 86 10000 0.13 274 22:25 19.02.2020
2632 Clear -2 1004 79 10000 1.5 360 21:59 19.02.2020
2633 Clear -1 1004 86 10000 1.5 20 21:40 19.02.2020
2634 Clear -1 1004 86 10000 1.5 20 21:19 19.02.2020
2635 Clear -1 1004 80 10000 1.5 20 20:58 19.02.2020
2636 Clear -1 1004 75 10000 1.5 360 20:39 19.02.2020
2637 Clear 0 1004 71 10000 1.5 360 20:20 19.02.2020
2638 Clear 0 1004 71 10000 1.5 360 20:20 19.02.2020
2639 Clear 0 1004 64 10000 1.5 360 19:58 19.02.2020
2640 Clear 0 1003 64 10000 2.6 310 19:38 19.02.2020
2641 Clear 0 1003 64 10000 2.6 310 19:19 19.02.2020
2642 Clear 1 1003 59 10000 2.1 320 18:58 19.02.2020
2643 Clear 1 1003 51 10000 1 0 18:39 19.02.2020
2644 Clear 2 1003 51 10000 1 0 18:21 19.02.2020
2645 Clear 2 1002 48 10000 1 340 17:55 19.02.2020
2646 Clear 4 1002 48 10000 1 0 17:37 19.02.2020
2647 Clear 4 1002 48 10000 1 0 17:18 19.02.2020
2648 Clear 6 1001 48 10000 0.5 0 16:41 19.02.2020
2649 Clear 6 1001 48 10000 0.5 0 16:18 19.02.2020
2650 Clear 6 1001 48 10000 0.5 0 16:18 19.02.2020
2651 Clear 7 1000 42 10000 1.5 170 15:54 19.02.2020
2652 -273 0 0 0 0 0 15:36 19.02.2020
2653 Clear 7 1000 42 10000 2.1 170 15:36 19.02.2020
2654 Clear 6 1000 42 10000 2.1 170 15:18 19.02.2020
2655 Clear 6 1000 45 10000 2.1 160 14:40 19.02.2020
2656 Clear 6 1000 45 10000 2.1 160 14:22 19.02.2020
2657 Clear 6 999 52 10000 1 0 13:43 19.02.2020
2658 Clear 5 999 48 10000 1.5 360 13:23 19.02.2020
2659 Clear 5 999 51 10000 1 0 12:58 19.02.2020
2660 Clear 5 999 59 10000 1 0 12:37 19.02.2020
2661 Clear 5 999 59 10000 1 0 12:18 19.02.2020
2662 Clear 4 998 69 10000 2.1 190 11:39 19.02.2020
2663 Clear 3 998 69 10000 2.1 190 11:20 19.02.2020
2664 Clear 2 997 74 10000 2.1 220 10:59 19.02.2020
2665 Clear 1 997 65 10000 2.1 200 10:38 19.02.2020
2666 Clear 1 997 65 10000 2.1 200 10:20 19.02.2020
2667 Clear -1 997 86 10000 2.1 210 09:59 19.02.2020
2668 Clear -1 996 80 10000 1.5 170 09:39 19.02.2020
2669 Clear -1 996 80 10000 1.5 170 09:39 19.02.2020
2670 Clear -1 996 80 10000 1.5 170 09:20 19.02.2020
2671 Clear -2 996 86 10000 1 0 08:48 19.02.2020
2672 Clear -2 996 86 10000 1 0 08:48 19.02.2020
2673 Clouds -2 996 86 10000 1.5 190 08:24 19.02.2020
2674 Clouds -2 995 92 10000 0.8 241 07:57 19.02.2020
2675 Clouds -2 995 92 10000 0.8 241 07:38 19.02.2020
2676 Clouds -2 995 92 10000 0.8 241 07:18 19.02.2020
2677 Clouds -2 995 92 10000 0.8 241 07:18 19.02.2020
2678 Clouds -2 995 92 10000 0.8 241 06:42 19.02.2020
2679 Clouds -1 995 86 10000 1 0 05:26 19.02.2020
2680 Clouds -1 994 86 10000 2.1 180 03:52 19.02.2020
2681 Clouds 0 994 80 10000 5.1 220 02:36 19.02.2020
2682 Clouds 1 994 69 10000 3.6 200 01:44 19.02.2020
2683 Clouds 1 994 69 10000 3.6 200 01:23 19.02.2020
2684 Clouds 2 994 69 10000 4.6 210 00:41 19.02.2020
2685 Clouds 2 994 69 10000 4.6 210 00:19 19.02.2020
2686 Clouds 2 993 69 10000 4.6 200 23:40 18.02.2020
2687 Clouds 2 993 69 10000 4.6 200 23:20 18.02.2020
2688 Clouds 2 993 64 10000 5.1 210 22:55 18.02.2020
2689 Clouds 2 993 69 10000 4.6 190 22:37 18.02.2020
2690 Clouds 2 993 69 10000 4.6 190 22:19 18.02.2020
2691 Clouds 2 993 69 10000 4.6 190 22:19 18.02.2020
2692 Clouds 3 993 64 10000 4.6 200 21:54 18.02.2020
2693 Clouds 3 993 59 10000 5.1 180 21:36 18.02.2020
2694 Clouds 3 993 59 10000 5.1 180 21:18 18.02.2020
2695 Clouds 3 993 59 10000 5.7 190 20:54 18.02.2020
2696 Clouds 3 992 55 10000 6.7 210 20:36 18.02.2020
2697 Clouds 3 992 55 10000 6.7 210 20:18 18.02.2020
2698 Clouds 4 992 55 10000 4.6 200 19:42 18.02.2020
2699 Clouds 4 992 55 10000 4.6 200 19:19 18.02.2020
2700 Clouds 4 992 55 10000 3.6 200 18:56 18.02.2020
2701 Clouds 4 992 59 10000 3.6 190 18:38 18.02.2020
2702 Clouds 5 992 59 10000 3.6 190 18:18 18.02.2020
2703 Clouds 5 992 59 10000 3.6 190 18:18 18.02.2020
2704 Clouds 5 991 48 10000 6.2 220 17:41 18.02.2020
2705 Clouds 6 991 48 10000 6.2 220 17:19 18.02.2020
2706 Clouds 7 991 56 10000 6.7 220 16:40 18.02.2020
2707 Clouds 7 991 56 10000 6.7 220 16:22 18.02.2020
2708 Clouds 7 991 60 10000 8.7 200 15:58 18.02.2020
2709 Clouds 7 991 55 10000 7.7 200 15:39 18.02.2020
2710 Clouds 7 991 55 10000 6.7 210 15:19 18.02.2020
2711 Clouds 7 991 55 10000 6.7 210 14:56 18.02.2020
2712 Clouds 7 991 55 10000 7.2 210 14:38 18.02.2020
2713 Clouds 6 991 62 10000 7.2 210 14:19 18.02.2020
2714 Clouds 6 990 62 10000 6.7 200 13:41 18.02.2020
2715 Clouds 6 990 61 10000 6.7 200 13:22 18.02.2020
2716 Clouds 6 990 61 10000 6.7 200 13:22 18.02.2020
2717 Clouds 5 990 61 10000 5.7 190 12:55 18.02.2020
2718 Clouds 5 990 61 10000 5.7 190 12:37 18.02.2020
2719 Clouds 5 990 61 10000 5.7 190 12:19 18.02.2020
2720 Clouds 5 990 61 10000 5.7 200 11:43 18.02.2020
2721 Clouds 4 990 75 10000 5.7 200 11:25 18.02.2020
2722 Clouds 4 990 75 10000 5.7 190 10:55 18.02.2020
2723 Clouds 4 990 75 10000 5.1 200 10:37 18.02.2020
2724 Clouds 4 989 75 10000 5.7 190 10:18 18.02.2020
2725 Clouds 4 989 75 10000 5.7 190 09:55 18.02.2020
2726 Clouds 4 989 75 10000 5.7 200 09:36 18.02.2020
2727 Clouds 4 989 75 10000 5.7 200 09:18 18.02.2020
2728 Clouds 3 988 75 10000 6.2 200 08:42 18.02.2020
2729 Clouds 3 988 70 10000 6.2 200 08:20 18.02.2020
2730 Clouds 3 988 70 10000 7.2 180 07:56 18.02.2020
2731 Clouds 3 988 70 10000 7.2 180 07:31 18.02.2020
2732 Clouds 3 988 70 10000 7.7 190 06:56 18.02.2020
2733 Clouds 3 988 74 10000 7.2 190 06:37 18.02.2020
2734 Clouds 4 988 74 10000 6.7 180 05:59 18.02.2020
2735 Clouds 3 987 70 10000 6.2 180 05:33 18.02.2020
2736 Clouds 4 987 69 10000 4.1 160 03:59 18.02.2020
2737 Clouds 4 986 69 10000 6.7 190 02:59 18.02.2020
2738 Clouds 4 986 68 10000 4.6 190 01:58 18.02.2020
2739 Clouds 5 985 69 10000 5.7 190 00:54 18.02.2020
2740 Clouds 5 984 65 10000 5.1 200 00:22 18.02.2020
2741 Clouds 6 984 65 10000 5.1 200 23:45 17.02.2020
2742 Clouds 6 984 69 10000 5.1 200 23:26 17.02.2020
2743 Clouds 5 983 69 10000 6.7 200 22:59 17.02.2020
2744 Clouds 6 983 65 10000 7.7 210 22:41 17.02.2020
2745 Clouds 6 983 65 10000 7.7 210 22:20 17.02.2020
2746 -273 0 0 0 0 0 21:56 17.02.2020
2747 Clouds 6 981 56 10000 7.2 220 21:37 17.02.2020
2748 -273 0 0 0 0 0 21:18 17.02.2020
2749 Clouds 6 980 65 10000 6.2 190 20:40 17.02.2020
2750 Clouds 6 980 65 10000 6.2 190 20:21 17.02.2020
2751 Clouds 6 980 65 10000 6.2 190 20:21 17.02.2020
2752 Clouds 6 980 56 10000 6.2 200 19:57 17.02.2020
2753 Clouds 6 979 56 10000 8.2 210 19:38 17.02.2020
2754 Clouds 7 979 56 10000 8.2 210 19:19 17.02.2020
2755 Clouds 7 978 60 10000 8.2 210 18:37 17.02.2020
2756 Clouds 7 978 60 10000 8.2 210 18:37 17.02.2020
2757 Clouds 7 978 60 10000 8.2 210 18:37 17.02.2020
2758 Clouds 7 978 60 10000 8.2 210 18:19 17.02.2020
2759 Clouds 7 978 60 10000 8.2 210 18:19 17.02.2020
2760 Clouds 7 977 56 10000 7.7 220 17:57 17.02.2020
2761 Clouds 7 976 59 10000 10.8 210 17:37 17.02.2020
2762 Clouds 7 976 61 10000 10.8 210 17:19 17.02.2020
2763 Clouds 7 976 61 10000 10.3 210 16:55 17.02.2020
2764 Clouds 7 976 61 10000 8.7 200 16:36 17.02.2020
2765 Clouds 7 976 61 10000 8.7 200 16:36 17.02.2020
2766 Clouds 8 976 61 10000 8.7 200 16:18 17.02.2020
2767 Clouds 8 976 65 10000 10.3 200 15:44 17.02.2020
2768 Clouds 8 976 65 10000 10.8 200 15:26 17.02.2020
2769 Clouds 7 975 65 10000 10.8 200 14:55 17.02.2020
2770 Clouds 8 976 65 10000 11.8 200 14:37 17.02.2020
2771 Clouds 8 976 65 10000 11.8 200 14:19 17.02.2020
2772 Clouds 8 976 65 10000 11.8 200 14:19 17.02.2020
2773 Clouds 8 976 70 10000 10.8 200 13:40 17.02.2020
2774 Clouds 8 976 70 10000 10.8 200 13:40 17.02.2020
2775 Clouds 7 976 70 10000 12.3 200 13:20 17.02.2020
2776 Clouds 8 976 70 10000 12.3 200 12:57 17.02.2020
2777 Clouds 8 976 70 10000 11.8 200 12:39 17.02.2020
2778 Clouds 7 976 70 10000 11.8 200 12:21 17.02.2020
2779 Clouds 7 976 75 10000 9.8 200 11:45 17.02.2020
2780 Clouds 6 976 70 10000 10.3 190 11:26 17.02.2020
2781 Clouds 6 976 71 10000 8.7 190 10:58 17.02.2020
2782 Clouds 6 976 71 10000 9.3 180 10:39 17.02.2020
2783 Clouds 5 976 71 10000 9.3 180 10:20 17.02.2020
2784 Clouds 5 976 71 10000 10.3 180 09:57 17.02.2020
2785 Clouds 5 976 71 10000 10.8 190 09:38 17.02.2020
2786 Clouds 5 976 71 10000 10.8 190 09:19 17.02.2020
2787 Clouds 4 976 71 10000 9.8 180 08:42 17.02.2020
2788 Clouds 4 976 69 10000 9.8 180 08:23 17.02.2020
2789 Clouds 4 975 69 10000 9.3 180 07:59 17.02.2020
2790 Clouds 4 976 69 10000 8.7 180 07:38 17.02.2020
2791 Clouds 4 976 69 10000 8.7 180 07:19 17.02.2020
2792 Clouds 4 975 86 10000 9.3 180 06:43 17.02.2020
2793 Clouds 4 975 86 10000 9.3 180 06:24 17.02.2020
2794 Clouds 4 975 86 10000 7.2 190 05:40 17.02.2020
2795 Clouds 4 975 83 10000 3.6 160 04:39 17.02.2020
2796 Clouds 3 976 83 10000 3.6 120 02:59 17.02.2020
2797 Clouds 3 976 81 10000 2.6 140 01:23 17.02.2020
2798 Clouds 3 976 81 10000 5.1 180 00:39 17.02.2020
2799 Clouds 3 976 81 10000 5.1 180 00:19 17.02.2020
2800 Clouds 3 976 81 10000 5.1 170 23:52 16.02.2020
2801 Clouds 3 976 81 10000 5.7 170 23:27 16.02.2020
2802 Clouds 3 976 74 10000 6.2 170 22:56 16.02.2020
2803 Clouds 3 976 74 10000 7.7 170 22:38 16.02.2020
2804 Clouds 3 976 74 10000 7.7 170 22:38 16.02.2020
2805 Clouds 3 976 74 10000 7.7 170 22:19 16.02.2020
2806 Clouds 3 976 74 10000 6.2 160 21:55 16.02.2020
2807 Clouds 3 976 74 10000 5.1 160 21:36 16.02.2020
2808 Clouds 3 976 74 10000 5.1 160 21:18 16.02.2020
2809 Clouds 3 976 74 10000 6.7 140 20:54 16.02.2020
2810 Clouds 3 976 74 10000 1 0 20:36 16.02.2020
2811 Clouds 3 976 74 10000 1 0 20:18 16.02.2020
2812 Clouds 4 976 74 10000 5.1 200 19:54 16.02.2020
2813 Clouds 3 975 74 10000 6.2 200 19:36 16.02.2020
2814 Clouds 4 975 69 10000 6.7 210 19:18 16.02.2020
2815 Clouds 4 975 69 10000 6.7 210 18:41 16.02.2020
2816 Clouds 4 974 69 10000 6.7 220 18:23 16.02.2020
2817 Clouds 4 974 69 10000 6.7 220 18:23 16.02.2020
2818 Clouds 5 973 66 10000 7.7 220 17:45 16.02.2020
2819 Rain 5 972 70 10000 10.3 220 17:21 16.02.2020
2820 Clouds 5 971 81 10000 9.3 210 16:57 16.02.2020
2821 Clouds 6 971 87 10000 9.8 210 16:39 16.02.2020
2822 Clouds 6 971 87 10000 9.8 210 16:39 16.02.2020
2823 Clouds 6 971 87 10000 9.8 210 16:21 16.02.2020
2824 Clouds 6 971 87 10000 9.8 210 16:21 16.02.2020
2825 Clouds 6 971 81 10000 9.3 200 15:57 16.02.2020
2826 Clouds 7 970 87 10000 9.3 210 15:38 16.02.2020
2827 Clouds 7 970 87 10000 9.3 210 15:18 16.02.2020
2828 Clouds 7 970 87 10000 11.3 200 14:40 16.02.2020
2829 Rain 7 970 93 10000 11.3 190 14:22 16.02.2020
2830 Rain 7 970 93 10000 10.8 190 13:48 16.02.2020
2831 Rain 7 971 100 10000 5.1 190 13:25 16.02.2020
2832 Rain 7 975 93 0 11.8 200 12:56 16.02.2020
2833 Drizzle 7 975 93 0 10.8 200 12:38 16.02.2020
2834 Rain 7 972 100 3400 3.1 160 12:19 16.02.2020
2835 Rain 6 975 93 9000 6.7 170 11:39 16.02.2020
2836 Rain 6 975 93 9000 6.7 170 11:19 16.02.2020
2837 Rain 5 976 93 8000 8.2 170 10:58 16.02.2020
2838 Drizzle 6 977 87 8000 7.2 170 10:39 16.02.2020
2839 Drizzle 6 977 87 8000 7.2 170 10:21 16.02.2020
2840 Drizzle 6 978 87 10000 8.7 170 09:57 16.02.2020
2841 Clouds 6 978 87 10000 9.3 190 09:37 16.02.2020
2842 Clouds 6 978 87 10000 9.3 190 09:19 16.02.2020
2843 Clouds 6 979 87 10000 11.8 190 08:47 16.02.2020
2844 Clouds 6 979 93 10000 9.8 190 08:22 16.02.2020
2845 Clouds 6 979 93 10000 9.8 190 08:22 16.02.2020
2846 Clouds 7 979 87 10000 8.7 200 07:56 16.02.2020
2847 Clouds 7 979 87 10000 9.8 200 07:34 16.02.2020
2848 Rain 7 978 93 10000 9.3 190 06:36 16.02.2020
2849 Rain 7 978 93 10000 12.3 200 05:37 16.02.2020
2850 Rain 7 980 93 6000 12.3 170 03:58 16.02.2020
2851 Rain 7 984 93 9000 10.3 170 02:35 16.02.2020
2852 Rain 7 985 93 9000 8.2 160 01:57 16.02.2020
2853 Rain 7 986 93 9000 8.2 150 01:37 16.02.2020
2854 Rain 7 986 93 9000 8.2 150 01:18 16.02.2020
2855 Rain 7 989 100 9000 7.7 150 00:40 16.02.2020
2856 Rain 6 989 100 9000 7.7 150 00:19 16.02.2020
2857 Rain 6 992 93 10000 7.7 140 23:42 15.02.2020
2858 Rain 6 992 93 10000 7.7 140 23:23 15.02.2020
2859 Rain 6 993 93 10000 7.7 150 22:56 15.02.2020
2860 Rain 5 994 93 10000 6.7 150 22:38 15.02.2020
2861 Rain 5 994 93 10000 6.7 150 22:19 15.02.2020
2862 Rain 5 997 93 9000 5.7 130 21:43 15.02.2020
2863 Rain 5 997 93 9000 5.7 130 21:24 15.02.2020
2864 Rain 5 998 93 9000 5.7 130 20:56 15.02.2020
2865 Rain 5 999 93 8000 4.6 130 20:37 15.02.2020
2866 Rain 5 999 93 8000 4.6 130 20:37 15.02.2020
2867 Rain 5 999 93 8000 4.6 130 20:19 15.02.2020
2868 Clouds 5 1001 93 10000 6.7 160 19:41 15.02.2020
2869 Clouds 5 1001 93 10000 6.7 160 19:22 15.02.2020
2870 Rain 5 1001 93 10000 4.1 150 18:41 15.02.2020
2871 Rain 5 1002 93 10000 5.7 170 18:21 15.02.2020
2872 Rain 5 1003 93 10000 6.7 180 17:55 15.02.2020
2873 Clouds 4 1003 86 10000 3.1 120 17:37 15.02.2020
2874 Clouds 5 1003 86 10000 3.1 120 17:18 15.02.2020
2875 Clouds 5 1004 93 10000 4.6 160 16:41 15.02.2020
2876 Clouds 5 1004 93 10000 4.6 160 16:21 15.02.2020
2877 Clouds 5 1005 86 10000 2.1 200 15:50 15.02.2020
2878 Clouds 5 1005 80 10000 3.6 200 15:31 15.02.2020
2879 Clouds 6 1005 80 10000 4.6 210 14:57 15.02.2020
2880 Clouds 6 1005 80 10000 5.1 180 14:39 15.02.2020
2881 Clouds 6 1005 80 10000 5.1 180 14:18 15.02.2020
2882 Clouds 6 1005 80 10000 4.1 190 13:42 15.02.2020
2883 Clouds 6 1005 80 10000 4.1 190 13:22 15.02.2020
2884 Clouds 6 1005 80 10000 5.7 190 12:57 15.02.2020
2885 Clouds 6 1005 86 10000 4.6 200 12:38 15.02.2020
2886 Clouds 6 1005 86 10000 4.6 200 12:19 15.02.2020
2887 Clouds 6 1005 86 10000 4.6 190 11:45 15.02.2020
2888 Clouds 5 1005 86 10000 5.1 210 11:26 15.02.2020
2889 Clouds 5 1004 93 10000 4.6 210 10:49 15.02.2020
2890 Clouds 4 1004 93 10000 3.1 200 10:29 15.02.2020
2891 Clouds 4 1004 93 10000 4.1 200 09:56 15.02.2020
2892 Clouds 4 1004 93 10000 4.6 210 09:37 15.02.2020
2893 Clouds 4 1004 93 10000 4.6 210 09:19 15.02.2020
2894 Clouds 4 1003 93 10000 5.1 200 08:43 15.02.2020
2895 Clouds 4 1003 93 10000 5.1 200 08:23 15.02.2020
2896 Clouds 4 1003 93 10000 4.1 210 07:50 15.02.2020
2897 Clouds 4 1003 93 10000 5.7 190 07:30 15.02.2020
2898 Mist 4 1003 100 3500 6.7 170 06:47 15.02.2020
2899 Mist 4 1003 100 3500 6.7 170 06:28 15.02.2020
2900 Drizzle 4 1003 93 10000 5.7 170 05:41 15.02.2020
2901 Rain 4 1004 100 9000 5.7 160 04:45 15.02.2020
2902 Rain 3 1005 93 10000 7.7 170 03:24 15.02.2020
2903 Rain 3 1005 93 10000 7.2 170 02:50 15.02.2020
2904 Rain 3 1005 93 10000 7.2 170 02:21 15.02.2020
2905 Clouds 3 1006 93 10000 6.2 170 01:39 15.02.2020
2906 Rain 2 1007 100 10000 7.7 170 00:42 15.02.2020
2907 Rain 3 1007 100 10000 7.7 170 00:21 15.02.2020
2908 Drizzle 3 1011 86 0 8.7 190 23:40 14.02.2020
2909 Snow 2 1008 94 10000 5.7 160 23:19 14.02.2020
2910 Snow 2 1010 94 3000 3.1 170 22:44 14.02.2020
2911 Snow 2 1010 94 3000 3.1 170 22:23 14.02.2020
2912 Clouds 1 1010 86 10000 3.6 210 21:54 14.02.2020
2913 Clouds 1 1010 80 10000 3.1 160 21:36 14.02.2020
2914 Clouds 1 1010 80 10000 3.1 160 21:18 14.02.2020
2915 Clouds 1 1011 80 10000 3.1 160 20:42 14.02.2020
2916 Clouds 0 1011 80 10000 4.1 160 20:19 14.02.2020
2917 Clouds 0 1012 80 10000 5.1 170 19:55 14.02.2020
2918 Clouds 0 1012 80 10000 2.6 170 19:37 14.02.2020
2919 Clouds 0 1012 80 10000 2.6 170 19:18 14.02.2020
2920 Clouds 0 1012 80 10000 3.6 170 18:55 14.02.2020
2921 Clouds 0 1012 80 10000 4.1 180 18:36 14.02.2020
2922 Clouds 0 1012 80 10000 4.1 180 18:18 14.02.2020
2923 Clouds 0 1012 86 10000 3.1 160 17:40 14.02.2020
2924 Clouds 0 1013 86 10000 3.6 170 17:19 14.02.2020
2925 Clouds 0 1013 80 10000 3.6 170 16:43 14.02.2020
2926 Clouds 0 1013 80 10000 3.6 170 16:25 14.02.2020
2927 Clouds 0 1013 80 10000 3.1 170 15:59 14.02.2020
2928 Clouds 1 1013 65 10000 2.1 150 15:41 14.02.2020
2929 Clouds 1 1013 65 10000 2.1 150 15:22 14.02.2020
2930 Clouds 1 1012 74 10000 3.1 160 14:59 14.02.2020
2931 Clouds 1 1012 74 10000 3.1 170 14:41 14.02.2020
2932 Clear 1 1012 74 10000 3.1 170 14:22 14.02.2020
2933 Clear 1 1012 74 10000 2.6 160 13:58 14.02.2020
2934 Clear 1 1012 74 10000 2.6 170 13:39 14.02.2020
2935 Clear 1 1012 74 10000 2.6 170 13:20 14.02.2020
2936 Clear 0 1012 74 10000 1.5 0 12:57 14.02.2020
2937 Clear 0 1012 74 10000 1.5 140 12:38 14.02.2020
2938 Clear 0 1012 74 10000 1.5 140 12:20 14.02.2020
2939 Clear -1 1012 79 10000 1.5 160 11:57 14.02.2020
2940 Clear -1 1012 79 10000 1.5 160 11:57 14.02.2020
2941 Clear -1 1012 73 10000 0.74 180 11:39 14.02.2020
2942 Clear -1 1012 73 10000 0.32 300 11:19 14.02.2020
2943 Clear -2 1012 79 10000 0.32 300 10:43 14.02.2020
2944 Clear -3 1011 79 10000 1 0 10:23 14.02.2020
2945 Clear -3 1011 85 10000 1.5 20 09:56 14.02.2020
2946 Clear -4 1011 79 10000 2.1 340 09:36 14.02.2020
2947 Clear -4 1011 79 10000 2.1 340 09:18 14.02.2020
2948 Clear -4 1010 85 10000 1.5 320 08:40 14.02.2020
2949 Clouds -5 1010 85 10000 1.5 320 08:22 14.02.2020
2950 Clouds -5 1010 85 10000 1.5 320 08:22 14.02.2020
2951 Clouds -4 1009 85 10000 1 20 07:50 14.02.2020
2952 Clouds -4 1009 85 10000 1 20 07:31 14.02.2020
2953 Clouds -4 1011 100 0 1 330 06:48 14.02.2020
2954 Clouds -4 1009 79 10000 1.5 350 06:22 14.02.2020
2955 Clouds -4 1008 79 10000 1 0 05:41 14.02.2020
2956 Clouds -4 1008 79 10000 1 0 05:41 14.02.2020
2957 Clouds -3 1007 79 10000 1 340 03:51 14.02.2020
2958 Clouds -3 1007 79 10000 0.51 10 02:58 14.02.2020
2959 Clouds -4 1006 79 10000 1 0 02:18 14.02.2020
2960 Clouds -3 1006 79 10000 1 320 01:18 14.02.2020
2961 Clouds -3 1005 73 10000 1.5 10 00:32 14.02.2020
2962 Clouds -3 1005 73 10000 1.5 360 23:59 13.02.2020
2963 Clouds -3 1005 73 10000 1.5 350 23:41 13.02.2020
2964 Clouds -3 1005 73 10000 1.5 350 23:19 13.02.2020
2965 Clouds -3 1004 73 10000 2.1 360 22:41 13.02.2020
2966 Clouds -3 1004 73 10000 2.1 360 22:20 13.02.2020
2967 Clouds -3 1004 68 10000 1.5 360 21:59 13.02.2020
2968 Clouds -3 1003 68 10000 2.1 350 21:40 13.02.2020
2969 Clouds -3 1003 68 10000 2.1 350 21:20 13.02.2020
2970 Clouds -2 1002 63 10000 2.1 340 20:43 13.02.2020
2971 Clouds -2 1002 63 10000 2.1 340 20:23 13.02.2020
2972 Clouds -2 1002 68 10000 2.1 340 19:58 13.02.2020
2973 Clouds -2 1002 63 10000 1.5 340 19:40 13.02.2020
2974 Clouds -2 1002 63 10000 1.5 340 19:21 13.02.2020
2975 Clouds -1 1001 62 10000 1 0 18:59 13.02.2020
2976 Clouds -1 1001 62 10000 0.5 0 18:41 13.02.2020
2977 Clouds -1 1001 62 10000 0.5 0 18:22 13.02.2020
2978 Clouds -1 1001 40 10000 1 0 17:58 13.02.2020
2979 Clouds 0 1000 37 10000 1 0 17:37 13.02.2020
2980 Clear 2 1000 37 10000 1 0 17:19 13.02.2020
2981 Clear 3 1000 35 10000 1 0 16:55 13.02.2020
2982 Clear 3 1000 35 10000 1 0 16:55 13.02.2020
2983 Clear 3 1000 35 10000 1 0 16:36 13.02.2020
2984 Clear 3 1000 35 10000 1 0 16:36 13.02.2020
2985 Clear 4 1000 35 10000 1 0 16:18 13.02.2020
2986 Clear 4 1000 35 10000 1.5 0 15:54 13.02.2020
2987 Clear 4 999 35 10000 2.1 310 15:36 13.02.2020
2988 Clear 4 999 35 10000 2.1 310 15:18 13.02.2020
2989 Clear 4 999 32 10000 2.6 310 14:54 13.02.2020
2990 Clear 4 999 32 10000 2.6 290 14:36 13.02.2020
2991 Clear 4 999 35 10000 3.1 280 14:18 13.02.2020
2992 Clear 4 998 32 10000 2.1 0 13:41 13.02.2020
2993 Clear 4 998 32 10000 2.1 0 13:18 13.02.2020
2994 Clear 4 998 34 10000 2.1 300 12:48 13.02.2020
2995 Clear 4 998 37 10000 2.6 270 12:30 13.02.2020
2996 Clear 3 997 40 10000 1.5 250 11:59 13.02.2020
2997 Clear 3 997 43 10000 1 0 11:41 13.02.2020
2998 Clear 2 997 43 10000 1 0 11:19 13.02.2020
2999 Clear 1 996 58 10000 1 0 10:44 13.02.2020
3000 Clear 1 996 58 10000 1 0 10:44 13.02.2020
3001 Clear 1 996 58 10000 1 0 10:26 13.02.2020
3002 Clear 0 996 54 10000 1 0 09:50 13.02.2020
3003 Clear 0 996 63 10000 0.5 0 09:26 13.02.2020
3004 Clear -1 995 58 10000 0.5 0 08:52 13.02.2020
3005 Clouds -1 995 58 10000 2.1 250 08:21 13.02.2020
3006 Clouds -1 995 58 10000 1 0 07:57 13.02.2020
3007 Clouds -1 998 57 0 4.6 220 07:38 13.02.2020
3008 Clouds -1 998 57 0 4.6 220 07:38 13.02.2020
3009 Clouds -1 998 57 0 4.6 220 07:20 13.02.2020
3010 Clouds -1 994 54 10000 1 0 06:44 13.02.2020
3011 Clouds -1 994 63 10000 1.5 250 06:18 13.02.2020
3012 Clouds -1 993 57 10000 2.1 250 05:30 13.02.2020
3013 Clear -1 993 57 10000 2.6 240 04:25 13.02.2020
3014 Clear -1 993 57 10000 4.6 240 03:47 13.02.2020
3015 Clear 0 992 57 10000 4.1 230 03:18 13.02.2020
3016 Clear 0 992 57 10000 4.1 240 02:48 13.02.2020
3017 Clouds 0 992 57 10000 3.6 280 02:19 13.02.2020
3018 Clouds 0 991 63 10000 0.5 0 01:32 13.02.2020
3019 Clouds 0 991 63 10000 1.5 260 00:33 13.02.2020
3020 Clouds 0 990 63 10000 0.5 0 23:59 12.02.2020
3021 Clouds 0 990 59 10000 1.5 0 23:38 12.02.2020
3022 Clouds 0 990 58 10000 1.5 0 23:20 12.02.2020
3023 Clouds 0 989 58 10000 2.1 220 22:45 12.02.2020
3024 Clouds 0 989 47 10000 2.1 290 22:25 12.02.2020
3025 Clouds 0 988 58 10000 1.5 290 21:58 12.02.2020
3026 Clouds 0 988 47 10000 1.5 0 21:40 12.02.2020
3027 Clouds 1 988 47 10000 1.5 0 21:19 12.02.2020
3028 Clouds 1 987 47 10000 2.6 290 20:56 12.02.2020
3029 Clouds 1 987 47 10000 2.6 310 20:37 12.02.2020
3030 Clouds 2 987 47 10000 2.6 310 20:19 12.02.2020
3031 Clouds 2 986 40 10000 3.1 290 19:54 12.02.2020
3032 Clouds 2 986 40 10000 2.6 290 19:36 12.02.2020
3033 Clouds 2 986 40 10000 2.6 290 19:18 12.02.2020
3034 Clouds 2 985 40 10000 2.1 280 18:45 12.02.2020
3035 Clouds 3 985 40 10000 2.6 0 18:18 12.02.2020
3036 Clouds 3 985 40 10000 2.6 0 18:18 12.02.2020
3037 Clouds 4 983 38 10000 3.6 240 17:43 12.02.2020
3038 Clouds 4 983 38 10000 3.6 240 17:21 12.02.2020
3039 Clouds 5 983 35 10000 3.1 250 16:59 12.02.2020
3040 Clouds 5 983 41 10000 1 0 16:39 12.02.2020
3041 Clouds 6 983 41 10000 1 0 16:19 12.02.2020
3042 Clouds 6 982 38 10000 2.1 290 15:43 12.02.2020
3043 Clouds 5 982 41 10000 1.5 300 15:23 12.02.2020
3044 Clouds 5 981 44 10000 2.6 290 14:57 12.02.2020
3045 Clouds 5 981 44 10000 3.1 290 14:39 12.02.2020
3046 Clouds 6 981 44 10000 3.1 290 14:20 12.02.2020
3047 Clouds 6 980 51 10000 3.1 300 13:57 12.02.2020
3048 Clouds 6 980 48 10000 2.6 290 13:38 12.02.2020
3049 Clouds 6 980 48 10000 2.6 290 13:19 12.02.2020
3050 Clouds 5 980 44 10000 3.1 280 12:57 12.02.2020
3051 Clouds 5 979 48 10000 3.1 280 12:38 12.02.2020
3052 Clouds 5 979 48 10000 3.1 280 12:18 12.02.2020
3053 Clouds 5 979 48 10000 3.1 280 12:18 12.02.2020
3054 Clouds 5 978 55 10000 1.5 270 11:56 12.02.2020
3055 Clouds 5 978 59 10000 1.5 0 11:37 12.02.2020
3056 Clouds 4 978 59 10000 1.5 0 11:19 12.02.2020
3057 Clouds 3 977 64 10000 1 0 10:54 12.02.2020
3058 Clouds 2 977 74 10000 3.1 350 10:36 12.02.2020
3059 Clouds 2 977 74 10000 3.1 350 10:18 12.02.2020
3060 Clouds 2 976 74 10000 2.1 10 09:41 12.02.2020
3061 Clouds 2 976 74 10000 2.1 10 09:41 12.02.2020
3062 Clouds 2 975 74 10000 2.6 320 09:41 12.02.2020
3063 Clouds 2 975 74 10000 2.6 320 09:21 12.02.2020
3064 Clouds 2 974 80 10000 1 0 08:57 12.02.2020
3065 Clouds 1 974 80 10000 1 0 08:37 12.02.2020
3066 Clouds 1 974 80 10000 1 0 08:19 12.02.2020
3067 Clouds 1 973 86 10000 5.1 220 07:44 12.02.2020
3068 Clouds 1 973 86 10000 5.1 220 07:23 12.02.2020
3069 Clouds 2 973 86 10000 5.1 220 06:56 12.02.2020
3070 Clouds 1 972 86 10000 3.6 230 06:23 12.02.2020
3071 Clouds 2 972 86 10000 5.7 190 05:38 12.02.2020
3072 Clouds 2 975 75 0 5.7 210 04:58 12.02.2020
3073 Clouds 2 972 80 10000 4.6 220 04:39 12.02.2020
3074 Clouds 2 972 86 10000 5.7 210 03:33 12.02.2020
3075 Clouds 2 972 86 10000 6.2 200 02:58 12.02.2020
3076 Clouds 2 975 75 0 6.7 200 02:30 12.02.2020
3077 Clouds 2 972 86 10000 6.7 190 01:51 12.02.2020
3078 Clouds 2 972 86 10000 6.7 180 00:45 12.02.2020
3079 Clouds 2 972 86 10000 6.7 190 00:26 12.02.2020
3080 Clouds 2 972 80 10000 8.2 180 23:57 11.02.2020
3081 Clouds 2 972 80 10000 6.7 170 23:39 11.02.2020
3082 Clouds 2 972 80 10000 6.7 170 23:20 11.02.2020
3083 Clouds 3 972 74 10000 8.2 180 22:55 11.02.2020
3084 Clouds 2 972 80 10000 6.7 200 22:37 11.02.2020
3085 Clouds 3 972 74 10000 5.7 200 22:18 11.02.2020
3086 Clouds 2 972 74 10000 5.7 200 21:55 11.02.2020
3087 Clouds 2 972 80 10000 6.7 210 21:37 11.02.2020
3088 Clouds 2 972 69 10000 4.6 220 21:18 11.02.2020
3089 Clouds 2 972 69 10000 4.6 220 20:54 11.02.2020
3090 Clouds 2 972 69 10000 4.6 210 20:36 11.02.2020
3091 Clouds 2 972 69 10000 4.6 210 20:18 11.02.2020
3092 Clouds 2 972 69 10000 4.1 190 19:42 11.02.2020
3093 Clouds 2 972 69 10000 4.1 190 19:24 11.02.2020
3094 Clouds 2 972 74 10000 3.6 180 18:56 11.02.2020
3095 Clouds 2 971 74 10000 4.1 200 18:37 11.02.2020
3096 Clouds 2 971 74 10000 4.1 200 18:19 11.02.2020
3097 Clouds 2 971 69 10000 5.1 180 17:55 11.02.2020
3098 Clouds 2 971 69 10000 4.6 200 17:36 11.02.2020
3099 Clouds 2 971 69 10000 4.6 200 17:36 11.02.2020
3100 Clouds 3 971 69 10000 4.6 200 17:18 11.02.2020
3101 Clouds 3 971 64 10000 4.6 210 16:55 11.02.2020
3102 Clouds 3 971 55 10000 4.6 220 16:37 11.02.2020
3103 Clouds 4 971 55 10000 4.6 220 16:19 11.02.2020
3104 Clouds 4 971 55 10000 4.6 220 15:43 11.02.2020
3105 Clouds 5 971 55 10000 5.1 210 15:24 11.02.2020
3106 Clouds 5 970 60 10000 3.6 180 14:55 11.02.2020
3107 Clouds 5 970 60 10000 4.1 190 14:36 11.02.2020
3108 Clouds 5 970 60 10000 4.1 190 14:36 11.02.2020
3109 Clouds 5 970 60 10000 4.1 190 14:18 11.02.2020
3110 Clouds 5 970 64 10000 3.6 160 13:41 11.02.2020
3111 Clouds 5 970 64 10000 3.6 160 13:21 11.02.2020
3112 Clouds 5 970 59 10000 3.1 140 12:58 11.02.2020
3113 Clouds 5 970 69 10000 3.1 210 12:40 11.02.2020
3114 Clouds 4 970 69 10000 3.1 210 12:20 11.02.2020
3115 Clouds 3 969 74 10000 3.1 180 11:54 11.02.2020
3116 Clouds 3 969 74 10000 4.6 180 11:36 11.02.2020
3117 Clouds 3 969 74 10000 4.6 180 11:18 11.02.2020
3118 Clouds 2 969 77 10000 2.1 180 10:39 11.02.2020
3119 Clouds 1 969 77 10000 2.1 180 10:20 11.02.2020
3120 Clouds 1 969 77 10000 3.1 210 09:56 11.02.2020
3121 Clouds 1 969 77 10000 4.1 190 09:38 11.02.2020
3122 Clouds 1 969 77 10000 4.1 190 09:20 11.02.2020
3123 Clouds 1 969 77 10000 4.1 200 08:46 11.02.2020
3124 Snow 1 968 82 10000 3.6 210 08:24 11.02.2020
3125 Snow 1 968 82 10000 4.1 210 07:48 11.02.2020
3126 Snow 1 968 82 10000 4.6 210 07:26 11.02.2020
3127 Snow 1 968 82 10000 4.1 210 06:45 11.02.2020
3128 Snow 1 968 82 10000 4.1 210 06:23 11.02.2020
3129 Snow 1 967 82 10000 5.1 220 05:58 11.02.2020
3130 Snow 1 967 82 10000 5.7 210 05:26 11.02.2020
3131 Snow 1 967 79 10000 4.6 210 04:53 11.02.2020
3132 Snow 1 967 79 10000 4.1 200 03:26 11.02.2020
3133 Snow 1 967 79 10000 4.1 210 02:33 11.02.2020
3134 Clouds 1 967 69 10000 3.1 210 01:39 11.02.2020
3135 Clouds 2 967 69 10000 5.7 200 00:43 11.02.2020
3136 Clouds 2 967 69 10000 5.7 200 00:22 11.02.2020
3137 Clouds 2 967 64 10000 4.6 200 23:40 10.02.2020
3138 Clouds 2 967 74 10000 4.1 200 23:20 10.02.2020
3139 Clouds 3 966 69 10000 5.1 190 22:42 10.02.2020
3140 Clouds 3 966 69 10000 5.1 190 22:21 10.02.2020
3141 Clouds 2 966 74 10000 4.1 190 21:57 10.02.2020
3142 Clouds 3 966 74 10000 4.1 190 21:39 10.02.2020
3143 Clouds 3 966 69 10000 4.1 190 21:21 10.02.2020
3144 Clouds 4 966 64 10000 4.6 160 20:54 10.02.2020
3145 Clouds 3 966 64 10000 3.6 190 20:36 10.02.2020
3146 Clouds 3 966 64 10000 3.6 190 20:18 10.02.2020
3147 Clouds 4 965 64 10000 3.6 170 19:56 10.02.2020
3148 Clouds 4 965 59 10000 4.1 180 19:36 10.02.2020
3149 Clouds 4 965 59 10000 4.1 180 19:18 10.02.2020
3150 Clouds 4 965 59 10000 3.6 160 18:55 10.02.2020
3151 Clouds 4 965 59 10000 3.6 190 18:37 10.02.2020
3152 Clouds 4 965 59 10000 3.6 190 18:37 10.02.2020
3153 Clouds 4 965 59 10000 3.6 190 18:18 10.02.2020
3154 Clouds 4 964 59 10000 4.1 180 17:40 10.02.2020
3155 Clouds 4 964 59 10000 4.1 180 17:22 10.02.2020
3156 Clouds 5 964 51 10000 3.1 200 16:59 10.02.2020
3157 Clouds 5 963 44 10000 3.1 0 16:40 10.02.2020
3158 Clouds 5 963 44 10000 3.1 0 16:20 10.02.2020
3159 Clouds 5 963 44 10000 1 0 15:59 10.02.2020
3160 Clouds 5 963 44 10000 1 0 15:59 10.02.2020
3161 Clouds 5 962 48 10000 1.5 0 15:40 10.02.2020
3162 Clouds 6 962 48 10000 1.5 0 15:21 10.02.2020
3163 Clouds 6 962 48 10000 3.6 210 14:58 10.02.2020
3164 Clouds 6 961 45 10000 2.6 260 14:39 10.02.2020
3165 Clouds 6 961 45 10000 2.6 260 14:19 10.02.2020
3166 Clouds 6 960 48 10000 3.6 280 13:44 10.02.2020
3167 Clouds 6 959 45 10000 2.6 0 13:25 10.02.2020
3168 Clouds 6 959 48 10000 4.1 270 12:57 10.02.2020
3169 Clouds 6 958 52 10000 3.1 0 12:39 10.02.2020
3170 Clouds 6 958 52 10000 3.1 0 12:20 10.02.2020
3171 Clouds 6 957 56 10000 4.1 260 11:45 10.02.2020
3172 Clouds 6 956 65 10000 3.6 250 11:21 10.02.2020
3173 Clouds 6 955 65 10000 4.1 250 10:57 10.02.2020
3174 Clouds 6 954 65 10000 4.1 250 10:38 10.02.2020
3175 Clouds 6 954 65 10000 4.1 250 10:20 10.02.2020
3176 Clouds 6 954 55 10000 5.1 230 09:42 10.02.2020
3177 Clouds 6 957 55 10000 5.7 230 09:23 10.02.2020
3178 Clouds 5 952 80 10000 6.2 190 08:41 10.02.2020
3179 Clouds 5 952 80 10000 6.2 190 08:22 10.02.2020
3180 Clouds 5 951 86 10000 7.7 200 07:55 10.02.2020
3181 Clouds 4 951 86 10000 7.2 200 07:35 10.02.2020
3182 Clouds 5 951 86 10000 7.2 210 06:50 10.02.2020
3183 Clouds 5 951 80 10000 7.2 190 05:38 10.02.2020
3184 Clouds 5 951 86 10000 9.8 190 03:55 10.02.2020
3185 Rain 6 951 86 10000 10.8 190 03:22 10.02.2020
3186 Rain 6 952 86 10000 11.3 180 02:44 10.02.2020
3187 Clouds 6 953 93 10000 10.8 180 01:25 10.02.2020
3188 Clouds 6 955 93 10000 9.8 180 00:40 10.02.2020
3189 Clouds 6 955 93 10000 9.8 180 00:22 10.02.2020
3190 Rain 6 956 93 10000 8.7 190 23:42 09.02.2020
3191 Rain 6 956 93 10000 8.7 190 23:24 09.02.2020
3192 Rain 7 956 93 10000 8.2 180 22:54 09.02.2020
3193 Clouds 7 956 93 10000 8.7 180 22:36 09.02.2020
3194 Clouds 7 956 93 10000 8.7 180 22:18 09.02.2020
3195 Rain 7 960 87 0 12.3 200 21:40 09.02.2020
3196 Rain 7 960 87 0 12.3 200 21:21 09.02.2020
3197 Rain 7 958 100 8000 6.7 160 20:46 09.02.2020
3198 Rain 7 961 93 0 12.3 190 20:22 09.02.2020
3199 Rain 6 961 93 0 13.9 180 19:57 09.02.2020
3200 Rain 6 962 93 0 13.9 180 19:38 09.02.2020
3201 Rain 6 962 93 0 13.9 180 19:38 09.02.2020
3202 Rain 6 962 93 0 13.9 180 19:18 09.02.2020
3203 Snow 4 965 92 10000 7.7 150 18:42 09.02.2020
3204 Snow 4 965 92 10000 7.7 150 18:23 09.02.2020
3205 Rain 4 967 93 10000 9.3 160 17:59 09.02.2020
3206 Rain 3 969 93 10000 9.3 160 17:39 09.02.2020
3207 Rain 3 969 93 10000 9.3 160 17:39 09.02.2020
3208 Rain 3 969 93 10000 9.3 160 17:21 09.02.2020
3209 Rain 3 972 100 9000 10.8 160 16:41 09.02.2020
3210 Rain 3 972 100 9000 10.8 160 16:22 09.02.2020
3211 Rain 3 973 93 10000 11.3 170 15:58 09.02.2020
3212 Rain 3 975 93 8000 12.9 170 15:40 09.02.2020
3213 Rain 4 975 93 8000 12.9 170 15:21 09.02.2020
3214 Rain 4 976 86 9000 11.3 170 14:56 09.02.2020
3215 Rain 4 978 93 9000 9.8 170 14:37 09.02.2020
3216 Rain 4 978 93 9000 9.8 170 14:19 09.02.2020
3217 Rain 4 979 100 8000 9.8 170 13:43 09.02.2020
3218 Rain 4 981 93 9000 9.8 160 13:25 09.02.2020
3219 Rain 4 983 93 7000 9.3 160 12:55 09.02.2020
3220 Rain 4 984 86 9000 10.3 160 12:37 09.02.2020
3221 Rain 4 984 86 9000 10.3 160 12:18 09.02.2020
3222 Clouds 4 986 86 10000 13.4 180 11:40 09.02.2020
3223 Clouds 4 986 86 10000 13.4 180 11:19 09.02.2020
3224 Rain 4 987 93 10000 13.9 180 10:56 09.02.2020
3225 Rain 4 989 93 10000 11.8 180 10:38 09.02.2020
3226 Rain 4 989 93 10000 11.8 180 10:19 09.02.2020
3227 Rain 4 991 93 9000 10.8 170 09:40 09.02.2020
3228 Rain 4 991 93 9000 10.8 170 09:21 09.02.2020
3229 Rain 4 993 86 10000 8.2 160 08:44 09.02.2020
3230 Rain 4 993 86 10000 8.2 160 08:26 09.02.2020
3231 Rain 4 994 86 10000 11.3 170 07:57 09.02.2020
3232 Clouds 4 994 86 10000 14.4 180 07:34 09.02.2020
3233 Clouds 4 995 86 10000 11.8 170 06:44 09.02.2020
3234 Clouds 4 997 86 10000 8.2 180 05:56 09.02.2020
3235 Clouds 4 999 86 10000 8.7 180 05:35 09.02.2020
3236 Clouds 4 999 86 10000 7.2 180 04:52 09.02.2020
3237 Rain 3 1001 93 10000 7.2 180 03:30 09.02.2020
3238 Clouds 3 1002 93 10000 4.1 160 02:43 09.02.2020
3239 Clouds 3 1003 100 10000 2.6 160 01:45 09.02.2020
3240 Clouds 3 1003 100 7000 4.1 170 01:27 09.02.2020
3241 Mist 3 1004 100 4000 4.6 170 00:38 09.02.2020
3242 Mist 3 1004 100 4000 4.6 170 00:18 09.02.2020
3243 Mist 3 1005 100 2400 3.6 180 23:41 08.02.2020
3244 Mist 3 1005 100 2400 3.6 180 23:19 08.02.2020
3245 Drizzle 3 1006 100 3300 2.1 190 22:41 08.02.2020
3246 Drizzle 3 1006 100 3300 2.1 190 22:21 08.02.2020
3247 Drizzle 3 1007 100 2900 3.1 170 21:58 08.02.2020
3248 Mist 3 1007 100 3800 3.6 180 21:39 08.02.2020
3249 Mist 3 1007 100 3800 3.6 180 21:19 08.02.2020
3250 Clouds 3 1008 93 6000 3.1 190 20:55 08.02.2020
3251 Clouds 3 1008 93 10000 1.5 170 20:37 08.02.2020
3252 Clouds 3 1008 93 10000 1.5 170 20:18 08.02.2020
3253 Rain 3 1008 93 7000 3.1 170 19:40 08.02.2020
3254 Rain 3 1008 93 7000 3.1 170 19:20 08.02.2020
3255 Drizzle 3 1009 93 7000 4.6 180 18:59 08.02.2020
3256 Rain 3 1009 93 7000 4.1 180 18:40 08.02.2020
3257 Rain 3 1009 93 7000 4.1 180 18:22 08.02.2020
3258 Drizzle 3 1010 93 7000 5.1 190 17:43 08.02.2020
3259 Drizzle 3 1010 93 7000 5.1 190 17:21 08.02.2020
3260 Drizzle 3 1010 93 8000 5.7 180 16:57 08.02.2020
3261 Clouds 3 1010 93 9000 6.7 180 16:38 08.02.2020
3262 Clouds 3 1010 93 9000 6.7 180 16:19 08.02.2020
3263 Clouds 3 1010 93 9000 5.7 190 15:41 08.02.2020
3264 Clouds 3 1010 93 9000 6.2 190 15:19 08.02.2020
3265 Clouds 3 1011 93 8000 6.7 180 14:57 08.02.2020
3266 Drizzle 3 1011 93 6000 4.6 180 14:39 08.02.2020
3267 Drizzle 3 1011 93 6000 4.6 180 14:18 08.02.2020
3268 Drizzle 3 1012 93 4500 5.7 170 13:43 08.02.2020
3269 Drizzle 3 1012 93 4500 5.1 170 13:23 08.02.2020
3270 Rain 3 1012 93 9000 5.1 170 12:50 08.02.2020
3271 Drizzle 3 1012 93 9000 6.7 170 12:25 08.02.2020
3272 Drizzle 3 1013 93 9000 5.7 170 11:59 08.02.2020
3273 Drizzle 3 1013 93 10000 5.1 180 11:40 08.02.2020
3274 Drizzle 3 1013 93 10000 5.1 180 11:21 08.02.2020
3275 Rain 3 1013 93 10000 5.1 160 10:43 08.02.2020
3276 Rain 3 1013 93 10000 4.1 160 10:24 08.02.2020
3277 Rain 3 1014 93 10000 4.1 170 09:53 08.02.2020
3278 Drizzle 3 1014 93 7000 5.1 180 09:30 08.02.2020
3279 Rain 3 1014 93 9000 5.1 180 08:59 08.02.2020
3280 Clouds 3 1014 93 10000 6.7 200 08:39 08.02.2020
3281 Clouds 3 1014 93 10000 6.7 200 08:21 08.02.2020
3282 Clouds 2 1014 93 10000 5.7 190 07:50 08.02.2020
3283 Clouds 2 1014 93 10000 4.1 180 07:31 08.02.2020
3284 Clouds 2 1015 93 10000 3.6 200 06:33 08.02.2020
3285 Clouds 2 1015 93 10000 5.1 200 05:50 08.02.2020
3286 Clouds 2 1016 93 10000 5.1 180 05:31 08.02.2020
3287 Drizzle 2 1016 100 9000 4.6 180 04:51 08.02.2020
3288 Clouds 3 1017 93 10000 3.6 180 03:55 08.02.2020
3289 Clouds 3 1017 93 10000 5.1 210 02:58 08.02.2020
3290 Clouds 3 1018 93 10000 6.2 190 02:24 08.02.2020
3291 Clouds 2 1018 100 10000 5.7 180 01:28 08.02.2020
3292 Clouds 3 1018 100 10000 3.6 190 00:45 08.02.2020
3293 Fog 2 1019 100 5000 3.1 150 00:23 08.02.2020
3294 Fog 2 1019 100 1000 2.6 170 23:56 07.02.2020
3295 Mist 2 1019 100 2700 5.1 190 23:37 07.02.2020
3296 Mist 2 1019 100 2700 5.1 190 23:19 07.02.2020
3297 Fog 2 1019 100 1000 5.7 190 22:41 07.02.2020
3298 Fog 2 1019 100 1000 5.7 190 22:41 07.02.2020
3299 Fog 2 1020 100 1000 4.6 190 22:19 07.02.2020
3300 Mist 2 1020 100 3000 4.1 210 21:44 07.02.2020
3301 Mist 2 1020 100 3000 4.1 210 21:23 07.02.2020
3302 Mist 2 1020 100 3500 3.1 200 20:59 07.02.2020
3303 Mist 2 1020 100 3000 4.6 210 20:38 07.02.2020
3304 Mist 2 1020 100 3000 4.6 210 20:18 07.02.2020
3305 Mist 2 1020 100 3000 3.1 200 19:43 07.02.2020
3306 Mist 2 1020 100 4500 4.1 200 19:22 07.02.2020
3307 Mist 2 1020 100 1800 3.6 200 18:59 07.02.2020
3308 Mist 2 1020 100 1800 3.6 200 18:59 07.02.2020
3309 Fog 2 1021 100 3000 2.6 200 18:41 07.02.2020
3310 Fog 2 1021 100 3000 2.6 200 18:22 07.02.2020
3311 Fog 2 1021 100 2500 2.6 190 17:43 07.02.2020
3312 Fog 2 1021 100 6000 3.1 200 17:22 07.02.2020
3313 Fog 2 1021 97 6000 2.6 190 16:57 07.02.2020
3314 Fog 2 1021 97 6000 3.1 220 16:39 07.02.2020
3315 Fog 2 1021 97 6000 3.1 220 16:20 07.02.2020
3316 Fog 2 1022 97 6000 2.6 190 15:49 07.02.2020
3317 Mist 2 1022 97 4000 2.6 180 15:27 07.02.2020
3318 Fog 2 1022 97 800 2.1 180 14:54 07.02.2020
3319 Fog 2 1022 100 400 2.6 170 14:36 07.02.2020
3320 Fog 2 1022 100 400 2.6 170 14:18 07.02.2020
3321 Fog 2 1025 100 350 4.1 180 13:40 07.02.2020
3322 Fog 2 1025 100 350 4.1 180 13:22 07.02.2020
3323 Fog 2 1023 100 500 1.5 210 12:57 07.02.2020
3324 Fog 1 1024 100 450 1 0 12:39 07.02.2020
3325 Fog 1 1024 100 450 1 0 12:21 07.02.2020
3326 Fog 1 1024 92 450 0.5 0 11:42 07.02.2020
3327 Clouds 0 1025 92 10000 2.6 110 11:22 07.02.2020
3328 Fog -1 1024 100 600 1 0 10:43 07.02.2020
3329 Fog -1 1024 100 600 1 0 10:24 07.02.2020
3330 Fog -1 1024 100 600 1 0 10:24 07.02.2020
3331 Fog -1 1024 100 300 1.5 240 09:59 07.02.2020
3332 Fog -2 1024 100 250 2.1 160 09:39 07.02.2020
3333 Fog -2 1024 100 250 2.1 160 09:21 07.02.2020
3334 Fog -2 1024 100 450 1.5 130 08:44 07.02.2020
3335 Fog -2 1024 100 450 1.5 130 08:44 07.02.2020
3336 Fog -2 1024 92 500 1.5 120 08:21 07.02.2020
3337 Fog -2 1024 92 500 1.5 120 08:21 07.02.2020
3338 Fog -3 1024 100 600 1 0 07:52 07.02.2020
3339 Fog -3 1025 92 6000 1.21 182 07:30 07.02.2020
3340 Fog -3 1025 92 7000 0.5 0 06:47 07.02.2020
3341 Mist -3 1025 100 3000 0.5 0 06:28 07.02.2020
3342 Fog -3 1025 100 6000 1 0 05:58 07.02.2020
3343 Fog -2 1025 100 8000 0.5 90 05:37 07.02.2020
3344 Clear -2 1025 92 10000 0.5 260 03:43 07.02.2020
3345 Clouds -1 1025 100 10000 2.1 50 01:53 07.02.2020
3346 Clouds -1 1025 92 10000 0.74 85 00:59 07.02.2020
3347 Clouds -1 1025 92 10000 1 0 00:27 07.02.2020
3348 Clouds 0 1024 92 10000 1.5 30 23:38 06.02.2020
3349 Clouds 0 1024 92 10000 1.5 30 23:19 06.02.2020
3350 Clouds 0 1023 85 10000 1.5 190 22:47 06.02.2020
3351 Clouds 0 1023 92 10000 2.6 40 22:27 06.02.2020
3352 Clouds 0 1023 100 10000 1.5 10 21:58 06.02.2020
3353 Clouds 0 1022 92 10000 1 0 21:36 06.02.2020
3354 Clouds 0 1022 92 10000 1 0 21:18 06.02.2020
3355 Clouds 1 1022 86 10000 2.1 40 20:55 06.02.2020
3356 Clouds 1 1022 85 10000 0.5 0 20:36 06.02.2020
3357 Clouds 1 1022 84 10000 0.5 0 20:18 06.02.2020
3358 Clouds 1 1022 86 10000 0.5 0 19:56 06.02.2020
3359 Clouds 1 1021 86 10000 2.1 30 19:37 06.02.2020
3360 Clouds 1 1021 86 10000 2.1 30 19:18 06.02.2020
3361 Clouds 0 1020 80 10000 2.6 40 18:42 06.02.2020
3362 Clouds 0 1020 80 10000 2.6 40 18:24 06.02.2020
3363 Clouds 1 1020 65 10000 2.6 350 17:57 06.02.2020
3364 Clouds 1 1020 65 10000 2.6 350 17:57 06.02.2020
3365 Clouds 2 1019 69 10000 2.6 10 17:39 06.02.2020
3366 Clear 4 1019 69 10000 2.6 10 17:20 06.02.2020
3367 Clear 5 1019 60 10000 2.1 360 16:42 06.02.2020
3368 Clear 4 1018 56 10000 2.6 330 16:24 06.02.2020
3369 Clear 5 1018 56 10000 2.1 330 15:44 06.02.2020
3370 Clear 5 1018 60 10000 2.1 350 15:24 06.02.2020
3371 Clear 5 1018 79 10000 1 0 14:58 06.02.2020
3372 Clear 5 1018 60 10000 1 0 14:40 06.02.2020
3373 Clear 6 1018 60 10000 1 0 14:22 06.02.2020
3374 Clear 6 1017 65 10000 1.09 334 13:43 06.02.2020
3375 Clear 6 1017 64 10000 1.5 200 13:25 06.02.2020
3376 Clear 6 1017 74 10000 1 0 12:45 06.02.2020
3377 Clear 6 1017 74 10000 1 0 12:45 06.02.2020
3378 Clear 6 1017 74 10000 1 0 12:20 06.02.2020
3379 Clear 5 1016 74 10000 1 0 11:59 06.02.2020
3380 Clear 4 1016 74 10000 1 0 11:40 06.02.2020
3381 Clear 3 1016 75 10000 0.5 0 11:21 06.02.2020
3382 Clear 3 1015 86 10000 2.1 40 10:58 06.02.2020
3383 Clear 3 1015 86 10000 0.5 0 10:39 06.02.2020
3384 Clear 2 1015 86 10000 0.5 0 10:21 06.02.2020
3385 Clear 1 1015 92 10000 1 0 09:57 06.02.2020
3386 Clear 1 1015 92 10000 1 0 09:38 06.02.2020
3387 Clear 1 1015 92 10000 1 0 09:19 06.02.2020
3388 Clear 1 1014 92 10000 1 0 08:42 06.02.2020
3389 Clouds 1 1014 92 10000 1 0 08:22 06.02.2020
3390 Clouds 1 1014 92 10000 1 0 07:52 06.02.2020
3391 Clouds 0 1013 92 10000 1 0 07:29 06.02.2020
3392 Clouds 0 1013 92 10000 1 0 07:29 06.02.2020
3393 Clouds 0 1013 92 10000 1 0 06:47 06.02.2020
3394 Clouds 0 1013 92 10000 1.5 30 06:18 06.02.2020
3395 Clouds 0 1013 92 10000 1.5 40 05:22 06.02.2020
3396 Clouds 1 1013 86 10000 1 0 03:44 06.02.2020
3397 Clouds 2 1012 80 10000 1 0 02:58 06.02.2020
3398 Clouds 1 1012 74 10000 2.1 180 01:45 06.02.2020
3399 Clouds 1 1011 86 10000 2.6 130 00:59 06.02.2020
3400 Clouds 1 1011 74 10000 2.6 130 00:28 06.02.2020
3401 Clouds 2 1011 69 10000 3.1 190 23:55 05.02.2020
3402 Clouds 2 1011 69 10000 3.1 190 23:55 05.02.2020
3403 Clouds 2 1011 74 10000 1.5 180 23:36 05.02.2020
3404 Clouds 2 1011 74 10000 1.5 180 23:18 05.02.2020
3405 Clouds 3 1011 69 10000 5.1 210 22:40 05.02.2020
3406 Clouds 3 1011 69 10000 5.1 210 22:22 05.02.2020
3407 Clouds 3 1011 80 10000 6.2 200 21:57 05.02.2020
3408 Clouds 3 1010 80 10000 4.6 180 21:39 05.02.2020
3409 Clouds 3 1010 80 10000 4.6 180 21:19 05.02.2020
3410 Clouds 3 1010 74 10000 6.7 180 20:39 05.02.2020
3411 Clouds 3 1010 74 10000 6.7 180 20:20 05.02.2020
3412 Clouds 3 1011 74 10000 5.7 180 19:59 05.02.2020
3413 Clouds 3 1011 74 10000 5.7 180 19:40 05.02.2020
3414 Clouds 3 1010 74 10000 7.2 170 19:19 05.02.2020
3415 Clouds 3 1011 74 10000 7.7 170 18:56 05.02.2020
3416 Clouds 3 1011 69 10000 6.2 170 18:38 05.02.2020
3417 Clouds 3 1011 69 10000 6.2 170 18:18 05.02.2020
3418 Clouds 3 1011 64 10000 4.6 200 17:38 05.02.2020
3419 Clouds 3 1011 64 10000 4.6 200 17:20 05.02.2020
3420 Clouds 3 1016 80 10000 5.1 200 16:57 05.02.2020
3421 Clouds 3 1012 64 10000 6.7 210 16:39 05.02.2020
3422 Clouds 3 1012 64 10000 6.7 210 16:20 05.02.2020
3423 Clouds 3 1013 69 10000 7.7 170 15:46 05.02.2020
3424 Clouds 3 1013 69 10000 8.2 170 15:20 05.02.2020
3425 Clouds 3 1013 69 10000 8.2 170 14:58 05.02.2020
3426 Clouds 3 1014 69 10000 8.2 200 14:39 05.02.2020
3427 Clouds 3 1014 69 10000 8.2 200 14:21 05.02.2020
3428 Clouds 3 1014 64 10000 7.2 210 13:43 05.02.2020
3429 Clouds 3 1015 64 10000 7.7 200 13:22 05.02.2020
3430 Clouds 3 1015 64 10000 6.2 190 12:57 05.02.2020
3431 Clouds 2 1016 59 10000 4.6 210 12:36 05.02.2020
3432 Clouds 2 1016 59 10000 4.6 210 12:18 05.02.2020
3433 Clouds 2 1016 59 10000 4.6 210 12:18 05.02.2020
3434 Clouds 2 1017 55 10000 5.7 190 11:41 05.02.2020
3435 Clouds 0 1017 52 10000 5.7 190 11:22 05.02.2020
3436 Clouds 0 1017 68 10000 6.2 210 10:57 05.02.2020
3437 Clouds 0 1017 79 10000 4.1 200 10:39 05.02.2020
3438 Clouds 0 1017 79 10000 4.1 200 10:18 05.02.2020
3439 Clouds -1 1018 79 10000 5.1 200 09:39 05.02.2020
3440 Clouds -1 1018 79 10000 5.1 200 09:21 05.02.2020
3441 Clouds -1 1018 79 10000 5.1 170 08:48 05.02.2020
3442 Clouds -3 1019 85 10000 3.6 170 08:25 05.02.2020
3443 Clouds -4 1019 85 10000 2.1 160 07:58 05.02.2020
3444 Clouds -4 1019 79 10000 2.1 180 07:39 05.02.2020
3445 Clouds -4 1019 92 10000 2.1 170 07:18 05.02.2020
3446 Clouds -5 1019 92 10000 2.1 170 06:39 05.02.2020
3447 Clouds -5 1019 92 10000 2.1 170 06:20 05.02.2020
3448 Clear -6 1019 85 10000 2.1 110 05:20 05.02.2020
3449 Clear -6 1019 85 10000 1.5 0 04:58 05.02.2020
3450 Clear -6 1020 85 10000 1.5 140 04:22 05.02.2020
3451 Clear -6 1019 79 10000 1 0 02:42 05.02.2020
3452 Clear -6 1019 79 10000 1.5 0 02:20 05.02.2020
3453 Clear -6 1019 67 10000 1.5 150 01:28 05.02.2020
3454 Clear -6 1018 73 10000 1 0 00:22 05.02.2020
3455 Clear -6 1018 68 10000 1.5 360 23:40 04.02.2020
3456 Clear -5 1017 63 10000 3.6 330 23:20 04.02.2020
3457 Clear -5 1017 63 10000 3.6 330 22:57 04.02.2020
3458 Clear -5 1017 63 10000 3.6 330 22:57 04.02.2020
3459 Clear -5 1017 63 10000 4.1 310 22:39 04.02.2020
3460 Clear -5 1017 63 10000 4.1 310 22:20 04.02.2020
3461 Clear -5 1017 79 10000 2.1 290 21:55 04.02.2020
3462 Clear -5 1016 73 10000 2.6 320 21:37 04.02.2020
3463 Clear -5 1016 73 10000 2.6 320 21:18 04.02.2020
3464 Clear -5 1016 68 10000 1.5 330 20:54 04.02.2020
3465 Clear -5 1015 68 10000 2.1 320 20:36 04.02.2020
3466 Clear -4 1015 68 10000 1.5 320 20:18 04.02.2020
3467 Clear -4 1014 68 10000 1.5 280 19:42 04.02.2020
3468 Clear -4 1014 68 10000 1.5 280 19:24 04.02.2020
3469 Clear -4 1013 63 10000 2.1 330 18:59 04.02.2020
3470 Clear -4 1015 79 10000 3.1 350 18:39 04.02.2020
3471 Clear -4 1013 68 10000 1.5 290 18:20 04.02.2020
3472 Clear -3 1013 68 10000 1.5 290 17:54 04.02.2020
3473 Clear -3 1012 63 10000 2.1 310 17:36 04.02.2020
3474 Clear -2 1012 63 10000 2.1 310 17:18 04.02.2020
3475 Clear -1 1010 63 10000 1.5 330 16:38 04.02.2020
3476 Clear -1 1010 63 10000 1.5 330 16:20 04.02.2020
3477 Clear 0 1009 63 10000 2.1 330 15:56 04.02.2020
3478 Clear 0 1009 63 10000 2.1 330 15:56 04.02.2020
3479 Clear -1 1009 63 10000 2.1 330 15:56 04.02.2020
3480 Clear 0 1009 68 10000 3.6 330 15:38 04.02.2020
3481 Clouds 0 1008 79 10000 3.1 360 15:20 04.02.2020
3482 Clouds 0 1008 79 10000 2.6 360 14:45 04.02.2020
3483 Clouds 0 1008 79 10000 2.6 360 14:26 04.02.2020
3484 Clouds 0 1006 86 10000 3.1 360 13:59 04.02.2020
3485 Clouds -1 1006 86 10000 3.1 20 13:40 04.02.2020
3486 Clouds -1 1006 86 10000 3.1 20 13:22 04.02.2020
3487 Snow -1 1005 92 3500 3.1 360 12:55 04.02.2020
3488 Snow -1 1004 92 1500 3.1 30 12:37 04.02.2020
3489 Snow -1 1004 86 1800 3.6 360 12:18 04.02.2020
3490 Snow -1 1004 86 1800 3.6 360 11:54 04.02.2020
3491 Snow -1 1003 92 4500 3.1 350 11:36 04.02.2020
3492 Snow -1 1003 92 4500 3.1 350 11:18 04.02.2020
3493 Snow -1 1001 92 1500 3.1 10 10:42 04.02.2020
3494 Snow -1 1001 92 1500 3.1 10 10:22 04.02.2020
3495 Snow -1 1000 92 10000 3.1 360 09:42 04.02.2020
3496 Snow -2 1000 92 10000 3.1 360 09:24 04.02.2020
3497 Snow -2 999 92 10000 3.6 360 08:59 04.02.2020
3498 Snow -2 999 92 10000 3.6 10 08:41 04.02.2020
3499 Snow -2 999 92 10000 3.6 10 08:22 04.02.2020
3500 Snow -2 998 92 9000 3.6 20 07:46 04.02.2020
3501 Snow -2 997 92 8000 3.6 10 07:23 04.02.2020
3502 Snow -2 997 86 4000 3.1 10 06:44 04.02.2020
3503 Snow -2 997 86 4000 3.1 10 06:44 04.02.2020
3504 Snow -2 996 86 10000 3.6 10 06:21 04.02.2020
3505 Snow -2 996 86 10000 3.6 10 05:29 04.02.2020
3506 Snow -2 995 92 10000 3.1 10 03:53 04.02.2020
3507 Snow -2 995 92 10000 3.1 20 03:34 04.02.2020
3508 Snow -2 995 92 10000 3.6 20 02:59 04.02.2020
3509 Snow -2 995 92 7000 3.6 30 02:32 04.02.2020
3510 Snow -2 995 92 6000 3.6 30 01:54 04.02.2020
3511 Snow -2 995 100 6000 3.1 30 01:35 04.02.2020
3512 Snow -2 995 100 6000 2.1 30 00:45 04.02.2020
3513 Snow -2 995 100 7000 3.6 20 00:22 04.02.2020
3514 Snow -2 996 92 9000 3.1 20 23:40 03.02.2020
3515 Snow -2 996 92 9000 3.1 20 23:22 03.02.2020
3516 Snow -2 997 92 5000 3.6 20 22:40 03.02.2020
3517 Snow -2 997 92 5000 3.6 20 22:21 03.02.2020
3518 Snow -2 997 86 10000 2.6 30 21:56 03.02.2020
3519 Snow -2 997 86 10000 2.1 20 21:37 03.02.2020
3520 Snow -2 997 86 10000 2.1 20 21:18 03.02.2020
3521 Snow -2 997 86 10000 2.6 40 20:42 03.02.2020
3522 Clouds -2 997 86 10000 2.6 40 20:19 03.02.2020
3523 Clouds -2 997 79 10000 2.6 40 19:58 03.02.2020
3524 Clouds -2 998 86 10000 2.1 30 19:39 03.02.2020
3525 Clouds -2 998 86 10000 2.1 30 19:19 03.02.2020
3526 Clouds -2 998 86 10000 2.6 50 18:56 03.02.2020
3527 Clouds -2 998 86 10000 2.6 40 18:36 03.02.2020
3528 Clouds -2 998 86 10000 2.6 40 18:18 03.02.2020
3529 Clouds -2 998 86 10000 2.6 40 18:18 03.02.2020
3530 Clouds -2 999 79 10000 2.6 40 17:40 03.02.2020
3531 Clouds -1 999 79 10000 2.6 40 17:20 03.02.2020
3532 Clouds -1 999 79 10000 1.5 50 16:59 03.02.2020
3533 Clouds -1 999 74 10000 2.1 40 16:39 03.02.2020
3534 Clouds -1 999 74 10000 2.1 40 16:20 03.02.2020
3535 Clouds -1 999 74 10000 1.5 50 15:55 03.02.2020
3536 Clouds 0 1000 61 10000 2.6 60 15:37 03.02.2020
3537 Clouds 0 1000 61 10000 2.6 60 15:18 03.02.2020
3538 Clouds 0 1000 61 10000 1.2 31 14:42 03.02.2020
3539 Clouds 0 1000 61 10000 1.2 31 14:23 03.02.2020
3540 Clouds 0 1000 53 10000 1 0 13:56 03.02.2020
3541 Clouds 0 1001 74 10000 1.5 30 13:37 03.02.2020
3542 Clouds 0 1001 74 10000 1.5 30 13:37 03.02.2020
3543 Clouds 0 1001 68 10000 3.1 30 13:19 03.02.2020
3544 Clouds 0 1001 68 10000 3.1 20 12:42 03.02.2020
3545 Clouds 0 1001 68 10000 3.1 20 12:23 03.02.2020
3546 Clouds 0 1001 74 10000 3.1 360 11:59 03.02.2020
3547 Clouds -1 1001 73 10000 2.6 340 11:38 03.02.2020
3548 Clouds -2 1001 73 10000 2.6 340 11:19 03.02.2020
3549 Clouds -2 1001 73 10000 2.1 360 10:55 03.02.2020
3550 Clouds -2 1001 73 10000 2.1 360 10:55 03.02.2020
3551 Clouds -3 1001 79 10000 2.1 320 10:37 03.02.2020
3552 Clouds -4 1001 73 10000 3.1 330 10:18 03.02.2020
3553 Clouds -4 1000 73 10000 2.6 340 09:39 03.02.2020
3554 Clouds -4 1000 79 10000 2.1 330 09:19 03.02.2020
3555 Clouds -4 1000 79 10000 2.1 330 09:19 03.02.2020
3556 Clouds -4 1000 73 10000 2.6 340 09:19 03.02.2020
3557 Clouds -4 1000 85 10000 2.1 350 08:41 03.02.2020
3558 Clouds -4 1000 85 10000 2.1 350 08:23 03.02.2020
3559 Clouds -4 999 73 10000 1.69 352 07:43 03.02.2020
3560 Clouds -4 999 73 10000 1.69 352 07:23 03.02.2020
3561 Clouds -4 999 73 10000 0.5 0 06:57 03.02.2020
3562 Clouds -4 999 68 10000 1 0 06:31 03.02.2020
3563 Clouds -3 999 68 10000 1.5 320 05:58 03.02.2020
3564 Clouds -3 999 73 10000 2.1 340 05:34 03.02.2020
3565 Clouds -3 998 68 10000 2.6 320 04:47 03.02.2020
3566 Clouds -3 997 68 10000 1.5 0 02:53 03.02.2020
3567 Clouds -2 997 63 10000 1.5 350 02:32 03.02.2020
3568 Clouds -1 996 63 10000 3.6 320 00:50 03.02.2020
3569 Clouds -1 996 50 10000 4.6 330 00:30 03.02.2020
3570 Clouds -1 996 50 10000 4.1 320 23:59 02.02.2020
3571 Clouds -1 996 63 10000 2.6 330 23:37 02.02.2020
3572 Clouds -1 996 71 10000 2.6 330 23:18 02.02.2020
3573 Clouds -1 995 71 10000 2.1 340 22:40 02.02.2020
3574 Clouds -1 995 71 10000 2.1 340 22:22 02.02.2020
3575 Clouds 0 995 50 10000 4.6 310 21:58 02.02.2020
3576 Clouds 0 995 50 10000 4.1 320 21:39 02.02.2020
3577 Clouds 0 995 50 10000 4.1 320 21:20 02.02.2020
3578 Clouds 0 995 50 10000 2.1 320 20:57 02.02.2020
3579 Clouds 0 994 47 10000 4.1 300 20:39 02.02.2020
3580 Clouds 1 994 47 10000 4.1 300 20:20 02.02.2020
3581 Clouds 1 994 47 10000 5.1 310 19:57 02.02.2020
3582 Clouds 1 993 47 10000 5.1 290 19:39 02.02.2020
3583 Clouds 2 993 47 10000 5.1 290 19:21 02.02.2020
3584 Clouds 1 993 47 10000 3.6 300 18:56 02.02.2020
3585 Clouds 1 993 44 10000 4.6 300 18:37 02.02.2020
3586 Clouds 1 993 44 10000 4.6 300 18:19 02.02.2020
3587 Clouds 1 992 44 10000 4.6 300 17:57 02.02.2020
3588 Clouds 2 992 44 10000 4.1 300 17:37 02.02.2020
3589 Clouds 2 992 41 10000 4.1 290 17:18 02.02.2020
3590 Clouds 3 992 44 10000 4.1 300 17:18 02.02.2020
3591 Clouds 3 992 41 10000 4.1 290 16:57 02.02.2020
3592 Clouds 3 992 41 10000 2.6 0 16:37 02.02.2020
3593 Clouds 4 992 41 10000 2.6 0 16:18 02.02.2020
3594 Clouds 4 992 41 10000 4.1 0 15:55 02.02.2020
3595 Clouds 4 991 41 10000 4.1 280 15:36 02.02.2020
3596 Clouds 4 991 41 10000 2.6 0 15:18 02.02.2020
3597 Clouds 4 991 41 10000 4.1 280 14:43 02.02.2020
3598 Clear 4 991 41 10000 4.1 280 14:19 02.02.2020
3599 Clear 4 991 47 10000 4.1 0 13:58 02.02.2020
3600 Clear 4 991 47 10000 3.1 270 13:39 02.02.2020
3601 Clouds 4 991 47 10000 3.1 270 13:20 02.02.2020
3602 Clouds 4 991 47 10000 3.1 280 12:56 02.02.2020
3603 Clouds 4 990 47 10000 3.6 310 12:37 02.02.2020
3604 Clouds 3 990 47 10000 3.6 310 12:18 02.02.2020
3605 Clouds 4 990 55 10000 1.5 0 11:41 02.02.2020
3606 Clouds 3 989 55 10000 2.1 300 11:19 02.02.2020
3607 Clouds 3 989 55 10000 2.1 300 10:57 02.02.2020
3608 Clouds 3 989 64 10000 2.6 320 10:38 02.02.2020
3609 Clouds 2 989 64 10000 2.6 320 10:20 02.02.2020
3610 Clouds 2 988 62 10000 1.5 280 09:56 02.02.2020
3611 Clouds 2 988 55 10000 2.1 290 09:38 02.02.2020
3612 Clouds 2 988 55 10000 2.1 290 09:38 02.02.2020
3613 Clouds 2 988 55 10000 2.1 290 09:20 02.02.2020
3614 Clouds 2 988 59 10000 1.5 300 08:44 02.02.2020
3615 Clouds 1 988 78 10000 3.6 320 08:24 02.02.2020
3616 Clouds 1 987 64 10000 2.1 310 07:47 02.02.2020
3617 Clouds 1 986 64 10000 3.1 310 07:28 02.02.2020
3618 Clouds 1 986 80 10000 1 0 06:45 02.02.2020
3619 Clouds 0 986 78 10000 2.1 310 06:27 02.02.2020
3620 Clouds 0 986 64 10000 3.6 310 05:48 02.02.2020
3621 Clouds 1 985 64 10000 2.6 340 04:48 02.02.2020
3622 Clouds 1 984 69 10000 1.5 290 03:26 02.02.2020
3623 Clouds 2 982 64 10000 2.1 320 02:33 02.02.2020
3624 Clouds 2 982 64 10000 3.1 320 01:55 02.02.2020
3625 Clouds 2 982 64 10000 3.1 320 01:55 02.02.2020
3626 Clouds 3 981 69 10000 4.6 350 01:23 02.02.2020
3627 Clouds 3 980 59 10000 5.1 310 00:44 02.02.2020
3628 Clouds 4 979 69 10000 4.1 340 00:22 02.02.2020
3629 Clouds 4 979 69 10000 4.1 340 23:47 01.02.2020
3630 Clouds 4 978 86 10000 4.1 310 23:23 01.02.2020
3631 Clouds 4 978 93 10000 1 0 22:54 01.02.2020
3632 Clouds 4 977 93 10000 2.19 258 22:36 01.02.2020
3633 Clouds 4 977 93 10000 2.19 258 22:18 01.02.2020
3634 Clouds 5 976 86 10000 4.6 220 21:39 01.02.2020
3635 Clouds 5 976 86 10000 4.6 220 21:18 01.02.2020
3636 Clouds 5 977 93 10000 4.6 220 20:41 01.02.2020
3637 Clouds 5 977 93 10000 4.6 220 20:20 01.02.2020
3638 Clouds 5 977 86 10000 4.1 210 19:57 01.02.2020
3639 Clouds 5 976 86 10000 5.1 210 19:39 01.02.2020
3640 Clouds 5 976 86 10000 5.1 210 19:20 01.02.2020
3641 Clouds 5 977 93 10000 6.2 200 18:58 01.02.2020
3642 Clouds 5 977 93 10000 6.2 190 18:40 01.02.2020
3643 Clouds 5 977 93 10000 6.2 190 18:21 01.02.2020
3644 Clouds 5 977 93 10000 5.7 190 17:57 01.02.2020
3645 Clouds 5 977 93 10000 5.1 200 17:39 01.02.2020
3646 Clouds 5 977 93 10000 5.1 200 17:19 01.02.2020
3647 Clouds 5 977 93 10000 5.1 200 16:43 01.02.2020
3648 Clouds 5 977 93 10000 5.1 200 16:24 01.02.2020
3649 Clouds 5 977 93 10000 6.7 200 15:58 01.02.2020
3650 Clouds 5 977 86 10000 6.2 200 15:40 01.02.2020
3651 Clouds 6 977 86 10000 6.2 200 15:20 01.02.2020
3652 Clouds 6 977 86 10000 4.1 210 14:41 01.02.2020
3653 Clouds 6 978 86 10000 2.6 210 14:22 01.02.2020
3654 Clouds 6 978 93 10000 5.1 210 13:59 01.02.2020
3655 Clouds 6 978 93 10000 7.2 210 13:41 01.02.2020
3656 Clouds 6 978 93 10000 5.7 210 13:18 01.02.2020
3657 Clouds 6 978 100 10000 5.7 200 12:42 01.02.2020
3658 Clouds 6 978 100 10000 5.7 200 12:24 01.02.2020
3659 Clouds 6 978 100 10000 3.6 200 11:45 01.02.2020
3660 Clouds 5 978 100 10000 4.1 200 11:24 01.02.2020
3661 Clouds 5 978 100 10000 5.1 190 10:59 01.02.2020
3662 Clouds 5 978 100 9000 6.2 190 10:41 01.02.2020
3663 Clouds 5 978 100 9000 6.2 190 10:23 01.02.2020
3664 Clouds 4 978 100 8000 5.1 200 09:59 01.02.2020
3665 Clouds 4 979 100 7000 6.2 200 09:40 01.02.2020
3666 Clouds 4 979 100 7000 6.2 200 09:21 01.02.2020
3667 Fog 4 979 100 3000 3.1 200 08:58 01.02.2020
3668 Fog 4 979 100 1500 4.6 200 08:18 01.02.2020
3669 Fog 4 979 100 700 3.1 220 07:41 01.02.2020
3670 Fog 4 979 100 700 3.1 220 07:22 01.02.2020
3671 Fog 4 979 100 900 1 0 06:43 01.02.2020
3672 Drizzle 3 981 91 2700 5.86 210 05:54 01.02.2020
3673 Drizzle 3 982 96 1900 0.5 0 04:22 01.02.2020
3674 Mist 3 984 96 1500 0.5 330 03:25 01.02.2020
3675 Mist 3 985 100 2400 1.5 140 02:55 01.02.2020
3676 Mist 3 985 96 5000 1.5 130 02:37 01.02.2020
3677 Mist 2 985 97 5000 1.5 130 02:18 01.02.2020
3678 Mist 2 987 97 5000 2.6 180 01:39 01.02.2020
3679 Mist 2 987 97 5000 2.6 160 00:47 01.02.2020
3680 Mist 2 987 97 3100 2.6 170 00:23 01.02.2020
3681 Clouds 2 988 97 6000 4.1 180 23:40 31.01.2020
3682 Mist 1 988 95 3900 2.6 150 23:18 31.01.2020
3683 Mist 1 988 95 3900 2.6 150 22:56 31.01.2020
3684 Mist 1 989 95 4000 2.6 160 22:38 31.01.2020
3685 Mist 1 989 95 4000 2.6 160 22:20 31.01.2020
3686 Clouds 1 989 95 8000 2.6 170 21:40 31.01.2020
3687 Clouds 1 989 95 8000 2.6 170 21:21 31.01.2020
3688 Clouds 1 990 95 10000 3.6 170 20:58 31.01.2020
3689 Clouds 1 990 95 10000 3.6 170 20:40 31.01.2020
3690 Clouds 1 990 97 10000 3.6 170 20:22 31.01.2020
3691 Clouds 1 990 97 8000 4.1 200 20:00 31.01.2020
3692 Clouds 1 990 97 8000 3.1 200 19:40 31.01.2020
3693 Clouds 1 990 97 8000 3.1 200 19:22 31.01.2020
3694 Clouds 1 990 97 8000 2.1 180 18:58 31.01.2020
3695 Clouds 1 990 97 8000 3.6 210 18:36 31.01.2020
3696 Clouds 1 990 97 8000 3.6 210 18:18 31.01.2020
3697 Clouds 1 990 97 10000 4.1 190 17:43 31.01.2020
3698 Clouds 1 990 97 10000 4.1 190 17:25 31.01.2020
3699 Clouds 1 990 93 10000 4.1 200 16:57 31.01.2020
3700 Clouds 1 989 93 10000 5.1 200 16:38 31.01.2020
3701 Clouds 1 989 93 10000 5.1 200 16:19 31.01.2020
3702 Clouds 1 990 93 9000 3.6 190 15:57 31.01.2020
3703 Clouds 1 990 93 9000 3.6 190 15:57 31.01.2020
3704 Clouds 1 990 93 8000 5.1 190 15:38 31.01.2020
3705 Clouds 1 990 93 8000 5.1 190 15:19 31.01.2020
3706 Rain 1 990 93 6000 4.6 190 14:42 31.01.2020
3707 Rain 1 990 93 8000 5.7 190 14:23 31.01.2020
3708 Rain 1 990 97 10000 5.1 160 13:53 31.01.2020
3709 Snow 1 990 97 4000 5.1 170 13:33 31.01.2020
3710 Snow 1 990 96 3000 4.6 170 12:58 31.01.2020
3711 Mist 1 989 97 5000 5.7 160 12:39 31.01.2020
3712 Mist 0 989 96 5000 5.7 160 12:21 31.01.2020
3713 Mist 0 990 96 2000 4.6 170 11:44 31.01.2020
3714 Drizzle 0 990 96 3300 3.1 170 11:26 31.01.2020
3715 Rain 0 990 96 10000 3.6 180 10:59 31.01.2020
3716 Rain 0 990 96 10000 3.1 160 10:41 31.01.2020
3717 Rain 0 990 96 10000 3.1 160 10:21 31.01.2020
3718 Rain 0 990 96 10000 2.1 130 09:56 31.01.2020
3719 Clouds 0 989 95 10000 2.1 100 09:38 31.01.2020
3720 Clouds 0 989 96 10000 2.1 100 09:18 31.01.2020
3721 Snow 0 989 100 9000 2.1 60 08:50 31.01.2020
3722 Snow 0 989 100 7000 2.1 30 08:25 31.01.2020
3723 Snow 0 989 100 7000 2.1 30 08:25 31.01.2020
3724 Snow 0 989 100 6000 1.5 40 07:52 31.01.2020
3725 Snow 0 989 100 5000 1.5 20 07:24 31.01.2020
3726 Clouds 0 989 100 6000 1.5 310 06:42 31.01.2020
3727 Snow 0 989 100 10000 1 0 05:58 31.01.2020
3728 Snow 0 988 92 10000 3.6 30 05:40 31.01.2020
3729 Snow 0 988 92 10000 3.1 20 04:54 31.01.2020
3730 Snow -1 987 92 6000 3.1 20 02:58 31.01.2020
3731 Snow -1 988 100 3900 2.6 30 01:33 31.01.2020
3732 Snow -1 988 100 4700 2.6 20 00:44 31.01.2020
3733 Snow -1 988 100 5000 2.6 20 00:25 31.01.2020
3734 Snow -1 988 100 5000 2.6 40 23:53 30.01.2020
3735 Snow -1 989 100 3900 2.1 40 23:24 30.01.2020
3736 Snow -1 989 100 8000 2.1 100 22:56 30.01.2020
3737 Snow -1 989 100 6000 2.6 120 22:36 30.01.2020
3738 Snow -1 989 100 6000 2.6 120 22:18 30.01.2020
3739 Snow -1 990 100 6000 3.1 130 21:43 30.01.2020
3740 Snow -1 990 100 6000 3.1 130 21:20 30.01.2020
3741 Snow -1 990 97 9000 3.6 80 20:59 30.01.2020
3742 Snow -1 991 96 9000 3.6 90 20:39 30.01.2020
3743 Clouds -1 992 91 10000 3.1 90 20:21 30.01.2020
3744 Clouds -1 992 91 10000 3.1 90 20:21 30.01.2020
3745 Clouds -1 992 91 10000 3.1 90 19:55 30.01.2020
3746 Snow -1 992 92 10000 1.5 110 19:36 30.01.2020
3747 Snow -1 992 92 10000 2.1 180 19:18 30.01.2020
3748 Snow -1 992 92 10000 3.1 160 18:40 30.01.2020
3749 Snow -1 992 92 10000 2.6 180 18:21 30.01.2020
3750 Snow -1 992 92 10000 2.6 180 17:55 30.01.2020
3751 Rain -1 993 92 10000 3.6 170 17:37 30.01.2020
3752 Rain -1 993 92 10000 3.6 170 17:18 30.01.2020
3753 Rain -1 993 92 10000 3.1 170 16:56 30.01.2020
3754 Rain -1 994 86 10000 1.5 230 16:37 30.01.2020
3755 Rain -1 994 86 10000 1.5 230 16:18 30.01.2020
3756 Rain -1 993 86 10000 1.5 230 15:42 30.01.2020
3757 Rain -1 993 86 10000 1.5 280 15:19 30.01.2020
3758 Rain -1 994 86 10000 1.5 270 14:46 30.01.2020
3759 Rain -1 994 86 10000 1.5 270 14:26 30.01.2020
3760 Rain -1 994 86 10000 1.5 270 14:26 30.01.2020
3761 Snow -1 994 86 10000 1.5 270 13:54 30.01.2020
3762 Rain -1 994 92 10000 1.5 270 13:36 30.01.2020
3763 Rain -1 994 92 10000 1.5 270 13:18 30.01.2020
3764 Rain -1 994 92 10000 0.5 0 12:41 30.01.2020
3765 Rain -1 994 92 10000 0.5 0 12:22 30.01.2020
3766 Rain -1 994 92 10000 1 0 11:56 30.01.2020
3767 Clouds -1 994 92 10000 1.5 210 11:38 30.01.2020
3768 Clouds -1 994 92 10000 1.5 210 11:19 30.01.2020
3769 Clouds -1 993 86 10000 1.5 280 10:42 30.01.2020
3770 Clouds -1 993 86 10000 1.5 280 10:22 30.01.2020
3771 Clouds -1 993 86 10000 1.5 320 09:48 30.01.2020
3772 Clouds -1 993 92 10000 1.5 250 09:30 30.01.2020
3773 Clouds -1 993 92 10000 1 0 08:59 30.01.2020
3774 Snow -1 993 92 10000 1.5 280 08:39 30.01.2020
3775 Snow -1 993 92 10000 1.5 280 08:20 30.01.2020
3776 Snow -1 993 92 10000 1 0 07:49 30.01.2020
3777 Snow -1 993 92 10000 1.5 250 07:22 30.01.2020
3778 Clouds 0 993 100 10000 1.5 300 06:47 30.01.2020
3779 Clouds 0 993 100 10000 1.5 300 06:28 30.01.2020
3780 Snow 0 992 100 7000 1.5 310 05:44 30.01.2020
3781 Snow 0 992 100 7000 1.5 310 05:20 30.01.2020
3782 Clouds 0 992 94 10000 1.5 250 03:54 30.01.2020
3783 Clouds 0 992 94 10000 1 0 03:36 30.01.2020
3784 Clouds 0 992 94 10000 1.5 260 02:42 30.01.2020
3785 Fog 0 992 96 1100 0.5 0 00:43 30.01.2020
3786 Fog 1 992 96 700 0.5 210 00:21 30.01.2020
3787 Fog 1 991 96 8000 1 20 23:46 29.01.2020
3788 Fog 0 991 98 8000 1 20 23:22 29.01.2020
3789 Fog 0 991 98 8000 1 10 22:57 29.01.2020
3790 Fog 1 991 98 10000 1.5 150 22:39 29.01.2020
3791 Fog 1 991 98 10000 1.5 150 22:19 29.01.2020
3792 Fog 1 991 98 9000 0.53 245 21:58 29.01.2020
3793 Clouds 1 990 98 9000 1 200 21:38 29.01.2020
3794 Clouds 1 990 98 9000 1 200 21:19 29.01.2020
3795 Clouds 1 990 98 9000 1 200 21:19 29.01.2020
3796 Fog 1 990 98 2200 1 230 20:58 29.01.2020
3797 Fog 1 990 98 2200 1 230 20:58 29.01.2020
3798 Mist 1 990 98 5000 1 0 20:38 29.01.2020
3799 Mist 1 990 98 5000 1 0 20:38 29.01.2020
3800 Mist 1 990 98 5000 1 0 20:19 29.01.2020
3801 Clouds 1 990 98 7000 1 0 19:56 29.01.2020
3802 Snow 1 990 98 6000 0.5 0 19:37 29.01.2020
3803 Snow 1 990 98 6000 0.5 0 19:37 29.01.2020
3804 Snow 1 990 98 6000 0.5 0 19:37 29.01.2020
3805 Snow 1 990 98 6000 0.5 0 19:18 29.01.2020
3806 Clouds 1 990 98 8000 0.43 173 18:46 29.01.2020
3807 Clouds 1 989 98 6000 0.43 173 18:19 29.01.2020
3808 Snow 1 989 98 8000 0.43 173 17:57 29.01.2020
3809 Fog 1 989 98 8000 1 0 17:38 29.01.2020
3810 Fog 1 989 98 8000 1 0 17:20 29.01.2020
3811 Clouds 1 988 98 10000 1.5 40 16:41 29.01.2020
3812 Clouds 1 988 98 10000 1.5 40 16:23 29.01.2020
3813 Rain 1 988 98 7000 2.1 40 15:55 29.01.2020
3814 Drizzle 2 988 98 2600 1 0 15:37 29.01.2020
3815 Drizzle 2 988 98 2600 1 0 15:18 29.01.2020
3816 Snow 2 987 98 4000 1.5 360 14:41 29.01.2020
3817 Snow 2 987 97 4000 1.5 360 14:20 29.01.2020
3818 Drizzle 2 987 97 4000 1.5 360 13:54 29.01.2020
3819 Drizzle 2 987 97 3000 1 10 13:36 29.01.2020
3820 Drizzle 2 987 97 3000 1 10 13:18 29.01.2020
3821 Rain 2 987 97 4000 1.5 20 12:54 29.01.2020
3822 Snow 1 986 97 4000 1 20 12:36 29.01.2020
3823 Snow 2 986 97 4000 1 20 12:18 29.01.2020
3824 Snow 1 986 97 4000 2.1 30 11:42 29.01.2020
3825 Snow 1 986 98 4000 2.1 30 11:20 29.01.2020
3826 Snow 1 986 98 4000 2.1 40 10:46 29.01.2020
3827 Snow 1 985 98 7000 2.1 30 10:23 29.01.2020
3828 Snow 1 985 98 9000 2.1 30 09:58 29.01.2020
3829 Snow 1 985 98 9000 2.1 30 09:39 29.01.2020
3830 Snow 1 985 98 9000 2.1 30 09:18 29.01.2020
3831 Snow 1 985 98 5000 2.1 20 08:44 29.01.2020
3832 Snow 1 985 97 5000 2.1 20 08:24 29.01.2020
3833 Snow 1 985 97 5000 2.1 20 08:24 29.01.2020
3834 Snow 1 984 99 5000 2.6 20 07:45 29.01.2020
3835 Snow 1 984 99 5000 2.6 20 07:26 29.01.2020
3836 Snow 1 984 99 4200 2.6 20 06:56 29.01.2020
3837 Snow 1 984 99 4500 2.6 20 06:38 29.01.2020
3838 Snow 1 984 99 4500 2.6 20 06:19 29.01.2020
3839 Snow 1 984 99 3000 2.6 20 05:50 29.01.2020
3840 Snow 1 984 99 3000 2.6 20 05:32 29.01.2020
3841 Snow 1 984 98 4500 3.1 30 04:39 29.01.2020
3842 Snow 1 984 98 4500 3.1 30 04:39 29.01.2020
3843 Snow 1 984 98 4000 3.1 30 03:59 29.01.2020
3844 Snow 1 984 98 6000 3.1 30 02:38 29.01.2020
3845 Snow 1 985 97 5000 3.1 30 01:18 29.01.2020
3846 Snow 1 985 97 7000 3.6 20 00:39 29.01.2020
3847 Snow 1 985 97 7000 3.6 20 00:21 29.01.2020
3848 Snow 1 985 97 7000 4.1 30 23:40 28.01.2020
3849 Snow 1 985 97 7000 4.1 30 23:20 28.01.2020
3850 Snow 1 985 97 5000 4.1 30 22:51 28.01.2020
3851 Snow 1 985 97 5000 4.6 30 22:28 28.01.2020
3852 Snow 1 985 97 6000 4.6 20 21:58 28.01.2020
3853 Snow 1 985 97 5000 4.6 20 21:39 28.01.2020
3854 Snow 1 985 97 5000 4.6 20 21:20 28.01.2020
3855 Snow 1 986 97 9000 5.1 20 20:46 28.01.2020
3856 Clouds 1 986 97 10000 5.1 20 20:27 28.01.2020
3857 Clouds 2 986 100 10000 5.7 20 19:58 28.01.2020
3858 Clouds 2 986 100 10000 5.7 20 19:38 28.01.2020
3859 Clouds 2 986 100 10000 5.7 20 19:19 28.01.2020
3860 Clouds 2 987 100 10000 5.1 10 18:54 28.01.2020
3861 Rain 2 987 100 10000 5.7 10 18:36 28.01.2020
3862 Rain 2 987 100 10000 5.7 10 18:18 28.01.2020
3863 Clouds 2 987 100 10000 5.1 20 17:55 28.01.2020
3864 Clouds 2 987 100 10000 5.1 20 17:36 28.01.2020
3865 Clouds 2 987 100 10000 5.1 20 17:18 28.01.2020
3866 Clouds 2 987 100 9000 6.2 20 16:44 28.01.2020
3867 Clouds 2 987 100 9000 6.2 20 16:26 28.01.2020
3868 Clouds 2 988 97 9000 5.7 20 15:59 28.01.2020
3869 Clouds 2 988 100 9000 5.1 20 15:40 28.01.2020
3870 Clouds 2 988 93 10000 4.6 20 15:18 28.01.2020
3871 Clouds 3 988 93 10000 4.6 20 14:44 28.01.2020
3872 Clouds 2 989 93 10000 4.6 20 14:20 28.01.2020
3873 Clouds 2 989 93 10000 4.1 20 13:43 28.01.2020
3874 Clouds 2 989 93 10000 4.1 20 13:24 28.01.2020
3875 Clouds 2 990 93 10000 3.6 20 12:56 28.01.2020
3876 Clouds 2 990 93 10000 3.6 40 12:38 28.01.2020
3877 Clouds 3 990 93 10000 3.6 40 12:20 28.01.2020
3878 Clouds 2 991 93 10000 2.6 60 11:41 28.01.2020
3879 Clouds 2 991 93 10000 2.6 0 11:22 28.01.2020
3880 Fog 2 991 93 8000 2.1 40 10:55 28.01.2020
3881 Mist 2 991 100 5000 2.1 30 10:36 28.01.2020
3882 Mist 2 991 100 5000 2.1 30 10:18 28.01.2020
3883 Mist 2 991 93 5000 2.6 40 09:42 28.01.2020
3884 Mist 2 991 93 5000 2.6 40 09:20 28.01.2020
3885 Clouds 2 992 93 10000 1 0 08:46 28.01.2020
3886 Clouds 2 992 93 10000 1 0 08:26 28.01.2020
3887 Clouds 1 992 100 10000 1.28 190 07:56 28.01.2020
3888 Clouds 2 992 93 10000 1.28 190 07:35 28.01.2020
3889 Clouds 2 992 100 10000 1.28 190 06:48 28.01.2020
3890 Clouds 2 992 100 10000 1 0 06:48 28.01.2020
3891 Clouds 1 992 100 10000 1.28 190 06:25 28.01.2020
3892 Fog 1 993 100 0 2.1 120 05:40 28.01.2020
3893 Fog 1 993 100 0 2.1 120 05:40 28.01.2020
3894 Fog 1 993 100 0 2.1 120 05:22 28.01.2020
3895 Clouds 1 992 100 10000 1.4 181 03:51 28.01.2020
3896 Clouds 2 992 93 10000 1.5 270 02:55 28.01.2020
3897 Clouds 2 992 100 10000 2.1 190 02:25 28.01.2020
3898 Rain 2 993 93 10000 2.6 150 01:56 28.01.2020
3899 Clouds 2 993 100 10000 3.1 190 01:22 28.01.2020
3900 Drizzle 3 993 100 10000 2.1 150 00:45 28.01.2020
3901 Drizzle 3 993 100 10000 2.1 150 00:24 28.01.2020
3902 Clouds 3 993 93 10000 3.6 170 23:46 27.01.2020
3903 Clouds 3 993 93 10000 4.1 190 23:28 27.01.2020
3904 Clouds 3 993 100 10000 3.6 170 22:45 27.01.2020
3905 Clouds 3 993 100 10000 3.6 170 22:22 27.01.2020
3906 Clouds 3 993 93 10000 4.1 180 21:59 27.01.2020
3907 Mist 3 993 100 5000 2.1 180 21:39 27.01.2020
3908 Mist 3 993 100 5000 2.1 180 21:19 27.01.2020
3909 Mist 3 993 100 5000 2.1 180 21:19 27.01.2020
3910 Mist 3 993 93 4000 1 0 20:59 27.01.2020
3911 Mist 3 993 93 5000 1 340 20:38 27.01.2020
3912 Mist 3 993 93 5000 1 340 20:20 27.01.2020
3913 Rain 3 993 100 4000 1 0 19:57 27.01.2020
3914 Rain 3 993 93 5000 1 0 19:39 27.01.2020
3915 Rain 3 993 93 5000 1 0 19:21 27.01.2020
3916 Rain 4 994 100 6000 1 0 18:54 27.01.2020
3917 Rain 4 994 93 10000 3.1 130 18:36 27.01.2020
3918 Rain 4 994 93 10000 3.1 130 18:18 27.01.2020
3919 Rain 4 995 100 10000 4.6 170 17:39 27.01.2020
3920 Rain 4 995 100 10000 4.6 170 17:19 27.01.2020
3921 Rain 4 995 100 10000 4.6 170 16:56 27.01.2020
3922 Rain 4 995 93 10000 5.7 170 16:37 27.01.2020
3923 Rain 4 995 93 10000 5.7 170 16:19 27.01.2020
3924 Rain 4 995 93 10000 6.2 170 15:54 27.01.2020
3925 Rain 4 995 93 10000 6.2 160 15:36 27.01.2020
3926 Rain 4 995 93 10000 6.2 160 15:18 27.01.2020
3927 Rain 4 996 100 8000 6.2 150 14:40 27.01.2020
3928 Rain 4 996 100 8000 6.2 150 14:21 27.01.2020
3929 Rain 4 996 100 9000 5.7 150 13:54 27.01.2020
3930 Rain 4 997 100 8000 6.2 150 13:36 27.01.2020
3931 Rain 4 997 100 8000 6.2 150 13:18 27.01.2020
3932 Rain 4 997 93 8000 7.2 160 12:41 27.01.2020
3933 Rain 4 997 93 8000 7.2 160 12:22 27.01.2020
3934 Drizzle 4 998 100 4500 6.2 150 11:43 27.01.2020
3935 Drizzle 4 998 100 4500 6.2 150 11:22 27.01.2020
3936 Drizzle 4 998 100 3900 6.2 160 10:57 27.01.2020
3937 Rain 4 998 100 4500 7.2 170 10:39 27.01.2020
3938 Rain 4 998 100 4500 7.2 170 10:20 27.01.2020
3939 Rain 4 999 93 6000 8.7 170 09:40 27.01.2020
3940 Rain 4 999 93 6000 8.7 170 09:19 27.01.2020
3941 Drizzle 4 999 93 6000 7.7 170 08:57 27.01.2020
3942 Drizzle 4 999 100 5000 7.2 170 08:39 27.01.2020
3943 Drizzle 4 999 100 5000 7.2 170 08:19 27.01.2020
3944 Drizzle 4 999 100 6000 7.2 160 07:47 27.01.2020
3945 Drizzle 4 999 100 7000 6.2 170 07:29 27.01.2020
3946 Rain 5 1000 93 10000 7.7 170 06:38 27.01.2020
3947 Rain 5 1000 93 10000 7.2 180 05:51 27.01.2020
3948 Rain 5 1000 93 10000 7.2 180 05:18 27.01.2020
3949 Drizzle 5 1001 100 6000 8.2 190 03:35 27.01.2020
3950 Clouds 5 1002 86 10000 5.7 190 01:56 27.01.2020
3951 Clouds 5 1002 86 10000 5.1 190 01:27 27.01.2020
3952 Clouds 5 1002 86 10000 5.7 200 00:42 27.01.2020
3953 Clouds 5 1002 86 10000 5.7 200 00:22 27.01.2020
3954 Clouds 5 1003 86 10000 6.2 200 23:44 26.01.2020
3955 Clouds 5 1003 86 10000 6.2 200 23:26 26.01.2020
3956 Clouds 5 1003 86 10000 4.1 210 22:59 26.01.2020
3957 Clouds 5 1003 93 10000 2.1 190 22:39 26.01.2020
3958 Clouds 5 1003 93 10000 2.1 190 22:20 26.01.2020
3959 Clouds 5 1003 93 10000 3.1 180 21:58 26.01.2020
3960 Clouds 5 1003 93 10000 4.1 170 21:39 26.01.2020
3961 Clouds 5 1003 93 10000 4.1 170 21:21 26.01.2020
3962 Clouds 5 1003 93 10000 4.1 190 20:58 26.01.2020
3963 Clouds 5 1003 86 10000 2.1 190 20:38 26.01.2020
3964 Clouds 5 1003 86 10000 2.1 190 20:19 26.01.2020
3965 Clouds 5 1004 86 10000 2.6 210 19:59 26.01.2020
3966 Clouds 5 1004 86 10000 4.1 190 19:39 26.01.2020
3967 Clouds 5 1003 86 10000 4.6 210 19:21 26.01.2020
3968 Clouds 5 1003 86 10000 4.6 210 18:56 26.01.2020
3969 Clouds 5 1004 86 10000 4.6 210 18:38 26.01.2020
3970 Clouds 5 1004 86 10000 4.6 210 18:20 26.01.2020
3971 Clouds 4 1004 86 10000 3.6 220 17:55 26.01.2020
3972 Clouds 4 1004 86 10000 3.6 180 17:37 26.01.2020
3973 Clouds 4 1004 86 10000 3.6 180 17:18 26.01.2020
3974 Clouds 4 1004 86 10000 4.6 180 16:56 26.01.2020
3975 Clouds 4 1004 86 10000 5.1 200 16:38 26.01.2020
3976 Clouds 4 982 77 0 0.45 182 16:19 26.01.2020
3977 Clouds 4 1002 98 0 2.52 230 15:43 26.01.2020
3978 Clouds 5 1002 98 0 2.52 230 15:21 26.01.2020
3979 Clouds 5 987 19 0 2.24 188 14:58 26.01.2020
3980 Clouds 5 1002 98 0 2.52 230 14:38 26.01.2020
3981 Clouds 5 982 78 0 2.64 214 14:19 26.01.2020
3982 Clouds 5 982 78 0 2.64 214 14:19 26.01.2020
3983 Clouds 5 982 81 0 0.45 138 13:40 26.01.2020
3984 Clouds 5 982 82 0 0.45 181 13:19 26.01.2020
3985 Clouds 4 982 84 0 0.45 137 12:56 26.01.2020
3986 Clouds 4 982 85 0 1.34 90 12:37 26.01.2020
3987 Clouds 4 982 85 0 0.45 315 12:19 26.01.2020
3988 Clouds 4 982 87 0 0.89 190 11:57 26.01.2020
3989 Clouds 4 982 87 0 0.45 268 11:36 26.01.2020
3990 Clouds 3 1004 93 10000 3.1 200 11:18 26.01.2020
3991 Clouds 3 1004 93 10000 3.1 200 10:55 26.01.2020
3992 Clouds 3 1004 93 10000 3.1 200 10:37 26.01.2020
3993 Clouds 3 1004 93 10000 3.1 200 10:18 26.01.2020
3994 Clouds 3 1004 93 10000 3.6 210 09:41 26.01.2020
3995 Clouds 3 1004 93 10000 3.6 190 09:23 26.01.2020
3996 Clouds 3 1004 93 10000 3.6 210 08:57 26.01.2020
3997 Clouds 3 1004 93 10000 3.1 220 08:39 26.01.2020
3998 Clouds 3 1004 93 10000 3.1 220 08:21 26.01.2020
3999 Clouds 3 1004 93 10000 4.1 210 07:47 26.01.2020
4000 Clouds 3 1004 93 10000 4.1 210 07:25 26.01.2020
4001 Clouds 3 1004 86 10000 3.6 180 06:38 26.01.2020
4002 Clouds 4 1004 93 10000 2.6 160 06:18 26.01.2020
4003 Clouds 4 1004 93 10000 5.7 180 05:26 26.01.2020
4004 Clouds 4 1004 93 10000 4.6 210 03:23 26.01.2020
4005 Clouds 4 1003 86 10000 5.1 220 02:24 26.01.2020
4006 Clouds 4 1004 86 10000 5.1 210 01:40 26.01.2020
4007 Clouds 4 1004 86 10000 5.1 210 01:21 26.01.2020
4008 Clouds 4 1004 86 10000 5.1 220 00:41 26.01.2020
4009 Clouds 4 983 87 0 0.45 154 00:20 26.01.2020
4010 Clouds 4 983 86 0 2.78 210 23:38 25.01.2020
4011 Clouds 4 982 86 0 0.45 0 23:20 25.01.2020
4012 Clouds 4 983 85 0 0.45 132 22:44 25.01.2020
4013 Clouds 4 983 85 0 0.89 267 22:21 25.01.2020
4014 Clouds 4 983 84 0 0.89 0 21:59 25.01.2020
4015 Clouds 4 983 84 0 0.89 0 21:59 25.01.2020
4016 Clouds 4 982 84 0 1.34 180 21:41 25.01.2020
4017 Clouds 3 1006 90 0 3.48 216 21:22 25.01.2020
4018 Clouds 3 983 81 0 0.89 141 20:54 25.01.2020
4019 Clouds 3 982 80 0 0.45 137 20:36 25.01.2020
4020 Clouds 0 1006 81 0 1.97 209 20:18 25.01.2020
4021 Clouds 3 983 69 0 0.89 316 19:41 25.01.2020
4022 Clouds 3 983 69 0 0.89 316 19:19 25.01.2020
4023 Clouds 3 983 71 0 0.45 222 18:56 25.01.2020
4024 Clouds 3 983 69 0 0.89 316 18:38 25.01.2020
4025 Clouds 3 983 69 0 0.89 316 18:20 25.01.2020
4026 Clouds 3 983 69 0 0.89 316 18:20 25.01.2020
4027 Clouds 3 983 67 0 0.45 135 17:40 25.01.2020
4028 Clouds 3 984 65 0 0.89 136 17:19 25.01.2020
4029 Clouds 4 984 64 0 1.82 213 16:57 25.01.2020
4030 Clouds 3 984 63 0 0.45 225 16:38 25.01.2020
4031 Clouds 3 984 63 0 0.45 113 16:19 25.01.2020
4032 Clouds 3 984 63 0 0.89 138 15:46 25.01.2020
4033 Clouds 3 985 63 0 0.45 177 15:25 25.01.2020
4034 Clouds 3 985 62 0 0.45 180 14:57 25.01.2020
4035 Clouds 3 985 62 0 0.89 109 14:39 25.01.2020
4036 Clouds 3 985 62 0 0.45 201 14:18 25.01.2020
4037 Clouds 3 986 61 0 0.45 270 13:42 25.01.2020
4038 Clouds 2 986 60 0 0.45 178 13:22 25.01.2020
4039 Clouds 3 1008 69 10000 1 0 12:45 25.01.2020
4040 Clouds 2 1008 69 10000 1 0 12:25 25.01.2020
4041 Clouds 2 1008 64 10000 1 0 11:45 25.01.2020
4042 Clouds 2 1008 64 10000 1 0 11:22 25.01.2020
4043 Clouds 2 1008 64 10000 1 0 11:22 25.01.2020
4044 Clouds 1 1008 64 10000 0.5 0 10:59 25.01.2020
4045 Clouds 1 1008 69 10000 1.5 170 10:40 25.01.2020
4046 Clouds 1 1008 69 10000 1.5 170 10:20 25.01.2020
4047 Clouds 0 1007 68 10000 1 0 09:41 25.01.2020
4048 Clouds 1 1007 64 10000 1.5 0 09:22 25.01.2020
4049 Clouds 1 1007 59 10000 2.6 260 08:47 25.01.2020
4050 Clouds 0 1007 74 10000 0.33 255 08:28 25.01.2020
4051 Clouds 0 1006 79 10000 1 0 07:50 25.01.2020
4052 Clouds 0 1006 74 10000 1 0 06:53 25.01.2020
4053 Clouds 0 1006 67 10000 3.1 190 06:28 25.01.2020
4054 Clouds 0 1006 59 10000 3.6 240 05:47 25.01.2020
4055 Clouds 1 1006 59 10000 3.6 240 05:18 25.01.2020
4056 Clouds 0 1006 74 10000 2.6 230 03:51 25.01.2020
4057 Clouds 0 1006 74 10000 2.1 230 03:19 25.01.2020
4058 Clouds 0 1005 74 10000 2.6 200 02:20 25.01.2020
4059 Clouds 0 1006 74 10000 3.1 160 01:48 25.01.2020
4060 Clouds 1 1005 64 10000 4.1 150 00:44 25.01.2020
4061 Clouds 1 1005 64 10000 4.1 150 00:26 25.01.2020
4062 Clouds 0 1005 59 10000 5.1 170 23:58 24.01.2020
4063 Clouds 1 1005 55 10000 3.6 170 23:40 24.01.2020
4064 Clouds 1 1005 55 10000 3.6 170 23:40 24.01.2020
4065 Clouds 1 1005 55 10000 3.6 170 23:22 24.01.2020
4066 Clouds 2 1004 55 10000 4.1 160 22:44 24.01.2020
4067 Clouds 1 1004 55 10000 4.1 160 22:25 24.01.2020
4068 Clouds 1 1004 55 10000 2.6 130 21:43 24.01.2020
4069 Clouds 1 1004 51 10000 2.6 210 21:21 24.01.2020
4070 Clouds 1 1004 51 10000 4.1 200 20:59 24.01.2020
4071 Clouds 1 1003 51 10000 4.6 210 20:40 24.01.2020
4072 Clouds 2 1003 51 10000 4.6 210 20:20 24.01.2020
4073 Clouds 2 1003 64 10000 4.1 200 19:57 24.01.2020
4074 Clouds 2 1003 59 10000 5.1 200 19:38 24.01.2020
4075 Clouds 2 1003 59 10000 5.1 200 19:20 24.01.2020
4076 Clouds 2 1003 55 10000 4.6 200 18:43 24.01.2020
4077 Clouds 3 1003 55 10000 4.6 200 18:24 24.01.2020
4078 Clouds 2 1003 55 10000 3.1 180 17:54 24.01.2020
4079 Clouds 3 1003 59 10000 4.1 190 17:36 24.01.2020
4080 Clouds 4 1003 48 10000 4.1 220 17:18 24.01.2020
4081 Clouds 4 1003 52 10000 6.2 210 16:39 24.01.2020
4082 Clouds 5 1003 56 10000 5.7 210 16:20 24.01.2020
4083 Clouds 6 1003 56 10000 6.7 210 15:43 24.01.2020
4084 Clouds 6 1003 56 10000 6.7 210 15:23 24.01.2020
4085 Clouds 6 1003 60 10000 6.7 210 14:58 24.01.2020
4086 Clouds 6 1004 60 10000 5.7 200 14:40 24.01.2020
4087 Clear 6 1004 60 10000 5.7 200 14:21 24.01.2020
4088 Clear 6 1004 56 10000 5.7 210 13:43 24.01.2020
4089 Clouds 6 1004 65 10000 4.6 180 13:23 24.01.2020
4090 Clouds 6 1004 69 10000 4.6 180 12:44 24.01.2020
4091 Clouds 5 1004 74 10000 4.1 160 12:22 24.01.2020
4092 Clouds 5 1005 80 10000 1 0 11:57 24.01.2020
4093 Clouds 4 1004 86 10000 1.5 180 11:38 24.01.2020
4094 Clouds 3 1005 86 10000 3.1 150 11:18 24.01.2020
4095 Clouds 3 1004 86 10000 1.5 180 11:18 24.01.2020
4096 Clouds 3 1005 85 10000 3.1 170 10:41 24.01.2020
4097 Clouds 3 1005 85 10000 3.1 170 10:20 24.01.2020
4098 Clouds 3 1004 85 10000 4.1 190 09:54 24.01.2020
4099 Clouds 3 1004 86 10000 2.6 180 09:36 24.01.2020
4100 Clouds 3 1005 80 10000 2.1 0 09:18 24.01.2020
4101 Clouds 3 1004 85 10000 4.1 140 08:39 24.01.2020
4102 Clouds 3 1004 87 10000 4.1 140 08:18 24.01.2020
4103 Clouds 3 1004 86 10000 5.1 190 07:47 24.01.2020
4104 Clouds 3 1004 86 10000 5.1 190 07:22 24.01.2020
4105 Clouds 3 1004 86 10000 5.1 190 07:22 24.01.2020
4106 Clouds 4 1004 86 10000 6.7 180 06:43 24.01.2020
4107 Clouds 4 1004 86 10000 6.7 180 06:23 24.01.2020
4108 Clouds 3 1004 86 10000 8.2 170 05:33 24.01.2020
4109 Clouds 4 1005 88 10000 5.7 160 03:36 24.01.2020
4110 Clouds 4 1006 88 10000 4.1 140 02:40 24.01.2020
4111 Clouds 4 1006 86 10000 4.6 160 02:21 24.01.2020
4112 Clouds 4 1007 86 10000 5.1 180 01:39 24.01.2020
4113 Clouds 5 1007 87 10000 7.7 190 00:49 24.01.2020
4114 Clouds 5 1007 87 10000 6.2 180 00:19 24.01.2020
4115 Clouds 5 1007 87 10000 7.2 180 23:42 23.01.2020
4116 Clouds 5 1008 87 10000 6.7 190 23:22 23.01.2020
4117 Clouds 5 1008 87 10000 6.7 190 22:58 23.01.2020
4118 Clouds 5 1008 87 10000 8.7 200 22:37 23.01.2020
4119 Clouds 5 1008 87 10000 8.7 200 22:18 23.01.2020
4120 Clouds 5 1008 87 10000 6.7 200 21:55 23.01.2020
4121 Clouds 5 1009 87 10000 4.6 150 21:37 23.01.2020
4122 Clouds 5 1009 87 10000 4.6 150 21:19 23.01.2020
4123 Clouds 5 1009 87 10000 2.6 120 20:54 23.01.2020
4124 Clouds 5 1009 87 10000 9.3 190 20:36 23.01.2020
4125 Clouds 5 1009 83 10000 9.3 190 20:18 23.01.2020
4126 Clouds 5 1010 83 10000 5.7 200 19:42 23.01.2020
4127 Clouds 5 1010 83 10000 5.7 200 19:23 23.01.2020
4128 Clouds 4 1010 83 10000 4.6 210 18:57 23.01.2020
4129 Clouds 4 1010 69 10000 4.6 220 18:38 23.01.2020
4130 Clouds 5 1010 69 10000 4.6 220 18:19 23.01.2020
4131 Clouds 4 1010 74 10000 5.1 200 17:55 23.01.2020
4132 Clouds 4 1011 69 10000 1.5 240 17:37 23.01.2020
4133 Clouds 4 1011 69 10000 1.5 240 17:18 23.01.2020
4134 Clouds 4 1011 74 10000 3.6 170 16:39 23.01.2020
4135 Clouds 4 1011 74 10000 3.6 170 16:20 23.01.2020
4136 Clouds 4 1012 69 10000 3.6 130 15:58 23.01.2020
4137 Clouds 4 1012 74 10000 4.1 160 15:39 23.01.2020
4138 Clouds 4 1012 74 10000 4.1 160 15:19 23.01.2020
4139 Clouds 4 1012 74 10000 5.1 140 14:58 23.01.2020
4140 Clouds 4 1013 64 10000 5.7 150 14:40 23.01.2020
4141 Clouds 4 1013 64 10000 5.7 150 14:22 23.01.2020
4142 Clouds 4 1013 64 10000 5.7 160 13:55 23.01.2020
4143 Clouds 4 1014 69 10000 3.1 170 13:37 23.01.2020
4144 Clouds 3 1014 69 10000 3.1 170 13:18 23.01.2020
4145 Clouds 3 1014 69 10000 2.6 230 12:42 23.01.2020
4146 Clouds 3 1014 69 10000 2.6 230 12:24 23.01.2020
4147 Clouds 2 1015 69 10000 1.5 0 11:56 23.01.2020
4148 Clouds 2 1015 65 10000 2.1 200 11:37 23.01.2020
4149 Clouds 2 1015 65 10000 2.1 200 11:18 23.01.2020
4150 Clouds 1 1015 65 10000 4.6 180 10:42 23.01.2020
4151 Clouds 1 1016 65 10000 4.1 200 10:19 23.01.2020
4152 Clouds 0 1016 65 10000 3.6 160 10:19 23.01.2020
4153 Clouds 0 1016 65 10000 6.2 180 09:42 23.01.2020
4154 Clouds 1 1016 65 10000 6.2 180 09:24 23.01.2020
4155 Clouds 0 1017 65 10000 4.6 170 08:58 23.01.2020
4156 Clouds 0 1017 65 10000 3.6 180 08:40 23.01.2020
4157 Clouds 0 1017 75 10000 3.6 180 08:21 23.01.2020
4158 Clouds 0 1018 75 10000 3.6 180 07:44 23.01.2020
4159 Clouds 0 1018 75 10000 4.6 160 07:24 23.01.2020
4160 Clouds 0 1019 75 10000 3.1 200 06:51 23.01.2020
4161 Clouds -1 1020 74 10000 4.6 200 06:20 23.01.2020
4162 Clouds -2 1021 79 10000 1.5 180 04:58 23.01.2020
4163 Clouds -2 1022 79 10000 2.1 220 04:22 23.01.2020
4164 Clouds -2 1024 74 10000 2.1 180 02:31 23.01.2020
4165 Clouds -1 1026 74 10000 1 0 00:56 23.01.2020
4166 Clouds -2 1026 68 10000 2.6 170 00:26 23.01.2020
4167 Clouds -2 1027 68 10000 0.5 0 23:47 22.01.2020
4168 Clouds -2 1027 68 10000 0.5 0 23:29 22.01.2020
4169 Clouds -2 1027 68 10000 1.5 360 22:58 22.01.2020
4170 Clouds -2 1028 74 10000 1 0 22:39 22.01.2020
4171 Clouds -2 1028 74 10000 1 0 22:21 22.01.2020
4172 Clouds -2 1027 74 10000 1 0 21:39 22.01.2020
4173 Clouds -2 1027 74 10000 1 0 21:21 22.01.2020
4174 Clouds -2 1028 74 10000 1.5 340 20:56 22.01.2020
4175 Clouds -2 1028 73 10000 2.1 350 20:37 22.01.2020
4176 Clouds -2 1028 73 10000 2.1 350 20:18 22.01.2020
4177 Clouds -2 1028 68 10000 1 0 19:55 22.01.2020
4178 Clouds -1 1028 68 10000 1.5 310 19:37 22.01.2020
4179 Clouds -2 1028 68 10000 1.5 310 19:18 22.01.2020
4180 Clouds -1 1028 63 10000 1 0 18:55 22.01.2020
4181 Clouds -1 1027 67 10000 1 0 18:37 22.01.2020
4182 Clouds -1 1027 67 10000 1 0 18:18 22.01.2020
4183 Clouds 0 1028 44 10000 1 0 17:40 22.01.2020
4184 Clear 0 1028 44 10000 1 0 17:21 22.01.2020
4185 Clear 0 1027 47 10000 2.1 40 16:58 22.01.2020
4186 Clear 2 1027 40 10000 1.5 0 16:39 22.01.2020
4187 Clear 2 1027 40 10000 1.5 0 16:21 22.01.2020
4188 Clear 3 1027 38 10000 2.6 310 15:56 22.01.2020
4189 Clear 4 1027 41 10000 2.1 300 15:38 22.01.2020
4190 Clear 4 1027 41 10000 3.6 290 15:18 22.01.2020
4191 Clear 5 1027 41 10000 2.1 260 14:39 22.01.2020
4192 Clear 4 1026 41 10000 2.1 290 14:20 22.01.2020
4193 Clear 5 1026 41 10000 2.1 290 13:58 22.01.2020
4194 Clear 5 1026 38 10000 3.1 310 13:37 22.01.2020
4195 Clear 5 1026 38 10000 3.1 310 13:19 22.01.2020
4196 Clear 5 1026 38 10000 2.6 280 12:57 22.01.2020
4197 Clear 5 1026 44 10000 2.1 0 12:39 22.01.2020
4198 Clear 5 1026 44 10000 2.1 0 12:19 22.01.2020
4199 Clear 4 1025 38 10000 3.1 310 11:57 22.01.2020
4200 Clear 4 1024 40 10000 1.5 240 11:39 22.01.2020
4201 Clear 3 1024 44 10000 1.5 0 11:19 22.01.2020
4202 Clear 2 1024 44 10000 1.5 0 10:46 22.01.2020
4203 Clear 2 1023 47 10000 4.6 20 10:21 22.01.2020
4204 Clear 2 1022 47 10000 3.1 70 09:59 22.01.2020
4205 Clear 2 1022 47 10000 3.1 70 09:40 22.01.2020
4206 Clear 2 1022 51 10000 2.1 30 09:22 22.01.2020
4207 Clear 2 1021 51 10000 2.6 310 08:56 22.01.2020
4208 Clear 2 1021 47 10000 3.6 310 08:37 22.01.2020
4209 Clear 3 1021 47 10000 3.6 310 08:19 22.01.2020
4210 Clear 4 1020 47 10000 3.1 320 07:44 22.01.2020
4211 Clear 4 1020 51 10000 3.1 330 07:26 22.01.2020
4212 Clear 3 1019 51 10000 3.6 300 06:36 22.01.2020
4213 Clear 3 1022 69 0 0.5 0 05:57 22.01.2020
4214 Clear 2 1018 51 10000 3.1 310 04:26 22.01.2020
4215 Clear 2 1018 55 10000 2.6 320 03:27 22.01.2020
4216 Clear 2 1018 51 10000 3.1 310 02:48 22.01.2020
4217 Clouds 3 1017 51 10000 2.6 250 00:47 22.01.2020
4218 Clouds 4 1017 51 10000 2.6 250 00:28 22.01.2020
4219 Clouds 4 1017 55 10000 3.1 240 23:57 21.01.2020
4220 Clouds 4 1017 55 10000 3.1 210 23:37 21.01.2020
4221 Clouds 4 1017 55 10000 3.1 210 23:19 21.01.2020
4222 Clouds 4 1018 55 10000 3.1 130 22:41 21.01.2020
4223 Clouds 4 1018 55 10000 3.1 130 22:23 21.01.2020
4224 Clouds 3 1017 55 10000 3.1 140 21:58 21.01.2020
4225 Clouds 3 1018 59 10000 4.6 130 21:39 21.01.2020
4226 Clouds 4 1018 59 10000 4.6 130 21:20 21.01.2020
4227 Clouds 3 1018 64 10000 3.1 110 20:57 21.01.2020
4228 Clouds 3 1018 64 10000 3.1 110 20:57 21.01.2020
4229 Clouds 3 1018 69 10000 2.1 120 20:39 21.01.2020
4230 Clouds 4 1018 64 10000 3.1 200 20:20 21.01.2020
4231 Clouds 4 1018 64 10000 3.1 200 19:57 21.01.2020
4232 Clouds 4 1018 59 10000 4.6 200 19:39 21.01.2020
4233 Clouds 4 1018 59 10000 4.6 200 19:20 21.01.2020
4234 Clouds 4 1018 64 10000 4.1 190 18:56 21.01.2020
4235 Clouds 4 1018 59 10000 1 0 18:38 21.01.2020
4236 Clouds 3 1018 59 10000 1 0 18:20 21.01.2020
4237 Clouds 4 1019 59 10000 3.1 190 17:45 21.01.2020
4238 Clouds 5 1019 55 10000 2.1 180 17:21 21.01.2020
4239 Clouds 5 1020 55 10000 2.1 200 16:59 21.01.2020
4240 Clouds 5 1020 55 10000 2.1 200 16:59 21.01.2020
4241 Clouds 4 1020 41 10000 1 0 16:37 21.01.2020
4242 Clouds 4 1020 41 10000 1 0 16:19 21.01.2020
4243 Clouds 5 1021 41 10000 3.6 250 15:56 21.01.2020
4244 Clouds 6 1020 41 10000 2.1 240 15:37 21.01.2020
4245 Clouds 6 1020 41 10000 2.1 240 15:18 21.01.2020
4246 Clouds 7 1020 42 10000 2.6 290 14:39 21.01.2020
4247 Clouds 7 1020 42 10000 2.6 290 14:20 21.01.2020
4248 Clouds 7 1021 42 10000 2.1 230 13:41 21.01.2020
4249 Clouds 7 1021 48 10000 1.5 0 13:19 21.01.2020
4250 Clouds 7 1021 48 10000 1.5 0 12:57 21.01.2020
4251 Clouds 7 1020 52 10000 2.1 250 12:39 21.01.2020
4252 Clouds 7 1020 52 10000 2.1 250 12:20 21.01.2020
4253 Clouds 7 1020 48 10000 1.5 0 11:41 21.01.2020
4254 Clear 6 1020 48 10000 1.5 0 11:22 21.01.2020
4255 Clear 6 1020 48 10000 3.1 280 10:59 21.01.2020
4256 Clear 5 1020 48 10000 2.6 0 10:41 21.01.2020
4257 Clear 5 1020 48 10000 2.6 0 10:22 21.01.2020
4258 Clear 5 1019 56 10000 1.5 0 09:43 21.01.2020
4259 Clear 5 1019 56 10000 1 0 09:23 21.01.2020
4260 Clear 5 1019 84 10000 2.1 0 08:56 21.01.2020
4261 Clear 5 1019 80 10000 3.1 190 08:38 21.01.2020
4262 Clouds 5 1018 80 10000 1.5 0 08:19 21.01.2020
4263 Clouds 6 1017 80 10000 2.1 190 07:41 21.01.2020
4264 Clouds 6 1017 80 10000 2.1 190 07:22 21.01.2020
4265 Clouds 6 1017 80 10000 2.6 90 06:55 21.01.2020
4266 Clouds 7 1016 70 10000 5.7 220 06:37 21.01.2020
4267 Clouds 7 1016 65 10000 3.1 200 05:44 21.01.2020
4268 Clouds 6 1017 80 10000 3.6 140 04:41 21.01.2020
4269 Clouds 7 1017 81 10000 6.7 150 02:58 21.01.2020
4270 Clouds 7 1017 81 10000 6.2 140 02:19 21.01.2020
4271 Clouds 7 1018 86 10000 6.7 150 01:26 21.01.2020
4272 Clouds 7 1019 86 10000 7.7 190 00:38 21.01.2020
4273 Clouds 7 1019 86 10000 5.7 200 23:59 20.01.2020
4274 Clouds 7 1020 81 10000 8.2 190 23:41 20.01.2020
4275 Clouds 7 1020 86 10000 5.7 200 23:19 20.01.2020
4276 Clouds 7 1020 86 10000 5.7 200 22:58 20.01.2020
4277 Clouds 7 1021 80 10000 7.2 200 22:38 20.01.2020
4278 Clouds 7 1021 80 10000 7.7 200 22:20 20.01.2020
4279 Clouds 7 1021 80 10000 7.2 200 22:20 20.01.2020
4280 Clouds 7 1021 80 10000 7.7 200 21:58 20.01.2020
4281 Clouds 7 1021 81 10000 7.2 200 21:37 20.01.2020
4282 Clouds 7 1021 81 10000 7.2 200 21:19 20.01.2020
4283 Clouds 7 1022 80 10000 5.7 200 20:56 20.01.2020
4284 Clouds 7 1022 80 10000 7.2 200 20:38 20.01.2020
4285 Clouds 7 1022 80 10000 7.2 200 20:18 20.01.2020
4286 Clouds 7 1022 86 10000 5.1 200 19:56 20.01.2020
4287 Clouds 7 1023 80 10000 5.7 210 19:38 20.01.2020
4288 Clouds 6 1023 80 10000 5.7 210 19:18 20.01.2020
4289 Clouds 6 1024 75 10000 6.2 220 18:44 20.01.2020
4290 Clouds 6 1024 75 10000 6.2 220 18:22 20.01.2020
4291 Clouds 5 1024 86 10000 5.7 180 17:41 20.01.2020
4292 Clouds 5 1024 86 10000 5.7 180 17:20 20.01.2020
4293 Clouds 6 1025 75 10000 4.1 170 16:59 20.01.2020
4294 Clouds 6 1025 75 10000 6.2 180 16:39 20.01.2020
4295 Clouds 6 1025 70 10000 6.2 180 16:19 20.01.2020
4296 Clouds 6 1025 75 10000 6.2 180 16:19 20.01.2020
4297 Clouds 6 1025 70 10000 6.2 180 16:19 20.01.2020
4298 Clouds 6 1025 70 10000 6.2 180 16:19 20.01.2020
4299 Clouds 6 1025 70 10000 6.2 180 15:56 20.01.2020
4300 Clouds 7 1026 70 10000 6.2 190 15:38 20.01.2020
4301 Clouds 7 1026 70 10000 6.2 190 15:20 20.01.2020
4302 Clouds 7 1026 70 10000 3.6 210 14:41 20.01.2020
4303 Clouds 7 1026 70 10000 3.6 210 14:22 20.01.2020
4304 Clouds 7 1026 75 10000 3.1 210 13:58 20.01.2020
4305 Clouds 7 1026 75 10000 3.1 210 13:40 20.01.2020
4306 Clouds 6 1026 79 10000 3.1 210 13:21 20.01.2020
4307 Clouds 6 1026 79 10000 6.7 200 12:46 20.01.2020
4308 Clouds 6 1026 79 10000 6.2 190 12:28 20.01.2020
4309 Clouds 6 1027 79 10000 6.2 200 11:58 20.01.2020
4310 Clouds 5 1027 74 10000 6.2 190 11:39 20.01.2020
4311 Clouds 5 1027 74 10000 6.2 190 11:20 20.01.2020
4312 Clouds 4 1027 74 10000 6.7 190 10:48 20.01.2020
4313 Clouds 4 1027 74 10000 6.7 190 10:22 20.01.2020
4314 Clouds 4 1027 74 10000 6.2 200 09:57 20.01.2020
4315 Clouds 4 1027 74 10000 7.7 190 09:39 20.01.2020
4316 Clouds 4 1027 74 10000 7.7 190 09:20 20.01.2020
4317 Clouds 4 1027 80 10000 5.1 170 08:44 20.01.2020
4318 Clouds 4 1027 80 10000 5.1 170 08:26 20.01.2020
4319 Clouds 4 1027 74 10000 5.1 180 07:45 20.01.2020
4320 Clouds 3 1028 69 10000 5.7 180 07:25 20.01.2020
4321 Clouds 4 1028 74 10000 3.6 210 06:48 20.01.2020
4322 Clouds 3 1028 74 10000 3.6 210 06:27 20.01.2020
4323 Clouds 3 1028 69 10000 5.7 210 05:42 20.01.2020
4324 Clouds 3 1028 69 10000 5.7 210 05:22 20.01.2020
4325 Clouds 2 1029 74 10000 6.2 210 04:42 20.01.2020
4326 Clouds 1 1030 64 10000 2.6 150 02:57 20.01.2020
4327 Clouds 0 1031 68 10000 3.1 210 01:54 20.01.2020
4328 Clouds 1 1031 68 10000 4.1 180 01:35 20.01.2020
4329 Clouds 0 1032 86 10000 0.5 0 00:44 20.01.2020
4330 Clouds 0 1032 86 10000 2.6 210 00:23 20.01.2020
4331 Clouds -1 1032 86 10000 1 0 23:39 19.01.2020
4332 Clouds -1 1032 86 10000 1 0 23:20 19.01.2020
4333 Clouds -1 1032 86 10000 1.5 210 22:57 19.01.2020
4334 Clouds -1 1032 86 10000 1.5 210 22:57 19.01.2020
4335 Clouds -1 1032 86 10000 0.5 0 22:38 19.01.2020
4336 Clouds -1 1032 86 10000 0.5 0 22:20 19.01.2020
4337 Clouds -1 1032 86 10000 1.5 210 21:57 19.01.2020
4338 Clouds -1 1033 80 10000 1 230 21:38 19.01.2020
4339 Clouds -1 1033 80 10000 1 230 21:20 19.01.2020
4340 Clouds -1 1032 80 10000 1 0 20:57 19.01.2020
4341 Clouds -1 1032 86 10000 0.5 0 20:39 19.01.2020
4342 Clouds -1 1032 86 10000 0.5 0 20:20 19.01.2020
4343 Clouds -1 1032 80 10000 1.5 240 19:57 19.01.2020
4344 Clouds -1 1032 74 10000 0.5 0 19:39 19.01.2020
4345 Clouds -1 1032 74 10000 0.5 0 19:39 19.01.2020
4346 Clouds -1 1032 74 10000 0.5 0 19:20 19.01.2020
4347 Clouds -1 1032 80 10000 1.5 250 18:57 19.01.2020
4348 Clouds -1 1031 67 10000 0.64 292 18:38 19.01.2020
4349 Clouds -1 1031 67 10000 0.64 292 18:20 19.01.2020
4350 Clouds -1 1031 67 10000 2.6 270 17:58 19.01.2020
4351 Clouds -1 1031 59 10000 1 0 17:40 19.01.2020
4352 Clouds -1 1031 59 10000 1 0 17:40 19.01.2020
4353 Clouds 0 1031 59 10000 1 0 17:21 19.01.2020
4354 Clouds 0 1031 59 10000 1.5 260 16:59 19.01.2020
4355 Clouds 0 1030 55 10000 2.1 270 16:39 19.01.2020
4356 Clouds 1 1030 55 10000 2.1 270 16:21 19.01.2020
4357 Clouds 1 1029 59 10000 2.1 10 15:58 19.01.2020
4358 Clouds 1 1029 59 10000 2.1 10 15:58 19.01.2020
4359 Clouds 1 1029 59 10000 2.1 350 15:38 19.01.2020
4360 Clouds 2 1029 59 10000 2.1 350 15:20 19.01.2020
4361 Clouds 3 1029 51 10000 0.93 274 14:58 19.01.2020
4362 Clouds 3 1028 51 10000 1 0 14:39 19.01.2020
4363 Clear 4 1028 51 10000 1 0 14:18 19.01.2020
4364 Clear 4 1028 51 10000 1 0 14:18 19.01.2020
4365 Clear 4 1028 51 10000 2.1 300 13:57 19.01.2020
4366 Clear 4 1027 55 10000 2.1 300 13:38 19.01.2020
4367 Clear 4 1027 55 10000 2.1 300 13:19 19.01.2020
4368 Clear 4 1027 51 10000 2.1 280 12:55 19.01.2020
4369 Clear 4 1027 55 10000 3.1 260 12:37 19.01.2020
4370 Clear 4 1026 55 10000 2.1 240 12:19 19.01.2020
4371 Clear 3 1025 64 10000 1.5 290 11:42 19.01.2020
4372 Clear 2 1025 64 10000 1.5 290 11:20 19.01.2020
4373 Clear 2 1025 59 10000 2.1 330 10:56 19.01.2020
4374 Clear 2 1025 59 10000 2.1 330 10:56 19.01.2020
4375 Clear 1 1024 64 10000 0.5 0 10:38 19.01.2020
4376 Clear 1 1024 64 10000 0.5 0 10:19 19.01.2020
4377 Clear 1 1023 69 10000 2.6 310 09:56 19.01.2020
4378 Clear 1 1023 69 10000 2.6 310 09:56 19.01.2020
4379 Clear 1 1023 69 10000 2.6 310 09:56 19.01.2020
4380 Clear 1 1023 69 10000 2.6 310 09:56 19.01.2020
4381 Clear 1 1023 69 10000 3.1 300 09:37 19.01.2020
4382 Clear 0 1023 69 10000 3.1 300 09:18 19.01.2020
4383 Clear 0 1022 66 10000 2.6 340 08:48 19.01.2020
4384 Clouds 0 1022 74 10000 1.5 360 08:28 19.01.2020
4385 Clouds 0 1019 74 10000 3.1 330 07:42 19.01.2020
4386 Clouds 1 1019 74 10000 3.1 330 07:22 19.01.2020
4387 Clouds 1 1019 74 10000 3.6 20 06:54 19.01.2020
4388 Clouds 0 1018 74 10000 2.6 320 06:21 19.01.2020
4389 Clouds 0 1013 72 10000 2.1 310 02:47 19.01.2020
4390 Clouds 0 1013 72 10000 1.5 270 02:24 19.01.2020
4391 Clear 0 1011 75 10000 1 0 01:28 19.01.2020
4392 Clear 0 1011 80 10000 1.5 70 00:54 19.01.2020
4393 Clear 1 1010 74 10000 2.6 330 00:29 19.01.2020
4394 Clear 1 1010 74 10000 2.6 330 23:59 18.01.2020
4395 Clear 1 1009 74 10000 2.6 270 23:41 18.01.2020
4396 Clear 1 1009 74 10000 2.6 270 23:23 18.01.2020
4397 Clear 1 1008 80 10000 2.1 300 22:55 18.01.2020
4398 Clear 1 1008 80 10000 2.1 0 22:37 18.01.2020
4399 Clear 1 1008 80 10000 2.1 0 22:19 18.01.2020
4400 Clear 1 1008 86 10000 1.5 40 21:57 18.01.2020
4401 Clear 1 1007 80 10000 2.1 310 21:38 18.01.2020
4402 Clear 1 1007 80 10000 2.1 310 21:20 18.01.2020
4403 Clear 1 1006 80 10000 2.6 360 20:44 18.01.2020
4404 Clouds 2 1006 96 10000 2.6 360 20:21 18.01.2020
4405 Clouds 2 1006 95 10000 2.6 360 20:21 18.01.2020
4406 Clouds 2 1005 95 10000 1.5 0 19:59 18.01.2020
4407 Clouds 2 1005 86 10000 2.1 30 19:41 18.01.2020
4408 Clouds 2 1005 86 10000 2.1 30 19:22 18.01.2020
4409 Clouds 2 1004 93 10000 1.5 300 18:42 18.01.2020
4410 Clouds 2 1004 93 10000 1.5 300 18:22 18.01.2020
4411 Clouds 3 1003 93 10000 3.1 310 17:56 18.01.2020
4412 Fog 3 1003 100 10000 2.1 310 17:37 18.01.2020
4413 Fog 3 1003 100 10000 2.1 310 17:19 18.01.2020
4414 Fog 3 1002 93 10000 1.5 300 16:55 18.01.2020
4415 Fog 3 1002 93 10000 1.5 300 16:55 18.01.2020
4416 Clouds 3 1002 93 10000 1.5 290 16:36 18.01.2020
4417 Clouds 3 1002 100 10000 2.1 290 16:18 18.01.2020
4418 Clouds 4 1001 100 10000 1 0 15:41 18.01.2020
4419 Clouds 4 1001 100 10000 1 0 15:23 18.01.2020
4420 Clouds 4 1002 100 10000 1.5 230 14:57 18.01.2020
4421 Fog 4 1002 100 10000 1.5 290 14:39 18.01.2020
4422 Fog 4 1002 100 10000 1.5 290 14:18 18.01.2020
4423 Fog 4 1001 100 8000 1 340 13:43 18.01.2020
4424 Fog 4 1001 100 8000 1 340 13:24 18.01.2020
4425 Fog 4 1001 100 5000 1 0 12:57 18.01.2020
4426 Fog 4 1001 100 5000 1 0 12:57 18.01.2020
4427 Fog 4 1001 100 5000 1 0 12:57 18.01.2020
4428 Fog 4 1001 100 5000 1 0 12:38 18.01.2020
4429 Fog 4 1001 100 5000 1 0 12:20 18.01.2020
4430 Fog 4 1001 100 1000 2.17 209 11:44 18.01.2020
4431 Fog 4 1001 100 500 2.74 199 11:21 18.01.2020
4432 Fog 4 1001 100 500 1 0 10:57 18.01.2020
4433 Fog 4 1001 100 500 1 350 10:38 18.01.2020
4434 Fog 4 1001 100 500 1 350 10:19 18.01.2020
4435 Fog 4 1001 100 600 0.5 0 09:46 18.01.2020
4436 Fog 4 1001 100 600 0.5 0 09:28 18.01.2020
4437 Rain 4 1001 100 700 1 350 08:55 18.01.2020
4438 Rain 4 1001 100 700 1 0 08:37 18.01.2020
4439 Rain 4 1001 100 700 1 0 08:19 18.01.2020
4440 Rain 4 1001 100 600 1 220 07:45 18.01.2020
4441 Rain 4 1001 100 900 1 190 07:26 18.01.2020
4442 Rain 4 1002 100 1800 1.5 200 06:47 18.01.2020
4443 Rain 4 1002 100 1800 1.5 200 06:47 18.01.2020
4444 Rain 4 1002 100 2300 0.98 197 05:59 18.01.2020
4445 Rain 4 1002 100 1400 0.5 0 05:19 18.01.2020
4446 Rain 4 1002 100 800 0.97 212 02:53 18.01.2020
4447 Rain 4 1002 100 800 0.97 212 02:53 18.01.2020
4448 Rain 4 1003 100 700 1.3 198 01:52 18.01.2020
4449 Rain 4 1003 100 600 1 320 01:29 18.01.2020
4450 Rain 4 1004 100 650 1.66 185 00:36 18.01.2020
4451 Rain 4 1004 100 700 1.66 185 00:18 18.01.2020
4452 Rain 5 1004 100 900 2.1 190 23:40 17.01.2020
4453 Rain 5 1004 100 900 2.1 190 23:19 17.01.2020
4454 Rain 5 1004 100 5000 3.1 170 22:44 17.01.2020
4455 Rain 5 1005 100 2500 3.6 170 22:21 17.01.2020
4456 Rain 5 1005 100 3500 2.1 190 21:58 17.01.2020
4457 Rain 5 1005 100 7000 2.6 160 21:40 17.01.2020
4458 Rain 5 1005 100 7000 2.6 160 21:22 17.01.2020
4459 Rain 5 1005 100 7000 2.1 200 20:57 17.01.2020
4460 Rain 5 1005 100 8000 2.6 190 20:37 17.01.2020
4461 Rain 5 1006 100 9000 4.1 170 20:19 17.01.2020
4462 Rain 5 1006 100 9000 4.1 170 19:55 17.01.2020
4463 Drizzle 5 1006 100 7000 3.1 160 19:37 17.01.2020
4464 Drizzle 5 1006 100 7000 3.1 160 19:18 17.01.2020
4465 Drizzle 5 1006 100 7000 4.1 160 18:45 17.01.2020
4466 Drizzle 5 1006 100 6000 4.1 170 18:27 17.01.2020
4467 Drizzle 5 1006 93 5000 3.1 160 17:56 17.01.2020
4468 Drizzle 5 1006 93 8000 4.6 160 17:38 17.01.2020
4469 Drizzle 5 1006 93 8000 4.6 160 17:20 17.01.2020
4470 Drizzle 5 1007 93 8000 4.6 160 16:42 17.01.2020
4471 Drizzle 5 1007 93 8000 4.6 160 16:42 17.01.2020
4472 Drizzle 5 1007 100 7000 4.6 160 16:20 17.01.2020
4473 Drizzle 5 1007 100 8000 4.6 160 15:48 17.01.2020
4474 Drizzle 5 1007 100 7000 5.1 160 15:28 17.01.2020
4475 Drizzle 5 1007 100 4000 5.7 160 14:57 17.01.2020
4476 Drizzle 5 1008 100 7000 6.2 170 14:38 17.01.2020
4477 Drizzle 5 1008 100 7000 6.2 170 14:20 17.01.2020
4478 Drizzle 6 1008 100 5000 5.7 170 13:41 17.01.2020
4479 Drizzle 6 1008 100 5000 5.7 170 13:22 17.01.2020
4480 Drizzle 6 1008 100 5000 5.7 170 13:22 17.01.2020
4481 Drizzle 6 1008 100 5000 6.2 180 12:46 17.01.2020
4482 Drizzle 6 1008 100 5000 6.2 180 12:23 17.01.2020
4483 Drizzle 6 1008 100 8000 6.2 170 11:41 17.01.2020
4484 Drizzle 6 1008 100 8000 6.2 170 11:20 17.01.2020
4485 Drizzle 6 1008 100 9000 6.2 170 10:56 17.01.2020
4486 Drizzle 6 1008 93 9000 6.7 170 10:37 17.01.2020
4487 Drizzle 6 1008 93 9000 6.7 170 10:19 17.01.2020
4488 Drizzle 6 1008 93 6000 6.7 180 09:43 17.01.2020
4489 Drizzle 6 1008 93 6000 7.2 180 09:21 17.01.2020
4490 Rain 5 1008 100 6000 6.2 180 08:56 17.01.2020
4491 Rain 5 1008 100 10000 5.1 170 08:38 17.01.2020
4492 Rain 5 1008 100 10000 5.1 170 08:19 17.01.2020
4493 Rain 5 1009 93 10000 5.7 170 07:43 17.01.2020
4494 Rain 5 1009 93 10000 5.7 170 07:25 17.01.2020
4495 Rain 5 1009 93 8000 5.1 160 06:51 17.01.2020
4496 Rain 5 1010 93 9000 5.1 160 06:30 17.01.2020
4497 Rain 5 988 83 0 1.34 178 04:27 17.01.2020
4498 Rain 5 990 80 0 0.89 135 02:56 17.01.2020
4499 Rain 5 990 80 0 0.89 135 02:56 17.01.2020
4500 Rain 5 990 81 0 0.89 92 02:32 17.01.2020
4501 Clouds 5 991 82 0 1.34 224 01:44 17.01.2020
4502 Clouds 5 991 82 0 1.34 162 01:22 17.01.2020
4503 Clouds 4 992 84 0 1.34 266 00:37 17.01.2020
4504 Clouds 4 1015 95 10000 5.1 180 23:59 16.01.2020
4505 Clouds 4 1015 95 10000 5.1 180 23:41 16.01.2020
4506 Clouds 4 1015 91 10000 5.1 180 23:22 16.01.2020
4507 Clouds 4 1015 91 10000 5.1 210 22:41 16.01.2020
4508 Clouds 4 1014 91 10000 1.5 200 22:21 16.01.2020
4509 Clouds 3 1014 91 10000 1.5 200 21:57 16.01.2020
4510 Clouds 3 1014 91 10000 1.5 200 21:57 16.01.2020
4511 Clouds 3 1014 80 10000 3.1 210 21:38 16.01.2020
4512 Clouds 3 1014 80 10000 3.1 210 21:19 16.01.2020
4513 Clouds 3 1014 80 10000 3.1 210 21:19 16.01.2020
4514 Clouds 4 1014 69 10000 4.1 210 20:57 16.01.2020
4515 Clouds 4 1014 91 10000 2.1 130 20:38 16.01.2020
4516 Clouds 3 1014 83 10000 3.1 200 20:19 16.01.2020
4517 Clouds 4 1014 83 10000 3.1 200 19:56 16.01.2020
4518 Clouds 4 1014 83 10000 5.1 190 19:37 16.01.2020
4519 Clouds 4 1014 83 10000 5.1 190 19:19 16.01.2020
4520 Clouds 4 1014 83 10000 5.1 190 19:19 16.01.2020
4521 Clouds 4 1013 83 10000 5.7 190 18:55 16.01.2020
4522 Clouds 4 1013 83 10000 5.1 180 18:37 16.01.2020
4523 Clouds 4 1013 83 10000 5.1 180 18:18 16.01.2020
4524 Clouds 4 1012 83 10000 5.1 200 17:42 16.01.2020
4525 Clouds 4 1012 71 10000 5.1 200 17:23 16.01.2020
4526 Clouds 5 1012 75 10000 6.7 190 16:57 16.01.2020
4527 Clouds 5 1011 75 10000 6.7 160 16:39 16.01.2020
4528 Clouds 6 1011 75 10000 6.7 160 16:19 16.01.2020
4529 Clouds 6 1010 75 10000 6.7 160 15:44 16.01.2020
4530 Clouds 6 1010 75 10000 5.1 180 15:23 16.01.2020
4531 Clouds 6 1009 80 10000 5.7 180 14:57 16.01.2020
4532 Clouds 7 1009 75 10000 6.2 190 14:39 16.01.2020
4533 Clear 7 1009 75 10000 6.2 190 14:20 16.01.2020
4534 Clear 7 1008 80 10000 4.6 200 13:45 16.01.2020
4535 Clear 7 1008 80 10000 4.6 200 13:26 16.01.2020
4536 Clear 6 1007 86 10000 5.7 180 12:47 16.01.2020
4537 Clear 6 1007 86 10000 5.7 180 12:29 16.01.2020
4538 Clear 6 1007 86 10000 5.7 180 12:29 16.01.2020
4539 Clouds 6 1007 86 10000 5.7 180 11:59 16.01.2020
4540 Clouds 6 1007 86 10000 5.7 180 11:41 16.01.2020
4541 Clouds 5 1006 86 10000 5.1 190 11:22 16.01.2020
4542 Clouds 5 1005 86 10000 6.7 210 10:55 16.01.2020
4543 Clouds 5 1004 86 10000 7.2 210 10:36 16.01.2020
4544 Clouds 5 1004 86 10000 7.2 210 10:18 16.01.2020
4545 Clouds 5 1003 86 10000 6.7 200 09:41 16.01.2020
4546 Clouds 5 1003 86 10000 6.7 200 09:23 16.01.2020
4547 Clouds 5 1002 86 10000 6.7 190 08:55 16.01.2020
4548 Clouds 5 1002 86 10000 4.1 180 08:36 16.01.2020
4549 Clouds 4 1001 86 10000 4.6 190 07:59 16.01.2020
4550 Clouds 5 1000 86 10000 5.1 190 07:41 16.01.2020
4551 Clouds 5 1000 86 10000 5.1 190 07:23 16.01.2020
4552 Clouds 5 1000 86 10000 6.2 180 06:46 16.01.2020
4553 Clouds 5 999 86 10000 6.7 180 06:28 16.01.2020
4554 Clouds 5 999 86 10000 6.7 180 06:28 16.01.2020
4555 Clouds 5 999 86 10000 8.2 190 05:46 16.01.2020
4556 Clouds 5 998 86 10000 8.2 190 04:46 16.01.2020
4557 Clouds 5 998 86 10000 8.2 190 04:46 16.01.2020
4558 Clouds 4 997 86 10000 9.8 180 03:29 16.01.2020
4559 Clouds 4 997 86 10000 7.7 180 02:44 16.01.2020
4560 Clouds 4 997 86 10000 6.2 190 01:28 16.01.2020
4561 Clouds 4 996 86 10000 5.7 170 00:41 16.01.2020
4562 Clouds 4 996 86 10000 5.7 170 00:19 16.01.2020
4563 Clouds 4 996 86 10000 5.1 170 23:40 15.01.2020
4564 Clouds 4 996 86 10000 5.1 170 23:20 15.01.2020
4565 Clouds 4 996 86 10000 3.1 190 22:56 15.01.2020
4566 Clouds 4 995 80 10000 3.1 210 22:37 15.01.2020
4567 Clouds 4 995 80 10000 3.1 210 22:18 15.01.2020
4568 Clouds 4 995 80 10000 3.1 210 22:18 15.01.2020
4569 Clouds 4 995 86 10000 6.2 200 21:55 15.01.2020
4570 Clouds 4 995 86 10000 3.6 200 21:36 15.01.2020
4571 Clouds 3 995 86 10000 3.6 200 21:18 15.01.2020
4572 Clouds 4 995 86 10000 2.6 190 20:54 15.01.2020
4573 Clouds 4 995 86 10000 1.5 180 20:36 15.01.2020
4574 Clouds 3 995 86 10000 1.5 180 20:18 15.01.2020
4575 Clouds 3 994 79 10000 1.5 160 19:54 15.01.2020
4576 Clouds 4 994 80 10000 3.1 120 19:36 15.01.2020
4577 Clouds 4 994 79 10000 3.1 80 19:18 15.01.2020
4578 Clouds 4 994 79 10000 3.1 80 18:55 15.01.2020
4579 Clouds 4 994 79 10000 3.1 80 18:55 15.01.2020
4580 Clouds 4 994 79 10000 3.1 80 18:55 15.01.2020
4581 Clouds 4 994 80 10000 3.6 110 18:36 15.01.2020
4582 Clouds 4 994 79 10000 4.1 130 18:18 15.01.2020
4583 Clouds 4 994 79 10000 4.1 130 17:40 15.01.2020
4584 Clouds 4 993 71 10000 4.6 180 17:22 15.01.2020
4585 Clouds 4 993 71 10000 5.1 190 16:57 15.01.2020
4586 -273 0 0 0 0 0 16:38 15.01.2020
4587 Clouds 4 993 71 10000 6.2 200 16:20 15.01.2020
4588 Clouds 4 993 71 10000 6.2 200 16:20 15.01.2020
4589 Clouds 4 993 71 10000 6.2 200 16:20 15.01.2020
4590 Clouds 4 992 71 10000 5.1 200 15:43 15.01.2020
4591 Clouds 4 992 71 10000 5.1 200 15:21 15.01.2020
4592 Clouds 4 992 71 10000 5.7 190 14:56 15.01.2020
4593 Clouds 5 992 71 10000 4.6 200 14:37 15.01.2020
4594 Clouds 5 992 67 10000 4.6 200 14:18 15.01.2020
4595 Clouds 5 991 67 10000 4.1 200 13:44 15.01.2020
4596 Clouds 5 991 86 10000 5.1 200 13:23 15.01.2020
4597 Clouds 4 990 67 10000 7.2 200 12:56 15.01.2020
4598 Clouds 4 990 67 10000 5.1 210 12:37 15.01.2020
4599 Clouds 4 990 67 10000 5.1 210 12:19 15.01.2020
4600 Clouds 4 990 67 10000 5.7 210 11:54 15.01.2020
4601 Clouds 4 989 69 10000 3.6 220 11:36 15.01.2020
4602 Clouds 4 988 70 10000 4.1 220 11:18 15.01.2020
4603 Clouds 3 988 80 10000 6.2 220 10:41 15.01.2020
4604 Clouds 3 988 80 10000 6.2 220 10:21 15.01.2020
4605 Clouds 3 986 86 10000 5.7 220 09:41 15.01.2020
4606 Clouds 4 986 86 10000 5.7 220 09:22 15.01.2020
4607 Clouds 4 985 86 10000 5.7 210 08:45 15.01.2020
4608 Clouds 4 984 86 10000 5.7 210 08:27 15.01.2020
4609 Clouds 4 984 86 10000 4.6 230 07:56 15.01.2020
4610 Clouds 4 983 86 10000 3.1 230 07:35 15.01.2020
4611 Clouds 4 982 93 10000 2.1 0 06:57 15.01.2020
4612 Clouds 4 982 93 10000 2.1 0 06:57 15.01.2020
4613 Clouds 4 982 69 10000 1.5 100 06:38 15.01.2020
4614 Fog 4 981 100 6000 0.5 0 05:43 15.01.2020
4615 Clouds 4 981 95 6000 1.5 70 03:44 15.01.2020
4616 Rain 3 984 93 10000 5.1 150 01:50 15.01.2020
4617 Rain 3 985 93 10000 7.7 160 01:22 15.01.2020
4618 Rain 4 986 93 10000 5.7 150 00:38 15.01.2020
4619 Rain 4 986 93 10000 5.7 150 00:20 15.01.2020
4620 Rain 3 988 93 10000 3.6 150 23:47 14.01.2020
4621 Rain 4 988 93 10000 3.6 150 23:28 14.01.2020
4622 Rain 3 989 93 10000 2.6 130 22:58 14.01.2020
4623 Clouds 3 990 86 10000 2.6 140 22:40 14.01.2020
4624 Clouds 3 990 86 10000 2.6 140 22:19 14.01.2020
4625 Clouds 3 990 86 10000 2.6 140 21:58 14.01.2020
4626 Clouds 3 991 93 10000 2.1 160 21:39 14.01.2020
4627 Clouds 3 991 93 10000 2.1 160 21:19 14.01.2020
4628 Clouds 3 991 94 10000 4.1 190 20:54 14.01.2020
4629 Clouds 3 991 94 10000 4.1 190 20:54 14.01.2020
4630 Clouds 3 991 94 10000 2.6 140 20:36 14.01.2020
4631 Clouds 3 991 75 10000 2.6 140 20:18 14.01.2020
4632 Clouds 3 991 75 10000 2.6 140 19:55 14.01.2020
4633 Clouds 2 990 75 10000 2.6 50 19:37 14.01.2020
4634 Clouds 2 990 75 10000 2.6 50 19:18 14.01.2020
4635 Clouds 2 990 75 10000 2.6 50 19:18 14.01.2020
4636 Clouds 2 990 86 10000 2.1 170 18:41 14.01.2020
4637 Clouds 2 990 86 10000 2.1 170 18:20 14.01.2020
4638 Clouds 3 990 86 10000 2.1 170 17:58 14.01.2020
4639 Clouds 3 989 93 10000 3.1 200 17:37 14.01.2020
4640 Clouds 3 989 86 10000 4.1 210 17:18 14.01.2020
4641 Clouds 3 989 86 10000 4.1 210 16:43 14.01.2020
4642 Clouds 4 988 86 10000 5.7 210 16:23 14.01.2020
4643 Clouds 4 988 86 10000 5.7 200 15:58 14.01.2020
4644 Clouds 5 987 93 10000 6.7 190 15:40 14.01.2020
4645 Clouds 5 987 93 10000 6.7 190 15:19 14.01.2020
4646 Clouds 5 987 86 10000 6.2 170 14:43 14.01.2020
4647 Clouds 5 987 93 10000 5.7 180 14:20 14.01.2020
4648 Rain 5 987 93 10000 6.2 180 13:57 14.01.2020
4649 Clouds 5 987 86 10000 6.2 180 13:38 14.01.2020
4650 Clouds 5 987 86 10000 6.2 180 13:18 14.01.2020
4651 Clouds 5 987 93 10000 4.1 180 12:41 14.01.2020
4652 Clouds 5 987 93 10000 4.1 180 12:21 14.01.2020
4653 Clouds 5 986 93 10000 5.1 190 11:55 14.01.2020
4654 Clouds 5 986 100 10000 4.1 160 11:36 14.01.2020
4655 Clouds 5 986 100 10000 4.1 160 11:18 14.01.2020
4656 Clouds 5 989 87 9000 8.2 190 10:40 14.01.2020
4657 Rain 5 986 88 9000 3.6 200 10:20 14.01.2020
4658 Rain 5 986 88 7000 6.2 160 09:58 14.01.2020
4659 Rain 5 988 93 5000 12.3 180 09:40 14.01.2020
4660 Rain 5 988 93 5000 12.3 180 09:21 14.01.2020
4661 Snow 4 987 88 3300 5.7 150 08:48 14.01.2020
4662 Snow 4 988 95 3000 6.2 160 08:25 14.01.2020
4663 Snow 4 988 94 2500 6.7 160 07:56 14.01.2020
4664 Clouds 4 989 100 9000 8.2 160 07:34 14.01.2020
4665 Clouds 4 989 100 9000 8.2 160 07:34 14.01.2020
4666 Rain 3 990 93 10000 8.2 150 06:57 14.01.2020
4667 Rain 3 990 86 10000 8.7 150 06:34 14.01.2020
4668 Drizzle 4 992 86 10000 8.2 150 05:28 14.01.2020
4669 Rain 4 995 93 10000 9.3 170 03:57 14.01.2020
4670 Clouds 4 996 93 10000 8.2 170 03:35 14.01.2020
4671 Rain 4 998 100 10000 6.7 170 01:58 14.01.2020
4672 Rain 3 1000 93 10000 4.6 170 00:53 14.01.2020
4673 Clouds 3 1000 91 8000 1 0 00:35 14.01.2020
4674 Clouds 3 1001 91 10000 3.6 180 23:56 13.01.2020
4675 Clouds 3 1003 86 10000 6.7 180 23:37 13.01.2020
4676 Clouds 2 1001 100 10000 0.5 0 23:18 13.01.2020
4677 Clouds 2 1001 100 10000 0.5 0 23:18 13.01.2020
4678 Snow 1 1002 100 10000 1 0 22:43 13.01.2020
4679 Snow 1 1002 100 10000 1 0 22:22 13.01.2020
4680 Rain 2 1002 95 10000 0.5 0 21:58 13.01.2020
4681 Rain 2 1002 95 10000 0.5 0 21:58 13.01.2020
4682 Clouds 2 1004 92 10000 1 0 21:39 13.01.2020
4683 Clouds 2 1004 92 10000 1 0 21:19 13.01.2020
4684 Clouds 1 1004 100 10000 1.5 220 20:59 13.01.2020
4685 Clouds 1 1004 92 10000 2.6 190 20:41 13.01.2020
4686 Clouds 1 1004 92 10000 2.6 190 20:22 13.01.2020
4687 Clouds 1 1004 92 10000 2.6 190 20:22 13.01.2020
4688 Clouds 1 1004 92 10000 2.6 190 20:22 13.01.2020
4689 Clouds 0 1004 92 10000 4.1 170 19:59 13.01.2020
4690 Clouds 0 1004 92 10000 5.1 190 19:40 13.01.2020
4691 Clouds 0 1004 92 10000 5.1 190 19:20 13.01.2020
4692 Clouds 1 1004 92 10000 4.1 210 18:57 13.01.2020
4693 Clear 0 1004 86 10000 2.1 200 18:37 13.01.2020
4694 Clear 0 1004 86 10000 2.1 200 18:19 13.01.2020
4695 Clear 0 1004 83 10000 3.6 200 17:55 13.01.2020
4696 Clear 1 1004 83 10000 2.6 200 17:36 13.01.2020
4697 Clear 0 1004 83 10000 2.6 200 17:36 13.01.2020
4698 Clear 0 1004 87 10000 2.6 200 17:18 13.01.2020
4699 Clear 1 982 74 0 0.45 174 16:40 13.01.2020
4700 Clear 1 982 74 0 0.45 174 16:40 13.01.2020
4701 Clear 1 982 73 0 0.45 99 16:21 13.01.2020
4702 Clear 1 982 71 0 0.89 222 15:55 13.01.2020
4703 Clear 2 982 71 0 0.45 175 15:36 13.01.2020
4704 Clear 2 983 69 0 0.89 135 15:18 13.01.2020
4705 Clear 2 1005 69 0 2.9 199 14:40 13.01.2020
4706 Clouds 2 1003 92 0 2.21 206 14:22 13.01.2020
4707 Clouds 2 989 32 0 1.79 146 13:56 13.01.2020
4708 Clouds 2 1003 93 0 2.21 206 13:38 13.01.2020
4709 Clouds 2 1004 93 0 2.09 206 13:20 13.01.2020
4710 Clouds 2 1004 93 0 2.21 206 13:20 13.01.2020
4711 Clouds 1 1005 75 10000 5.1 180 12:43 13.01.2020
4712 Clouds 1 1005 75 10000 5.1 180 12:23 13.01.2020
4713 Clouds 1 1005 75 10000 5.1 180 12:23 13.01.2020
4714 Clouds 1 1005 75 10000 5.1 180 11:59 13.01.2020
4715 Clouds 0 1005 86 10000 4.6 180 11:39 13.01.2020
4716 Clouds 0 1005 86 10000 4.6 180 11:19 13.01.2020
4717 Clouds 0 1005 86 10000 6.2 210 10:56 13.01.2020
4718 Clouds 0 1005 86 10000 4.1 190 10:38 13.01.2020
4719 Clouds -1 1005 86 10000 4.1 190 10:20 13.01.2020
4720 Clouds -1 1005 86 10000 3.1 190 09:45 13.01.2020
4721 Clouds -1 1005 80 10000 2.6 220 09:26 13.01.2020
4722 Clouds -1 1004 80 10000 3.1 170 08:59 13.01.2020
4723 Clouds -1 1004 86 10000 3.6 170 08:38 13.01.2020
4724 Clouds -1 1004 86 10000 3.6 170 08:19 13.01.2020
4725 Clouds -1 1004 86 10000 4.6 190 07:45 13.01.2020
4726 Clouds -1 1004 80 10000 5.1 200 07:27 13.01.2020
4727 Clouds -1 1004 80 10000 4.1 150 06:39 13.01.2020
4728 Clouds -2 1004 80 10000 4.6 150 05:57 13.01.2020
4729 Clouds -2 1004 80 10000 4.6 180 05:19 13.01.2020
4730 Clouds -1 1004 86 10000 5.1 180 03:46 13.01.2020
4731 Clouds -1 1003 86 10000 4.6 190 02:51 13.01.2020
4732 Clouds -1 1003 80 10000 5.1 170 02:31 13.01.2020
4733 Clouds -1 1003 86 10000 3.1 180 01:47 13.01.2020
4734 Clouds 0 1003 86 10000 4.6 200 00:59 13.01.2020
4735 Clouds 0 1003 86 10000 4.6 200 00:37 13.01.2020
4736 Clouds 0 1003 86 10000 4.6 200 00:18 13.01.2020
4737 Clouds 0 1002 86 10000 4.6 200 23:41 12.01.2020
4738 Clear 0 1002 86 10000 4.6 200 23:22 12.01.2020
4739 Clear 0 1002 80 10000 4.1 210 22:57 12.01.2020
4740 Clear 0 1002 86 10000 4.6 200 22:39 12.01.2020
4741 Clear 0 1002 86 10000 4.6 200 22:19 12.01.2020
4742 Clear 0 1002 82 10000 5.1 190 21:54 12.01.2020
4743 Clear 0 1002 82 10000 5.1 190 21:54 12.01.2020
4744 Clear 0 1002 86 10000 5.1 190 21:36 12.01.2020
4745 Clear 0 1002 86 10000 5.1 190 21:36 12.01.2020
4746 Clear 0 1002 86 10000 5.1 190 21:18 12.01.2020
4747 Clear 1 1002 82 10000 5.7 200 20:54 12.01.2020
4748 Clouds 1 1002 79 10000 4.1 190 20:36 12.01.2020
4749 Clear 0 1002 80 10000 4.1 190 20:18 12.01.2020
4750 Clear 1 1001 80 10000 5.7 170 19:54 12.01.2020
4751 Clear 1 1001 80 10000 4.1 180 19:36 12.01.2020
4752 Clear 1 1001 74 10000 4.1 160 19:18 12.01.2020
4753 Clear 1 1001 74 10000 4.1 160 19:18 12.01.2020
4754 Clear 1 1001 74 10000 4.1 160 18:54 12.01.2020
4755 Clear 0 1001 69 10000 4.1 160 18:36 12.01.2020
4756 Clear 1 1001 69 10000 4.1 160 18:18 12.01.2020
4757 Clear 1 1001 69 10000 5.7 190 17:42 12.01.2020
4758 Clear 1 1001 69 10000 5.7 190 17:20 12.01.2020
4759 Clear 1 1001 69 10000 4.6 200 16:57 12.01.2020
4760 Clear 2 1001 64 10000 4.1 180 16:38 12.01.2020
4761 Clear 2 1001 64 10000 4.1 180 16:19 12.01.2020
4762 Clear 3 1000 55 10000 5.1 170 15:43 12.01.2020
4763 Clear 4 1000 55 10000 5.1 170 15:25 12.01.2020
4764 Clear 4 1000 55 10000 3.1 190 14:59 12.01.2020
4765 Clear 4 1000 55 10000 3.1 160 14:41 12.01.2020
4766 Clear 5 1000 55 10000 3.1 160 14:21 12.01.2020
4767 Clear 5 1000 60 10000 3.6 150 13:56 12.01.2020
4768 Clear 5 1000 60 10000 2.6 190 13:38 12.01.2020
4769 Clear 5 1000 60 10000 2.1 140 13:20 12.01.2020
4770 Clear 5 1000 60 10000 2.1 140 12:43 12.01.2020
4771 Clear 5 999 60 10000 3.1 210 12:21 12.01.2020
4772 Clear 5 999 60 10000 3.1 210 11:59 12.01.2020
4773 Clear 4 999 69 10000 2.1 0 11:40 12.01.2020
4774 Clear 4 999 69 10000 2.1 0 11:21 12.01.2020
4775 Clear 4 999 80 10000 2.1 180 10:43 12.01.2020
4776 Clouds 4 998 80 10000 3.1 180 10:23 12.01.2020
4777 Clouds 3 998 65 10000 3.6 170 09:59 12.01.2020
4778 Clouds 3 997 65 10000 4.6 160 09:41 12.01.2020
4779 Clouds 3 997 65 10000 4.6 160 09:21 12.01.2020
4780 Clouds 4 997 86 10000 2.6 150 08:47 12.01.2020
4781 Clouds 4 997 100 10000 2.6 170 08:21 12.01.2020
4782 Clouds 4 997 93 10000 2.1 0 07:45 12.01.2020
4783 Clouds 4 997 93 10000 3.1 130 07:25 12.01.2020
4784 Clouds 3 997 100 10000 2.1 140 06:50 12.01.2020
4785 Clouds 4 997 93 10000 3.1 180 06:32 12.01.2020
4786 Clouds 4 997 93 10000 1.5 200 05:47 12.01.2020
4787 Clouds 4 997 100 10000 3.6 200 04:52 12.01.2020
4788 Clouds 5 996 100 10000 3.6 200 03:29 12.01.2020
4789 Clouds 5 996 93 10000 4.1 160 02:34 12.01.2020
4790 Clouds 5 996 93 10000 4.1 160 02:34 12.01.2020
4791 Clouds 6 996 100 10000 4.1 160 01:58 12.01.2020
4792 Clouds 6 996 93 10000 2.1 150 01:30 12.01.2020
4793 Clouds 6 996 87 10000 5.7 200 00:44 12.01.2020
4794 Clouds 6 996 87 10000 5.7 200 00:21 12.01.2020
4795 Clouds 6 996 87 10000 4.1 210 23:56 11.01.2020
4796 Clouds 6 995 87 10000 3.6 190 23:37 11.01.2020
4797 Clouds 6 995 87 10000 3.6 190 23:18 11.01.2020
4798 Clouds 7 995 93 10000 4.6 190 22:56 11.01.2020
4799 Clouds 6 996 93 10000 6.2 210 22:37 11.01.2020
4800 Clouds 6 996 93 10000 6.2 210 22:18 11.01.2020
4801 Clouds 6 996 93 10000 6.7 200 21:42 11.01.2020
4802 Clouds 6 996 93 10000 6.7 200 21:18 11.01.2020
4803 Clouds 6 996 93 10000 5.7 190 20:55 11.01.2020
4804 Clouds 6 996 93 10000 5.7 190 20:37 11.01.2020
4805 Clouds 6 996 93 10000 5.7 190 20:18 11.01.2020
4806 Rain 6 997 93 10000 5.1 200 19:55 11.01.2020
4807 Clouds 6 997 93 10000 8.7 200 19:36 11.01.2020
4808 Clouds 6 997 93 10000 8.7 200 19:18 11.01.2020
4809 Clouds 6 996 100 10000 8.2 180 18:54 11.01.2020
4810 Rain 6 997 100 10000 8.2 180 18:36 11.01.2020
4811 Rain 6 997 100 10000 8.2 180 18:18 11.01.2020
4812 Rain 6 998 87 10000 9.8 190 17:54 11.01.2020
4813 Rain 6 999 87 10000 8.2 190 17:36 11.01.2020
4814 Rain 6 999 87 10000 8.2 190 17:18 11.01.2020
4815 Clouds 6 999 93 10000 7.7 190 16:41 11.01.2020
4816 Clouds 6 999 93 10000 7.7 190 16:22 11.01.2020
4817 Clouds 6 1001 93 10000 8.7 190 15:42 11.01.2020
4818 Clouds 6 1001 93 10000 8.7 190 15:23 11.01.2020
4819 Clouds 6 1001 93 10000 10.8 190 14:58 11.01.2020
4820 Drizzle 5 1001 93 10000 9.8 190 14:40 11.01.2020
4821 Drizzle 5 1001 93 10000 9.8 190 14:22 11.01.2020
4822 Drizzle 5 1002 93 10000 7.7 190 13:55 11.01.2020
4823 Drizzle 5 1002 93 10000 7.7 190 13:55 11.01.2020
4824 Rain 5 1003 93 6000 8.2 190 13:36 11.01.2020
4825 Rain 5 1003 93 6000 8.2 190 13:18 11.01.2020
4826 Drizzle 5 1004 93 3900 9.3 200 12:42 11.01.2020
4827 Drizzle 5 1004 93 3900 9.3 200 12:24 11.01.2020
4828 Drizzle 5 1005 93 6000 9.3 190 11:54 11.01.2020
4829 Drizzle 5 1005 86 8000 10.3 190 11:36 11.01.2020
4830 Drizzle 5 1006 86 10000 10.3 180 11:18 11.01.2020
4831 Rain 5 1007 86 10000 11.3 180 10:42 11.01.2020
4832 Rain 5 1007 86 10000 11.3 180 10:23 11.01.2020
4833 Clouds 4 1008 86 10000 8.7 190 09:39 11.01.2020
4834 Clouds 4 1008 86 10000 8.7 190 09:21 11.01.2020
4835 Rain 4 1010 82 10000 7.2 190 08:43 11.01.2020
4836 Rain 3 1010 76 10000 7.2 190 08:22 11.01.2020
4837 Clouds 3 1011 76 10000 6.7 180 07:44 11.01.2020
4838 Clouds 2 1012 76 10000 6.2 200 07:26 11.01.2020
4839 Clouds 1 1012 92 10000 4.1 190 06:52 11.01.2020
4840 Clouds 0 1013 92 10000 2.6 240 06:19 11.01.2020
4841 Snow -1 1014 92 10000 1 0 04:48 11.01.2020
4842 Snow -2 1015 92 10000 1 350 04:29 11.01.2020
4843 Clouds -4 1016 92 10000 1.5 10 03:28 11.01.2020
4844 Fog -4 1017 100 6000 5.15 204 02:40 11.01.2020
4845 Fog -4 1017 92 10000 1.79 207 01:44 11.01.2020
4846 Clouds -6 1018 92 10000 0.5 0 01:20 11.01.2020
4847 Clouds -6 1018 92 10000 1 0 00:44 11.01.2020
4848 Clouds -6 1018 92 10000 1.71 212 00:20 11.01.2020
4849 Clouds -6 1018 92 10000 1 30 23:41 10.01.2020
4850 Clouds -6 1018 92 10000 1 30 23:41 10.01.2020
4851 Clear -6 1018 92 10000 1 30 23:22 10.01.2020
4852 Clear -5 1018 92 10000 1 30 22:59 10.01.2020
4853 Clear -6 1018 92 10000 1 0 22:40 10.01.2020
4854 Clear -5 1018 92 10000 1 0 22:21 10.01.2020
4855 Clear -5 1018 100 10000 1 0 21:57 10.01.2020
4856 Clear -5 1018 92 10000 0.5 0 21:38 10.01.2020
4857 Clear -5 1018 92 10000 0.5 0 21:19 10.01.2020
4858 Clear -5 1018 92 10000 1 0 20:43 10.01.2020
4859 Clear -5 1018 92 10000 1 0 20:25 10.01.2020
4860 Clear -5 1017 85 10000 1 30 19:59 10.01.2020
4861 Clear -4 1017 92 10000 1 320 19:38 10.01.2020
4862 Clear -4 1017 92 10000 1 320 19:20 10.01.2020
4863 Clear -4 1017 92 10000 1 360 18:44 10.01.2020
4864 Clear -4 1016 85 10000 1.5 50 18:20 10.01.2020
4865 Clear -4 1016 85 10000 1.5 50 17:58 10.01.2020
4866 Clear -3 1016 85 10000 1.5 20 17:39 10.01.2020
4867 Clear -3 1016 85 10000 1.5 20 17:21 10.01.2020
4868 Clear -3 1018 86 10000 1.5 360 16:59 10.01.2020
4869 Clear -3 1016 79 10000 0.5 0 16:40 10.01.2020
4870 Clear -2 1016 79 10000 0.5 0 16:21 10.01.2020
4871 Clear -2 1016 86 10000 0.58 342 15:56 10.01.2020
4872 Clear -2 1015 86 10000 1 0 15:37 10.01.2020
4873 Clear -1 1015 86 10000 1 0 15:18 10.01.2020
4874 Clear -1 1015 79 10000 1 0 14:56 10.01.2020
4875 Clear -1 1015 79 10000 2.1 30 14:38 10.01.2020
4876 Clouds 0 1014 79 10000 2.1 20 14:19 10.01.2020
4877 Clouds 0 1014 79 10000 2.1 20 13:44 10.01.2020
4878 Clouds -1 1014 86 10000 3.6 20 13:26 10.01.2020
4879 Clouds -1 1014 86 10000 3.6 20 13:26 10.01.2020
4880 Clouds -1 1014 86 10000 3.6 30 12:59 10.01.2020
4881 Clouds -1 1014 86 10000 3.1 20 12:39 10.01.2020
4882 Clouds -1 1014 86 10000 3.1 20 12:21 10.01.2020
4883 Clouds -1 1014 92 10000 3.1 360 11:56 10.01.2020
4884 Clouds -1 1014 86 10000 2.6 350 11:38 10.01.2020
4885 Clouds -2 1013 92 10000 2.6 10 11:19 10.01.2020
4886 Clouds -2 1013 92 10000 1.5 360 10:58 10.01.2020
4887 Clouds -2 1013 92 10000 1.5 360 10:58 10.01.2020
4888 Clouds -2 1013 92 10000 1.5 360 10:58 10.01.2020
4889 Clouds -3 1013 92 10000 1.5 10 10:37 10.01.2020
4890 Clouds -2 1013 92 10000 1.5 10 10:18 10.01.2020
4891 Clouds -2 1013 92 10000 1.5 10 10:18 10.01.2020
4892 Clouds -2 1012 85 10000 3.1 20 09:45 10.01.2020
4893 Clouds -2 1012 85 10000 3.1 20 09:25 10.01.2020
4894 Clouds -2 1012 92 10000 1.5 70 08:44 10.01.2020
4895 Clouds -2 1012 92 10000 1.5 70 08:24 10.01.2020
4896 Clouds -2 1011 86 10000 2.6 20 07:58 10.01.2020
4897 Clouds -2 1011 86 10000 2.6 20 07:58 10.01.2020
4898 Clouds -2 1011 86 10000 3.1 20 07:39 10.01.2020
4899 Clouds -2 1010 86 10000 3.6 20 07:19 10.01.2020
4900 Clouds -1 1010 92 10000 3.6 20 06:37 10.01.2020
4901 Clouds -1 1010 92 10000 3.6 20 06:19 10.01.2020
4902 Clouds 0 1009 86 10000 5.1 20 04:44 10.01.2020
4903 Clouds 0 1008 86 10000 3.1 10 03:31 10.01.2020
4904 Clouds 0 1008 86 10000 3.1 10 03:31 10.01.2020
4905 Clouds 1 1008 86 10000 2.6 30 02:52 10.01.2020
4906 Clouds 1 1008 92 10000 4.1 10 01:53 10.01.2020
4907 Clouds 1 1007 92 10000 3.1 30 01:30 10.01.2020
4908 Clouds 1 1007 85 10000 4.1 20 00:49 10.01.2020
4909 Clouds 0 1007 85 10000 4.1 30 00:31 10.01.2020
4910 Clouds 1 1007 85 10000 3.1 30 23:55 09.01.2020
4911 Clouds 1 1007 85 10000 2.6 40 23:36 09.01.2020
4912 Clouds 1 1007 86 10000 2.6 40 23:18 09.01.2020
4913 Clouds 1 1007 86 10000 2.1 10 22:54 09.01.2020
4914 Clouds 1 1007 86 10000 2.1 50 22:36 09.01.2020
4915 Clouds 1 1007 86 10000 2.6 40 22:18 09.01.2020
4916 Clouds 1 1007 86 10000 2.6 40 21:54 09.01.2020
4917 Clouds 1 1007 86 10000 2.1 50 21:36 09.01.2020
4918 Clouds 1 1007 86 10000 2.1 30 21:18 09.01.2020
4919 Clouds 1 1007 86 10000 2.1 30 20:54 09.01.2020
4920 Clouds 1 1007 86 10000 2.1 30 20:36 09.01.2020
4921 Clouds 1 1007 86 10000 2.6 30 20:18 09.01.2020
4922 Clouds 1 1007 86 10000 2.1 20 19:39 09.01.2020
4923 Clouds 1 1007 86 10000 2.1 20 19:20 09.01.2020
4924 Clouds 1 1007 86 10000 1.5 360 18:56 09.01.2020
4925 Clouds 1 1007 86 10000 1.5 360 18:38 09.01.2020
4926 Clouds 1 1007 86 10000 1 0 18:20 09.01.2020
4927 Clouds 0 1007 86 10000 2.1 340 17:41 09.01.2020
4928 Clouds 0 1007 86 10000 1.5 350 17:19 09.01.2020
4929 Clouds 1 1007 86 10000 1.5 30 16:56 09.01.2020
4930 Clouds 1 1007 86 10000 1.5 30 16:38 09.01.2020
4931 Clouds 1 1007 92 10000 1.5 30 16:20 09.01.2020
4932 Clouds 1 1007 86 10000 2.1 20 15:42 09.01.2020
4933 Clouds 1 1007 92 10000 2.1 40 15:22 09.01.2020
4934 Clouds 1 1008 92 10000 1 0 14:57 09.01.2020
4935 Clouds 1 1008 92 10000 1 0 14:38 09.01.2020
4936 Clouds 2 1008 76 10000 2.1 0 14:18 09.01.2020
4937 Clouds 1 1008 86 10000 0.41 148 13:55 09.01.2020
4938 Clouds 1 1008 86 10000 0.41 148 13:37 09.01.2020
4939 Clouds 1 1008 86 10000 1.5 320 13:18 09.01.2020
4940 Clouds 1 1008 81 10000 0.5 0 12:42 09.01.2020
4941 Clouds 1 1009 81 10000 1.5 360 12:24 09.01.2020
4942 Clouds 1 1009 81 10000 2.6 130 11:59 09.01.2020
4943 Clouds 1 1009 81 10000 2.6 130 11:41 09.01.2020
4944 Clouds 1 1009 83 10000 1 0 11:23 09.01.2020
4945 Clouds 0 1008 83 10000 2.1 140 10:56 09.01.2020
4946 Clouds 0 1008 83 10000 2.1 140 10:37 09.01.2020
4947 Clouds 0 1008 83 10000 1.5 290 10:19 09.01.2020
4948 Clouds 0 1008 83 10000 1.5 0 09:41 09.01.2020
4949 Clouds 0 1008 83 10000 1.5 0 09:41 09.01.2020
4950 Clouds 1 1008 74 10000 3.6 210 09:22 09.01.2020
4951 Clouds 0 1008 83 10000 3.1 200 08:56 09.01.2020
4952 Clouds 1 1008 83 10000 3.1 200 08:37 09.01.2020
4953 Clouds 0 1008 80 10000 1.5 170 08:19 09.01.2020
4954 Clouds 1 1008 74 10000 5.1 210 07:44 09.01.2020
4955 Clouds 1 1008 80 10000 6.2 190 07:24 09.01.2020
4956 Clouds 1 1006 86 10000 3.6 180 06:39 09.01.2020
4957 Clouds 1 1006 86 10000 3.6 180 06:21 09.01.2020
4958 Clouds 2 1006 80 10000 7.2 200 05:50 09.01.2020
4959 Clear 2 1006 74 10000 5.1 180 04:46 09.01.2020
4960 Clear 2 1005 82 10000 6.2 200 03:55 09.01.2020
4961 Clear 2 1005 74 10000 7.7 180 03:26 09.01.2020
4962 Clear 2 1004 69 10000 7.7 180 02:31 09.01.2020
4963 Clear 2 1004 69 10000 6.2 160 01:40 09.01.2020
4964 Clear 3 1003 69 10000 4.1 150 00:44 09.01.2020
4965 Clear 3 1003 69 10000 6.2 200 00:23 09.01.2020
4966 Clear 3 1002 80 10000 7.7 180 23:58 08.01.2020
4967 Clear 3 1002 80 10000 7.7 180 23:38 08.01.2020
4968 Clear 3 1002 69 10000 6.7 210 23:19 08.01.2020
4969 Clear 3 1002 69 10000 9.3 200 22:40 08.01.2020
4970 Clear 3 1002 69 10000 9.3 200 22:40 08.01.2020
4971 Clear 3 1002 64 10000 7.2 210 22:21 08.01.2020
4972 Clear 3 1002 64 10000 7.2 210 21:58 08.01.2020
4973 Clear 3 1002 64 10000 7.2 210 21:39 08.01.2020
4974 Clear 3 1001 69 10000 6.2 210 21:20 08.01.2020
4975 Clear 3 1001 59 10000 8.2 220 20:58 08.01.2020
4976 Clear 3 1001 59 10000 8.2 220 20:40 08.01.2020
4977 Clear 3 1000 59 10000 6.7 210 20:20 08.01.2020
4978 Clear 3 1000 59 10000 6.7 210 20:20 08.01.2020
4979 Clear 3 1000 59 10000 6.7 210 19:57 08.01.2020
4980 Clear 3 1000 59 10000 6.7 210 19:37 08.01.2020
4981 Clear 3 1001 59 10000 6.7 220 19:19 08.01.2020
4982 Clear 3 1001 59 10000 6.7 220 18:56 08.01.2020
4983 Clear 3 1001 59 10000 6.7 220 18:37 08.01.2020
4984 Clear 3 1000 59 10000 5.1 210 18:18 08.01.2020
4985 Clear 3 1000 64 10000 4.6 200 17:56 08.01.2020
4986 Clear 3 1000 64 10000 4.6 200 17:37 08.01.2020
4987 Clear 4 1000 59 10000 4.6 190 17:18 08.01.2020
4988 Clear 4 1000 59 10000 3.1 170 16:54 08.01.2020
4989 Clear 4 1000 59 10000 3.1 170 16:36 08.01.2020
4990 Clear 4 999 64 10000 4.1 190 16:18 08.01.2020
4991 Clear 5 999 48 10000 5.1 220 15:41 08.01.2020
4992 Clear 5 999 48 10000 4.6 230 15:21 08.01.2020
4993 Clear 5 999 48 10000 5.7 230 14:57 08.01.2020
4994 Clear 6 999 48 10000 5.7 230 14:39 08.01.2020
4995 Clear 6 998 45 10000 5.7 230 14:20 08.01.2020
4996 Clear 6 998 48 10000 5.1 240 13:40 08.01.2020
4997 Clear 6 998 48 10000 5.1 240 13:40 08.01.2020
4998 Clear 6 997 48 10000 5.1 240 13:19 08.01.2020
4999 Clear 6 996 48 10000 5.7 240 12:42 08.01.2020
5000 Clear 6 996 48 10000 5.1 230 12:19 08.01.2020
5001 Clear 7 995 48 10000 4.6 230 11:55 08.01.2020
5002 Clear 7 995 48 10000 4.6 230 11:37 08.01.2020
5003 Clear 7 995 52 10000 5.1 230 11:19 08.01.2020
5004 Clear 7 994 60 10000 5.1 240 10:55 08.01.2020
5005 Clear 7 994 60 10000 5.1 240 10:37 08.01.2020
5006 Clear 7 994 68 10000 4.6 230 10:18 08.01.2020
5007 Clear 7 993 65 10000 5.7 240 09:41 08.01.2020
5008 Clear 7 992 75 10000 6.7 230 09:19 08.01.2020
5009 Clouds 7 991 81 10000 7.2 220 08:57 08.01.2020
5010 Clouds 7 991 81 10000 7.2 220 08:37 08.01.2020
5011 Clouds 8 991 87 10000 4.6 220 08:19 08.01.2020
5012 Clouds 8 990 87 10000 6.2 210 07:48 08.01.2020
5013 Clouds 8 990 87 10000 5.1 210 07:29 08.01.2020
5014 Clouds 8 990 93 10000 4.6 210 06:45 08.01.2020
5015 Clouds 8 989 93 10000 9.8 190 06:22 08.01.2020
5016 Clouds 8 990 93 10000 10.3 190 05:41 08.01.2020
5017 Clouds 8 991 93 10000 8.2 190 04:56 08.01.2020
5018 Clouds 8 991 93 10000 10.8 190 04:24 08.01.2020
5019 Clouds 7 992 93 10000 9.8 200 02:45 08.01.2020
5020 Clouds 7 992 93 10000 11.3 190 02:22 08.01.2020
5021 Drizzle 7 993 93 10000 10.8 190 01:46 08.01.2020
5022 Clouds 6 994 100 10000 11.8 190 01:19 08.01.2020
5023 Rain 6 995 93 5000 13.4 180 00:27 08.01.2020
5024 Rain 6 997 93 5000 9.8 190 23:55 07.01.2020
5025 Rain 6 997 93 5000 9.8 190 23:37 07.01.2020
5026 Rain 6 997 93 4500 12.9 190 23:19 07.01.2020
5027 Drizzle 6 998 86 10000 11.3 190 22:40 07.01.2020
5028 Clouds 6 998 86 10000 14.9 190 22:20 07.01.2020
5029 Clouds 6 998 80 10000 11.8 190 21:55 07.01.2020
5030 Clouds 6 998 80 10000 11.8 190 21:37 07.01.2020
5031 Clouds 6 1000 80 10000 8.2 190 21:19 07.01.2020
5032 Clouds 6 1001 80 10000 9.8 190 20:55 07.01.2020
5033 Clouds 6 1001 80 10000 9.8 190 20:36 07.01.2020
5034 Clouds 6 1001 80 10000 9.8 190 20:36 07.01.2020
5035 Clouds 6 1001 80 10000 8.2 180 20:18 07.01.2020
5036 Clouds 6 1003 80 10000 9.3 180 19:38 07.01.2020
5037 Clouds 5 1004 86 10000 8.2 180 19:19 07.01.2020
5038 Rain 5 1004 86 10000 9.3 180 18:58 07.01.2020
5039 Rain 5 1004 86 10000 9.3 180 18:58 07.01.2020
5040 Rain 5 1004 86 10000 9.3 180 18:40 07.01.2020
5041 Rain 5 1005 86 10000 8.2 180 18:19 07.01.2020
5042 Clouds 5 1005 86 10000 7.7 190 17:58 07.01.2020
5043 Clouds 5 1005 86 10000 7.7 190 17:39 07.01.2020
5044 Clouds 5 1006 93 10000 8.2 190 17:20 07.01.2020
5045 Clouds 5 1006 93 10000 7.7 200 16:56 07.01.2020
5046 Clouds 5 1006 93 10000 7.7 200 16:37 07.01.2020
5047 Clouds 4 1006 93 10000 6.2 180 16:19 07.01.2020
5048 Clouds 4 1006 93 10000 4.1 170 15:57 07.01.2020
5049 Clouds 4 1006 93 10000 4.1 170 15:37 07.01.2020
5050 Clouds 4 1007 93 10000 5.1 190 15:18 07.01.2020
5051 Clouds 4 1007 93 10000 7.2 190 14:42 07.01.2020
5052 Clouds 4 1007 93 10000 6.2 180 14:24 07.01.2020
5053 Clouds 4 1008 93 10000 3.1 200 13:57 07.01.2020
5054 Clouds 4 1008 93 10000 3.1 200 13:38 07.01.2020
5055 Clouds 4 1008 93 10000 3.1 190 13:18 07.01.2020
5056 Clouds 4 1009 86 10000 4.6 210 12:41 07.01.2020
5057 Clouds 4 1009 93 10000 3.6 220 12:19 07.01.2020
5058 Clouds 4 1009 93 10000 5.7 210 11:45 07.01.2020
5059 Clouds 4 1009 93 10000 5.1 190 11:23 07.01.2020
5060 Clouds 4 1009 86 10000 2.1 170 10:59 07.01.2020
5061 Clouds 4 1009 86 10000 2.1 170 10:41 07.01.2020
5062 Clouds 4 1009 86 10000 3.1 180 10:23 07.01.2020
5063 Clouds 3 1009 93 10000 5.1 190 09:56 07.01.2020
5064 Clouds 3 1009 93 10000 5.1 190 09:38 07.01.2020
5065 Clouds 3 1008 86 10000 4.6 180 09:19 07.01.2020
5066 Clouds 3 1008 86 10000 3.6 200 08:42 07.01.2020
5067 Clouds 3 1007 86 10000 3.1 210 08:22 07.01.2020
5068 Clouds 3 1007 86 10000 5.1 210 07:54 07.01.2020
5069 Clouds 3 1007 86 10000 4.6 200 07:27 07.01.2020
5070 Clouds 4 1007 93 10000 5.1 210 06:53 07.01.2020
5071 Clouds 4 1006 93 10000 4.1 200 06:32 07.01.2020
5072 Clouds 4 1006 93 10000 6.2 210 05:49 07.01.2020
5073 Clouds 4 1006 86 10000 3.6 190 04:31 07.01.2020
5074 Clouds 4 1006 86 10000 5.1 200 03:26 07.01.2020
5075 Clouds 4 1006 86 10000 6.2 200 02:21 07.01.2020
5076 Clouds 4 1006 86 10000 8.2 210 01:51 07.01.2020
5077 Clouds 4 1006 86 10000 8.2 210 01:26 07.01.2020
5078 Clouds 4 1006 93 10000 9.8 200 00:23 07.01.2020
5079 Clouds 4 1006 93 10000 8.7 200 23:59 06.01.2020
5080 Clouds 5 1006 93 10000 8.7 200 23:39 06.01.2020
5081 Clouds 5 1006 93 10000 8.2 200 23:21 06.01.2020
5082 Clouds 5 1006 100 10000 6.2 190 22:58 06.01.2020
5083 Clouds 5 1006 100 10000 6.2 190 22:37 06.01.2020
5084 Clouds 5 1006 100 9000 5.7 170 22:19 06.01.2020
5085 Mist 5 1006 100 4000 6.2 180 21:55 06.01.2020
5086 Mist 5 1006 100 4000 6.2 180 21:37 06.01.2020
5087 Fog 5 1007 100 1200 5.1 190 21:18 06.01.2020
5088 Mist 5 1007 100 4000 4.1 190 20:55 06.01.2020
5089 Mist 5 1007 100 4000 4.1 190 20:37 06.01.2020
5090 Mist 5 1008 100 5000 4.6 180 20:19 06.01.2020
5091 Mist 5 1008 100 5000 4.6 180 20:19 06.01.2020
5092 Clouds 5 1008 100 6000 5.7 180 19:55 06.01.2020
5093 Clouds 5 1008 100 6000 5.7 180 19:36 06.01.2020
5094 Clouds 5 1008 100 6000 5.7 180 19:36 06.01.2020
5095 Fog 5 1008 100 500 5.7 200 19:18 06.01.2020
5096 Fog 4 1008 100 600 3.6 200 18:44 06.01.2020
5097 Fog 4 1008 100 800 3.1 210 18:20 06.01.2020
5098 Mist 3 1009 100 1200 1.5 220 17:40 06.01.2020
5099 Mist 3 1009 100 2500 2.6 190 17:20 06.01.2020
5100 Mist 3 1009 100 2500 2.6 190 17:20 06.01.2020
5101 Fog 3 1009 100 1800 1.86 208 16:57 06.01.2020
5102 Fog 3 1009 100 1800 1.86 208 16:39 06.01.2020
5103 Fog 3 1009 100 650 1.5 210 16:21 06.01.2020
5104 Fog 3 1010 100 600 2.6 190 15:44 06.01.2020
5105 Fog 3 1010 100 700 2.6 190 15:22 06.01.2020
5106 Fog 4 1010 100 800 2.1 160 15:00 06.01.2020
5107 Fog 4 1010 100 800 2.1 160 14:41 06.01.2020
5108 Fog 3 1010 100 500 2.1 180 14:22 06.01.2020
5109 Fog 4 1011 100 800 2.1 160 13:59 06.01.2020
5110 Fog 4 1010 100 500 2.1 180 13:59 06.01.2020
5111 Fog 3 1011 100 800 2.1 160 13:39 06.01.2020
5112 Fog 3 1011 100 400 1.5 0 13:20 06.01.2020
5113 Fog 3 1012 95 400 0.5 0 12:55 06.01.2020
5114 Fog 3 1012 95 400 0.5 0 12:37 06.01.2020
5115 Fog 4 1012 95 400 1.02 209 12:37 06.01.2020
5116 Fog 3 1012 95 400 1.02 209 12:18 06.01.2020
5117 Fog 3 1012 100 400 1 230 11:41 06.01.2020
5118 Fog 2 1012 93 350 2.1 140 11:23 06.01.2020
5119 Fog 2 1012 100 500 1 0 10:59 06.01.2020
5120 Fog 2 1012 100 500 1 0 10:40 06.01.2020
5121 Fog 2 1012 100 500 1.5 70 10:20 06.01.2020
5122 Fog 2 1012 100 1200 1 0 09:39 06.01.2020
5123 Fog 2 1012 100 8000 0.5 0 09:20 06.01.2020
5124 Fog 1 1012 100 7000 0.5 0 08:51 06.01.2020
5125 Fog 1 1012 100 7000 0.5 0 08:33 06.01.2020
5126 Mist 1 1013 100 5000 2.1 10 07:57 06.01.2020
5127 Mist 1 1013 100 5000 2.1 10 07:36 06.01.2020
5128 Fog 1 1013 100 7000 1 0 06:47 06.01.2020
5129 Fog 1 1013 92 4300 1.5 10 06:27 06.01.2020
5130 Fog 1 1013 100 8000 2.1 10 05:48 06.01.2020
5131 Fog 1 1013 100 8000 2.1 40 04:53 06.01.2020
5132 Fog 1 1013 100 5000 1.5 30 04:20 06.01.2020
5133 Fog 1 1013 100 2600 3.1 30 02:58 06.01.2020
5134 Fog 1 1013 100 5000 0.5 0 02:24 06.01.2020
5135 Fog 1 1013 100 1900 1.5 30 01:45 06.01.2020
5136 Fog 1 1013 92 4000 1.5 50 01:27 06.01.2020
5137 Fog 1 1013 100 7000 1.5 10 00:44 06.01.2020
5138 Fog 1 1013 92 10000 0.5 0 00:24 06.01.2020
5139 Clouds 1 1013 100 10000 1.5 60 23:43 05.01.2020
5140 Clouds 1 1013 100 10000 1.5 60 23:43 05.01.2020
5141 Clouds 1 1012 96 10000 1 0 23:23 05.01.2020
5142 Clouds 1 1012 96 10000 1 0 23:23 05.01.2020
5143 Clouds 1 1012 96 10000 3.1 200 22:58 05.01.2020
5144 Clouds 2 1012 96 10000 3.1 200 22:39 05.01.2020
5145 Clouds 2 1012 96 10000 1 0 22:20 05.01.2020
5146 Clouds 2 1012 100 10000 1.5 140 21:56 05.01.2020
5147 Clouds 2 1012 100 10000 1.5 140 21:37 05.01.2020
5148 Clouds 2 1012 100 10000 1.5 140 21:37 05.01.2020
5149 Clouds 2 1012 96 10000 1 0 21:19 05.01.2020
5150 Clouds 3 1012 93 10000 1.5 0 20:55 05.01.2020
5151 Clouds 3 1012 93 10000 1.5 0 20:37 05.01.2020
5152 Clouds 3 1012 93 10000 2.6 230 20:19 05.01.2020
5153 Clouds 3 1012 93 10000 6.2 210 19:56 05.01.2020
5154 Clouds 3 1012 93 10000 6.2 210 19:37 05.01.2020
5155 Clouds 3 1012 93 10000 4.6 220 19:19 05.01.2020
5156 Clouds 3 1012 93 10000 5.7 220 18:54 05.01.2020
5157 Clouds 3 1012 93 10000 5.7 220 18:36 05.01.2020
5158 Clouds 3 1012 93 10000 5.7 220 18:36 05.01.2020
5159 Clouds 3 1012 93 10000 5.1 220 18:18 05.01.2020
5160 Clouds 3 1012 93 10000 5.1 210 17:55 05.01.2020
5161 Clouds 3 1012 93 10000 5.1 210 17:55 05.01.2020
5162 Clouds 3 1012 100 10000 4.1 200 17:37 05.01.2020
5163 Clouds 3 1012 100 10000 4.1 200 17:18 05.01.2020
5164 Clouds 3 1012 92 10000 5.1 220 16:55 05.01.2020
5165 Clouds 2 1012 92 10000 5.1 220 16:36 05.01.2020
5166 Clouds 2 1012 92 10000 4.1 210 16:18 05.01.2020
5167 Clouds 2 1013 92 10000 6.2 210 15:36 05.01.2020
5168 Clouds 2 1013 92 10000 6.2 210 15:36 05.01.2020
5169 Clouds 2 1013 92 10000 5.1 210 15:18 05.01.2020
5170 Clouds 1 1014 92 10000 4.1 220 14:54 05.01.2020
5171 Clouds 1 1014 92 10000 5.7 210 14:36 05.01.2020
5172 Clouds 1 1014 92 10000 5.7 210 14:18 05.01.2020
5173 Clouds 1 1015 92 10000 5.1 210 13:40 05.01.2020
5174 Rain 0 1015 86 10000 6.2 210 13:21 05.01.2020
5175 Clouds 0 1019 93 0 5.7 200 12:57 05.01.2020
5176 Clouds 0 1019 93 0 5.7 200 12:39 05.01.2020
5177 Snow 0 1017 92 8000 3.6 190 12:21 05.01.2020
5178 Snow 0 1017 92 6000 5.1 180 11:55 05.01.2020
5179 Snow -1 1018 86 6000 5.7 190 11:37 05.01.2020
5180 Snow -1 1018 86 6000 5.7 190 11:19 05.01.2020
5181 Snow -1 1019 79 4000 4.6 210 10:55 05.01.2020
5182 Snow -1 1019 79 4000 4.6 210 10:36 05.01.2020
5183 Snow -1 1020 74 10000 3.1 170 10:36 05.01.2020
5184 Snow -1 1020 74 10000 3.1 170 10:36 05.01.2020
5185 Snow -1 1020 74 10000 3.1 170 10:18 05.01.2020
5186 Snow -1 1020 74 10000 3.6 180 09:41 05.01.2020
5187 Snow -1 1020 79 10000 4.1 190 09:21 05.01.2020
5188 Snow -1 1020 79 10000 4.1 170 08:45 05.01.2020
5189 Snow -2 1020 73 10000 4.6 190 08:26 05.01.2020
5190 Clouds -2 1021 73 10000 2.1 190 07:55 05.01.2020
5191 Clouds -2 1021 73 10000 2.1 190 07:35 05.01.2020
5192 Clouds -2 1022 73 10000 1 0 06:58 05.01.2020
5193 Clouds -3 1022 73 10000 0.5 0 05:55 05.01.2020
5194 Clouds -3 1024 74 0 2.6 110 05:30 05.01.2020
5195 Clouds -3 1024 74 0 2.6 110 05:30 05.01.2020
5196 Clouds -3 1022 73 10000 1 0 04:34 05.01.2020
5197 Clouds -3 1022 68 10000 1.5 160 03:47 05.01.2020
5198 Clouds -3 1021 63 10000 2.1 330 02:45 05.01.2020
5199 Clouds -3 1021 58 10000 1 0 02:20 05.01.2020
5200 Clouds -3 1021 58 10000 1 0 01:40 05.01.2020
5201 Clouds -3 1021 63 10000 1.5 340 01:18 05.01.2020
5202 Clouds -3 1020 54 10000 2.1 0 00:41 05.01.2020
5203 Clouds -3 1020 58 10000 2.6 290 00:22 05.01.2020
5204 Clouds -3 1020 58 10000 3.6 360 23:59 04.01.2020
5205 Clouds -2 1020 58 10000 3.6 360 23:39 04.01.2020
5206 Clouds -1 1019 54 10000 3.1 310 23:19 04.01.2020
5207 Clouds -1 1019 54 10000 1.5 360 22:39 04.01.2020
5208 Clouds -1 1018 66 10000 2.1 310 22:21 04.01.2020
5209 Clouds -1 1018 43 10000 1.5 0 21:57 04.01.2020
5210 Clouds -1 1018 66 10000 2.6 0 21:38 04.01.2020
5211 Clouds -1 1018 66 10000 2.6 0 21:19 04.01.2020
5212 Clouds 0 1017 66 10000 2.6 160 20:57 04.01.2020
5213 Clouds 0 1017 66 10000 2.6 160 20:38 04.01.2020
5214 Clear 0 1016 54 10000 1 0 20:19 04.01.2020
5215 Clear 0 1015 54 10000 1.5 0 19:42 04.01.2020
5216 Clear 0 1015 54 10000 1.5 0 19:24 04.01.2020
5217 Clear 0 1015 54 10000 2.1 270 18:58 04.01.2020
5218 Clear 0 1014 54 10000 1.5 260 18:39 04.01.2020
5219 Clear 0 1014 54 10000 1.5 260 18:21 04.01.2020
5220 Clear 1 1013 54 10000 1.5 0 17:59 04.01.2020
5221 Clear 1 1013 54 10000 1.5 0 17:40 04.01.2020
5222 Clear 1 1012 50 10000 1.5 270 17:22 04.01.2020
5223 Clear 1 1011 62 10000 1.5 270 16:54 04.01.2020
5224 Clear 1 1011 62 10000 1.5 270 16:36 04.01.2020
5225 Clear 1 1011 43 10000 2.1 340 16:18 04.01.2020
5226 Clear 2 1010 43 10000 5.1 350 15:42 04.01.2020
5227 Clear 2 1010 43 10000 5.1 350 15:42 04.01.2020
5228 Clear 2 1009 40 10000 6.2 330 15:19 04.01.2020
5229 Clear 2 1008 40 10000 5.7 320 14:58 04.01.2020
5230 Clear 2 1008 40 10000 5.7 320 14:58 04.01.2020
5231 Clear 3 1008 40 10000 5.7 320 14:40 04.01.2020
5232 Clouds 3 1008 40 10000 4.1 340 14:19 04.01.2020
5233 Clouds 3 1007 40 10000 7.2 330 13:56 04.01.2020
5234 Clouds 3 1007 40 10000 7.2 330 13:37 04.01.2020
5235 Clear 3 1006 43 10000 6.7 330 13:18 04.01.2020
5236 Clear 3 1005 43 10000 4.6 320 12:42 04.01.2020
5237 Clear 3 1004 43 10000 5.7 330 12:20 04.01.2020
5238 Clear 3 1004 43 10000 5.7 330 11:59 04.01.2020
5239 Clear 2 1003 50 10000 4.1 320 11:40 04.01.2020
5240 Clear 2 1003 50 10000 4.1 320 11:40 04.01.2020
5241 Clear 2 1003 47 10000 3.6 340 11:20 04.01.2020
5242 Clear 2 1002 47 10000 3.6 310 10:58 04.01.2020
5243 Clear 2 1002 47 10000 3.6 310 10:38 04.01.2020
5244 Clear 2 1001 66 10000 3.1 300 10:19 04.01.2020
5245 Clear 1 1000 66 10000 1 0 09:42 04.01.2020
5246 Clear 1 999 66 10000 1.5 270 09:24 04.01.2020
5247 Clear 0 998 58 10000 1.5 220 08:44 04.01.2020
5248 Clouds 1 997 63 10000 1 0 08:25 04.01.2020
5249 Clouds 1 997 58 10000 3.6 200 07:51 04.01.2020
5250 Clouds 1 997 63 10000 3.6 210 07:32 04.01.2020
5251 Clouds 1 996 63 10000 3.1 220 06:39 04.01.2020
5252 Clouds 1 995 43 10000 3.1 240 05:46 04.01.2020
5253 Clouds 1 995 52 10000 3.1 220 04:47 04.01.2020
5254 Clouds 1 995 54 10000 2.6 190 04:27 04.01.2020
5255 Clouds 1 995 52 10000 2.6 180 03:19 04.01.2020
5256 Clouds 1 994 52 10000 3.6 230 02:36 04.01.2020
5257 Clouds 1 994 54 10000 5.7 210 01:58 04.01.2020
5258 Clouds 1 994 54 10000 5.7 200 01:32 04.01.2020
5259 Clouds 1 994 58 10000 4.1 190 00:56 04.01.2020
5260 Clouds 1 994 55 10000 3.6 230 00:28 04.01.2020
5261 Clouds 1 994 55 10000 3.1 210 23:52 03.01.2020
5262 Clouds 1 994 59 10000 4.6 230 23:27 03.01.2020
5263 Snow 2 993 64 10000 5.7 230 22:55 03.01.2020
5264 Snow 1 993 64 10000 5.7 230 22:37 03.01.2020
5265 Snow 1 993 64 10000 5.7 230 22:18 03.01.2020
5266 Snow 1 993 64 10000 7.2 230 21:56 03.01.2020
5267 Snow 2 993 64 10000 7.2 230 21:37 03.01.2020
5268 Snow 2 993 59 10000 7.2 230 21:18 03.01.2020
5269 Snow 2 993 69 10000 7.2 220 20:43 03.01.2020
5270 Clear 3 993 64 10000 7.2 230 20:19 03.01.2020
5271 Clear 3 994 80 10000 4.6 240 19:59 03.01.2020
5272 Clear 3 994 80 10000 4.6 240 19:41 03.01.2020
5273 Clouds 3 993 64 1800 6.2 240 19:22 03.01.2020
5274 Rain 3 993 55 10000 6.2 220 18:46 03.01.2020
5275 Clear 3 993 55 10000 6.7 210 18:26 03.01.2020
5276 Clear 3 993 55 10000 10.3 210 17:58 03.01.2020
5277 Clear 3 993 55 10000 10.3 210 17:58 03.01.2020
5278 Clear 3 993 55 10000 10.3 210 17:39 03.01.2020
5279 Rain 4 994 55 10000 7.2 220 17:21 03.01.2020
5280 Rain 3 994 51 10000 7.7 200 16:43 03.01.2020
5281 Clear 3 994 43 10000 4.6 200 16:24 03.01.2020
5282 Clear 3 994 43 10000 4.6 200 15:59 03.01.2020
5283 Clear 3 995 43 10000 3.6 220 15:41 03.01.2020
5284 Clear 3 995 43 10000 5.1 200 15:19 03.01.2020
5285 Clear 4 995 34 10000 4.6 230 14:39 03.01.2020
5286 Clear 4 996 34 10000 4.6 240 14:20 03.01.2020
5287 Clear 4 996 37 10000 5.1 250 13:57 03.01.2020
5288 Clear 4 996 37 10000 5.1 250 13:38 03.01.2020
5289 Clear 5 995 40 10000 5.1 250 13:20 03.01.2020
5290 Clear 5 995 35 10000 7.2 290 12:41 03.01.2020
5291 Clouds 5 994 38 10000 4.6 250 12:22 03.01.2020
5292 Clouds 5 993 44 10000 5.7 230 11:49 03.01.2020
5293 Clouds 5 993 44 10000 5.7 230 11:31 03.01.2020
5294 Clouds 4 993 44 10000 6.2 230 10:58 03.01.2020
5295 Clouds 5 993 44 10000 6.2 230 10:39 03.01.2020
5296 Clouds 5 993 48 10000 5.1 240 10:21 03.01.2020
5297 Clouds 5 992 55 10000 5.1 230 09:55 03.01.2020
5298 Clouds 5 992 55 10000 5.1 230 09:37 03.01.2020
5299 Clouds 6 992 56 10000 5.1 220 09:19 03.01.2020
5300 Clear 6 991 74 10000 5.7 210 08:44 03.01.2020
5301 Clouds 6 990 80 10000 5.7 220 08:22 03.01.2020
5302 Clouds 6 990 86 10000 5.7 220 07:43 03.01.2020
5303 Rain 6 989 93 10000 4.6 220 07:19 03.01.2020
5304 Clouds 7 989 87 10000 4.6 210 06:59 03.01.2020
5305 Clouds 7 989 87 10000 4.6 210 06:40 03.01.2020
5306 Clouds 7 988 81 10000 3.1 190 06:22 03.01.2020
5307 Clouds 7 988 81 10000 3.1 190 06:22 03.01.2020
5308 Clouds 7 988 81 10000 3.1 190 06:22 03.01.2020
5309 Clouds 6 989 81 10000 5.7 200 04:45 03.01.2020
5310 Clouds 6 990 86 10000 9.3 190 03:38 03.01.2020
5311 Clouds 6 992 86 10000 9.8 190 02:53 03.01.2020
5312 Clouds 6 994 86 10000 7.7 200 01:51 03.01.2020
5313 Clouds 6 994 86 10000 7.7 200 01:31 03.01.2020
5314 Clouds 6 995 80 10000 9.8 190 00:40 03.01.2020
5315 Clouds 6 996 86 10000 8.7 190 00:20 03.01.2020
5316 Clouds 6 996 86 10000 8.2 190 23:39 02.01.2020
5317 Clouds 6 996 80 10000 8.7 190 23:20 02.01.2020
5318 Clouds 6 997 86 10000 7.7 200 22:58 02.01.2020
5319 Clouds 6 997 86 10000 7.7 200 22:40 02.01.2020
5320 Clouds 6 997 86 10000 5.7 190 22:19 02.01.2020
5321 Clouds 6 997 80 10000 6.7 180 21:55 02.01.2020
5322 Clouds 6 997 80 10000 6.7 180 21:37 02.01.2020
5323 Clouds 6 998 86 10000 7.7 190 21:18 02.01.2020
5324 Clouds 6 998 80 10000 10.3 200 20:56 02.01.2020
5325 Clouds 6 998 86 10000 9.8 200 20:37 02.01.2020
5326 Clouds 6 998 86 10000 9.8 200 20:18 02.01.2020
5327 Clouds 6 999 80 10000 6.2 190 19:54 02.01.2020
5328 Clouds 5 999 80 10000 6.2 190 19:36 02.01.2020
5329 Clouds 5 999 86 10000 7.2 180 19:18 02.01.2020
5330 Clouds 5 1000 86 10000 5.1 190 18:42 02.01.2020
5331 Clouds 5 1001 80 10000 5.1 180 18:23 02.01.2020
5332 Clouds 5 1001 80 10000 4.6 150 17:58 02.01.2020
5333 Clouds 5 1001 80 10000 4.6 150 17:58 02.01.2020
5334 Clouds 5 1001 80 10000 4.6 150 17:38 02.01.2020
5335 Clouds 5 1002 80 10000 6.2 160 17:20 02.01.2020
5336 Clouds 5 1003 80 10000 8.7 170 16:58 02.01.2020
5337 Clouds 5 1003 80 10000 8.7 170 16:40 02.01.2020
5338 Clouds 5 1003 80 10000 7.2 180 16:20 02.01.2020
5339 Clouds 5 1003 80 10000 7.2 180 16:20 02.01.2020
5340 Clouds 5 1003 86 10000 8.2 170 15:57 02.01.2020
5341 Clouds 5 1003 80 10000 8.2 180 15:39 02.01.2020
5342 Clouds 5 1003 80 10000 8.2 180 15:20 02.01.2020
5343 Clouds 5 1004 86 10000 9.3 190 14:56 02.01.2020
5344 Clouds 5 1004 80 10000 8.2 200 14:36 02.01.2020
5345 Clouds 5 1004 80 10000 8.2 200 14:18 02.01.2020
5346 Clouds 5 1004 80 10000 11.3 190 13:48 02.01.2020
5347 Clouds 5 1004 80 10000 11.3 190 13:48 02.01.2020
5348 Clouds 5 1005 86 10000 13.4 190 13:30 02.01.2020
5349 Clouds 5 1005 86 10000 10.8 200 12:46 02.01.2020
5350 Clouds 5 1006 86 10000 9.8 190 12:26 02.01.2020
5351 Clouds 4 1006 86 10000 9.8 190 11:58 02.01.2020
5352 Clouds 5 1006 86 10000 8.7 200 11:40 02.01.2020
5353 Clouds 4 1006 86 10000 8.7 200 11:19 02.01.2020
5354 Clouds 4 1006 86 10000 6.2 210 10:44 02.01.2020
5355 Clouds 4 1007 93 10000 6.2 200 10:25 02.01.2020
5356 Clouds 4 1007 89 10000 6.7 200 09:48 02.01.2020
5357 Clouds 4 1007 89 10000 6.7 200 09:29 02.01.2020
5358 Clouds 4 1007 89 10000 5.7 210 08:47 02.01.2020
5359 Clouds 4 1007 86 10000 6.2 220 08:27 02.01.2020
5360 Clouds 4 1007 86 10000 4.6 210 07:53 02.01.2020
5361 Clouds 4 1007 86 10000 4.6 210 07:30 02.01.2020
5362 Clouds 3 1008 86 10000 4.6 210 06:46 02.01.2020
5363 Clouds 3 1008 86 10000 6.2 200 06:27 02.01.2020
5364 Clouds 3 1008 86 10000 4.6 190 05:29 02.01.2020
5365 Clouds 3 1009 80 10000 6.7 180 04:32 02.01.2020
5366 Clouds 3 1010 86 10000 5.1 200 02:48 02.01.2020
5367 Clouds 3 1010 86 10000 6.2 210 01:59 02.01.2020
5368 Clouds 3 1010 86 10000 6.2 210 01:37 02.01.2020
5369 Clouds 3 1010 86 10000 2.6 190 00:58 02.01.2020
5370 Clouds 3 1011 80 10000 4.6 180 00:33 02.01.2020
5371 Clouds 3 1011 86 10000 5.7 170 23:53 01.01.2020
5372 Clouds 3 1011 80 10000 4.1 190 23:28 01.01.2020
5373 Clouds 3 1011 80 10000 4.1 190 22:59 01.01.2020
5374 Clouds 3 1011 80 10000 3.6 210 22:38 01.01.2020
5375 Clouds 3 1010 80 10000 5.7 210 22:19 01.01.2020
5376 Clouds 3 1011 86 10000 4.6 200 21:56 01.01.2020
5377 Clouds 3 1011 86 10000 4.6 200 21:37 01.01.2020
5378 Clouds 2 1012 80 10000 3.1 210 21:19 01.01.2020
5379 Clouds 2 1012 80 10000 7.2 180 20:55 01.01.2020
5380 Clouds 2 1012 80 10000 7.2 180 20:37 01.01.2020
5381 Clouds 2 1012 80 10000 4.1 160 20:18 01.01.2020
5382 Clouds 2 1012 80 10000 4.1 180 19:54 01.01.2020
5383 Clouds 2 1012 80 10000 4.1 180 19:36 01.01.2020
5384 Clouds 2 1012 74 10000 4.6 160 19:18 01.01.2020
5385 Clouds 2 1013 74 10000 3.6 180 18:55 01.01.2020
5386 Clouds 2 1013 74 10000 3.6 180 18:36 01.01.2020
5387 Clouds 3 1013 74 10000 6.2 200 18:18 01.01.2020
5388 Clouds 3 1013 74 10000 4.6 210 17:55 01.01.2020
5389 Clouds 3 1013 74 10000 4.6 210 17:37 01.01.2020
5390 Clouds 3 1013 69 10000 8.7 200 17:18 01.01.2020
5391 Clouds 3 1013 69 10000 5.1 210 16:40 01.01.2020
5392 Clouds 3 1013 69 10000 5.1 210 16:40 01.01.2020
5393 Clouds 3 1013 69 10000 7.7 190 16:21 01.01.2020
5394 Clouds 3 1013 74 10000 5.7 190 15:57 01.01.2020
5395 Clouds 3 1013 74 10000 5.7 190 15:39 01.01.2020
5396 Clouds 3 1014 74 10000 5.7 200 15:20 01.01.2020
5397 Clouds 4 1014 69 10000 8.2 210 14:58 01.01.2020
5398 Clouds 4 1014 69 10000 8.2 210 14:58 01.01.2020
5399 Clouds 4 1014 69 10000 8.2 210 14:40 01.01.2020
5400 Clouds 4 1014 69 10000 7.7 200 14:21 01.01.2020
5401 Clouds 4 1014 69 10000 6.2 210 13:56 01.01.2020
5402 Clouds 4 1014 69 10000 6.2 210 13:37 01.01.2020
5403 Clouds 3 1014 74 10000 5.1 190 13:18 01.01.2020
5404 Clouds 3 1014 74 10000 4.6 180 12:55 01.01.2020
5405 Clouds 3 1014 74 10000 4.6 180 12:37 01.01.2020
5406 Clouds 3 1014 74 10000 5.7 200 12:18 01.01.2020
5407 Clouds 3 1015 74 10000 6.2 200 11:43 01.01.2020
5408 Clouds 3 1015 74 10000 5.1 200 11:22 01.01.2020
5409 Clouds 3 1015 74 10000 5.1 190 10:58 01.01.2020
5410 Clouds 3 1015 74 10000 5.1 190 10:40 01.01.2020
5411 Clouds 3 1015 74 10000 5.1 180 10:20 01.01.2020
5412 Clouds 2 1015 74 10000 5.7 200 09:56 01.01.2020
5413 Clouds 2 1015 74 10000 5.7 200 09:37 01.01.2020
5414 Clouds 3 1015 74 10000 6.2 200 09:18 01.01.2020
5415 Clouds 3 1014 80 10000 5.7 190 08:55 01.01.2020
5416 Clouds 2 1014 80 10000 5.7 190 08:36 01.01.2020
5417 Clouds 2 1014 80 10000 5.7 190 08:36 01.01.2020
5418 Clouds 2 1014 80 10000 5.7 190 08:18 01.01.2020
5419 Clouds 2 1014 74 10000 6.2 200 07:48 01.01.2020
5420 Clouds 2 1015 74 10000 4.6 210 07:30 01.01.2020
5421 Clouds 2 1015 80 10000 3.6 180 06:44 01.01.2020
5422 Clouds 2 1015 80 10000 3.1 190 06:20 01.01.2020
5423 Clouds 3 1016 74 10000 5.7 200 04:44 01.01.2020
5424 Clouds 3 1016 69 10000 6.7 180 03:43 01.01.2020
5425 Clouds 3 1017 69 10000 6.2 190 03:22 01.01.2020
5426 Clouds 3 1017 69 10000 4.6 190 02:55 01.01.2020
5427 Clouds 3 1017 69 10000 4.6 190 02:32 01.01.2020
5428 Clouds 3 1018 64 10000 5.1 180 01:45 01.01.2020
5429 Clouds 3 1018 64 10000 4.1 220 01:24 01.01.2020
5430 Clouds 2 1019 64 10000 5.7 220 00:57 01.01.2020
5431 Clouds 2 1019 64 10000 4.6 220 00:37 01.01.2020
5432 Clouds 2 1019 64 10000 4.6 220 00:19 01.01.2020
5433 Clouds 2 1019 64 10000 6.2 220 23:40 31.12.2019
5434 Clouds 2 1019 59 10000 5.7 240 23:21 31.12.2019
5435 Clouds 1 1020 59 10000 5.1 230 22:57 31.12.2019
5436 Clouds 2 1020 59 10000 5.1 230 22:38 31.12.2019
5437 Clouds 1 1020 70 10000 4.6 190 22:18 31.12.2019
5438 Clouds 1 1020 70 10000 3.6 190 21:54 31.12.2019
5439 Clouds 1 1020 70 10000 3.6 190 21:36 31.12.2019
5440 Clouds 1 1021 70 10000 3.6 200 21:18 31.12.2019
5441 Clouds 0 1021 70 10000 3.6 200 20:40 31.12.2019
5442 Clouds 0 1021 74 10000 4.6 200 20:22 31.12.2019
5443 Clouds 0 1021 74 10000 3.6 190 19:59 31.12.2019
5444 Clouds 0 1021 74 10000 3.6 190 19:40 31.12.2019
5445 Clouds 0 1021 68 10000 4.1 200 19:22 31.12.2019
5446 Clouds 0 1021 68 10000 4.1 200 19:22 31.12.2019
5447 Clouds 0 1021 68 10000 3.1 180 18:58 31.12.2019
5448 Clouds 0 1021 68 10000 3.1 180 18:40 31.12.2019
5449 Clouds 0 1021 71 10000 2.6 190 18:20 31.12.2019
5450 Clouds 0 1021 71 10000 1 0 17:56 31.12.2019
5451 Clouds 0 1021 71 10000 1 0 17:38 31.12.2019
5452 Clouds 0 1021 71 10000 1 0 17:38 31.12.2019
5453 Clouds 0 1021 55 10000 1.5 220 17:19 31.12.2019
5454 Clouds 0 1021 55 10000 1.5 160 16:57 31.12.2019
5455 Clouds 1 1021 55 10000 1.5 160 16:38 31.12.2019
5456 Clouds 1 1021 55 10000 1 0 16:19 31.12.2019
5457 Clouds 1 1021 55 10000 1.5 0 15:56 31.12.2019
5458 Clouds 1 1021 55 10000 1.5 0 15:38 31.12.2019
5459 Clouds 1 1021 59 0 1.46 252 15:20 31.12.2019
5460 Clouds 1 1020 44 10000 1.5 330 14:57 31.12.2019
5461 Clouds 2 1020 44 10000 1.5 330 14:38 31.12.2019
5462 Clouds 2 1020 44 10000 1.5 260 14:19 31.12.2019
5463 Clouds 2 1020 44 10000 1.5 260 14:19 31.12.2019
5464 Clouds 3 1020 44 10000 2.1 280 13:57 31.12.2019
5465 Clouds 3 1020 44 10000 2.1 280 13:39 31.12.2019
5466 Clouds 3 1019 47 10000 1.5 320 13:21 31.12.2019
5467 Clouds 2 1019 47 10000 1.5 320 12:58 31.12.2019
5468 Clouds 3 1019 47 10000 2.1 310 12:39 31.12.2019
5469 Clouds 3 1019 51 10000 1 0 12:20 31.12.2019
5470 Clouds 3 1018 59 10000 1 0 11:56 31.12.2019
5471 Clouds 2 1018 59 10000 1 0 11:38 31.12.2019
5472 Clear 2 1018 51 10000 1.5 0 11:20 31.12.2019
5473 Clear 3 1017 51 10000 2.1 300 10:57 31.12.2019
5474 Clear 3 1017 51 10000 2.1 300 10:57 31.12.2019
5475 Clear 3 1017 51 10000 1.5 0 10:38 31.12.2019
5476 Clear 3 1017 51 10000 2.1 300 10:38 31.12.2019
5477 Clear 2 1017 51 10000 1.5 0 10:20 31.12.2019
5478 Clear 3 1016 55 10000 2.1 310 09:58 31.12.2019
5479 Clear 2 1016 55 10000 2.1 310 09:39 31.12.2019
5480 Clear 1 1015 59 10000 1 0 09:20 31.12.2019
5481 Clear 1 1015 59 10000 1 0 09:20 31.12.2019
5482 Clear 1 1014 64 10000 1 0 08:57 31.12.2019
5483 Clear 2 1014 64 10000 1 0 08:37 31.12.2019
5484 Clear 2 1014 64 10000 1 0 08:37 31.12.2019
5485 Clouds 3 1013 55 10000 1 0 08:18 31.12.2019
5486 Clouds 4 1013 59 10000 2.1 250 07:41 31.12.2019
5487 Clouds 3 1012 64 10000 1.55 261 07:19 31.12.2019
5488 Clouds 3 1011 64 10000 2.1 0 06:49 31.12.2019
5489 Clouds 3 1010 64 10000 1 0 05:57 31.12.2019
5490 Clouds 4 1008 64 10000 1.5 70 04:28 31.12.2019
5491 Clouds 3 1005 59 10000 1.5 320 03:27 31.12.2019
5492 Clouds 4 1005 52 10000 3.1 310 02:49 31.12.2019
5493 Clear 3 1004 64 10000 2.1 0 01:55 31.12.2019
5494 Clear 4 1004 64 10000 2.1 0 01:35 31.12.2019
5495 Clear 4 1003 64 10000 2.6 240 00:59 31.12.2019
5496 Clear 4 1003 64 10000 2.6 240 00:41 31.12.2019
5497 Clear 4 1003 64 10000 2.1 280 00:21 31.12.2019
5498 Clear 3 1003 74 10000 1 0 23:56 30.12.2019
5499 Clear 3 1003 74 10000 1 0 23:38 30.12.2019
5500 Clear 3 1002 74 10000 4.6 200 23:19 30.12.2019
5501 Clear 4 1003 64 10000 2.1 110 22:57 30.12.2019
5502 Clear 4 1003 64 10000 2.1 110 22:37 30.12.2019
5503 Clear 4 1003 64 10000 2.1 200 22:19 30.12.2019
5504 Clear 4 1002 60 10000 4.1 230 21:56 30.12.2019
5505 Clear 4 1002 60 10000 4.1 230 21:38 30.12.2019
5506 Clear 4 1002 60 10000 5.1 230 21:18 30.12.2019
5507 Clear 4 1002 60 10000 5.1 230 21:18 30.12.2019
5508 Clear 4 1001 56 10000 6.7 220 20:56 30.12.2019
5509 Clear 4 1001 56 10000 6.7 220 20:38 30.12.2019
5510 Clouds 5 1001 60 10000 6.2 210 20:19 30.12.2019
5511 Clouds 5 1001 69 10000 7.2 190 19:56 30.12.2019
5512 Clouds 5 1001 69 10000 7.2 190 19:37 30.12.2019
5513 Clouds 5 1001 69 10000 6.2 180 19:37 30.12.2019
5514 Clouds 5 1001 69 10000 6.2 180 19:19 30.12.2019
5515 Clouds 5 1001 74 10000 7.2 180 18:56 30.12.2019
5516 Clouds 5 1001 74 10000 7.2 180 18:37 30.12.2019
5517 Clouds 5 1001 80 10000 5.1 200 18:19 30.12.2019
5518 Clouds 6 1002 69 10000 4.6 220 17:54 30.12.2019
5519 Clouds 6 1002 65 10000 5.7 210 17:36 30.12.2019
5520 Clouds 6 1002 65 10000 5.7 210 17:18 30.12.2019
5521 Clouds 6 1002 65 10000 4.6 210 16:54 30.12.2019
5522 Clouds 6 1002 65 10000 4.6 210 16:36 30.12.2019
5523 Clouds 6 1002 65 10000 3.1 210 16:18 30.12.2019
5524 Clouds 6 1002 76 10000 4.6 200 15:54 30.12.2019
5525 Clouds 6 1002 75 10000 3.6 200 15:36 30.12.2019
5526 Clouds 6 1002 75 10000 3.6 200 15:18 30.12.2019
5527 Clouds 7 1002 70 10000 4.1 220 14:42 30.12.2019
5528 Clouds 7 1002 84 10000 3.1 250 14:19 30.12.2019
5529 Clouds 7 1002 75 10000 4.6 190 13:54 30.12.2019
5530 Clouds 6 1002 75 10000 4.6 190 13:36 30.12.2019
5531 Clouds 6 1003 93 10000 4.6 160 13:18 30.12.2019
5532 Clouds 6 1002 93 10000 7.7 160 12:42 30.12.2019
5533 Clouds 6 1002 93 10000 6.7 180 12:20 30.12.2019
5534 Clouds 6 1002 93 10000 7.7 190 11:58 30.12.2019
5535 Clouds 6 1002 93 10000 7.7 190 11:39 30.12.2019
5536 Clouds 6 1003 100 10000 4.6 190 11:19 30.12.2019
5537 Clouds 6 1003 93 10000 4.6 190 10:44 30.12.2019
5538 Clouds 6 1003 100 10000 3.6 210 10:21 30.12.2019
5539 Clouds 6 1003 93 10000 5.1 180 09:57 30.12.2019
5540 Clouds 6 1003 93 10000 5.1 180 09:39 30.12.2019
5541 Clouds 6 1003 93 10000 3.6 210 09:19 30.12.2019
5542 Clouds 6 1003 93 10000 5.7 210 08:50 30.12.2019
5543 Clouds 6 1003 93 10000 5.7 210 08:50 30.12.2019
5544 Clouds 6 1003 100 10000 5.1 200 08:23 30.12.2019
5545 Clouds 6 1004 100 10000 4.1 200 07:55 30.12.2019
5546 Clouds 6 1004 100 10000 2.6 200 07:34 30.12.2019
5547 Clouds 6 1004 100 10000 2.6 200 06:52 30.12.2019
5548 Clouds 6 1005 93 10000 6.2 190 04:57 30.12.2019
5549 Clouds 6 1006 93 10000 5.7 210 03:55 30.12.2019
5550 Clouds 5 1007 93 10000 7.7 200 02:58 30.12.2019
5551 Clouds 5 1007 93 10000 7.7 200 02:40 30.12.2019
5552 Clouds 5 1007 93 10000 5.1 200 01:50 30.12.2019
5553 Clouds 5 1008 93 10000 6.7 190 01:21 30.12.2019
5554 Clouds 5 1008 93 10000 7.2 190 00:44 30.12.2019
5555 Clouds 5 1009 100 10000 7.7 200 00:19 30.12.2019
5556 Clouds 5 1009 93 10000 6.7 210 23:39 29.12.2019
5557 Clouds 5 1009 93 10000 6.7 210 23:21 29.12.2019
5558 Clouds 5 1009 93 10000 5.1 220 22:54 29.12.2019
5559 Clouds 5 1009 93 10000 5.1 220 22:36 29.12.2019
5560 Clouds 5 1009 93 10000 5.1 220 22:36 29.12.2019
5561 Clouds 5 1009 93 10000 5.1 220 22:36 29.12.2019
5562 Clouds 5 1009 93 10000 4.6 190 22:18 29.12.2019
5563 Clouds 4 1010 100 10000 4.6 200 21:42 29.12.2019
5564 Clouds 5 1010 93 10000 7.7 200 21:21 29.12.2019
5565 Clouds 5 1011 93 10000 5.7 200 20:57 29.12.2019
5566 Clouds 5 1011 93 10000 5.7 200 20:39 29.12.2019
5567 Clouds 5 1011 100 10000 6.7 210 20:21 29.12.2019
5568 Clouds 5 1011 100 10000 7.2 210 19:59 29.12.2019
5569 Clouds 5 1011 100 10000 7.2 210 19:40 29.12.2019
5570 Clouds 5 1011 93 10000 6.7 210 19:21 29.12.2019
5571 Clouds 5 1012 93 10000 5.7 210 18:58 29.12.2019
5572 Clouds 5 1012 93 10000 5.7 210 18:39 29.12.2019
5573 Clouds 5 1012 93 10000 7.7 200 18:20 29.12.2019
5574 Clouds 5 1012 93 10000 8.2 210 17:58 29.12.2019
5575 Clouds 5 1012 93 10000 8.2 210 17:39 29.12.2019
5576 Clouds 6 1013 93 10000 8.7 200 17:20 29.12.2019
5577 Clouds 5 1013 100 10000 7.7 210 16:57 29.12.2019
5578 Clouds 5 1013 100 10000 7.7 210 16:38 29.12.2019
5579 Clouds 5 1013 100 10000 7.7 210 16:38 29.12.2019
5580 Clouds 5 1013 100 10000 6.7 210 16:20 29.12.2019
5581 Rain 5 1013 93 10000 7.7 210 15:58 29.12.2019
5582 Rain 5 1015 100 10000 6.7 200 15:39 29.12.2019
5583 Rain 5 1015 100 10000 6.7 200 15:20 29.12.2019
5584 Rain 5 1015 100 7000 4.1 210 14:58 29.12.2019
5585 Clouds 5 1015 100 7000 4.1 210 14:38 29.12.2019
5586 Clouds 5 1016 100 7000 3.6 200 14:18 29.12.2019
5587 Clouds 5 1016 100 8000 7.7 200 13:57 29.12.2019
5588 Clouds 5 1016 100 8000 7.7 200 13:38 29.12.2019
5589 Clouds 5 1017 100 10000 8.2 200 13:20 29.12.2019
5590 Clouds 5 1017 93 9000 5.1 210 12:45 29.12.2019
5591 Clouds 5 1018 93 10000 5.7 200 12:27 29.12.2019
5592 Clouds 5 1018 93 10000 5.7 200 12:27 29.12.2019
5593 Clouds 5 1018 100 10000 5.1 210 11:59 29.12.2019
5594 Clouds 5 1018 100 10000 5.1 210 11:40 29.12.2019
5595 Clouds 5 1018 93 10000 5.1 210 11:20 29.12.2019
5596 Clouds 5 1018 93 10000 5.1 210 11:20 29.12.2019
5597 Clouds 5 1018 93 10000 7.2 210 10:55 29.12.2019
5598 Clouds 4 1018 93 10000 7.2 210 10:37 29.12.2019
5599 Clouds 4 1018 93 10000 5.1 210 10:18 29.12.2019
5600 Clouds 4 1018 93 10000 5.1 210 10:18 29.12.2019
5601 Clouds 4 1019 93 10000 5.7 210 09:43 29.12.2019
5602 Clouds 4 1019 100 10000 5.7 210 09:25 29.12.2019
5603 Drizzle 4 1019 93 10000 6.2 210 08:50 29.12.2019
5604 Rain 4 1020 93 10000 6.2 210 08:29 29.12.2019
5605 Clouds 4 1020 100 10000 6.7 210 07:58 29.12.2019
5606 Clouds 4 1020 100 10000 6.2 210 07:31 29.12.2019
5607 Clouds 4 1020 100 10000 6.7 210 07:31 29.12.2019
5608 Clouds 4 1021 100 10000 6.2 210 06:57 29.12.2019
5609 Rain 4 1021 93 10000 5.7 210 06:27 29.12.2019
5610 Clouds 4 1022 93 10000 6.2 210 05:54 29.12.2019
5611 Clouds 3 1023 93 10000 6.2 200 04:42 29.12.2019
5612 Clouds 3 1024 93 10000 5.1 200 04:21 29.12.2019
5613 Clouds 3 1025 93 10000 5.7 210 03:28 29.12.2019
5614 Clouds 3 1025 100 8000 5.7 210 02:22 29.12.2019
5615 Clouds 3 1025 100 8000 5.7 210 02:22 29.12.2019
5616 Clouds 3 1025 100 7000 4.6 210 01:42 29.12.2019
5617 Clouds 3 1025 100 7000 5.1 200 01:23 29.12.2019
5618 Drizzle 3 1026 93 7000 8.2 200 00:44 29.12.2019
5619 Drizzle 2 1028 100 6000 5.1 210 00:24 29.12.2019
5620 Drizzle 2 1028 100 2000 5.7 220 23:45 28.12.2019
5621 Drizzle 2 1028 100 2000 7.7 200 23:19 28.12.2019
5622 Drizzle 2 1028 100 2000 7.7 200 23:19 28.12.2019
5623 Mist 2 1029 100 3300 6.7 200 22:54 28.12.2019
5624 Mist 2 1029 100 3500 6.2 210 22:36 28.12.2019
5625 Mist 2 1029 100 3500 6.2 210 22:18 28.12.2019
5626 Clouds 2 1029 100 7000 7.2 210 21:55 28.12.2019
5627 Clouds 2 1029 100 10000 6.2 200 21:36 28.12.2019
5628 Clouds 1 1029 100 10000 6.2 200 21:18 28.12.2019
5629 Clouds 1 1030 100 10000 4.6 210 20:38 28.12.2019
5630 Clouds 1 1030 93 10000 4.6 200 20:20 28.12.2019
5631 Clouds 1 1031 93 10000 5.1 210 19:59 28.12.2019
5632 Clouds 1 1031 93 10000 5.1 210 19:39 28.12.2019
5633 Clouds 1 1031 93 9000 4.6 210 19:21 28.12.2019
5634 Clouds 0 1031 93 10000 3.6 200 18:59 28.12.2019
5635 Clouds 1 1031 93 10000 3.6 200 18:40 28.12.2019
5636 Snow 0 1032 93 10000 4.1 190 18:19 28.12.2019
5637 Snow 0 1032 100 5000 4.1 200 17:56 28.12.2019
5638 Snow 0 1032 100 5000 4.1 200 17:38 28.12.2019
5639 Snow 0 1032 100 10000 4.1 200 17:18 28.12.2019
5640 Snow 0 1033 100 10000 3.6 200 16:46 28.12.2019
5641 Snow 0 1033 92 7000 4.6 200 16:26 28.12.2019
5642 Snow 0 1033 92 7000 4.6 200 16:26 28.12.2019
5643 Snow 0 1033 92 7000 4.6 200 16:26 28.12.2019
5644 Snow -1 1033 100 4200 3.6 190 15:49 28.12.2019
5645 Snow -1 1033 100 4000 3.6 170 15:25 28.12.2019
5646 Snow -1 1034 100 5000 3.6 170 15:00 28.12.2019
5647 Snow -1 1034 100 5000 3.6 170 14:40 28.12.2019
5648 Snow -1 1034 100 5000 3.6 170 14:40 28.12.2019
5649 Snow -1 1034 92 1800 2.6 170 14:21 28.12.2019
5650 Snow -1 1034 92 4100 3.6 170 13:56 28.12.2019
5651 Snow -1 1034 92 4100 3.6 170 13:37 28.12.2019
5652 Snow -2 1035 100 5000 3.6 170 13:18 28.12.2019
5653 Rain -2 1035 100 3000 3.1 180 12:43 28.12.2019
5654 Rain -2 1035 100 3000 3.1 180 12:43 28.12.2019
5655 Rain -2 1036 100 8000 3.1 180 12:24 28.12.2019
5656 Rain -2 1036 100 3900 3.6 180 11:56 28.12.2019
5657 Rain -2 1036 100 3900 3.6 180 11:38 28.12.2019
5658 Rain -2 1036 92 5000 3.6 190 11:19 28.12.2019
5659 Clouds -3 1036 92 10000 3.6 190 10:44 28.12.2019
5660 Snow -3 1036 100 4000 3.1 180 10:22 28.12.2019
5661 Rain -3 1036 100 5000 3.1 180 09:58 28.12.2019
5662 Rain -3 1036 100 5000 3.1 180 09:40 28.12.2019
5663 Snow -3 1037 100 9000 3.1 190 09:20 28.12.2019
5664 Snow -3 1037 92 10000 3.1 190 08:44 28.12.2019
5665 Clouds -3 1037 92 10000 2.6 180 08:26 28.12.2019
5666 Clouds -4 1037 92 10000 2.1 190 07:53 28.12.2019
5667 Clouds -4 1037 92 10000 2.6 170 07:30 28.12.2019
5668 Clouds -4 1037 100 10000 2.1 190 06:41 28.12.2019
5669 Clouds -4 1038 100 7000 3.1 190 04:51 28.12.2019
5670 Mist -4 1038 92 5000 3.1 180 03:47 28.12.2019
5671 Clouds -4 1039 92 8000 2.6 170 02:48 28.12.2019
5672 Clouds -5 1039 92 8000 2.6 200 01:59 28.12.2019
5673 Clouds -5 1039 92 8000 2.6 200 01:30 28.12.2019
5674 Snow -5 1039 92 10000 1 230 00:58 28.12.2019
5675 Snow -5 1039 92 10000 1 230 00:38 28.12.2019
5676 Snow -5 1039 100 10000 1 0 00:19 28.12.2019
5677 Rain -5 1039 100 10000 1.5 240 23:43 27.12.2019
5678 Snow -5 1039 100 10000 1 0 23:20 27.12.2019
5679 Snow -5 1039 100 9000 1 230 22:58 27.12.2019
5680 Snow -5 1039 100 9000 1 230 22:38 27.12.2019
5681 Snow -5 1038 100 9000 1 0 22:20 27.12.2019
5682 Snow -5 1038 100 9000 1 0 22:20 27.12.2019
5683 Snow -5 1038 100 10000 1.5 160 21:55 27.12.2019
5684 Snow -5 1038 100 10000 1.5 160 21:37 27.12.2019
5685 Snow -5 1038 100 9000 1.5 150 21:18 27.12.2019
5686 Clouds -5 1038 100 10000 1 0 20:41 27.12.2019
5687 Clouds -6 1038 100 10000 1.5 150 20:22 27.12.2019
5688 Clouds -6 1038 100 10000 1.5 90 19:43 27.12.2019
5689 Clouds -6 1038 100 10000 1 0 19:21 27.12.2019
5690 Clouds -6 1038 100 10000 1 0 18:59 27.12.2019
5691 Clouds -6 1038 100 10000 1 0 18:40 27.12.2019
5692 Clouds -6 1038 92 10000 1.5 0 18:21 27.12.2019
5693 Clouds -6 1038 92 10000 1.5 0 17:58 27.12.2019
5694 Clouds -6 1038 92 10000 1.5 0 17:40 27.12.2019
5695 Clouds -6 1038 92 10000 1 0 17:19 27.12.2019
5696 Clouds -6 1037 92 9000 1.5 110 16:58 27.12.2019
5697 Clouds -6 1037 92 9000 1.5 110 16:38 27.12.2019
5698 Clouds -6 1037 92 9000 2.1 120 16:19 27.12.2019
5699 Clouds -6 1037 92 10000 2.1 110 15:45 27.12.2019
5700 Clouds -5 1037 92 10000 2.1 0 15:23 27.12.2019
5701 Clouds -6 1036 92 10000 1.5 110 14:58 27.12.2019
5702 Clouds -5 1036 92 10000 1.5 110 14:40 27.12.2019
5703 Fog -5 1036 92 10000 2.1 110 14:21 27.12.2019
5704 Fog -5 1036 92 10000 1.5 0 13:57 27.12.2019
5705 Fog -5 1036 92 10000 1.5 0 13:38 27.12.2019
5706 Fog -5 1036 92 10000 1.5 0 13:38 27.12.2019
5707 Fog -5 1035 100 6000 1 0 13:20 27.12.2019
5708 Fog -5 1035 100 550 1.04 30 12:42 27.12.2019
5709 Fog -5 1035 100 3500 0.5 0 12:23 27.12.2019
5710 Fog -6 1034 92 9000 1.04 30 11:46 27.12.2019
5711 Fog -6 1034 92 10000 0.5 0 11:27 27.12.2019
5712 Fog -6 1034 92 10000 0.5 0 10:59 27.12.2019
5713 Fog -6 1034 92 10000 1.57 357 10:41 27.12.2019
5714 Fog -6 1033 92 10000 0.5 0 10:22 27.12.2019
5715 Fog -6 1033 92 10000 1 0 09:49 27.12.2019
5716 Fog -6 1032 92 10000 1.57 357 09:22 27.12.2019
5717 Fog -6 1032 92 10000 1.57 357 08:59 27.12.2019
5718 Fog -6 1032 92 10000 1.57 357 08:38 27.12.2019
5719 Fog -6 1031 92 10000 0.5 340 07:57 27.12.2019
5720 Fog -6 1031 92 10000 0.5 340 07:38 27.12.2019
5721 Fog -6 1030 92 9000 1.5 320 06:39 27.12.2019
5722 Fog -6 1030 92 9000 1.56 15 06:18 27.12.2019
5723 Fog -5 1029 100 900 1 330 04:20 27.12.2019
5724 Fog -5 1028 100 500 1.59 13 02:27 27.12.2019
5725 Fog -5 1027 100 800 1.62 8 01:42 27.12.2019
5726 Fog -5 1027 100 600 0.5 0 01:20 27.12.2019
5727 Fog -5 1027 100 650 1 0 00:46 27.12.2019
5728 Fog -5 1026 92 3700 1 10 00:25 27.12.2019
5729 Fog -5 1026 92 3700 1 10 00:25 27.12.2019
5730 Fog -5 1026 92 7000 1.57 11 23:44 26.12.2019
5731 Fog -5 1025 100 9000 1.5 360 23:24 26.12.2019
5732 Mist -5 1025 100 10000 1 0 22:58 26.12.2019
5733 Mist -5 1025 100 10000 1 0 22:38 26.12.2019
5734 Fog -5 1025 92 10000 1 40 22:18 26.12.2019
5735 Clouds -5 1025 92 10000 0.5 0 21:39 26.12.2019
5736 Clouds -5 1024 100 10000 1 0 21:21 26.12.2019
5737 Fog -5 1024 92 10000 0.5 0 20:54 26.12.2019
5738 Fog -5 1024 92 10000 0.5 0 20:36 26.12.2019
5739 Fog -5 1024 92 10000 1.37 8 20:18 26.12.2019
5740 Fog -5 1024 92 10000 1.37 8 20:18 26.12.2019
5741 Fog -5 1024 92 10000 0.5 0 19:54 26.12.2019
5742 Fog -5 1024 92 10000 0.5 0 19:36 26.12.2019
5743 Fog -5 1023 100 10000 1 0 19:18 26.12.2019
5744 Fog -5 1023 100 10000 1 0 19:18 26.12.2019
5745 Fog -5 1023 92 6000 1 0 18:55 26.12.2019
5746 Fog -5 1023 92 6000 1 0 18:55 26.12.2019
5747 Fog -5 1023 92 6000 1 0 18:36 26.12.2019
5748 Fog -4 1023 100 400 1.37 8 18:18 26.12.2019
5749 Fog -4 1022 100 400 0.5 0 17:40 26.12.2019
5750 Fog -4 1022 100 400 1.29 15 17:20 26.12.2019
5751 Fog -4 1022 100 500 1.29 15 16:49 26.12.2019
5752 Fog -4 1022 100 500 0.5 0 16:26 26.12.2019
5753 Fog -4 1022 100 300 1 0 15:57 26.12.2019
5754 Fog -4 1022 100 300 1 0 15:38 26.12.2019
5755 Fog -3 1021 92 200 1.5 20 15:19 26.12.2019
5756 Fog -4 1021 100 300 1 0 14:41 26.12.2019
5757 Rain -3 1021 100 500 0.5 0 14:23 26.12.2019
5758 Rain -3 1021 100 500 0.5 0 14:23 26.12.2019
5759 Fog -3 1021 100 500 0.5 0 14:23 26.12.2019
5760 Clouds -3 1021 92 10000 1.18 26 13:55 26.12.2019
5761 Clouds -3 1021 92 10000 1.18 26 13:36 26.12.2019
5762 Clouds -3 1021 92 10000 1.11 22 13:18 26.12.2019
5763 Clouds -3 1021 100 10000 0.5 330 12:44 26.12.2019
5764 Clouds -3 1021 92 10000 1.11 22 12:24 26.12.2019
5765 Clouds -3 1021 92 10000 1.11 22 11:59 26.12.2019
5766 Clouds -4 1020 92 10000 1.11 22 11:40 26.12.2019
5767 Clouds -4 1020 92 10000 1.11 22 11:40 26.12.2019
5768 Clouds -4 1020 92 10000 1.2 6 11:21 26.12.2019
5769 Clouds -5 1020 92 10000 0.5 0 10:50 26.12.2019
5770 Clouds -5 1020 92 10000 1 340 10:26 26.12.2019
5771 Clouds -5 1020 92 10000 1.5 350 09:55 26.12.2019
5772 Clouds -5 1020 92 10000 1.5 350 09:36 26.12.2019
5773 Clouds -5 1020 92 10000 1 340 09:18 26.12.2019
5774 Clouds -5 1019 100 10000 1.29 9 08:39 26.12.2019
5775 Fog -5 1019 100 10000 1 0 08:21 26.12.2019
5776 Fog -5 1019 100 10000 2.1 330 07:41 26.12.2019
5777 Fog -5 1019 92 10000 2.1 330 07:19 26.12.2019
5778 Fog -6 1018 100 10000 1.5 350 06:38 26.12.2019
5779 Fog -5 1018 92 10000 1.5 340 06:20 26.12.2019
5780 Fog -5 1018 92 10000 1 340 05:42 26.12.2019
5781 Clear -5 1018 92 10000 1 0 04:33 26.12.2019
5782 Clear -5 1017 92 10000 1.5 350 03:32 26.12.2019
5783 Clouds -4 1017 92 10000 0.5 0 02:47 26.12.2019
5784 Fog -5 1017 100 10000 1.5 20 02:29 26.12.2019
5785 Fog -4 1017 92 10000 1 40 01:44 26.12.2019
5786 Clear -4 1016 92 10000 0.5 0 01:25 26.12.2019
5787 Clear -4 1016 92 10000 1.5 360 00:44 26.12.2019
5788 Clear -4 1016 100 10000 1.35 354 00:23 26.12.2019
5789 Clear -4 1016 100 10000 1.35 354 23:58 25.12.2019
5790 Clear -4 1016 100 10000 1.35 354 23:37 25.12.2019
5791 Clear -4 1016 92 10000 1.37 337 23:19 25.12.2019
5792 Clear -4 1016 92 10000 1.37 337 23:19 25.12.2019
5793 Clouds -4 1015 92 10000 1.37 337 22:57 25.12.2019
5794 Clouds -4 1015 92 10000 1.37 337 22:37 25.12.2019
5795 Fog -3 1015 92 10000 1 350 22:19 25.12.2019
5796 Fog -4 1015 100 10000 1.5 320 21:55 25.12.2019
5797 Fog -4 1015 100 10000 1.5 320 21:37 25.12.2019
5798 Fog -3 1015 100 9000 1 0 21:19 25.12.2019
5799 Fog -3 1015 92 2000 1.37 337 20:40 25.12.2019
5800 Fog -3 1014 100 800 0.5 0 20:21 25.12.2019
5801 Fog -3 1014 92 600 1.23 344 19:59 25.12.2019
5802 Fog -3 1014 92 600 1.23 344 19:41 25.12.2019
5803 Fog -3 1014 92 650 1.23 344 19:21 25.12.2019
5804 Fog -3 1013 100 500 1.23 344 18:40 25.12.2019
5805 Fog -2 1013 92 3000 1.23 344 18:21 25.12.2019
5806 Fog -2 1013 100 8000 1 0 17:58 25.12.2019
5807 Fog -2 1013 100 8000 1 0 17:39 25.12.2019
5808 Fog -2 1013 92 8000 1 330 17:18 25.12.2019
5809 Fog -2 1012 92 1500 1 10 16:55 25.12.2019
5810 Fog -2 1012 92 2000 1 0 16:36 25.12.2019
5811 Fog -2 1012 92 2000 1 0 16:18 25.12.2019
5812 Fog -2 1012 100 5000 1.5 30 15:55 25.12.2019
5813 Fog -2 1011 92 10000 1.5 40 15:36 25.12.2019
5814 Fog -1 1011 92 10000 1.5 40 15:18 25.12.2019
5815 Rain -1 1011 100 10000 1.5 20 14:42 25.12.2019
5816 Rain -1 1011 100 10000 1.5 20 14:23 25.12.2019
5817 Rain -1 1011 92 10000 1.5 30 13:58 25.12.2019
5818 Rain -1 1011 92 10000 1.5 30 13:40 25.12.2019
5819 Clouds -1 1011 100 10000 1 350 13:20 25.12.2019
5820 Fog -1 1010 100 10000 1 0 12:43 25.12.2019
5821 Fog -1 1010 100 10000 1 0 12:22 25.12.2019
5822 Fog -1 1010 92 10000 1 0 11:58 25.12.2019
5823 Fog -1 1010 92 10000 1 0 11:40 25.12.2019
5824 Fog -1 1010 100 10000 0.5 0 11:20 25.12.2019
5825 Fog -2 1009 92 10000 2.1 20 10:39 25.12.2019
5826 Fog -2 1009 100 10000 1.5 20 10:21 25.12.2019
5827 Fog -2 1008 100 9000 1.5 340 09:58 25.12.2019
5828 Fog -2 1008 100 9000 1.5 340 09:40 25.12.2019
5829 Fog -2 1008 100 9000 1.5 340 09:40 25.12.2019
5830 Fog -2 1008 100 10000 1 360 09:21 25.12.2019
5831 Fog -1 1008 100 9000 1 330 08:42 25.12.2019
5832 Fog -1 1008 100 10000 0.5 360 08:23 25.12.2019
5833 Fog -1 1008 100 10000 0.5 360 08:23 25.12.2019
5834 Fog -1 1007 92 10000 1.41 330 07:42 25.12.2019
5835 Clouds -1 1007 92 10000 1.41 330 07:22 25.12.2019
5836 Clouds 0 1006 100 10000 0.5 0 06:24 25.12.2019
5837 Clouds -1 1007 91 0 2.6 10 05:50 25.12.2019
5838 Clouds 0 1007 90 0 3.1 350 04:44 25.12.2019
5839 Clouds 0 1006 92 10000 2.1 10 04:24 25.12.2019
5840 Clouds 0 1006 92 10000 1.5 10 03:44 25.12.2019
5841 Clouds 0 1006 92 10000 1.5 10 03:44 25.12.2019
5842 Clouds 0 1005 100 10000 2.6 20 02:59 25.12.2019
5843 Clouds 0 1005 100 10000 2.6 20 02:29 25.12.2019
5844 Clouds 0 1005 93 10000 1.5 20 01:52 25.12.2019
5845 Clouds 0 1005 97 10000 1 20 01:22 25.12.2019
5846 Clouds 0 1004 97 10000 1 0 00:42 25.12.2019
5847 Clouds 0 1004 97 10000 1.5 40 00:23 25.12.2019
5848 Clouds 1 1004 97 10000 1.5 20 23:40 24.12.2019
5849 Clouds 1 1004 96 10000 1 30 23:20 24.12.2019
5850 Clouds 0 1004 100 10000 2.1 20 22:55 24.12.2019
5851 Clouds 0 1004 100 10000 2.1 20 22:37 24.12.2019
5852 Clouds 0 1004 96 10000 2.1 40 22:19 24.12.2019
5853 Clouds 0 1004 96 10000 2.1 40 21:41 24.12.2019
5854 Clouds 0 1003 96 10000 2.1 40 21:20 24.12.2019
5855 Clouds 1 1003 96 10000 1.5 50 20:43 24.12.2019
5856 Clouds 1 1003 99 10000 1.5 30 20:23 24.12.2019
5857 Clouds 1 1003 99 10000 2.1 40 19:57 24.12.2019
5858 Clouds 1 1003 99 10000 2.1 40 19:37 24.12.2019
5859 Clouds 1 1003 99 10000 1.5 40 19:18 24.12.2019
5860 Clouds 1 1003 99 10000 1.5 40 18:42 24.12.2019
5861 Clouds 1 1002 99 10000 2.1 40 18:19 24.12.2019
5862 Clouds 1 1002 99 10000 2.1 40 17:45 24.12.2019
5863 Clouds 1 1002 99 10000 2.1 40 17:23 24.12.2019
5864 Clouds 1 1002 99 9000 2.1 40 16:58 24.12.2019
5865 Clouds 1 1002 99 9000 2.1 40 16:40 24.12.2019
5866 Clouds 1 1002 99 9000 2.1 40 16:40 24.12.2019
5867 Clouds 1 1002 99 8000 2.6 30 16:22 24.12.2019
5868 Clouds 1 1002 99 6000 2.1 40 15:58 24.12.2019
5869 Clouds 1 1002 99 6000 2.1 40 15:38 24.12.2019
5870 Mist 1 1002 99 5000 2.6 40 15:20 24.12.2019
5871 Mist 1 1002 99 5000 2.6 40 14:58 24.12.2019
5872 Mist 1 1002 99 5000 2.6 40 14:58 24.12.2019
5873 Snow 1 1002 99 6000 2.1 40 14:40 24.12.2019
5874 Snow 1 1002 99 6000 2.6 30 14:22 24.12.2019
5875 Snow 1 1002 99 3500 2.1 30 13:56 24.12.2019
5876 Snow 1 1002 99 3500 2.1 30 13:38 24.12.2019
5877 Snow 1 1002 99 1300 2.1 30 13:20 24.12.2019
5878 Snow 1 1002 99 1500 2.6 40 12:57 24.12.2019
5879 Snow 1 1002 99 1500 2.6 40 12:38 24.12.2019
5880 Snow 1 1002 100 1300 2.6 30 12:19 24.12.2019
5881 Snow 1 1003 100 1600 3.1 30 11:57 24.12.2019
5882 Snow 1 1003 100 1600 3.1 30 11:38 24.12.2019
5883 Snow 0 1003 100 1200 3.6 30 11:20 24.12.2019
5884 Snow 0 1003 100 1200 3.6 30 11:20 24.12.2019
5885 Snow 0 1003 100 2000 3.6 30 10:57 24.12.2019
5886 Snow 0 1003 100 2000 3.6 30 10:38 24.12.2019
5887 Snow 1 1003 100 1500 3.6 40 10:20 24.12.2019
5888 Snow 1 1003 100 2200 4.1 40 09:58 24.12.2019
5889 Snow 1 1003 100 2200 4.1 40 09:40 24.12.2019
5890 Snow 0 1003 100 2700 3.6 30 09:21 24.12.2019
5891 Snow 0 1002 92 3400 3.6 40 08:47 24.12.2019
5892 Snow 0 1002 92 5000 3.6 40 08:25 24.12.2019
5893 Snow 0 1003 92 4800 4.1 40 07:59 24.12.2019
5894 Snow 0 1003 92 4800 4.1 40 07:39 24.12.2019
5895 Snow 0 1003 92 4100 3.6 40 07:21 24.12.2019
5896 Snow 0 1003 92 4100 3.6 40 07:21 24.12.2019
5897 Snow 0 1003 92 4800 3.6 40 06:40 24.12.2019
5898 Snow 0 1003 92 4800 3.6 40 06:19 24.12.2019
5899 Snow 0 1003 92 3000 2.1 40 05:53 24.12.2019
5900 Snow 0 1003 92 7000 2.6 40 05:19 24.12.2019
5901 Snow 0 1003 92 10000 1 0 04:21 24.12.2019
5902 Clouds 0 1004 92 10000 2.1 30 03:48 24.12.2019
5903 Rain 0 1003 93 0 2.6 50 02:29 24.12.2019
5904 Clouds 0 1003 92 10000 2.6 40 01:57 24.12.2019
5905 Clouds 0 1003 92 10000 2.1 40 01:26 24.12.2019
5906 Clouds 0 1003 92 10000 1.5 30 00:58 24.12.2019
5907 Clouds 0 1003 92 10000 1.5 30 00:40 24.12.2019
5908 Clouds 0 1003 92 10000 1.5 10 00:20 24.12.2019
5909 Clouds 0 1003 92 10000 1.5 10 23:43 23.12.2019
5910 Clouds 0 1003 92 10000 2.1 20 23:24 23.12.2019
5911 Clouds 0 1003 92 10000 2.1 30 22:57 23.12.2019
5912 Clouds 0 1003 92 10000 2.1 30 22:38 23.12.2019
5913 Clouds 0 1003 92 10000 2.6 40 22:20 23.12.2019
5914 Clouds 0 1003 92 10000 2.1 20 21:57 23.12.2019
5915 Clouds 0 1003 92 10000 2.1 20 21:37 23.12.2019
5916 Clouds 0 1002 100 10000 2.1 30 21:19 23.12.2019
5917 Clouds 0 1002 100 10000 2.1 30 20:59 23.12.2019
5918 Clouds 0 1002 100 10000 2.1 30 20:40 23.12.2019
5919 Clouds 0 1002 92 10000 1.5 10 20:19 23.12.2019
5920 Clouds 0 1002 92 10000 2.1 40 19:58 23.12.2019
5921 Clouds 0 1002 92 10000 2.1 40 19:40 23.12.2019
5922 Clouds 0 1002 100 10000 2.1 20 19:21 23.12.2019
5923 Clouds 0 1001 100 10000 2.6 40 18:58 23.12.2019
5924 Snow 0 1001 100 10000 2.1 20 18:39 23.12.2019
5925 Snow 0 1001 100 10000 2.1 20 18:20 23.12.2019
5926 Snow 0 1001 100 10000 2.1 20 17:59 23.12.2019
5927 Snow 1 1001 100 10000 2.1 40 17:40 23.12.2019
5928 Snow 1 1001 100 10000 1.5 10 17:19 23.12.2019
5929 Snow 1 1001 92 10000 2.1 20 16:57 23.12.2019
5930 Snow 1 1001 92 10000 2.1 20 16:39 23.12.2019
5931 Clouds 1 1001 92 10000 2.1 10 16:18 23.12.2019
5932 Snow 1 1000 92 10000 2.1 30 15:57 23.12.2019
5933 Snow 1 1000 92 10000 2.1 30 15:37 23.12.2019
5934 Snow 1 1000 92 10000 3.1 30 15:19 23.12.2019
5935 Snow 1 1000 92 10000 2.6 30 14:56 23.12.2019
5936 Snow 1 1000 92 10000 2.6 30 14:56 23.12.2019
5937 Snow 1 1000 92 10000 2.6 30 14:38 23.12.2019
5938 Snow 1 1000 92 7000 2.1 20 14:18 23.12.2019
5939 Snow 1 1000 92 6000 2.1 40 13:56 23.12.2019
5940 Snow 1 1000 92 6000 2.1 40 13:37 23.12.2019
5941 Snow 1 1000 92 5000 2.1 40 13:19 23.12.2019
5942 Snow 1 999 92 10000 2.6 40 12:54 23.12.2019
5943 Snow 1 999 92 10000 2.6 40 12:36 23.12.2019
5944 Snow 1 999 92 10000 2.6 40 12:36 23.12.2019
5945 Snow 1 999 92 10000 2.1 40 12:18 23.12.2019
5946 Clouds 1 999 92 10000 2.6 30 11:42 23.12.2019
5947 Clouds 1 999 92 10000 2.6 40 11:22 23.12.2019
5948 Clouds 1 999 92 10000 3.1 40 10:56 23.12.2019
5949 Clouds 1 999 92 10000 3.1 40 10:37 23.12.2019
5950 Clouds 1 999 92 10000 3.6 40 10:18 23.12.2019
5951 Clouds 1 998 92 10000 3.6 30 09:57 23.12.2019
5952 Clouds 1 998 92 10000 3.6 30 09:39 23.12.2019
5953 Clouds 1 998 92 10000 2.6 40 09:19 23.12.2019
5954 Clouds 1 997 100 10000 2.6 40 08:42 23.12.2019
5955 Snow 1 997 100 10000 2.6 20 08:23 23.12.2019
5956 Rain 1 997 100 10000 3.1 30 07:57 23.12.2019
5957 Rain 1 997 100 10000 3.1 30 07:38 23.12.2019
5958 Clouds 1 997 92 10000 3.1 40 07:19 23.12.2019
5959 Clouds 1 996 100 10000 3.1 30 06:43 23.12.2019
5960 Clouds 1 996 100 10000 3.1 40 06:22 23.12.2019
5961 Clouds 1 996 100 10000 2.6 40 05:46 23.12.2019
5962 Clouds 1 996 96 10000 2.6 40 04:55 23.12.2019
5963 Clouds 1 996 96 10000 2.6 40 04:19 23.12.2019
5964 Clouds 1 995 96 10000 2.1 20 02:48 23.12.2019
5965 Clouds 1 995 98 10000 2.1 20 02:20 23.12.2019
5966 Clouds 1 995 98 10000 2.1 20 01:51 23.12.2019
5967 Clouds 1 995 97 10000 1.5 30 01:32 23.12.2019
5968 Clouds 1 995 97 10000 1.5 30 01:32 23.12.2019
5969 Clouds 1 995 97 10000 1.5 30 01:32 23.12.2019
5970 Clouds 1 995 97 10000 2.1 20 00:54 23.12.2019
5971 Clouds 1 995 97 10000 3.1 20 00:35 23.12.2019
5972 Clouds 1 995 97 10000 1.5 40 23:57 22.12.2019
5973 Clouds 1 995 97 10000 1.5 40 23:38 22.12.2019
5974 Clouds 1 994 97 10000 2.1 30 23:20 22.12.2019
5975 Drizzle 1 994 97 8000 1 0 22:57 22.12.2019
5976 Drizzle 1 994 97 8000 1 0 22:38 22.12.2019
5977 Clouds 1 994 97 10000 1.5 20 22:19 22.12.2019
5978 Clouds 1 993 97 9000 1.5 30 21:56 22.12.2019
5979 Clouds 1 993 97 9000 1.5 30 21:56 22.12.2019
5980 Clouds 1 993 97 9000 1.5 30 21:38 22.12.2019
5981 Clouds 1 993 97 9000 1.5 10 21:20 22.12.2019
5982 Mist 1 993 97 5000 1 0 20:41 22.12.2019
5983 Mist 1 992 96 1300 1.5 340 20:19 22.12.2019
5984 Mist 1 992 96 1100 1 0 19:58 22.12.2019
5985 Mist 1 992 96 1100 1 0 19:40 22.12.2019
5986 Fog 1 992 96 900 1 0 19:20 22.12.2019
5987 Fog 1 992 96 800 0.97 27 18:58 22.12.2019
5988 Fog 1 992 96 800 0.97 27 18:38 22.12.2019
5989 Fog 1 992 96 900 0.5 0 18:19 22.12.2019
5990 Fog 1 992 96 700 1.5 30 17:55 22.12.2019
5991 Fog 1 991 96 700 1 0 17:36 22.12.2019
5992 Fog 1 991 97 700 1 0 17:18 22.12.2019
5993 Mist 1 992 97 1100 1.5 50 16:42 22.12.2019
5994 Fog 1 991 97 650 1.5 20 16:23 22.12.2019
5995 Fog 1 991 97 650 1.5 20 16:23 22.12.2019
5996 Fog 1 991 97 350 1 0 15:58 22.12.2019
5997 Fog 1 991 97 350 1 0 15:39 22.12.2019
5998 Fog 1 991 97 300 1.5 30 15:21 22.12.2019
5999 Fog 2 991 100 400 0.5 0 14:59 22.12.2019
6000 Fog 1 991 100 400 0.5 0 14:38 22.12.2019
6001 Fog 2 991 100 350 0.51 59 14:19 22.12.2019
6002 Fog 1 991 100 450 0.51 59 13:56 22.12.2019
6003 Fog 1 991 100 450 0.51 59 13:38 22.12.2019
6004 Fog 2 990 100 600 1 0 13:19 22.12.2019
6005 Fog 1 990 100 500 1 0 12:57 22.12.2019
6006 Fog 2 990 100 500 1 0 12:38 22.12.2019
6007 Fog 2 990 98 500 0.5 0 12:19 22.12.2019
6008 Fog 2 990 98 400 1.5 10 11:58 22.12.2019
6009 Fog 2 990 98 400 1.5 10 11:38 22.12.2019
6010 Fog 1 990 97 350 0.5 0 11:19 22.12.2019
6011 Fog 1 990 100 300 1 350 10:57 22.12.2019
6012 Fog 1 990 100 300 1 350 10:38 22.12.2019
6013 Fog 1 990 97 600 1 0 10:19 22.12.2019
6014 Fog 1 990 100 900 1.5 0 09:58 22.12.2019
6015 Mist 1 989 100 1200 0.66 48 09:39 22.12.2019
6016 Mist 1 989 100 1200 0.66 48 09:21 22.12.2019
6017 Fog 1 989 100 1300 0.66 48 08:45 22.12.2019
6018 Mist 1 989 100 4600 0.64 26 08:23 22.12.2019
6019 Mist 1 989 100 4400 0.64 26 07:44 22.12.2019
6020 Mist 1 989 98 5000 1 0 07:21 22.12.2019
6021 Mist 1 989 98 5000 1 0 07:21 22.12.2019
6022 Mist 1 989 98 5000 1 0 07:21 22.12.2019
6023 Mist 1 989 98 1500 0.5 0 06:55 22.12.2019
6024 Mist 1 988 100 1200 0.5 0 06:26 22.12.2019
6025 Mist 1 988 98 1100 0.5 0 05:41 22.12.2019
6026 Fog 1 988 100 800 0.31 216 05:20 22.12.2019
6027 Fog 2 988 100 700 1 0 04:26 22.12.2019
6028 Mist 2 988 100 1500 0.5 150 02:47 22.12.2019
6029 Mist 2 988 100 2000 0.49 253 02:23 22.12.2019
6030 Clouds 2 988 100 7000 2.1 20 01:32 22.12.2019
6031 Mist 2 988 100 2000 0.56 268 00:57 22.12.2019
6032 Mist 2 988 100 2000 0.56 268 00:38 22.12.2019
6033 Mist 2 988 100 1200 1 280 00:20 22.12.2019
6034 Mist 2 988 100 4000 1 0 23:41 21.12.2019
6035 Fog 2 988 100 7000 1 0 23:22 21.12.2019
6036 Fog 2 988 100 8000 0.25 273 22:57 21.12.2019
6037 Fog 2 988 100 8000 0.25 273 22:39 21.12.2019
6038 Fog 2 988 100 8000 1.5 20 22:18 21.12.2019
6039 Fog 2 988 100 8000 1.5 20 22:18 21.12.2019
6040 Fog 2 988 100 9000 1 0 21:55 21.12.2019
6041 Fog 2 987 100 8000 1.5 20 21:36 21.12.2019
6042 Fog 2 987 100 8000 1.5 20 21:18 21.12.2019
6043 Mist 2 987 100 2000 1.5 30 20:57 21.12.2019
6044 Mist 2 987 100 2000 1.5 30 20:37 21.12.2019
6045 Mist 2 987 100 1200 1 340 20:19 21.12.2019
6046 Mist 2 987 100 1200 1 0 19:55 21.12.2019
6047 Mist 2 987 100 1200 1 0 19:36 21.12.2019
6048 Mist 2 987 100 1300 1.5 360 19:18 21.12.2019
6049 Mist 2 987 100 1600 1.5 360 18:42 21.12.2019
6050 Mist 2 987 100 1200 1.5 30 18:23 21.12.2019
6051 Rain 2 987 100 900 1.5 20 17:56 21.12.2019
6052 Rain 2 987 100 900 1.5 20 17:38 21.12.2019
6053 Fog 2 987 100 900 1 0 17:20 21.12.2019
6054 Rain 2 987 100 1600 1.5 20 16:57 21.12.2019
6055 Rain 2 987 100 1600 1.5 20 16:38 21.12.2019
6056 Rain 2 987 100 3600 1 350 16:18 21.12.2019
6057 Rain 2 986 100 10000 1 10 15:55 21.12.2019
6058 Rain 2 986 100 10000 1 10 15:37 21.12.2019
6059 Mist 2 986 100 5000 2.6 20 15:18 21.12.2019
6060 Mist 2 986 100 5000 2.1 20 14:42 21.12.2019
6061 Clouds 2 986 93 6000 2.1 30 14:23 21.12.2019
6062 Mist 2 986 100 5000 0.5 0 13:58 21.12.2019
6063 Mist 2 986 100 5000 0.5 0 13:39 21.12.2019
6064 Drizzle 2 986 100 6000 1 0 13:19 21.12.2019
6065 Rain 2 986 100 5000 2.1 20 12:56 21.12.2019
6066 Rain 2 986 100 5000 2.1 20 12:38 21.12.2019
6067 Rain 2 986 100 5000 2.1 20 12:38 21.12.2019
6068 Rain 2 986 100 2500 1.5 350 12:20 21.12.2019
6069 Rain 2 986 100 2500 0.5 0 11:48 21.12.2019
6070 Rain 2 986 100 4600 0.5 0 11:27 21.12.2019
6071 Rain 2 986 100 5000 2.1 20 10:59 21.12.2019
6072 Rain 2 986 100 3900 2.6 30 10:40 21.12.2019
6073 Rain 2 986 100 3900 2.6 30 10:21 21.12.2019
6074 Rain 2 986 100 4000 3.1 30 09:58 21.12.2019
6075 Rain 2 986 100 4000 3.1 30 09:39 21.12.2019
6076 Rain 2 986 100 4400 3.1 30 09:19 21.12.2019
6077 Rain 2 986 100 4500 2.6 30 08:51 21.12.2019
6078 Mist 2 986 93 4800 2.6 30 08:27 21.12.2019
6079 Mist 2 986 93 4800 2.6 30 07:58 21.12.2019
6080 Rain 2 986 100 4600 3.1 30 07:39 21.12.2019
6081 Drizzle 2 987 100 4400 2.6 30 07:20 21.12.2019
6082 Drizzle 2 987 100 4000 2.6 30 06:40 21.12.2019
6083 Drizzle 2 987 100 5000 3.1 30 06:22 21.12.2019
6084 Drizzle 2 987 100 5000 3.1 20 05:25 21.12.2019
6085 Drizzle 2 988 100 5000 2.1 20 04:34 21.12.2019
6086 Drizzle 2 988 100 6000 2.6 10 03:56 21.12.2019
6087 Drizzle 2 988 100 6000 3.1 20 02:25 21.12.2019
6088 Drizzle 2 989 100 6000 3.6 30 01:48 21.12.2019
6089 Drizzle 2 990 100 5000 2.6 20 01:25 21.12.2019
6090 Drizzle 2 990 100 5000 3.1 20 00:45 21.12.2019
6091 Drizzle 2 990 100 5000 4.1 30 00:26 21.12.2019
6092 Drizzle 2 991 100 5000 3.6 30 23:39 20.12.2019
6093 Drizzle 2 991 100 5000 3.1 30 23:21 20.12.2019
6094 Drizzle 2 991 99 4300 3.1 20 22:59 20.12.2019
6095 Drizzle 2 991 99 4300 3.1 20 22:59 20.12.2019
6096 Drizzle 2 991 99 4300 3.1 20 22:39 20.12.2019
6097 Drizzle 2 991 100 3500 3.1 30 22:18 20.12.2019
6098 Drizzle 2 991 100 3500 3.1 30 21:41 20.12.2019
6099 Drizzle 2 992 99 2600 3.1 30 21:21 20.12.2019
6100 Drizzle 2 992 99 2500 3.1 40 20:59 20.12.2019
6101 Drizzle 2 992 99 2500 3.1 40 20:38 20.12.2019
6102 Drizzle 2 993 99 2900 0.5 0 20:19 20.12.2019
6103 Drizzle 1 992 99 3000 2.1 20 19:56 20.12.2019
6104 Drizzle 1 992 99 3000 2.1 20 19:38 20.12.2019
6105 Mist 1 992 99 3300 3.1 30 19:18 20.12.2019
6106 Mist 1 993 99 3800 3.6 30 18:41 20.12.2019
6107 Mist 1 993 99 3100 2.6 20 18:23 20.12.2019
6108 Drizzle 1 994 99 3100 2.1 40 17:58 20.12.2019
6109 Drizzle 1 994 99 3100 2.1 40 17:39 20.12.2019
6110 Drizzle 1 994 99 3100 2.1 40 17:20 20.12.2019
6111 Mist 1 995 99 3200 1.5 30 16:57 20.12.2019
6112 Mist 1 995 99 2000 2.1 20 16:38 20.12.2019
6113 Mist 1 995 99 2000 2.1 20 16:19 20.12.2019
6114 Fog 1 995 99 1500 2.6 30 15:55 20.12.2019
6115 Fog 1 995 99 1000 2.6 30 15:37 20.12.2019
6116 Fog 1 995 99 1000 2.6 30 15:37 20.12.2019
6117 Fog 1 995 99 1000 2.6 30 15:18 20.12.2019
6118 Fog 1 996 99 700 2.1 30 14:42 20.12.2019
6119 Fog 1 996 99 550 2.1 20 14:24 20.12.2019
6120 Fog 1 997 99 500 2.6 30 13:57 20.12.2019
6121 Fog 1 997 99 500 2.1 30 13:37 20.12.2019
6122 Fog 1 997 99 500 2.1 30 13:19 20.12.2019
6123 Fog 1 998 99 800 1.5 50 12:56 20.12.2019
6124 Mist 1 998 99 1300 2.1 40 12:36 20.12.2019
6125 Mist 1 998 99 1300 2.1 40 12:18 20.12.2019
6126 Mist 1 998 99 1200 1.5 30 11:57 20.12.2019
6127 Mist 0 998 99 1300 2.1 30 11:38 20.12.2019
6128 Mist 1 998 99 1300 2.1 30 11:38 20.12.2019
6129 Mist 1 998 99 1300 2.1 30 11:18 20.12.2019
6130 Mist 0 999 99 1600 2.1 20 10:56 20.12.2019
6131 Mist 0 999 100 2200 2.1 20 10:37 20.12.2019
6132 Mist 0 999 100 2200 2.1 20 10:19 20.12.2019
6133 Mist 1 1000 100 4400 1.5 20 09:43 20.12.2019
6134 Mist 1 1000 100 4400 1.5 20 09:21 20.12.2019
6135 Mist 0 1000 100 4500 2.1 20 08:57 20.12.2019
6136 Mist 0 1000 100 4500 2.1 30 08:38 20.12.2019
6137 Mist 0 1000 100 4500 2.1 30 08:20 20.12.2019
6138 Mist 0 1000 100 4500 2.1 30 08:20 20.12.2019
6139 Mist 0 1001 100 4200 1.5 30 07:57 20.12.2019
6140 Mist 0 1001 100 4000 2.1 20 07:37 20.12.2019
6141 Mist 0 1001 100 4000 2.1 20 07:18 20.12.2019
6142 Mist 0 1001 100 2800 1.5 20 06:44 20.12.2019
6143 Mist 0 1001 100 2800 1.5 20 06:26 20.12.2019
6144 Mist 0 1002 100 2700 2.1 20 05:47 20.12.2019
6145 Mist 0 1003 100 2600 1.5 30 04:59 20.12.2019
6146 Mist -1 1004 92 5000 1.5 30 03:49 20.12.2019
6147 Mist -1 1004 100 5000 1.5 30 02:55 20.12.2019
6148 Mist -1 1005 92 3800 2.1 30 01:59 20.12.2019
6149 Mist -1 1005 100 3500 2.1 20 01:35 20.12.2019
6150 Mist -1 1005 100 3900 2.1 30 00:55 20.12.2019
6151 Mist -1 1006 100 4600 2.1 40 00:35 20.12.2019
6152 Mist 0 1006 100 5000 2.1 30 23:58 19.12.2019
6153 Mist 0 1006 92 4600 2.1 40 23:40 19.12.2019
6154 Mist 0 1006 92 4600 2.1 40 23:19 19.12.2019
6155 Clouds 0 1007 92 6000 1.5 350 22:40 19.12.2019
6156 Clouds 0 1007 92 6000 1.5 350 22:22 19.12.2019
6157 Clouds 0 1007 100 9000 1.5 350 21:57 19.12.2019
6158 Mist 0 1007 100 9000 2.1 30 21:39 19.12.2019
6159 Mist 0 1007 100 9000 2.1 30 21:19 19.12.2019
6160 Mist 0 1007 100 6000 2.6 30 20:57 19.12.2019
6161 Mist -1 1008 100 7000 2.6 20 20:38 19.12.2019
6162 Mist -1 1008 100 7000 2.6 20 20:20 19.12.2019
6163 Mist -1 1008 100 5000 1.5 360 19:58 19.12.2019
6164 Mist -1 1008 100 3000 1 0 19:40 19.12.2019
6165 Snow -1 1008 92 3500 1.5 330 19:19 19.12.2019
6166 Snow -1 1008 92 3500 1.5 330 19:19 19.12.2019
6167 Snow -1 1008 92 3500 1.5 330 18:58 19.12.2019
6168 Snow -1 1009 92 2000 1.5 360 18:40 19.12.2019
6169 Snow -1 1009 92 2000 1.5 360 18:19 19.12.2019
6170 Snow -1 1009 92 2000 1.5 360 18:19 19.12.2019
6171 Snow -1 1009 92 2000 2.1 360 17:56 19.12.2019
6172 Snow -2 1010 100 2000 2.1 10 17:37 19.12.2019
6173 Snow -2 1010 100 2000 2.1 10 17:18 19.12.2019
6174 Snow -2 1010 100 1500 2.6 30 16:56 19.12.2019
6175 Snow -2 1011 100 1200 1 350 16:37 19.12.2019
6176 Snow -2 1011 100 1200 1 350 16:19 19.12.2019
6177 Snow -2 1011 100 1100 0.5 0 15:57 19.12.2019
6178 Snow -3 1012 92 1100 0.5 0 15:37 19.12.2019
6179 Snow -3 1012 92 1100 0.5 0 15:19 19.12.2019
6180 Snow -3 1012 92 1100 0.5 0 15:19 19.12.2019
6181 Snow -3 1012 100 900 1.5 20 14:44 19.12.2019
6182 Snow -3 1012 100 900 1.5 20 14:20 19.12.2019
6183 Snow -3 1013 92 2000 1 0 13:59 19.12.2019
6184 Snow -3 1014 92 1900 1 0 13:38 19.12.2019
6185 Snow -4 1014 92 1900 1 0 13:20 19.12.2019
6186 Mist -4 1014 92 1900 0.5 0 12:58 19.12.2019
6187 Mist -4 1014 92 1900 0.5 0 12:57 19.12.2019
6188 Fog -4 1015 92 800 0.5 0 12:39 19.12.2019
6189 Fog -4 1015 92 800 0.5 0 12:19 19.12.2019
6190 Mist -5 1015 92 1500 1.57 37 11:58 19.12.2019
6191 Mist -5 1015 92 1800 1.57 37 11:40 19.12.2019
6192 Fog -5 1015 92 3000 1 360 11:18 19.12.2019
6193 Fog -5 1015 92 3000 1 360 11:18 19.12.2019
6194 Fog -5 1015 92 3000 1 360 10:58 19.12.2019
6195 Fog -5 1015 92 3000 1 360 10:58 19.12.2019
6196 Fog -5 1016 92 1700 1.42 22 10:38 19.12.2019
6197 Fog -5 1016 92 1700 1.42 22 10:20 19.12.2019
6198 Fog -6 1015 100 1200 0.5 0 09:56 19.12.2019
6199 Fog -6 1015 100 900 1.42 22 09:37 19.12.2019
6200 Fog -6 1015 100 900 1.42 22 09:18 19.12.2019
6201 Fog -6 1015 92 900 1.42 22 08:55 19.12.2019
6202 Fog -6 1015 92 650 1.42 22 08:36 19.12.2019
6203 Fog -6 1016 92 0 1 320 08:18 19.12.2019
6204 Fog -6 1015 92 700 1 240 07:40 19.12.2019
6205 Fog -6 1015 92 700 1 240 07:22 19.12.2019
6206 Fog -6 1015 92 550 0.91 34 06:54 19.12.2019
6207 Fog -6 1015 92 450 0.91 34 06:36 19.12.2019
6208 Fog -7 1015 92 450 0.91 34 06:18 19.12.2019
6209 Fog -7 1015 92 800 1 0 05:41 19.12.2019
6210 Fog -7 1015 92 800 1 0 05:18 19.12.2019
6211 Fog -8 1015 100 550 1 0 03:51 19.12.2019
6212 Fog -8 1014 92 900 1 0 02:25 19.12.2019
6213 Fog -7 1013 92 600 0.5 0 01:24 19.12.2019
6214 Fog -7 1013 92 450 0.92 12 00:55 19.12.2019
6215 Fog -7 1013 100 550 1 0 00:36 19.12.2019
6216 Fog -7 1013 100 550 1 0 00:18 19.12.2019
6217 Fog -7 1012 100 500 1 0 23:43 18.12.2019
6218 Fog -7 1012 100 500 1 0 23:43 18.12.2019
6219 Fog -6 1012 100 550 0.5 0 23:19 18.12.2019
6220 Fog -6 1012 100 550 0.5 0 22:56 18.12.2019
6221 Fog -6 1011 92 500 1 0 22:38 18.12.2019
6222 Fog -6 1011 92 500 1 0 22:20 18.12.2019
6223 Fog -6 1011 92 600 0.5 0 21:57 18.12.2019
6224 Fog -6 1011 92 500 1 0 21:39 18.12.2019
6225 Fog -6 1011 92 500 1 0 21:20 18.12.2019
6226 Fog -7 1010 92 500 0.5 0 20:55 18.12.2019
6227 Fog -7 1009 92 500 1.5 60 20:37 18.12.2019
6228 Fog -7 1009 92 500 1.5 60 20:37 18.12.2019
6229 Fog -7 1009 92 500 1.5 60 20:37 18.12.2019
6230 Fog -6 1009 92 500 1.5 60 20:19 18.12.2019
6231 Fog -6 1009 92 400 0.5 0 19:56 18.12.2019
6232 Fog -6 1008 100 400 0.5 0 19:37 18.12.2019
6233 Fog -6 1007 100 500 0.5 0 19:18 18.12.2019
6234 Fog -6 1007 100 800 1.5 40 18:45 18.12.2019
6235 Fog -6 1007 100 800 1.5 40 18:25 18.12.2019
6236 Fog -6 1006 92 600 0.81 329 17:58 18.12.2019
6237 Fog -6 1006 92 1500 2.1 20 17:39 18.12.2019
6238 Fog -6 1006 92 1500 2.1 20 17:39 18.12.2019
6239 Fog -6 1006 92 1500 2.1 20 17:20 18.12.2019
6240 Fog -6 1006 92 1500 2.1 20 16:58 18.12.2019
6241 Fog -6 1005 92 2000 1 0 16:40 18.12.2019
6242 Fog -6 1005 92 2000 1 0 16:40 18.12.2019
6243 Fog -6 1005 92 9000 1 0 16:21 18.12.2019
6244 Fog -5 1004 92 9000 1 360 15:56 18.12.2019
6245 Fog -5 1004 92 9000 1 360 15:38 18.12.2019
6246 Fog -5 1004 92 10000 0.5 350 15:20 18.12.2019
6247 Fog -5 1003 92 8000 0.8 321 14:43 18.12.2019
6248 Clouds -5 1003 100 9000 1 0 14:22 18.12.2019
6249 Clouds -5 1002 92 10000 0.68 338 13:58 18.12.2019
6250 Clouds -5 1002 92 10000 0.68 338 13:39 18.12.2019
6251 Fog -5 1002 92 10000 0.5 0 13:21 18.12.2019
6252 Fog -5 1002 92 10000 0.55 317 12:59 18.12.2019
6253 Fog -5 1001 100 10000 1.5 0 12:40 18.12.2019
6254 Fog -5 1001 100 10000 1.5 0 12:21 18.12.2019
6255 Clouds -5 1001 92 10000 1 10 11:57 18.12.2019
6256 Clouds -6 1001 92 10000 1 10 11:39 18.12.2019
6257 Clouds -5 1000 92 10000 1 0 11:20 18.12.2019
6258 Clouds -6 1000 92 10000 0.74 275 10:57 18.12.2019
6259 Clouds -6 1000 92 10000 0.74 275 10:39 18.12.2019
6260 Clouds -6 1000 100 10000 0.74 275 10:20 18.12.2019
6261 Clouds -6 999 92 10000 0.74 275 09:57 18.12.2019
6262 Clouds -6 999 92 10000 0.74 275 09:19 18.12.2019
6263 Clouds -6 998 100 10000 0.5 220 08:42 18.12.2019
6264 Clouds -5 998 92 10000 0.86 313 08:24 18.12.2019
6265 Clouds -5 997 92 10000 1 0 07:56 18.12.2019
6266 Clouds -5 997 92 10000 1 0 07:56 18.12.2019
6267 Clouds -5 997 92 10000 1 310 07:38 18.12.2019
6268 Clouds -5 997 92 10000 1 310 07:19 18.12.2019
6269 Clouds -5 997 92 10000 1.5 330 06:50 18.12.2019
6270 Clouds -5 997 92 10000 2.6 350 06:22 18.12.2019
6271 Clouds -4 997 92 10000 2.1 360 05:30 18.12.2019
6272 Clouds -4 997 92 9000 2.6 360 03:45 18.12.2019
6273 Clouds -4 998 92 10000 3.1 10 02:43 18.12.2019
6274 Clouds -4 997 92 10000 3.6 10 02:25 18.12.2019
6275 Clouds -3 998 92 10000 3.1 10 01:43 18.12.2019
6276 Clouds -3 998 92 10000 3.1 360 01:24 18.12.2019
6277 Clouds -3 999 92 10000 1.5 340 00:42 18.12.2019
6278 Clouds -3 999 92 10000 2.6 360 00:24 18.12.2019
6279 Clouds -3 999 92 10000 2.1 340 23:58 17.12.2019
6280 Clouds -3 999 92 10000 2.1 340 23:39 17.12.2019
6281 Clouds -3 999 92 10000 1.5 350 23:20 17.12.2019
6282 Fog -3 999 92 6000 1.5 340 22:57 17.12.2019
6283 Fog -3 999 92 6000 1.5 340 22:38 17.12.2019
6284 Fog -3 1000 92 9000 1.5 340 22:19 17.12.2019
6285 Mist -3 1000 92 5000 1.5 330 21:57 17.12.2019
6286 Mist -3 1000 92 5000 1.5 330 21:38 17.12.2019
6287 Fog -3 1000 92 10000 1.5 320 21:20 17.12.2019
6288 Clouds -3 1000 92 10000 2.1 330 20:58 17.12.2019
6289 Clouds -3 1000 92 10000 2.1 330 20:39 17.12.2019
6290 Clouds -3 1000 92 8000 1.5 330 20:18 17.12.2019
6291 Fog -3 1000 92 9000 1.5 330 19:56 17.12.2019
6292 Fog -3 1000 92 9000 1.5 330 19:38 17.12.2019
6293 Fog -3 1000 92 9000 1.5 320 19:19 17.12.2019
6294 Mist -3 1000 92 3500 1.5 330 18:56 17.12.2019
6295 Mist -3 1000 92 3500 1.5 330 18:37 17.12.2019
6296 Mist -3 1001 92 5000 2.1 330 18:19 17.12.2019
6297 Fog -3 1001 92 8000 1.5 320 17:42 17.12.2019
6298 Fog -3 1001 92 2500 1.5 340 17:21 17.12.2019
6299 Fog -3 1001 100 2900 2.1 320 16:57 17.12.2019
6300 Fog -3 1001 100 2000 1.5 340 16:38 17.12.2019
6301 Fog -3 1001 100 2000 1.5 340 16:19 17.12.2019
6302 Fog -3 1001 100 2000 2.1 320 15:59 17.12.2019
6303 Fog -3 1001 100 2000 2.1 320 15:38 17.12.2019
6304 Fog -3 1001 100 4000 2.1 320 15:19 17.12.2019
6305 Fog -3 1001 92 2000 1.5 350 14:56 17.12.2019
6306 Fog -3 1001 92 2500 1 0 14:38 17.12.2019
6307 Fog -3 1001 92 2500 1 0 14:19 17.12.2019
6308 Mist -3 1001 100 2000 2.1 320 13:56 17.12.2019
6309 Mist -3 1001 100 2000 2.1 320 13:38 17.12.2019
6310 Mist -3 1001 100 2000 1.5 300 13:19 17.12.2019
6311 Mist -3 1001 100 2000 1.5 300 13:19 17.12.2019
6312 Mist -3 1001 100 3000 1 0 12:56 17.12.2019
6313 Mist -3 1001 100 3000 1 0 12:37 17.12.2019
6314 Mist -3 1001 100 3000 2.1 320 12:18 17.12.2019
6315 Fog -3 1001 100 2000 1.5 0 11:56 17.12.2019
6316 Fog -3 1001 100 2000 1.5 0 11:36 17.12.2019
6317 Mist -3 1001 92 3000 1.5 330 11:18 17.12.2019
6318 Mist -3 1001 92 1600 1.5 330 10:55 17.12.2019
6319 Mist -3 1001 92 1600 1.5 330 10:37 17.12.2019
6320 Fog -3 1001 92 1500 1.5 320 10:18 17.12.2019
6321 Snow -3 1000 92 2000 1.5 320 09:42 17.12.2019
6322 Mist -3 1000 92 4000 2.1 330 09:21 17.12.2019
6323 Snow -3 1000 100 4000 2.1 340 08:58 17.12.2019
6324 Snow -3 1000 92 7000 1.5 350 08:39 17.12.2019
6325 Snow -3 1000 92 7000 1.5 350 08:21 17.12.2019
6326 Snow -3 999 92 4000 2.1 340 07:58 17.12.2019
6327 Snow -3 999 92 4000 2.1 340 07:39 17.12.2019
6328 Mist -3 999 92 4100 2.1 340 07:20 17.12.2019
6329 Fog -3 999 100 6000 2.1 340 06:41 17.12.2019
6330 Fog -3 999 100 6000 2.1 340 06:22 17.12.2019
6331 Clouds -3 998 92 10000 3.1 330 05:40 17.12.2019
6332 Clouds -3 998 100 10000 2.6 340 04:51 17.12.2019
6333 Fog -2 998 92 10000 1.5 340 03:40 17.12.2019
6334 Fog -2 997 100 4000 1.5 310 02:22 17.12.2019
6335 Fog -2 997 92 1000 1.5 340 01:21 17.12.2019
6336 Fog -2 997 100 1000 1.5 360 00:39 17.12.2019
6337 Fog -2 997 100 1000 1.5 350 00:21 17.12.2019
6338 Fog -2 996 100 800 1.5 320 23:43 16.12.2019
6339 Fog -2 996 100 1000 1 0 23:20 16.12.2019
6340 Fog -2 996 100 1000 1 0 22:58 16.12.2019
6341 Fog -2 996 100 1000 1 0 22:38 16.12.2019
6342 Fog -2 996 100 1000 1 0 22:38 16.12.2019
6343 Fog -2 996 92 500 1 0 22:20 16.12.2019
6344 Fog -1 996 100 600 1 320 21:57 16.12.2019
6345 Fog -1 996 100 600 1 320 21:39 16.12.2019
6346 Fog -1 995 100 600 1.5 30 21:20 16.12.2019
6347 Fog -1 995 100 500 1.5 30 20:58 16.12.2019
6348 Fog -1 995 100 500 1.5 30 20:39 16.12.2019
6349 Fog -1 995 100 500 1.5 30 20:39 16.12.2019
6350 Fog -1 995 100 500 1 0 20:19 16.12.2019
6351 Fog -1 995 100 500 1 0 20:19 16.12.2019
6352 Fog -1 995 100 600 1 0 19:56 16.12.2019
6353 Fog -1 995 100 600 1 0 19:37 16.12.2019
6354 Fog -1 995 100 1100 0.5 0 19:19 16.12.2019
6355 Fog -1 995 100 800 0.78 350 18:59 16.12.2019
6356 Fog -1 995 100 800 0.78 350 18:40 16.12.2019
6357 Fog -1 994 100 750 1 0 18:20 16.12.2019
6358 Fog -1 994 100 750 1 0 18:20 16.12.2019
6359 Fog -1 994 100 900 1 0 17:58 16.12.2019
6360 Mist -1 994 100 2000 1 0 17:39 16.12.2019
6361 Mist -1 994 100 2000 1 0 17:21 16.12.2019
6362 Mist -1 994 100 10000 2.1 340 16:57 16.12.2019
6363 Mist -1 994 100 10000 2.1 340 16:39 16.12.2019
6364 Clouds -1 994 92 10000 2.1 240 16:19 16.12.2019
6365 Clouds 0 994 92 10000 2.1 0 15:58 16.12.2019
6366 Clouds 0 994 92 10000 2.1 0 15:38 16.12.2019
6367 Clouds 0 994 92 10000 1 0 15:20 16.12.2019
6368 Clouds 0 994 92 10000 1.5 220 14:57 16.12.2019
6369 Clouds 0 994 92 10000 1.5 220 14:37 16.12.2019
6370 Clouds 0 994 100 10000 1 0 14:37 16.12.2019
6371 Clouds 0 994 100 10000 1 0 14:19 16.12.2019
6372 Clouds 0 994 100 10000 1 0 14:19 16.12.2019
6373 Clouds 0 994 100 10000 1 0 14:19 16.12.2019
6374 Clouds 0 994 100 10000 1 0 14:19 16.12.2019
6375 Clouds 0 994 100 10000 1 0 14:19 16.12.2019
6376 Clouds 0 994 93 10000 2.1 170 13:56 16.12.2019
6377 Clouds 0 994 91 10000 2.1 170 13:37 16.12.2019
6378 Clouds 0 994 100 10000 1.5 200 13:19 16.12.2019
6379 Clouds 0 994 91 10000 3.1 180 12:57 16.12.2019
6380 Clouds 0 994 91 10000 3.1 180 12:39 16.12.2019
6381 Clouds 0 995 91 10000 2.6 190 12:18 16.12.2019
6382 Clouds 0 994 91 10000 2.6 170 11:58 16.12.2019
6383 Clouds -1 995 91 10000 4.6 200 11:40 16.12.2019
6384 Clouds -1 995 94 10000 4.6 200 11:20 16.12.2019
6385 Clouds -1 994 94 10000 3.1 190 10:56 16.12.2019
6386 Clouds -1 994 94 10000 3.1 190 10:37 16.12.2019
6387 Clouds -1 994 94 10000 4.6 190 10:19 16.12.2019
6388 Clouds -1 994 94 10000 4.6 180 09:45 16.12.2019
6389 Clouds -1 993 94 10000 3.1 180 09:26 16.12.2019
6390 Clouds -1 993 100 10000 2.6 160 08:41 16.12.2019
6391 Clouds 0 993 100 10000 3.1 170 08:21 16.12.2019
6392 Clouds 0 993 100 10000 3.1 170 08:21 16.12.2019
6393 Clouds 0 992 100 10000 3.1 180 07:59 16.12.2019
6394 Clouds 0 992 100 10000 3.1 180 07:41 16.12.2019
6395 Clouds 0 992 92 10000 2.6 180 07:20 16.12.2019
6396 Clouds 0 992 100 10000 2.1 180 06:41 16.12.2019
6397 Clouds 0 992 100 10000 3.1 180 06:22 16.12.2019
6398 Clouds -1 992 100 10000 3.1 180 05:47 16.12.2019
6399 Clouds 0 992 100 10000 2.6 180 05:29 16.12.2019
6400 Clouds 0 991 96 10000 3.1 200 03:41 16.12.2019
6401 Clouds 0 990 97 10000 2.6 200 01:58 16.12.2019
6402 Clouds 0 990 97 10000 2.6 200 01:40 16.12.2019
6403 Clouds 0 990 97 10000 2.6 200 01:40 16.12.2019
6404 Clouds 0 989 100 10000 2.1 200 00:42 16.12.2019
6405 Clouds 0 989 96 10000 0.5 0 00:23 16.12.2019
6406 Clouds 0 989 96 10000 1.5 200 23:58 15.12.2019
6407 Clouds 0 988 96 8000 1.5 200 23:38 15.12.2019
6408 Clouds 0 988 96 8000 1.5 200 23:19 15.12.2019
6409 Fog 0 988 96 8000 1.5 200 22:55 15.12.2019
6410 Fog 0 988 96 8000 1.5 200 22:37 15.12.2019
6411 Fog 1 987 96 9000 1.18 246 22:18 15.12.2019
6412 Fog 1 987 96 8000 1.5 210 21:55 15.12.2019
6413 Fog 1 987 96 8000 1.5 210 21:37 15.12.2019
6414 Fog 1 986 96 5000 1 210 21:18 15.12.2019
6415 Fog 1 986 96 10000 1 0 20:55 15.12.2019
6416 Fog 1 986 96 10000 1 0 20:36 15.12.2019
6417 Fog 1 985 100 9000 1 0 20:18 15.12.2019
6418 Fog 1 985 99 9000 1 0 19:55 15.12.2019
6419 Fog 1 985 99 9000 1 0 19:37 15.12.2019
6420 Mist 1 985 99 3900 1.5 290 19:18 15.12.2019
6421 Fog 1 984 99 8000 1.5 280 18:55 15.12.2019
6422 Fog 1 984 99 8000 1.5 280 18:55 15.12.2019
6423 Fog 1 984 98 8000 1.5 280 18:36 15.12.2019
6424 Clouds 1 984 98 8000 1.63 203 18:18 15.12.2019
6425 Clouds 1 984 99 8000 0.5 0 17:55 15.12.2019
6426 Clouds 1 984 99 8000 1 0 17:36 15.12.2019
6427 Clouds 1 984 99 8000 1 0 17:18 15.12.2019
6428 Drizzle 1 983 99 8000 2.1 30 16:42 15.12.2019
6429 Rain 1 983 99 8000 2.1 40 16:23 15.12.2019
6430 Drizzle 1 983 99 9000 2.6 10 15:57 15.12.2019
6431 Drizzle 1 983 99 9000 2.6 10 15:39 15.12.2019
6432 Drizzle 1 984 93 0 1.17 145 15:19 15.12.2019
6433 Snow 1 983 99 5000 2.6 20 14:56 15.12.2019
6434 Snow 2 983 99 5000 2.6 20 14:37 15.12.2019
6435 Mist 2 983 99 3300 2.6 20 14:19 15.12.2019
6436 Snow 2 983 99 4400 2.1 20 13:58 15.12.2019
6437 Snow 2 983 99 4400 2.1 20 13:38 15.12.2019
6438 Clouds 1 983 99 8000 2.1 30 13:19 15.12.2019
6439 Snow 1 983 99 7000 2.6 30 12:57 15.12.2019
6440 Snow 1 983 99 8000 1.5 30 12:39 15.12.2019
6441 Snow 1 983 99 8000 1.5 30 12:21 15.12.2019
6442 Clouds 1 983 99 8000 2.1 40 11:58 15.12.2019
6443 Clouds 1 983 99 8000 2.1 40 11:37 15.12.2019
6444 Snow 1 983 99 4200 3.1 20 11:19 15.12.2019
6445 Snow 1 983 99 4200 3.1 20 11:19 15.12.2019
6446 Snow 1 983 99 8000 2.1 30 10:55 15.12.2019
6447 Snow 1 983 99 8000 2.1 30 10:37 15.12.2019
6448 Clouds 1 983 99 10000 2.1 20 10:19 15.12.2019
6449 Clouds 1 983 99 10000 2.1 60 09:41 15.12.2019
6450 Rain 1 983 100 0 2.6 60 09:20 15.12.2019
6451 Clouds 1 983 99 9000 1.5 40 08:59 15.12.2019
6452 Clouds 1 983 99 9000 1.5 40 08:41 15.12.2019
6453 Clouds 1 983 98 8000 2.1 20 08:22 15.12.2019
6454 Clouds 1 983 98 5000 2.1 30 07:56 15.12.2019
6455 Snow 1 983 98 7000 2.1 40 07:35 15.12.2019
6456 Snow 1 983 98 7000 2.6 40 06:52 15.12.2019
6457 Snow 1 983 98 6000 2.1 30 06:20 15.12.2019
6458 Snow 1 983 98 7000 2.6 30 05:37 15.12.2019
6459 Snow 1 983 99 7000 2.6 30 05:18 15.12.2019
6460 Snow 1 983 99 6000 2.6 30 03:54 15.12.2019
6461 Snow 1 983 99 4600 2.1 30 02:34 15.12.2019
6462 Snow 1 983 99 7000 2.6 20 01:50 15.12.2019
6463 Clouds 1 983 99 8000 2.6 20 01:28 15.12.2019
6464 Clouds 1 983 99 9000 2.1 20 00:59 15.12.2019
6465 Clouds 1 983 99 9000 2.1 20 00:41 15.12.2019
6466 Clouds 1 983 99 8000 2.1 30 00:23 15.12.2019
6467 Clouds 1 983 99 10000 2.1 30 23:40 14.12.2019
6468 Clouds 1 983 99 10000 2.6 30 23:40 14.12.2019
6469 Clouds 1 983 99 10000 2.1 30 23:21 14.12.2019
6470 Rain 1 982 99 10000 1 340 22:58 14.12.2019
6471 Rain 1 982 99 10000 1 340 22:58 14.12.2019
6472 Rain 1 982 99 10000 1 340 22:58 14.12.2019
6473 Rain 1 982 99 10000 1.5 30 22:40 14.12.2019
6474 Rain 1 982 99 10000 1.5 30 22:21 14.12.2019
6475 Snow 1 982 99 10000 1.5 350 21:56 14.12.2019
6476 Snow 1 982 99 10000 1.5 350 21:38 14.12.2019
6477 Snow 1 982 99 9000 2.1 30 21:19 14.12.2019
6478 Snow 1 982 99 9000 2.1 30 21:19 14.12.2019
6479 Snow 1 982 99 10000 2.1 40 20:56 14.12.2019
6480 Clouds 1 982 99 10000 2.1 50 20:38 14.12.2019
6481 Clouds 1 982 99 10000 2.1 50 20:19 14.12.2019
6482 Clouds 1 982 99 10000 2.6 50 19:55 14.12.2019
6483 Clouds 1 982 99 10000 2.6 50 19:36 14.12.2019
6484 Rain 1 982 99 10000 2.1 60 19:18 14.12.2019
6485 Rain 1 982 99 10000 2.6 70 18:55 14.12.2019
6486 Rain 1 982 99 10000 2.6 70 18:36 14.12.2019
6487 Rain 1 982 99 10000 2.1 80 18:18 14.12.2019
6488 Rain 1 982 99 10000 2.6 80 17:42 14.12.2019
6489 Rain 1 982 98 10000 2.6 80 17:22 14.12.2019
6490 Rain 1 982 98 10000 2.6 100 16:55 14.12.2019
6491 Rain 1 982 98 10000 2.6 100 16:37 14.12.2019
6492 Rain 1 982 98 10000 2.6 90 16:18 14.12.2019
6493 Clouds 1 981 98 10000 2.6 0 15:41 14.12.2019
6494 Clouds 1 981 98 10000 3.1 70 15:21 14.12.2019
6495 Snow 1 981 98 7000 2.6 60 14:58 14.12.2019
6496 Clouds 1 981 98 10000 2.6 70 14:38 14.12.2019
6497 Clouds 1 981 98 10000 2.6 70 14:19 14.12.2019
6498 Clouds 1 981 98 10000 2.6 70 13:45 14.12.2019
6499 Snow 1 981 99 5000 2.6 70 13:20 14.12.2019
6500 Snow 1 981 99 10000 3.1 70 12:59 14.12.2019
6501 Snow 1 981 98 3600 3.1 60 12:41 14.12.2019
6502 Snow 1 981 98 3600 3.1 60 12:21 14.12.2019
6503 Snow 1 981 98 3600 3.1 60 12:21 14.12.2019
6504 Snow 1 981 98 3600 3.1 60 12:21 14.12.2019
6505 Snow 1 982 99 1500 2.6 60 11:59 14.12.2019
6506 Snow 1 982 98 1400 2.6 60 11:39 14.12.2019
6507 Snow 1 982 99 1400 2.6 60 11:20 14.12.2019
6508 Snow 1 982 99 2200 2.6 50 10:59 14.12.2019
6509 Snow 1 982 99 2200 2.6 50 10:40 14.12.2019
6510 Snow 1 982 99 2000 2.6 60 10:22 14.12.2019
6511 Snow 1 982 99 3500 2.6 60 09:57 14.12.2019
6512 Snow 1 982 99 3500 2.6 60 09:39 14.12.2019
6513 Snow 1 982 99 5000 2.6 60 09:19 14.12.2019
6514 Snow 1 982 99 8000 2.6 60 08:43 14.12.2019
6515 Clouds 1 982 99 10000 2.1 50 08:20 14.12.2019
6516 Snow 0 982 99 10000 2.6 50 07:44 14.12.2019
6517 Snow 1 982 99 8000 2.6 50 07:24 14.12.2019
6518 Snow 0 982 99 6000 2.6 50 06:57 14.12.2019
6519 Snow 1 982 99 6000 2.6 50 06:38 14.12.2019
6520 Snow 1 982 99 3700 2.6 50 06:18 14.12.2019
6521 Snow 1 983 99 5000 2.6 50 04:48 14.12.2019
6522 Snow 1 985 99 10000 2.6 60 02:41 14.12.2019
6523 Snow 1 985 99 3000 2.6 60 02:19 14.12.2019
6524 Snow 1 985 99 10000 3.1 50 01:37 14.12.2019
6525 Snow 1 986 99 9000 3.1 50 00:49 14.12.2019
6526 Snow 1 986 99 4000 3.1 50 00:28 14.12.2019
6527 Snow 1 987 99 5000 2.6 50 23:57 13.12.2019
6528 Snow 1 987 99 6000 3.1 30 23:37 13.12.2019
6529 Snow 1 987 98 6000 3.1 30 23:18 13.12.2019
6530 Snow 1 987 98 7000 3.1 40 22:41 13.12.2019
6531 Snow 1 988 98 7000 3.6 50 22:19 13.12.2019
6532 Snow 1 988 98 10000 3.6 50 21:56 13.12.2019
6533 Snow 1 988 98 10000 3.1 50 21:38 13.12.2019
6534 Snow 2 988 98 10000 3.1 50 21:20 13.12.2019
6535 Snow 2 989 98 10000 3.1 60 20:43 13.12.2019
6536 Rain 2 989 98 10000 3.6 90 20:24 13.12.2019
6537 Rain 2 989 98 10000 3.6 90 19:59 13.12.2019
6538 Rain 2 989 98 10000 3.6 90 19:41 13.12.2019
6539 Rain 2 989 98 10000 3.6 90 19:41 13.12.2019
6540 Rain 2 989 98 10000 3.6 90 19:23 13.12.2019
6541 Rain 2 989 98 10000 3.1 80 18:59 13.12.2019
6542 Rain 2 989 98 10000 2.1 80 18:41 13.12.2019
6543 Rain 2 989 98 10000 2.1 80 18:19 13.12.2019
6544 Clouds 2 990 98 10000 2.6 80 17:57 13.12.2019
6545 Clouds 2 990 98 10000 2.6 70 17:38 13.12.2019
6546 Clouds 2 990 98 10000 2.6 70 17:18 13.12.2019
6547 Clouds 2 990 98 10000 1.5 70 16:54 13.12.2019
6548 Rain 2 990 98 10000 2.1 100 16:36 13.12.2019
6549 Rain 2 990 98 10000 2.1 100 16:18 13.12.2019
6550 Clouds 2 990 98 10000 2.6 90 15:38 13.12.2019
6551 Clouds 2 990 98 10000 2.6 90 15:20 13.12.2019
6552 Clouds 1 990 98 10000 3.1 100 14:42 13.12.2019
6553 Clouds 2 990 93 10000 3.1 100 14:21 13.12.2019
6554 Rain 2 990 100 10000 3.1 100 13:58 13.12.2019
6555 Clouds 2 990 100 10000 2.1 90 13:40 13.12.2019
6556 Clouds 2 990 100 10000 2.1 90 13:21 13.12.2019
6557 Snow 2 990 100 10000 2.1 110 12:44 13.12.2019
6558 Snow 2 990 100 10000 2.1 110 12:23 13.12.2019
6559 Clouds 2 990 100 10000 2.1 120 11:58 13.12.2019
6560 Clouds 1 990 95 10000 3.1 140 11:40 13.12.2019
6561 Rain 1 990 98 10000 2.6 120 11:22 13.12.2019
6562 Rain 1 990 98 10000 2.6 120 10:56 13.12.2019
6563 Drizzle 1 990 98 10000 2.6 130 10:38 13.12.2019
6564 Drizzle 1 990 98 10000 2.6 130 10:19 13.12.2019
6565 Clouds 1 990 98 10000 3.6 120 09:41 13.12.2019
6566 Clouds 1 990 98 10000 3.6 120 09:20 13.12.2019
6567 Drizzle 1 990 98 10000 3.6 130 09:20 13.12.2019
6568 Drizzle 1 990 98 10000 3.6 130 08:44 13.12.2019
6569 Clouds 1 989 97 10000 2.6 120 08:25 13.12.2019
6570 Clouds 1 989 97 9000 2.1 140 07:47 13.12.2019
6571 Snow 1 989 97 8000 1.5 150 07:24 13.12.2019
6572 Snow 1 989 97 10000 2.6 130 06:55 13.12.2019
6573 Snow 1 989 97 3300 3.6 120 06:29 13.12.2019
6574 Clouds 1 989 97 10000 2.1 130 05:47 13.12.2019
6575 Clouds 1 989 97 10000 1 0 05:28 13.12.2019
6576 Snow 1 989 97 8000 1.5 90 04:46 13.12.2019
6577 Snow 1 989 97 10000 2.6 170 03:48 13.12.2019
6578 Clouds 1 988 97 10000 4.1 170 02:34 13.12.2019
6579 Clouds 1 988 100 10000 4.1 180 01:48 13.12.2019
6580 Clouds 1 988 100 10000 3.6 160 00:57 13.12.2019
6581 Rain 1 988 94 9000 4.6 170 00:37 13.12.2019
6582 Clouds 1 988 94 10000 3.6 170 23:59 12.12.2019
6583 Clouds 1 988 94 10000 4.1 170 23:40 12.12.2019
6584 Clouds 1 988 98 10000 4.1 170 23:22 12.12.2019
6585 Snow 1 988 98 6000 4.1 180 22:56 12.12.2019
6586 Clouds 1 988 98 6000 3.1 180 22:37 12.12.2019
6587 Clouds 1 988 98 6000 3.1 180 22:19 12.12.2019
6588 Clouds 2 988 93 8000 3.6 140 21:55 12.12.2019
6589 Rain 1 988 93 10000 3.6 130 21:37 12.12.2019
6590 Rain 2 988 93 10000 3.6 130 21:37 12.12.2019
6591 Rain 1 988 93 10000 3.6 130 21:18 12.12.2019
6592 Rain 2 988 93 10000 4.1 140 20:56 12.12.2019
6593 Rain 2 988 93 10000 5.1 150 20:38 12.12.2019
6594 Rain 2 988 93 10000 5.1 150 20:20 12.12.2019
6595 Clouds 2 989 93 10000 4.6 130 19:43 12.12.2019
6596 Clouds 2 989 93 10000 4.1 140 19:23 12.12.2019
6597 Clouds 2 989 93 10000 4.6 140 18:58 12.12.2019
6598 Clouds 2 989 93 10000 4.6 140 18:40 12.12.2019
6599 Clouds 2 990 93 10000 5.7 150 18:21 12.12.2019
6600 Clouds 2 990 93 10000 5.7 150 18:21 12.12.2019
6601 Clouds 2 990 93 10000 5.7 150 17:59 12.12.2019
6602 Rain 2 990 93 10000 5.7 140 17:40 12.12.2019
6603 Rain 3 990 93 10000 5.7 140 17:21 12.12.2019
6604 Clouds 3 990 93 10000 5.7 140 16:59 12.12.2019
6605 Clouds 3 990 93 10000 4.1 130 16:41 12.12.2019
6606 Clouds 3 990 93 10000 4.1 130 16:21 12.12.2019
6607 Rain 3 990 100 10000 4.1 130 15:58 12.12.2019
6608 Rain 3 991 93 9000 5.1 170 15:40 12.12.2019
6609 Rain 3 991 93 9000 4.6 140 15:18 12.12.2019
6610 Rain 3 991 93 9000 4.6 140 14:56 12.12.2019
6611 Clouds 3 991 93 10000 3.6 150 14:36 12.12.2019
6612 Clouds 3 991 93 10000 3.6 150 14:36 12.12.2019
6613 Clouds 3 991 93 10000 3.6 150 14:18 12.12.2019
6614 Clouds 3 992 93 10000 4.1 140 13:54 12.12.2019
6615 Rain 3 992 93 10000 4.6 160 13:36 12.12.2019
6616 Rain 3 992 100 10000 5.1 170 13:18 12.12.2019
6617 Rain 3 992 100 9000 4.1 170 12:40 12.12.2019
6618 Rain 3 992 100 9000 4.1 170 12:22 12.12.2019
6619 Rain 3 993 93 6000 4.1 170 11:57 12.12.2019
6620 Clouds 3 993 93 10000 3.6 170 11:38 12.12.2019
6621 Clouds 3 993 93 10000 3.6 170 11:38 12.12.2019
6622 Clouds 3 993 93 10000 3.6 170 11:38 12.12.2019
6623 Clouds 3 993 93 10000 3.6 170 11:20 12.12.2019
6624 Snow 3 993 93 6000 7.2 170 10:57 12.12.2019
6625 Snow 3 993 93 6000 7.2 170 10:57 12.12.2019
6626 Rain 3 993 93 9000 5.1 170 10:39 12.12.2019
6627 Rain 3 993 93 9000 5.1 170 10:21 12.12.2019
6628 Clouds 3 993 93 10000 6.2 170 09:55 12.12.2019
6629 Clouds 3 993 93 10000 6.2 170 09:55 12.12.2019
6630 Drizzle 3 993 100 8000 4.6 170 09:37 12.12.2019
6631 Drizzle 3 993 100 8000 4.6 170 09:19 12.12.2019
6632 Clouds 3 993 93 10000 4.1 160 08:46 12.12.2019
6633 Clouds 3 993 93 10000 5.1 160 08:28 12.12.2019
6634 Clouds 3 993 93 10000 5.1 160 07:50 12.12.2019
6635 Clouds 3 994 93 10000 5.1 160 07:28 12.12.2019
6636 Rain 3 993 93 10000 5.7 160 06:57 12.12.2019
6637 Clouds 3 993 93 10000 5.7 160 06:36 12.12.2019
6638 Clouds 3 993 100 10000 6.2 160 05:49 12.12.2019
6639 Clouds 3 993 93 10000 7.2 160 05:25 12.12.2019
6640 Clouds 3 994 93 10000 7.2 160 04:28 12.12.2019
6641 Clouds 3 995 93 10000 7.7 160 02:41 12.12.2019
6642 Clouds 3 995 93 10000 7.7 160 02:22 12.12.2019
6643 Clouds 3 995 93 10000 7.2 160 01:54 12.12.2019
6644 Clouds 3 995 100 10000 5.7 140 01:35 12.12.2019
6645 Clouds 3 995 93 10000 5.1 160 00:48 12.12.2019
6646 Clouds 3 995 93 10000 5.1 160 00:21 12.12.2019
6647 Clouds 3 995 93 10000 5.1 160 23:54 11.12.2019
6648 Clouds 3 995 93 10000 5.1 180 23:36 11.12.2019
6649 Clouds 3 995 93 10000 5.1 180 23:18 11.12.2019
6650 Clouds 3 995 93 10000 6.2 160 22:55 11.12.2019
6651 Clouds 3 995 93 10000 6.2 170 22:36 11.12.2019
6652 Clouds 3 995 93 10000 6.2 170 22:36 11.12.2019
6653 Clear 3 995 93 10000 7.2 190 22:18 11.12.2019
6654 Clouds 3 995 93 10000 8.2 180 21:39 11.12.2019
6655 Clouds 3 995 93 10000 8.7 180 21:20 11.12.2019
6656 Clouds 3 995 93 10000 8.7 180 20:58 11.12.2019
6657 Clouds 3 995 86 10000 7.7 170 20:40 11.12.2019
6658 Clouds 3 995 86 10000 7.7 170 20:20 11.12.2019
6659 Clouds 3 995 86 10000 6.7 170 19:59 11.12.2019
6660 Clouds 3 995 93 10000 5.1 170 19:40 11.12.2019
6661 Clouds 3 995 93 10000 5.1 170 19:21 11.12.2019
6662 Clouds 3 995 86 10000 4.6 170 18:59 11.12.2019
6663 Clouds 3 995 86 10000 3.1 150 18:39 11.12.2019
6664 Clouds 3 995 86 10000 3.1 150 18:19 11.12.2019
6665 Clouds 3 995 86 10000 1.5 120 17:56 11.12.2019
6666 Clouds 3 995 93 10000 3.6 170 17:37 11.12.2019
6667 Clouds 3 995 93 10000 3.6 170 17:18 11.12.2019
6668 Clouds 3 995 86 10000 3.1 190 16:55 11.12.2019
6669 Clouds 3 995 86 10000 3.1 190 16:37 11.12.2019
6670 Clouds 3 995 86 10000 3.1 190 16:18 11.12.2019
6671 Clouds 3 995 93 10000 4.6 180 15:55 11.12.2019
6672 Clouds 4 995 86 10000 2.1 190 15:36 11.12.2019
6673 Clouds 4 995 93 10000 1 0 15:18 11.12.2019
6674 Clouds 4 995 93 10000 1 0 14:54 11.12.2019
6675 Clouds 4 994 93 10000 1.5 180 14:36 11.12.2019
6676 Clouds 4 994 93 10000 1.5 180 14:18 11.12.2019
6677 Clouds 4 994 93 10000 0.5 0 13:42 11.12.2019
6678 Clouds 4 994 86 10000 2.1 200 13:42 11.12.2019
6679 Clouds 4 994 86 10000 2.1 200 13:21 11.12.2019
6680 Clouds 4 994 86 10000 2.6 170 12:57 11.12.2019
6681 Clouds 4 993 86 10000 5.7 180 12:39 11.12.2019
6682 Clouds 4 993 86 10000 5.7 180 12:21 11.12.2019
6683 Clouds 4 993 86 10000 5.7 180 12:21 11.12.2019
6684 Clouds 4 993 93 10000 5.1 170 11:58 11.12.2019
6685 Clouds 4 993 93 10000 6.2 160 11:39 11.12.2019
6686 Clouds 4 992 86 10000 5.7 170 11:19 11.12.2019
6687 Clouds 4 992 86 10000 5.7 170 11:19 11.12.2019
6688 Clouds 4 992 86 10000 5.7 170 10:57 11.12.2019
6689 Clouds 4 992 93 10000 4.1 150 10:39 11.12.2019
6690 Clouds 4 992 93 10000 4.1 150 10:20 11.12.2019
6691 Clouds 4 990 93 10000 4.6 200 09:44 11.12.2019
6692 Clouds 4 990 93 10000 4.6 200 09:44 11.12.2019
6693 Clouds 4 990 93 10000 4.6 200 09:21 11.12.2019
6694 Clouds 4 989 93 10000 6.2 190 08:58 11.12.2019
6695 Clouds 4 988 93 10000 4.6 190 08:40 11.12.2019
6696 Clouds 5 988 93 10000 4.6 190 08:20 11.12.2019
6697 Clouds 5 988 93 10000 6.2 210 07:59 11.12.2019
6698 Rain 5 987 100 10000 6.2 190 07:41 11.12.2019
6699 Rain 6 987 100 10000 6.2 190 07:22 11.12.2019
6700 Rain 6 987 100 6000 7.2 160 06:45 11.12.2019
6701 Rain 6 987 100 6000 7.2 160 06:23 11.12.2019
6702 Rain 6 987 100 8000 6.2 150 05:52 11.12.2019
6703 Rain 6 989 93 0 12.3 180 05:27 11.12.2019
6704 Snow 5 988 93 5000 6.2 150 04:47 11.12.2019
6705 Clouds 3 990 93 7000 8.7 160 02:50 11.12.2019
6706 Snow 3 992 95 7000 8.7 150 01:56 11.12.2019
6707 Snow 3 993 94 6000 8.7 160 01:21 11.12.2019
6708 Snow 3 994 94 9000 9.3 160 00:37 11.12.2019
6709 Snow 3 994 94 9000 9.3 160 00:18 11.12.2019
6710 Snow 2 995 94 6000 9.3 160 23:43 10.12.2019
6711 Snow 2 996 96 5000 9.3 160 23:22 10.12.2019
6712 Snow 2 997 96 6000 9.3 160 22:42 10.12.2019
6713 Snow 3 998 96 6000 9.8 160 22:24 10.12.2019
6714 Snow 3 998 96 6000 9.8 160 22:24 10.12.2019
6715 Snow 3 998 96 3300 7.2 160 21:58 10.12.2019
6716 Snow 2 999 96 2600 7.7 160 21:39 10.12.2019
6717 Snow 2 999 96 2600 7.7 160 21:21 10.12.2019
6718 Snow 2 1000 96 2800 8.2 150 20:59 10.12.2019
6719 Clouds 2 1003 75 10000 10.3 170 20:38 10.12.2019
6720 Clouds 2 1003 75 10000 10.3 170 20:38 10.12.2019
6721 Clouds 2 1003 75 10000 10.3 170 20:19 10.12.2019
6722 Clouds 2 1003 75 10000 10.3 170 20:19 10.12.2019
6723 Clouds 2 1003 75 10000 10.3 170 20:19 10.12.2019
6724 Snow 2 1001 100 8000 4.6 170 20:19 10.12.2019
6725 Clouds 2 1004 75 10000 8.2 170 19:56 10.12.2019
6726 Clouds 1 1005 91 10000 9.3 170 19:38 10.12.2019
6727 Clouds 1 1005 91 10000 9.3 170 19:20 10.12.2019
6728 Clouds 1 1006 91 10000 7.7 170 18:56 10.12.2019
6729 Clouds 1 1007 80 10000 6.7 160 18:38 10.12.2019
6730 Clouds 0 1007 80 10000 6.7 160 18:18 10.12.2019
6731 Clouds -1 1008 80 10000 4.6 130 17:42 10.12.2019
6732 Clouds -2 1008 80 10000 4.6 130 17:23 10.12.2019
6733 Clouds -2 1008 92 10000 0.5 0 16:58 10.12.2019
6734 Rain -3 1008 92 10000 3.43 199 16:39 10.12.2019
6735 Rain -2 1008 92 10000 3.43 199 16:19 10.12.2019
6736 Clouds -2 1011 74 10000 4.6 150 15:39 10.12.2019
6737 Clouds -3 1010 85 10000 1 0 15:19 10.12.2019
6738 Clouds -4 1010 85 10000 1 0 14:57 10.12.2019
6739 Clouds -4 1011 85 10000 0.5 0 14:38 10.12.2019
6740 Clouds -4 1011 85 10000 0.5 0 14:20 10.12.2019
6741 Clouds -4 1011 85 10000 1 0 13:58 10.12.2019
6742 Clouds -4 1011 92 10000 1 0 13:40 10.12.2019
6743 Clouds -5 1011 92 10000 1 0 13:20 10.12.2019
6744 Clouds -5 1011 92 10000 1 0 13:20 10.12.2019
6745 Clouds -5 1012 85 10000 0.76 87 12:49 10.12.2019
6746 Clouds -5 1012 85 10000 0.5 0 12:28 10.12.2019
6747 Clouds -5 1012 85 10000 1.5 10 11:59 10.12.2019
6748 Clouds -5 1012 85 10000 1.5 10 11:40 10.12.2019
6749 Clouds -7 1012 85 10000